# Wetter Temperatur Luftdruck Luftfeuchtigkeit Sichtweite Windgeschwindigkeit Windrichtung Zeit
1 Clouds 28 1014 59 10000 3.09 170 10:40 14.08.2022
2 Clouds 28 1015 59 10000 2.06 160 08:50 14.08.2022
3 Clouds 29 1015 55 10000 3.09 220 06:21 14.08.2022
4 Clouds 31 1014 49 10000 4.12 180 02:48 14.08.2022
5 Clouds 31 1018 50 10000 0 0 23:53 13.08.2022
6 Clouds 30 1019 54 10000 2.06 30 22:52 13.08.2022
7 Clouds 29 1014 63 10000 1.03 51 20:58 13.08.2022
8 Clouds 28 1018 61 10000 2.06 350 20:31 13.08.2022
9 Clouds 28 1018 65 10000 2.57 70 19:29 13.08.2022
10 Clouds 26 1017 71 10000 2.06 210 17:40 13.08.2022
11 Clouds 26 1016 74 10000 4.12 60 15:23 13.08.2022
12 Clouds 26 1016 73 10000 4.12 40 14:26 13.08.2022
13 Clouds 26 1015 73 10000 5.14 40 13:38 13.08.2022
14 Clouds 26 1015 70 10000 2.06 80 11:52 13.08.2022
15 Clouds 26 1012 72 10000 0.3 172 09:58 13.08.2022
16 Clouds 27 1015 68 10000 3.09 80 08:23 13.08.2022
17 Clouds 28 1014 59 10000 3.09 150 04:21 13.08.2022
18 Clouds 35 1014 35 10000 7.72 30 23:47 12.08.2022
19 Clouds 35 1015 35 10000 2.57 40 21:42 12.08.2022
20 Clouds 34 1015 38 10000 2.06 50 20:51 12.08.2022
21 Clouds 33 1016 40 10000 2.57 120 19:39 12.08.2022
22 Clouds 32 1016 43 10000 4.12 50 18:46 12.08.2022
23 Clouds 27 1016 57 10000 2.06 180 16:37 12.08.2022
24 Clouds 27 1016 57 10000 4.63 70 15:40 12.08.2022
25 Clouds 27 1015 52 10000 3.09 30 14:27 12.08.2022
26 Clouds 27 1015 54 10000 2.24 220 12:53 12.08.2022
27 Clouds 28 1016 52 10000 2.57 130 09:52 12.08.2022
28 Rain 30 1016 43 10000 9.77 350 07:47 12.08.2022
29 Thunderstorm 33 1015 35 10000 7.2 170 06:31 12.08.2022
30 Clouds 37 1014 26 10000 3.09 170 02:22 12.08.2022
31 Clouds 37 1014 31 10000 2.24 182 00:23 12.08.2022
32 Clouds 37 1015 32 10000 3.09 240 23:34 11.08.2022
33 Clouds 36 1014 35 10000 1.68 120 21:58 11.08.2022
34 Clouds 35 1018 35 10000 5.66 130 21:35 11.08.2022
35 Clouds 34 1018 38 10000 2.68 0 20:32 11.08.2022
36 Clear 34 1013 42 10000 1.79 96 19:57 11.08.2022
37 Clouds 33 1017 41 10000 2.57 110 19:32 11.08.2022
38 Clouds 30 1017 48 10000 1.54 360 17:47 11.08.2022
39 Clear 28 1015 53 10000 0.97 38 16:32 11.08.2022
40 Clouds 27 1017 56 10000 2.57 210 15:20 11.08.2022
41 Clouds 27 1016 54 10000 5.66 30 12:41 11.08.2022
42 Clouds 29 1016 49 10000 0 0 09:54 11.08.2022
43 Clouds 30 1012 47 10000 2.24 148 06:59 11.08.2022
44 Clouds 35 1016 32 10000 3.6 90 03:45 11.08.2022
45 Clouds 33 1015 39 10000 7.2 160 00:35 11.08.2022
46 Thunderstorm 34 1016 40 10000 5.66 100 22:21 10.08.2022
47 Clouds 34 1017 39 10000 3.6 70 21:20 10.08.2022
48 Clouds 34 1018 41 10000 2.57 70 20:43 10.08.2022
49 Clouds 34 1018 41 10000 2.57 70 20:43 10.08.2022
50 Clouds 31 1017 50 10000 4.63 50 18:55 10.08.2022
51 Clouds 29 1017 54 10000 4.63 60 17:31 10.08.2022
52 Clouds 27 1017 65 10000 4.12 70 15:53 10.08.2022
53 Clouds 27 1015 63 10000 1.54 190 13:34 10.08.2022
54 Clouds 28 1015 63 10000 1.54 80 12:24 10.08.2022
55 Clouds 29 1014 54 10000 3.09 150 08:55 10.08.2022
56 Clouds 29 1014 54 10000 3.09 150 08:31 10.08.2022
57 Clouds 29 1013 49 10000 4.63 180 06:22 10.08.2022
58 Clear 34 1011 37 10000 9.26 200 02:45 10.08.2022
59 Clouds 36 1014 32 10000 7.2 80 23:34 09.08.2022
60 Clouds 35 1015 33 10000 7.72 90 22:55 09.08.2022
61 Clouds 36 1016 30 10000 6.26 90 21:34 09.08.2022
62 Clouds 34 1016 33 10000 2.57 230 19:34 09.08.2022
63 Clouds 32 1016 36 10000 4.63 120 18:23 09.08.2022
64 Clouds 32 1016 38 10000 4.63 160 17:26 09.08.2022
65 Clouds 31 1015 39 10000 5.66 130 16:40 09.08.2022
66 Clouds 30 1015 39 10000 4.63 100 15:40 09.08.2022
67 Clouds 32 1014 37 10000 3.6 170 12:25 09.08.2022
68 Clouds 33 1014 36 10000 3.6 250 09:22 09.08.2022
69 Clouds 34 1014 34 10000 5.66 170 08:26 09.08.2022
70 Clouds 34 1014 33 10000 8.75 120 07:18 09.08.2022
71 Clouds 38 1011 23 10000 7.2 200 03:32 09.08.2022
72 Clouds 38 1013 23 10000 3.6 320 23:27 08.08.2022
73 Clouds 38 1015 24 10000 3.6 260 22:53 08.08.2022
74 Clouds 37 1015 25 10000 3.6 240 21:49 08.08.2022
75 Clouds 36 1016 27 10000 2.57 130 20:52 08.08.2022
76 Clouds 35 1016 31 10000 3.09 90 19:50 08.08.2022
77 Clouds 34 1016 34 10000 3.09 90 18:35 08.08.2022
78 Clouds 31 1016 37 10000 3.6 340 16:34 08.08.2022
79 Clouds 30 1015 38 10000 3.6 60 15:38 08.08.2022
80 Clouds 31 1014 32 10000 3.6 200 12:50 08.08.2022
81 Clouds 32 1014 30 10000 2.57 180 11:48 08.08.2022
82 Clouds 34 1014 26 10000 3.6 170 09:29 08.08.2022
83 Clouds 37 1013 20 10000 3.09 200 05:37 08.08.2022
84 Clouds 39 1012 17 10000 3.6 280 02:24 08.08.2022
85 Clouds 38 1016 20 10000 5.14 130 22:20 07.08.2022
86 Clouds 37 1016 21 10000 4.63 100 21:38 07.08.2022
87 Clouds 36 1017 24 10000 4.63 50 20:25 07.08.2022
88 Clouds 35 1017 27 10000 3.09 70 19:54 07.08.2022
89 Clouds 34 1017 28 10000 3.09 70 19:29 07.08.2022
90 Clouds 33 1017 30 10000 3.09 90 18:21 07.08.2022
91 Clouds 30 1017 35 10000 4.63 50 16:53 07.08.2022
92 Clouds 29 1016 36 10000 3.09 70 15:54 07.08.2022
93 Clouds 29 1015 34 10000 5.66 30 14:39 07.08.2022
94 Clear 30 1010 32 10000 2.22 350 12:59 07.08.2022
95 Clouds 32 1014 30 10000 4.12 50 10:57 07.08.2022
96 Clouds 32 1014 29 10000 4.12 50 10:21 07.08.2022
97 Clouds 37 1011 23 10000 4.12 80 04:42 07.08.2022
98 Clouds 39 1012 21 10000 4.12 300 02:37 07.08.2022
99 Clouds 37 1014 25 10000 2.24 0 23:29 06.08.2022
100 Clouds 36 1015 27 10000 3.6 130 22:20 06.08.2022
101 Clouds 35 1016 32 10000 2.57 360 20:20 06.08.2022
102 Clouds 34 1016 34 10000 5.14 350 19:38 06.08.2022
103 Clouds 32 1016 39 10000 7.72 310 18:19 06.08.2022
104 Clouds 28 1015 52 10000 5.14 320 16:33 06.08.2022
105 Clouds 27 1014 54 10000 3.6 310 13:52 06.08.2022
106 Clear 27 1014 53 10000 4.63 210 12:50 06.08.2022
107 Clear 28 1014 53 10000 3.6 310 11:21 06.08.2022
108 Clear 29 1014 51 10000 3.6 180 09:49 06.08.2022
109 Clear 30 1014 45 10000 3.09 230 07:36 06.08.2022
110 Clouds 35 1013 31 10000 9.26 240 02:22 06.08.2022
111 Clouds 33 1015 38 10000 8.75 180 22:40 05.08.2022
112 Clouds 32 1015 43 10000 7.2 210 21:36 05.08.2022
113 Clouds 28 1016 57 10000 6.17 190 19:22 05.08.2022
114 Clouds 26 1016 72 10000 6.17 190 18:44 05.08.2022
115 Clouds 27 1016 63 10000 3.09 200 16:55 05.08.2022
116 Clouds 27 1015 66 10000 3.09 200 16:37 05.08.2022
117 Clouds 26 1015 67 10000 2.57 80 15:19 05.08.2022
118 Clouds 26 1014 66 10000 3.09 40 13:39 05.08.2022
119 Clouds 26 1014 65 10000 3.09 40 13:20 05.08.2022
120 Clouds 26 1014 64 10000 4.12 30 12:23 05.08.2022
121 Clouds 27 1015 61 10000 4.12 210 10:25 05.08.2022
122 Clouds 28 1012 54 10000 2.48 113 07:58 05.08.2022
123 Clouds 28 1012 54 10000 2.48 113 07:58 05.08.2022
124 Clouds 29 1012 49 10000 8.75 210 05:25 05.08.2022
125 Clouds 33 1011 35 10000 10.8 200 23:51 04.08.2022
126 Clouds 33 1007 36 10000 4.47 167 21:58 04.08.2022
127 Clouds 32 1013 37 10000 11.32 170 21:25 04.08.2022
128 Clouds 31 1013 41 10000 10.29 190 20:41 04.08.2022
129 Clouds 32 1012 36 10000 6.69 170 19:21 04.08.2022
130 Clouds 33 1012 35 10000 7.2 210 18:34 04.08.2022
131 Clouds 32 1011 38 10000 3.09 150 17:28 04.08.2022
132 Clouds 32 1011 34 10000 4.12 210 13:35 04.08.2022
133 Clouds 33 1011 32 10000 6.17 210 11:46 04.08.2022
134 Clouds 34 1011 30 10000 3.09 220 10:48 04.08.2022
135 Clouds 35 1011 28 10000 3.09 210 07:51 04.08.2022
136 Clouds 39 1010 23 10000 6.17 180 04:28 04.08.2022
137 Clouds 40 1006 23 10000 1.89 147 01:58 04.08.2022
138 Clouds 40 1010 23 10000 3.09 210 23:42 03.08.2022
139 Clouds 38 1013 26 10000 2.57 90 21:39 03.08.2022
140 Clouds 37 1014 29 10000 3.6 50 20:22 03.08.2022
141 Clouds 34 1014 32 10000 3.09 50 19:28 03.08.2022
142 Clouds 31 1014 39 10000 5.14 210 17:41 03.08.2022
143 Clouds 30 1014 42 10000 5.14 210 16:24 03.08.2022
144 Clouds 30 1013 40 10000 5.66 220 14:43 03.08.2022
145 Clouds 31 1013 37 10000 4.12 210 11:53 03.08.2022
146 Clouds 33 1011 33 10000 3.09 190 08:20 03.08.2022
147 Clouds 37 1012 28 10000 3.09 220 04:46 03.08.2022
148 Clouds 38 1012 25 10000 5.14 240 03:27 03.08.2022
149 Clouds 38 1011 26 10000 2.57 170 01:18 03.08.2022
150 Clouds 38 1011 26 10000 2.57 170 01:18 03.08.2022
151 Clouds 37 1010 32 10000 1.3 212 22:59 02.08.2022
152 Clouds 37 1014 31 10000 2.57 50 21:53 02.08.2022
153 Clouds 36 1010 36 10000 1.79 198 20:58 02.08.2022
154 Clouds 33 1015 40 10000 4.12 320 18:48 02.08.2022
155 Clouds 29 1015 56 10000 3.6 210 16:22 02.08.2022
156 Clouds 28 1015 53 10000 5.14 220 12:34 02.08.2022
157 Clouds 30 1015 49 10000 5.14 200 09:34 02.08.2022
158 Clouds 31 1015 46 10000 7.2 210 07:54 02.08.2022
159 Clouds 31 1013 46 10000 5.14 180 06:43 02.08.2022
160 Clouds 32 1013 41 10000 4.63 170 04:55 02.08.2022
161 Thunderstorm 36 1014 34 10000 9.26 150 23:51 01.08.2022
162 Clouds 34 1016 40 10000 4.12 150 22:25 01.08.2022
163 Clouds 33 1017 45 10000 4.12 110 20:52 01.08.2022
164 Clouds 31 1017 50 10000 2.24 108 19:32 01.08.2022
165 Clouds 30 1018 55 10000 2.06 150 18:40 01.08.2022
166 Clouds 27 1016 67 10000 2.06 190 16:53 01.08.2022
167 Clouds 26 1017 73 10000 3.09 210 15:52 01.08.2022
168 Clouds 25 1016 75 10000 1.54 40 15:30 01.08.2022
169 Clouds 25 1018 72 10000 3.09 200 14:43 01.08.2022
170 Clouds 26 1016 68 10000 4.12 210 12:47 01.08.2022
171 Clouds 28 1016 61 10000 3.6 210 09:43 01.08.2022
172 Clouds 27 1016 59 10000 2.57 200 08:30 01.08.2022
173 Clouds 30 1012 60 10000 1.48 269 04:56 01.08.2022
174 Clouds 29 1016 52 10000 5.14 180 03:49 01.08.2022
175 Rain 27 1018 67 10000 6.69 190 00:36 01.08.2022
176 Clouds 29 1018 61 10000 8.23 210 22:40 31.07.2022
177 Clear 31 1018 55 10000 3.6 120 21:29 31.07.2022
178 Clouds 32 1018 48 10000 4.12 130 19:53 31.07.2022
179 Clouds 31 1017 57 10000 4.12 50 17:57 31.07.2022
180 Clouds 29 1017 56 10000 3.6 50 15:39 31.07.2022
181 Clouds 29 1016 54 10000 2.57 100 13:44 31.07.2022
182 Clouds 29 1013 58 10000 2.54 72 11:59 31.07.2022
183 Clear 31 1017 51 10000 2.06 160 09:55 31.07.2022
184 Clouds 31 1013 51 10000 2.64 103 07:59 31.07.2022
185 Clouds 35 1010 35 10000 2.24 100 02:58 31.07.2022
186 Clear 34 1015 36 10000 3.6 100 23:40 30.07.2022
187 Clouds 32 1016 40 10000 4.63 50 22:19 30.07.2022
188 Clouds 32 1016 43 10000 2.57 0 21:49 30.07.2022
189 Clouds 32 1013 47 10000 2.57 90 20:57 30.07.2022
190 Clouds 32 1013 47 10000 2.57 90 20:57 30.07.2022
191 Clouds 32 1012 48 10000 0.89 39 19:59 30.07.2022
192 Clouds 29 1016 56 10000 3.09 90 18:53 30.07.2022
193 Clouds 28 1016 62 10000 2.06 130 17:44 30.07.2022
194 Clouds 25 1015 78 10000 2.57 80 15:54 30.07.2022
195 Clouds 25 1015 77 10000 2.57 80 15:24 30.07.2022
196 Clouds 25 1014 78 10000 4.12 50 13:18 30.07.2022
197 Clouds 26 1014 75 10000 3.09 220 12:19 30.07.2022
198 Clouds 26 1015 72 10000 3.09 90 10:31 30.07.2022
199 Clouds 26 1015 72 10000 3.09 90 10:31 30.07.2022
200 Clouds 26 1015 72 10000 3.09 90 10:31 30.07.2022
201 Clouds 26 1015 72 10000 3.09 90 10:31 30.07.2022
202 Clouds 26 1014 71 10000 2.57 180 09:54 30.07.2022
203 Thunderstorm 26 1015 71 10000 3.6 140 07:55 30.07.2022
204 Clear 36 1007 34 10000 4.12 150 02:57 30.07.2022
205 Clouds 37 1010 32 10000 4.12 150 02:24 30.07.2022
206 Clouds 34 1013 41 10000 3.6 110 22:41 29.07.2022
207 Clouds 32 1014 45 10000 4.12 140 21:24 29.07.2022
208 Clouds 31 1014 47 10000 1.34 88 20:35 29.07.2022
209 Clouds 28 1015 61 10000 2.57 360 18:18 29.07.2022
210 Clouds 24 1015 72 10000 2.57 50 15:35 29.07.2022
211 Clouds 25 1014 65 10000 3.09 340 13:19 29.07.2022
212 Clouds 25 1014 68 10000 6.17 90 11:22 29.07.2022
213 Thunderstorm 24 1014 66 10000 6.69 270 08:50 29.07.2022
214 Thunderstorm 27 1013 58 8047 10.8 130 07:54 29.07.2022
215 Clear 37 1005 32 10000 1.79 153 01:58 29.07.2022
216 Clouds 35 1011 36 10000 3.6 70 22:53 28.07.2022
217 Clouds 34 1012 39 10000 3.6 120 21:28 28.07.2022
218 Clear 33 1012 44 10000 2.06 110 20:32 28.07.2022
219 Clouds 31 1015 45 10000 2.06 0 19:43 28.07.2022
220 Clouds 31 1015 45 10000 2.06 0 19:23 28.07.2022
221 Clouds 28 1014 60 10000 1.54 180 17:44 28.07.2022
222 Clouds 27 1015 61 10000 1.54 270 16:55 28.07.2022
223 Clouds 27 1015 62 10000 1.54 270 16:28 28.07.2022
224 Clouds 25 1014 76 10000 3.6 110 13:30 28.07.2022
225 Clouds 25 1014 73 10000 3.6 120 11:27 28.07.2022
226 Thunderstorm 26 1016 63 10000 4.12 20 06:45 28.07.2022
227 Dust 28 1015 52 6437 19.03 20 05:31 28.07.2022
228 Thunderstorm 36 1010 34 10000 8.75 190 01:23 28.07.2022
229 Clouds 37 1012 31 10000 2.06 80 22:45 27.07.2022
230 Clouds 36 1014 32 10000 4.12 70 21:29 27.07.2022
231 Clouds 33 1014 41 10000 3.6 100 19:44 27.07.2022
232 Clear 32 1013 46 10000 1.79 126 18:39 27.07.2022
233 Clouds 28 1013 58 10000 4.63 210 15:52 27.07.2022
234 Clouds 27 1013 59 10000 4.63 210 15:20 27.07.2022
235 Clouds 27 1013 59 10000 3.09 210 14:40 27.07.2022
236 Clouds 28 1012 55 10000 4.63 60 12:50 27.07.2022
237 Clouds 31 1012 46 10000 4.12 200 08:44 27.07.2022
238 Clouds 31 1012 44 10000 5.66 180 07:24 27.07.2022
239 Clouds 33 1012 38 10000 7.2 210 02:42 27.07.2022
240 Clouds 33 1013 41 10000 1.54 220 22:29 26.07.2022
241 Clouds 33 1014 43 10000 3.6 240 21:21 26.07.2022
242 Clouds 32 1016 43 10000 3.09 120 20:31 26.07.2022
243 Clouds 30 1014 54 10000 2.06 0 18:44 26.07.2022
244 Clouds 29 1011 63 10000 0.89 153 17:59 26.07.2022
245 Clouds 26 1014 70 10000 2.06 140 16:31 26.07.2022
246 Clouds 26 1014 75 10000 5.14 80 15:30 26.07.2022
247 Clouds 26 1013 74 10000 4.63 50 13:46 26.07.2022
248 Clouds 27 1012 67 10000 4.63 170 11:38 26.07.2022
249 Clouds 27 1013 66 10000 1.54 60 09:32 26.07.2022
250 Clouds 26 1014 69 10000 4.12 70 06:26 26.07.2022
251 Thunderstorm 28 1015 62 10000 7.2 70 00:44 26.07.2022
252 Thunderstorm 28 1014 56 10000 14.4 50 23:33 25.07.2022
253 Thunderstorm 34 1014 35 10000 10.8 220 22:26 25.07.2022
254 Clouds 34 1015 34 10000 5.66 340 21:43 25.07.2022
255 Clouds 34 1015 36 10000 4.12 310 20:42 25.07.2022
256 Clouds 33 1015 38 10000 6.17 360 19:50 25.07.2022
257 Clouds 32 1015 42 10000 4.63 50 18:21 25.07.2022
258 Clouds 31 1015 42 10000 6.17 50 17:27 25.07.2022
259 Clouds 31 1013 43 10000 4.63 160 15:20 25.07.2022
260 Clouds 32 1012 38 10000 5.14 170 12:22 25.07.2022
261 Clouds 33 1012 32 10000 6.17 170 10:32 25.07.2022
262 Clouds 36 1008 29 10000 8.23 150 06:32 25.07.2022
263 Clouds 40 1011 18 10000 7.72 170 23:55 24.07.2022
264 Clouds 40 1011 17 10000 7.72 140 23:18 24.07.2022
265 Clouds 40 1012 18 10000 9.77 140 22:34 24.07.2022
266 Clouds 39 1012 21 10000 9.26 150 21:25 24.07.2022
267 Clouds 38 1013 24 10000 5.14 100 20:51 24.07.2022
268 Clouds 38 1013 24 10000 5.14 100 20:26 24.07.2022
269 Clouds 35 1013 28 10000 4.12 90 18:48 24.07.2022
270 Clouds 31 1012 34 10000 4.12 170 16:32 24.07.2022
271 Clouds 31 1012 33 10000 3.6 180 15:50 24.07.2022
272 Clouds 31 1011 32 10000 4.63 200 14:38 24.07.2022
273 Clouds 31 1011 34 10000 3.6 170 12:55 24.07.2022
274 Clouds 32 1011 32 10000 2.57 170 11:40 24.07.2022
275 Clouds 32 1011 32 10000 2.57 170 11:18 24.07.2022
276 Clouds 33 1010 30 10000 1.54 190 08:56 24.07.2022
277 Clouds 34 1011 27 10000 4.12 180 07:52 24.07.2022
278 Clouds 35 1010 26 10000 2.57 170 06:27 24.07.2022
279 Clouds 38 1010 17 10000 6.17 200 01:50 24.07.2022
280 Clouds 39 1010 16 10000 8.23 160 22:25 23.07.2022
281 Clouds 36 1011 17 10000 14.4 170 20:31 23.07.2022
282 Clouds 36 1009 15 10000 6.17 190 18:51 23.07.2022
283 Clouds 35 1009 16 10000 7.72 180 17:41 23.07.2022
284 Clouds 35 1009 15 10000 7.72 180 17:23 23.07.2022
285 Clouds 32 1009 14 10000 5.14 200 15:42 23.07.2022
286 Clouds 32 1006 18 10000 1.87 216 14:59 23.07.2022
287 Clouds 33 1009 14 10000 6.69 210 14:35 23.07.2022
288 Clouds 32 1007 17 10000 6.17 200 13:50 23.07.2022
289 Clouds 34 1006 16 10000 5.14 190 11:19 23.07.2022
290 Clouds 35 1006 15 10000 5.14 190 10:23 23.07.2022
291 Clouds 36 1006 14 10000 4.12 190 08:55 23.07.2022
292 Clouds 42 1004 12 10000 6.17 220 03:40 23.07.2022
293 Clouds 43 1000 12 10000 2.68 236 01:58 23.07.2022
294 Clouds 44 1007 11 10000 5.66 240 23:19 22.07.2022
295 Clear 41 1005 13 10000 2.24 107 20:57 22.07.2022
296 Clouds 39 1009 14 10000 3.6 260 19:47 22.07.2022
297 Clouds 37 1005 18 10000 1.39 156 18:29 22.07.2022
298 Clouds 33 1010 19 10000 5.66 210 17:28 22.07.2022
299 Clouds 31 1008 21 10000 3.09 190 14:57 22.07.2022
300 Clouds 33 1007 18 10000 4.63 180 11:49 22.07.2022
301 Clouds 36 1007 17 10000 4.63 200 09:27 22.07.2022
302 Clouds 37 1007 16 10000 6.69 180 08:43 22.07.2022
303 Clouds 38 1007 15 10000 6.17 180 07:20 22.07.2022
304 Clouds 42 1001 12 10000 3.13 219 03:59 22.07.2022
305 Clouds 43 1009 11 10000 5.14 280 22:53 21.07.2022
306 Clouds 42 1011 12 10000 2.06 0 21:34 21.07.2022
307 Clouds 39 1012 15 10000 1.54 0 19:30 21.07.2022
308 Clouds 35 1012 20 10000 6.17 200 17:45 21.07.2022
309 Clouds 35 1012 20 10000 6.17 200 17:19 21.07.2022
310 Clouds 33 1013 21 10000 5.66 200 15:22 21.07.2022
311 Clouds 32 1011 23 10000 3.6 210 14:39 21.07.2022
312 Clear 34 1012 19 10000 4.63 180 12:28 21.07.2022
313 Clear 34 1010 19 10000 6.17 190 11:19 21.07.2022
314 Clouds 36 1011 17 10000 5.14 190 09:38 21.07.2022
315 Clouds 36 1010 17 10000 3.09 210 08:52 21.07.2022
316 Clouds 37 1010 17 10000 4.12 220 07:50 21.07.2022
317 Clouds 39 1010 16 10000 5.66 220 05:47 21.07.2022
318 Clouds 43 1012 13 10000 4.63 220 00:43 21.07.2022
319 Clouds 42 1013 17 10000 3.6 120 22:22 20.07.2022
320 Clouds 40 1009 19 10000 2.24 163 20:59 20.07.2022
321 Clear 39 1012 20 10000 1.79 158 19:53 20.07.2022
322 Clear 38 1014 19 10000 1.34 170 19:25 20.07.2022
323 Clouds 37 1015 19 10000 2.57 240 18:51 20.07.2022
324 Clouds 37 1015 21 10000 2.57 240 18:22 20.07.2022
325 Clouds 33 1014 24 10000 5.14 220 16:45 20.07.2022
326 Clouds 32 1016 26 10000 3.09 220 15:32 20.07.2022
327 Clouds 32 1015 25 10000 5.66 220 14:20 20.07.2022
328 Clouds 34 1012 22 10000 5.66 200 11:37 20.07.2022
329 Clouds 35 1011 21 10000 3.6 210 09:41 20.07.2022
330 Clouds 41 1009 17 10000 6.17 230 03:49 20.07.2022
331 Clouds 42 1011 17 10000 4.12 180 00:51 20.07.2022
332 Clouds 41 1012 19 10000 3.6 210 23:41 19.07.2022
333 Clouds 40 1015 20 10000 4.12 210 22:33 19.07.2022
334 Clouds 39 1016 22 10000 3.6 140 21:35 19.07.2022
335 Clouds 38 1016 25 10000 1.54 0 20:33 19.07.2022
336 Clear 36 1012 30 10000 1.28 120 18:58 19.07.2022
337 Clouds 35 1016 28 10000 2.57 350 18:28 19.07.2022
338 Clouds 31 1016 37 10000 3.09 190 16:37 19.07.2022
339 Clear 29 1015 41 10000 3.6 170 14:53 19.07.2022
340 Clear 31 1014 39 10000 3.6 200 11:43 19.07.2022
341 Clear 31 1014 38 10000 3.09 200 10:55 19.07.2022
342 Clouds 32 1014 35 10000 2.06 80 09:25 19.07.2022
343 Clouds 33 1014 32 10000 5.14 300 08:39 19.07.2022
344 Clouds 34 1012 32 10000 3.6 350 07:19 19.07.2022
345 Thunderstorm 36 1010 27 10000 6.17 220 05:30 19.07.2022
346 Thunderstorm 36 1010 26 10000 4.63 150 04:55 19.07.2022
347 Thunderstorm 38 1013 26 10000 6.17 110 01:19 19.07.2022
348 Clouds 40 1012 23 10000 8.23 190 23:47 18.07.2022
349 Clouds 40 1012 22 10000 4.63 80 23:18 18.07.2022
350 Clouds 38 1009 30 10000 1.34 106 21:58 18.07.2022
351 Clouds 34 1016 30 10000 5.14 120 20:51 18.07.2022
352 Clear 34 1013 32 10000 5.66 140 19:33 18.07.2022
353 Clouds 33 1014 33 10000 4.12 100 17:31 18.07.2022
354 Clouds 31 1013 40 10000 5.66 200 15:52 18.07.2022
355 Clouds 31 1012 40 10000 9.26 170 14:34 18.07.2022
356 Clouds 32 1010 32 10000 6.17 160 13:23 18.07.2022
357 Clouds 32 1009 31 10000 3.09 220 11:31 18.07.2022
358 Clear 34 1004 26 10000 4.63 190 08:57 18.07.2022
359 Clouds 37 1010 20 10000 3.6 190 07:38 18.07.2022
360 Clouds 42 1007 16 10000 3.6 250 01:24 18.07.2022
361 Clouds 41 1010 19 10000 3.6 350 22:46 17.07.2022
362 Clouds 40 1010 21 10000 3.6 350 22:22 17.07.2022
363 Clouds 38 1011 24 10000 4.63 350 21:23 17.07.2022
364 Clouds 37 1012 27 10000 2.06 280 20:44 17.07.2022
365 Clouds 36 1014 27 10000 4.12 10 19:34 17.07.2022
366 Thunderstorm 34 1014 30 10000 4.63 40 18:54 17.07.2022
367 Thunderstorm 34 1013 29 10000 6.69 280 17:38 17.07.2022
368 Thunderstorm 33 1014 33 10000 4.63 210 16:51 17.07.2022
369 Clouds 33 1013 33 10000 3.09 70 16:26 17.07.2022
370 Clouds 32 1006 37 10000 2.24 168 14:58 17.07.2022
371 Clouds 33 1009 31 10000 7.2 170 13:31 17.07.2022
372 Clouds 32 1008 31 10000 2.57 140 11:41 17.07.2022
373 Clouds 34 1010 27 10000 3.6 190 09:30 17.07.2022
374 Clouds 38 1009 23 10000 3.6 180 05:25 17.07.2022
375 Clouds 37 1008 25 10000 12.86 220 02:33 17.07.2022
376 Clouds 42 1010 18 10000 3.6 100 23:21 16.07.2022
377 Clouds 40 1012 20 10000 3.09 60 21:32 16.07.2022
378 Clouds 38 1013 22 10000 1.54 10 19:53 16.07.2022
379 Clear 37 1013 25 10000 1.54 340 18:35 16.07.2022
380 Clouds 34 1014 28 10000 4.12 330 17:19 16.07.2022
381 Clouds 32 1015 30 10000 3.09 330 14:31 16.07.2022
382 Clouds 33 1013 31 10000 10.29 40 11:38 16.07.2022
383 Clouds 34 1014 29 10000 3.09 210 09:35 16.07.2022
384 Clouds 35 1014 28 10000 4.12 210 08:47 16.07.2022
385 Clouds 34 1014 29 10000 4.12 210 08:29 16.07.2022
386 Thunderstorm 38 1012 21 10000 4.63 220 04:24 16.07.2022
387 Thunderstorm 39 1012 21 10000 6.69 240 03:22 16.07.2022
388 Clouds 39 1013 25 10000 2.06 0 23:34 15.07.2022
389 Clouds 38 1015 26 10000 4.12 140 22:41 15.07.2022
390 Clouds 36 1015 30 10000 3.09 170 21:29 15.07.2022
391 Clouds 34 1016 32 10000 3.09 360 20:30 15.07.2022
392 Clouds 32 1017 39 10000 3.6 10 18:44 15.07.2022
393 Clear 30 1017 44 10000 4.12 30 17:44 15.07.2022
394 Clouds 27 1016 56 10000 2.57 70 14:54 15.07.2022
395 Clouds 27 1016 54 10000 2.57 290 13:18 15.07.2022
396 Clouds 27 1016 58 10000 3.6 90 11:44 15.07.2022
397 Clouds 27 1015 58 10000 4.63 90 10:23 15.07.2022
398 Thunderstorm 28 1016 52 10000 3.09 310 06:30 15.07.2022
399 Thunderstorm 38 1012 23 10000 8.23 140 01:32 15.07.2022
400 Thunderstorm 40 1012 19 10000 6.17 170 00:22 15.07.2022
401 Thunderstorm 41 1013 18 10000 6.69 200 22:52 14.07.2022
402 Clouds 41 1014 18 10000 6.69 230 21:54 14.07.2022
403 Clouds 41 1014 18 10000 7.2 160 21:30 14.07.2022
404 Clouds 40 1015 19 10000 6.69 160 20:45 14.07.2022
405 Clouds 40 1015 19 10000 6.69 160 20:24 14.07.2022
406 Clouds 39 1015 17 10000 5.14 180 19:19 14.07.2022
407 Clouds 33 1014 24 10000 4.63 180 16:23 14.07.2022
408 Clouds 32 1014 23 10000 4.12 190 15:34 14.07.2022
409 Clouds 32 1011 23 10000 3.6 170 14:31 14.07.2022
410 Clouds 32 1010 26 10000 1.12 155 12:58 14.07.2022
411 Clouds 35 1012 16 10000 5.14 200 11:54 14.07.2022
412 Clouds 36 1012 17 10000 5.14 200 11:23 14.07.2022
413 Clouds 35 1012 20 10000 6.69 230 10:24 14.07.2022
414 Clouds 37 1011 18 10000 3.09 210 07:50 14.07.2022
415 Clouds 43 1011 15 10000 6.69 180 01:26 14.07.2022
416 Clouds 42 1012 15 10000 4.63 190 00:54 14.07.2022
417 Clouds 42 1007 17 10000 7.34 197 22:57 13.07.2022
418 Clouds 41 1013 14 10000 4.63 120 22:22 13.07.2022
419 Clouds 41 1014 15 10000 5.14 160 21:19 13.07.2022
420 Clouds 39 1010 18 10000 3.35 149 19:58 13.07.2022
421 Clouds 36 1014 19 10000 5.66 180 17:52 13.07.2022
422 Clouds 34 1014 22 10000 5.14 190 16:46 13.07.2022
423 Clouds 33 1013 22 10000 4.63 240 15:43 13.07.2022
424 Clouds 33 1012 21 10000 6.17 130 13:24 13.07.2022
425 Clouds 36 1011 17 10000 5.66 180 10:46 13.07.2022
426 Clouds 36 1011 17 10000 5.66 180 10:28 13.07.2022
427 Clouds 36 1011 17 10000 5.66 180 10:28 13.07.2022
428 Clouds 36 1011 16 10000 7.2 180 09:27 13.07.2022
429 Clouds 37 1009 16 10000 4.63 190 07:53 13.07.2022
430 Clouds 43 1007 10 10000 6.17 240 03:26 13.07.2022
431 Clouds 44 1009 11 10000 3.6 120 00:18 13.07.2022
432 Clouds 42 1011 11 10000 4.63 120 22:18 12.07.2022
433 Clouds 42 1012 12 10000 5.66 150 21:35 12.07.2022
434 Clouds 41 1012 11 10000 3.6 130 20:42 12.07.2022
435 Clouds 39 1012 12 10000 3.09 40 19:42 12.07.2022
436 Clouds 37 1012 13 10000 2.57 80 18:21 12.07.2022
437 Clouds 33 1012 17 10000 4.63 210 16:20 12.07.2022
438 Clouds 31 1011 17 10000 4.12 200 14:31 12.07.2022
439 Clear 32 1011 15 10000 5.66 190 13:24 12.07.2022
440 Clear 32 1010 15 10000 3.6 190 11:46 12.07.2022
441 Clouds 34 1010 12 10000 4.63 180 10:25 12.07.2022
442 Clear 36 1010 11 10000 4.63 190 08:40 12.07.2022
443 Clear 38 1010 11 10000 6.17 170 07:47 12.07.2022
444 Clouds 41 1008 9 10000 6.17 240 05:45 12.07.2022
445 Clouds 43 1008 10 10000 5.66 120 04:18 12.07.2022
446 Clouds 43 1011 11 10000 5.81 70 23:50 11.07.2022
447 Clouds 42 1012 12 10000 4.63 100 22:39 11.07.2022
448 Clear 41 1008 15 10000 2.01 107 20:56 11.07.2022
449 Clouds 40 1014 13 10000 2.57 0 20:32 11.07.2022
450 Clouds 37 1014 16 10000 2.06 300 18:48 11.07.2022
451 Clouds 37 1014 15 10000 2.06 300 18:23 11.07.2022
452 Clouds 37 1014 15 10000 2.06 300 18:23 11.07.2022
453 Clouds 32 1014 21 10000 0 0 16:26 11.07.2022
454 Clear 30 1010 25 10000 0.78 341 14:58 11.07.2022
455 Clear 31 1012 19 10000 4.63 180 12:38 11.07.2022
456 Clear 32 1012 21 10000 3.09 220 10:56 11.07.2022
457 Clear 34 1013 17 10000 4.63 190 09:54 11.07.2022
458 Clear 35 1013 16 10000 4.63 190 09:21 11.07.2022
459 Clouds 36 1013 15 10000 4.12 180 07:52 11.07.2022
460 Clear 42 1009 11 10000 4.12 200 00:56 11.07.2022
461 Clouds 42 1013 10 10000 4.12 220 23:53 10.07.2022
462 Clouds 41 1014 10 10000 5.36 220 22:37 10.07.2022
463 Clouds 39 1016 10 10000 4.63 140 20:55 10.07.2022
464 Clouds 39 1016 10 10000 4.63 140 20:24 10.07.2022
465 Clouds 37 1016 10 10000 2.57 130 19:28 10.07.2022
466 Clear 35 1012 11 10000 0.45 319 17:59 10.07.2022
467 Clouds 33 1012 12 10000 1.01 115 16:59 10.07.2022
468 Clouds 30 1016 16 10000 2.06 180 16:20 10.07.2022
469 Clouds 28 1015 14 10000 5.14 200 14:44 10.07.2022
470 Clear 29 1015 12 10000 4.12 330 13:29 10.07.2022
471 Clouds 31 1015 11 10000 5.66 190 11:39 10.07.2022
472 Clear 32 1014 9 10000 3.6 180 09:45 10.07.2022
473 Clear 33 1014 8 10000 4.12 210 08:43 10.07.2022
474 Clouds 38 1015 6 10000 4.12 230 06:39 10.07.2022
475 Clouds 42 1015 6 10000 9.77 240 23:47 09.07.2022
476 Clouds 41 1015 5 10000 7.2 250 22:26 09.07.2022
477 Clouds 40 1016 7 10000 6.17 200 21:41 09.07.2022
478 Clouds 37 1017 13 10000 3.6 160 19:44 09.07.2022
479 Clouds 34 1017 15 10000 2.57 130 18:26 09.07.2022
480 Clouds 34 1017 15 10000 2.57 130 18:26 09.07.2022
481 Clouds 32 1017 16 10000 3.09 230 17:27 09.07.2022
482 Clouds 29 1016 18 10000 3.09 240 16:25 09.07.2022
483 Clouds 28 1017 18 10000 3.6 190 15:38 09.07.2022
484 Clouds 27 1015 18 10000 5.14 180 14:22 09.07.2022
485 Clear 28 1014 18 10000 5.66 190 13:47 09.07.2022
486 Clear 29 1014 15 10000 4.12 180 11:45 09.07.2022
487 Clear 30 1014 14 10000 2.68 210 10:26 09.07.2022
488 Clear 31 1014 15 10000 3.09 240 09:38 09.07.2022
489 Clear 32 1014 12 10000 3.6 160 07:44 09.07.2022
490 Clouds 39 1013 5 10000 6.26 230 04:41 09.07.2022
491 Clouds 40 1015 6 10000 8.75 170 23:41 08.07.2022
492 Clouds 39 1016 8 10000 7.2 180 22:33 08.07.2022
493 Clouds 39 1016 11 10000 7.2 140 21:26 08.07.2022
494 Clouds 37 1017 12 10000 4.12 60 20:35 08.07.2022
495 Clouds 35 1017 13 10000 4.12 50 19:38 08.07.2022
496 Clouds 32 1017 15 10000 3.13 180 17:50 08.07.2022
497 Clouds 29 1016 19 10000 3.6 200 16:29 08.07.2022
498 Clouds 27 1015 19 10000 4.12 210 14:50 08.07.2022
499 Clear 29 1014 14 10000 3.6 170 12:42 08.07.2022
500 Clear 31 1014 14 10000 4.12 220 10:47 08.07.2022
501 Clear 30 1013 15 10000 3.09 210 09:58 08.07.2022
502 Clear 33 1014 13 10000 7.2 170 07:53 08.07.2022
503 Clear 37 1012 12 10000 6.69 160 05:37 08.07.2022
504 Clouds 39 1012 11 10000 6.69 250 00:40 08.07.2022
505 Clouds 38 1013 13 10000 5.14 190 22:52 07.07.2022
506 Clouds 37 1013 14 10000 4.63 160 21:48 07.07.2022
507 Clear 34 1014 19 10000 6.17 130 19:34 07.07.2022
508 Clear 31 1014 22 10000 0.45 87 17:43 07.07.2022
509 Clear 28 1013 26 10000 2.57 230 16:23 07.07.2022
510 Clear 26 1012 28 10000 3.6 210 14:21 07.07.2022
511 Clear 27 1011 25 10000 4.63 170 12:43 07.07.2022
512 Clear 28 1011 25 10000 4.63 170 12:23 07.07.2022
513 Clear 28 1011 22 10000 6.17 200 11:33 07.07.2022
514 Clear 30 1011 20 10000 4.63 220 10:45 07.07.2022
515 Clear 30 1011 19 10000 4.63 220 10:27 07.07.2022
516 Clear 31 1012 18 10000 5.66 180 09:22 07.07.2022
517 Clear 35 1009 6 10000 7.2 140 05:57 07.07.2022
518 Clear 39 1005 9 10000 4.02 147 00:18 07.07.2022
519 Clear 38 1005 10 10000 5.36 155 23:36 06.07.2022
520 Clear 38 1005 10 10000 5.36 173 23:18 06.07.2022
521 Clouds 37 1011 10 10000 9.26 150 22:47 06.07.2022
522 Clouds 37 1011 10 10000 9.26 150 22:47 06.07.2022
523 Clouds 37 1011 11 10000 9.26 150 22:28 06.07.2022
524 Clouds 34 1012 17 10000 7.2 150 20:19 06.07.2022
525 Clear 32 1013 23 10000 4.63 130 18:48 06.07.2022
526 Clear 29 1008 31 10000 0.89 135 16:58 06.07.2022
527 Clear 26 1011 33 10000 5.14 220 15:44 06.07.2022
528 Clear 27 1010 29 10000 5.14 190 12:44 06.07.2022
529 Clear 28 1010 25 10000 4.12 190 11:52 06.07.2022
530 Clear 30 1011 21 10000 6.17 200 10:48 06.07.2022
531 Clear 31 1011 19 10000 6.69 180 08:46 06.07.2022
532 Clear 33 1011 16 10000 7.72 170 07:41 06.07.2022
533 Clear 34 1009 15 10000 7.2 190 06:40 06.07.2022
534 Clouds 37 1010 12 10000 7.72 130 22:52 05.07.2022
535 Clouds 37 1010 12 10000 7.72 130 22:34 05.07.2022
536 Clouds 35 1011 14 10000 5.14 250 20:45 05.07.2022
537 Clouds 33 1011 15 10000 3.6 180 19:54 05.07.2022
538 Clouds 33 1012 15 10000 3.6 180 19:35 05.07.2022
539 Clouds 29 1012 21 10000 2.68 180 17:49 05.07.2022
540 Clouds 29 1012 22 10000 4.12 220 17:18 05.07.2022
541 Clouds 25 1012 22 10000 4.63 190 15:39 05.07.2022
542 Clouds 24 1010 24 10000 5.66 200 14:39 05.07.2022
543 Clear 26 1010 21 10000 3.6 210 12:52 05.07.2022
544 Clear 26 1010 18 10000 3.6 210 12:21 05.07.2022
545 Clear 28 1009 13 10000 5.14 210 10:45 05.07.2022
546 Clear 29 1009 13 10000 4.63 190 09:32 05.07.2022
547 Clear 31 1011 13 10000 3.6 200 08:19 05.07.2022
548 Clear 32 1008 12 10000 4.12 230 06:22 05.07.2022
549 Clear 35 1007 9 10000 6.69 210 04:26 05.07.2022
550 Clear 37 1008 8 10000 9.26 170 00:38 05.07.2022
551 Clear 37 1008 8 10000 9.26 230 23:34 04.07.2022
552 Clear 36 1009 8 10000 8.75 150 22:54 04.07.2022
553 Clear 35 1010 11 10000 7.72 170 21:53 04.07.2022
554 Clear 34 1011 12 10000 4.12 200 20:54 04.07.2022
555 Clear 33 1011 12 10000 4.12 200 20:35 04.07.2022
556 Clear 32 1011 14 10000 6.17 180 19:55 04.07.2022
557 Clear 32 1011 14 10000 6.69 120 19:36 04.07.2022
558 Clear 31 1011 17 10000 5.66 230 18:26 04.07.2022
559 Clear 26 1010 23 10000 4.12 170 16:34 04.07.2022
560 Clear 24 1009 25 10000 5.81 170 15:34 04.07.2022
561 Clear 25 1008 22 10000 6.17 190 13:33 04.07.2022
562 Clear 26 1008 21 10000 4.63 200 12:33 04.07.2022
563 Clear 29 1009 15 10000 4.63 210 10:34 04.07.2022
564 Clear 29 1009 15 10000 4.63 200 09:53 04.07.2022
565 Clouds 30 1008 13 10000 4.12 230 08:24 04.07.2022
566 Clouds 34 1005 9 10000 7.2 220 05:18 04.07.2022
567 Clear 37 1006 8 10000 9.26 200 00:42 04.07.2022
568 Clear 36 1003 10 10000 4.92 232 22:59 03.07.2022
569 Clear 35 1004 12 10000 4.02 219 20:59 03.07.2022
570 Clear 34 1008 13 10000 10.29 220 20:41 03.07.2022
571 Clear 33 1008 13 10000 9.26 210 19:41 03.07.2022
572 Clear 33 1008 14 10000 9.26 210 19:23 03.07.2022
573 Clear 30 1008 16 10000 8.23 210 17:45 03.07.2022
574 Clear 27 1007 20 10000 7.2 190 15:55 03.07.2022
575 Clear 26 1007 22 10000 7.2 190 14:59 03.07.2022
576 Clear 27 1008 19 10000 7.72 220 14:20 03.07.2022
577 Clear 28 1008 21 10000 6.17 210 13:48 03.07.2022
578 Clear 28 1008 17 10000 8.75 240 12:33 03.07.2022
579 Clear 30 1008 16 10000 5.14 180 11:29 03.07.2022
580 Clear 31 1008 15 10000 5.66 220 10:39 03.07.2022
581 Clear 31 1008 15 10000 4.63 240 09:55 03.07.2022
582 Clear 33 1007 16 10000 7.2 210 07:35 03.07.2022
583 Clear 37 1005 13 10000 8.23 240 04:22 03.07.2022
584 Clouds 40 1007 12 10000 7.72 200 00:22 03.07.2022
585 Clear 39 1009 12 10000 7.2 200 22:34 02.07.2022
586 Clear 38 1010 13 10000 8.75 240 21:28 02.07.2022
587 Clear 35 1011 17 10000 6.71 180 19:52 02.07.2022
588 Clear 35 1011 18 10000 6.71 180 19:20 02.07.2022
589 Clear 31 1011 19 10000 7.2 200 17:42 02.07.2022
590 Clear 30 1011 20 10000 6.17 180 16:53 02.07.2022
591 Clear 28 1010 19 10000 7.72 190 14:52 02.07.2022
592 Clear 29 1009 18 10000 6.17 180 12:22 02.07.2022
593 Clear 31 1010 16 10000 6.69 180 11:27 02.07.2022
594 Clear 32 1010 15 10000 7.2 220 10:43 02.07.2022
595 Clear 32 1009 14 10000 5.14 230 09:25 02.07.2022
596 Clear 33 1009 12 10000 4.12 230 08:20 02.07.2022
597 Clear 34 1009 11 10000 5.14 220 07:48 02.07.2022
598 Clouds 40 1009 7 10000 9.77 230 02:50 02.07.2022
599 Clouds 40 1010 7 10000 8.75 220 00:26 02.07.2022
600 Clouds 39 1012 7 10000 10.29 200 22:58 01.07.2022
601 Clouds 38 1012 7 10000 8.75 190 21:49 01.07.2022
602 Clouds 38 1012 7 10000 8.75 190 21:29 01.07.2022
603 Clouds 37 1013 7 10000 8.75 210 20:43 01.07.2022
604 Clear 36 1013 9 10000 8.23 200 19:47 01.07.2022
605 Clouds 33 1013 11 10000 9.26 210 17:53 01.07.2022
606 Clouds 31 1013 14 10000 8.23 220 16:22 01.07.2022
607 Clear 29 1012 20 10000 8.75 210 13:55 01.07.2022
608 Clear 30 1013 19 10000 6.69 220 12:55 01.07.2022
609 Clear 32 1012 16 10000 5.14 180 10:20 01.07.2022
610 Clear 32 1012 16 10000 4.63 220 09:47 01.07.2022
611 Clouds 37 1010 13 10000 7.72 220 05:25 01.07.2022
612 Clouds 40 1011 12 10000 8.75 220 00:42 01.07.2022
613 Clouds 40 1012 13 10000 9.77 220 23:22 30.06.2022
614 Clouds 39 1013 14 10000 10.29 220 22:44 30.06.2022
615 Clouds 39 1013 14 10000 8.23 210 22:25 30.06.2022
616 Clear 38 1013 15 10000 9.26 200 21:45 30.06.2022
617 Clouds 37 1014 16 10000 10.29 190 20:30 30.06.2022
618 Clouds 36 1014 16 10000 9.26 210 19:54 30.06.2022
619 Clouds 36 1014 15 10000 9.26 210 19:25 30.06.2022
620 Clouds 35 1014 16 10000 9.26 180 18:42 30.06.2022
621 Clouds 33 1014 17 10000 10.8 190 17:44 30.06.2022
622 Clouds 32 1014 19 10000 7.2 170 16:55 30.06.2022
623 Clouds 31 1013 21 10000 5.66 190 15:42 30.06.2022
624 Clouds 32 1013 17 10000 8.23 200 13:36 30.06.2022
625 Clouds 32 1013 18 10000 10.29 200 12:35 30.06.2022
626 Clouds 33 1013 16 10000 8.75 170 11:43 30.06.2022
627 Clouds 34 1012 16 10000 9.26 220 09:55 30.06.2022
628 Clouds 34 1012 16 10000 9.26 220 09:35 30.06.2022
629 Clear 35 1013 16 10000 7.2 220 08:19 30.06.2022
630 Clear 36 1012 14 10000 6.71 230 07:23 30.06.2022
631 Clouds 41 1011 11 10000 10.29 230 01:47 30.06.2022
632 Clouds 41 1012 12 10000 10.8 210 23:34 29.06.2022
633 Clouds 41 1013 14 10000 6.69 210 22:40 29.06.2022
634 Clouds 40 1014 15 10000 8.75 230 21:39 29.06.2022
635 Clouds 40 1015 16 10000 8.23 190 20:34 29.06.2022
636 Clouds 39 1015 15 10000 5.66 190 19:39 29.06.2022
637 Clouds 35 1015 18 10000 5.81 180 17:54 29.06.2022
638 Clouds 33 1015 20 10000 3.6 180 16:48 29.06.2022
639 Clouds 31 1014 22 10000 6.17 210 15:32 29.06.2022
640 Clouds 32 1014 20 10000 6.17 200 13:20 29.06.2022
641 Clouds 34 1013 18 10000 4.12 170 11:57 29.06.2022
642 Clouds 35 1013 22 10000 5.66 170 09:35 29.06.2022
643 Clouds 35 1013 26 10000 5.66 200 08:46 29.06.2022
644 Clouds 39 1012 16 10000 18.01 200 05:42 29.06.2022
645 Clouds 40 1011 15 10000 7.2 270 02:21 29.06.2022
646 Thunderstorm 41 1014 15 10000 9.77 210 00:38 29.06.2022
647 Clouds 42 1013 14 10000 7.2 150 23:26 28.06.2022
648 Clouds 41 1014 14 10000 5.14 140 22:48 28.06.2022
649 Clouds 40 1015 16 10000 4.12 70 21:55 28.06.2022
650 Clouds 40 1015 15 10000 4.12 70 21:33 28.06.2022
651 Clouds 39 1016 17 10000 4.12 90 20:51 28.06.2022
652 Clouds 37 1016 19 10000 2.06 310 19:43 28.06.2022
653 Clouds 37 1016 20 10000 2.06 310 19:23 28.06.2022
654 Smoke 34 1016 24 10000 4.12 250 17:44 28.06.2022
655 Clouds 31 1016 28 10000 4.63 220 16:24 28.06.2022
656 Clouds 31 1015 28 10000 5.14 210 15:53 28.06.2022
657 Clouds 30 1015 28 10000 5.66 190 14:21 28.06.2022
658 Clear 30 1014 28 10000 5.14 190 13:54 28.06.2022
659 Clear 31 1015 25 10000 5.14 190 13:20 28.06.2022
660 Clear 32 1014 26 10000 6.69 190 11:37 28.06.2022
661 Clear 33 1015 22 10000 5.14 210 09:41 28.06.2022
662 Clear 33 1014 19 10000 4.12 210 08:45 28.06.2022
663 Clear 34 1009 20 10000 0.89 263 07:58 28.06.2022
664 Clear 35 1013 18 10000 2.06 120 07:19 28.06.2022
665 Clouds 40 1014 15 10000 1.79 149 01:33 28.06.2022
666 Clouds 39 1016 20 10000 3.09 0 23:44 27.06.2022
667 Clouds 38 1016 22 10000 2.24 0 22:54 27.06.2022
668 Clouds 37 1017 25 10000 2.68 153 21:38 27.06.2022
669 Clouds 36 1018 27 10000 3.09 30 20:54 27.06.2022
670 Clouds 34 1019 30 10000 3.6 110 19:40 27.06.2022
671 Clouds 33 1020 31 10000 4.12 100 18:33 27.06.2022
672 Clear 30 1019 37 10000 7.2 130 16:37 27.06.2022
673 Clear 29 1018 37 10000 7.2 120 15:24 27.06.2022
674 Clouds 29 1017 37 10000 3.6 210 13:39 27.06.2022
675 Clear 29 1016 38 10000 4.63 160 12:57 27.06.2022
676 Dust 31 1017 32 10000 10.8 170 10:41 27.06.2022
677 Dust 33 1015 29 10000 10.8 160 09:23 27.06.2022
678 Clouds 34 1015 25 10000 7.72 120 08:31 27.06.2022
679 Clouds 36 1016 16 10000 5.66 90 07:38 27.06.2022
680 Clouds 39 1007 12 10000 0.45 143 03:58 27.06.2022
681 Clouds 41 1013 10 10000 5.36 80 01:18 27.06.2022
682 Clouds 39 1015 14 10000 4.12 90 22:27 26.06.2022
683 Clouds 37 1016 18 10000 3.6 90 20:53 26.06.2022
684 Clouds 36 1016 20 10000 4.63 100 19:44 26.06.2022
685 Clouds 34 1016 20 10000 3.6 100 18:32 26.06.2022
686 Clear 33 1015 20 10000 3.6 60 17:33 26.06.2022
687 Clouds 28 1014 22 10000 2.68 190 15:31 26.06.2022
688 Clear 28 1013 21 10000 3.09 20 13:55 26.06.2022
689 Clear 28 1013 21 10000 3.09 20 13:23 26.06.2022
690 Clear 30 1013 18 10000 5.66 30 11:27 26.06.2022
691 Clear 31 1012 16 10000 4.12 360 10:28 26.06.2022
692 Clouds 32 1012 14 10000 6.17 110 09:39 26.06.2022
693 Clouds 34 1011 15 10000 4.63 150 07:45 26.06.2022
694 Clouds 40 1009 11 10000 2.68 0 02:52 26.06.2022
695 Clouds 39 1010 12 10000 7.2 120 00:36 26.06.2022
696 Clouds 39 1010 13 10000 7.2 120 00:18 26.06.2022
697 Clouds 39 1011 12 10000 4.12 40 23:24 25.06.2022
698 Clouds 39 1012 12 10000 4.63 120 22:27 25.06.2022
699 Clouds 38 1013 13 10000 1.54 40 21:46 25.06.2022
700 Clouds 38 1013 13 10000 1.79 183 21:20 25.06.2022
701 Clouds 37 1013 12 10000 2.24 0 20:30 25.06.2022
702 Clouds 35 1013 12 10000 3.09 110 19:54 25.06.2022
703 Clouds 33 1014 13 10000 3.6 80 18:19 25.06.2022
704 Clouds 31 1013 14 10000 1.54 270 17:25 25.06.2022
705 Clouds 27 1013 17 10000 3.09 310 15:42 25.06.2022
706 Clear 27 1012 16 10000 2.57 340 13:48 25.06.2022
707 Clear 27 1010 16 10000 2.57 40 12:38 25.06.2022
708 Clear 28 1006 16 10000 0.45 254 10:58 25.06.2022
709 Smoke 31 1011 12 10000 2.68 190 09:22 25.06.2022
710 Clear 32 1009 12 10000 3.6 180 08:41 25.06.2022
711 Clear 32 1009 12 10000 3.6 180 08:19 25.06.2022
712 Clouds 38 1008 8 10000 6.17 220 04:18 25.06.2022
713 Clouds 39 1009 11 10000 8.75 220 00:38 25.06.2022
714 Clear 39 1011 14 10000 6.17 140 22:56 24.06.2022
715 Clouds 37 1013 15 10000 5.36 180 21:44 24.06.2022
716 Clear 37 1012 17 10000 1.54 80 20:57 24.06.2022
717 Clouds 35 1013 17 10000 2.57 160 20:19 24.06.2022
718 Clouds 34 1013 18 10000 2.68 0 19:22 24.06.2022
719 Clouds 33 1014 20 10000 4.63 300 18:49 24.06.2022
720 Clouds 33 1013 20 10000 4.63 300 18:30 24.06.2022
721 Clear 31 1013 23 10000 3.6 210 17:41 24.06.2022
722 Clouds 27 1012 28 10000 4.12 330 15:51 24.06.2022
723 Clouds 26 1012 28 10000 8.23 190 14:28 24.06.2022
724 Clear 27 1011 27 10000 7.2 190 13:55 24.06.2022
725 Clear 28 1012 26 10000 4.63 290 11:45 24.06.2022
726 Clear 28 1012 25 10000 4.63 290 11:22 24.06.2022
727 Clear 29 1011 22 10000 5.66 340 10:19 24.06.2022
728 Clear 30 1011 22 10000 8.23 330 09:40 24.06.2022
729 Clouds 31 1011 22 10000 3.6 210 08:52 24.06.2022
730 Clouds 33 1009 20 10000 5.14 260 06:49 24.06.2022
731 Clouds 34 1009 19 10000 5.14 260 06:30 24.06.2022
732 Clouds 34 1009 19 10000 7.2 240 05:55 24.06.2022
733 Clouds 37 1009 16 10000 7.2 260 01:28 24.06.2022
734 Clouds 36 1012 19 10000 3.6 120 22:45 23.06.2022
735 Clouds 36 1012 19 10000 3.6 120 22:18 23.06.2022
736 Clouds 34 1014 22 10000 1.54 0 20:54 23.06.2022
737 Clouds 33 1014 23 10000 1.54 0 20:32 23.06.2022
738 Clear 32 1011 27 10000 2.12 120 18:59 23.06.2022
739 Clouds 28 1015 35 10000 4.63 320 17:50 23.06.2022
740 Clouds 28 1015 35 10000 4.63 320 17:50 23.06.2022
741 Clouds 25 1015 42 10000 5.66 200 16:42 23.06.2022
742 Clouds 23 1014 46 10000 3.09 200 15:43 23.06.2022
743 Clouds 23 1015 47 10000 4.63 200 15:23 23.06.2022
744 Clouds 24 1014 47 10000 5.66 300 13:21 23.06.2022
745 Clouds 24 1014 47 10000 5.66 200 11:23 23.06.2022
746 Clouds 25 1015 45 10000 6.17 230 09:46 23.06.2022
747 Clouds 26 1015 43 10000 9.26 290 08:18 23.06.2022
748 Clouds 34 1014 18 10000 4.63 50 02:19 23.06.2022
749 Clouds 34 1015 19 10000 4.63 340 00:25 23.06.2022
750 Clouds 34 1016 20 10000 5.66 330 23:27 22.06.2022
751 Clouds 32 1017 21 10000 5.66 360 22:24 22.06.2022
752 Clouds 32 1012 25 10000 5.47 172 20:57 22.06.2022
753 Clouds 32 1017 22 10000 8.75 200 20:21 22.06.2022
754 Clouds 32 1017 22 10000 7.72 200 19:48 22.06.2022
755 Clouds 32 1017 21 10000 3.6 180 18:21 22.06.2022
756 Clouds 31 1016 20 10000 4.63 200 17:24 22.06.2022
757 Clouds 30 1016 21 10000 4.12 200 15:53 22.06.2022
758 Clouds 29 1016 20 10000 4.12 200 15:24 22.06.2022
759 Clouds 28 1015 15 10000 4.12 200 13:50 22.06.2022
760 Clouds 28 1015 13 10000 4.12 200 13:25 22.06.2022
761 Clouds 28 1015 13 10000 3.09 220 12:44 22.06.2022
762 Clouds 27 1014 13 10000 3.13 180 11:47 22.06.2022
763 Clouds 28 1013 13 10000 2.68 210 10:54 22.06.2022
764 Clouds 29 1013 12 10000 4.12 170 09:44 22.06.2022
765 Clouds 29 1011 12 10000 1.54 340 07:56 22.06.2022
766 Clouds 37 1012 6 10000 5.14 70 03:25 22.06.2022
767 Clouds 37 1013 5 10000 3.6 80 01:21 22.06.2022
768 Clouds 36 1015 5 10000 4.63 150 23:39 21.06.2022
769 Clear 34 1016 7 10000 5.14 110 21:31 21.06.2022
770 Clear 31 1016 9 10000 6.17 40 19:43 21.06.2022
771 Clear 29 1013 11 10000 0.45 148 17:57 21.06.2022
772 Clouds 25 1016 13 10000 3.09 310 16:52 21.06.2022
773 Clear 23 1014 13 10000 3.6 170 12:40 21.06.2022
774 Clear 24 1013 14 10000 3.6 160 10:55 21.06.2022
775 Clear 24 1013 14 10000 3.6 310 09:40 21.06.2022
776 Clear 26 1013 13 10000 3.6 170 08:22 21.06.2022
777 Clouds 30 1012 9 10000 1.54 90 05:37 21.06.2022
778 Clouds 32 1015 9 10000 3.09 280 00:37 21.06.2022
779 Clear 31 1016 11 10000 3.6 40 22:23 20.06.2022
780 Clear 31 1017 12 10000 5.66 40 21:49 20.06.2022
781 Clear 29 1017 14 10000 5.14 20 20:32 20.06.2022
782 Clear 29 1018 14 10000 7.72 20 19:38 20.06.2022
783 Clear 27 1018 15 10000 8.23 10 18:44 20.06.2022
784 Clear 26 1018 16 10000 8.23 20 17:50 20.06.2022
785 Clear 24 1017 17 10000 6.71 40 16:55 20.06.2022
786 Clear 22 1016 17 10000 5.66 60 15:53 20.06.2022
787 Clear 21 1015 12 10000 5.14 350 12:41 20.06.2022
788 Clear 22 1014 12 10000 5.14 280 10:32 20.06.2022
789 Clear 23 1014 11 10000 3.6 280 09:30 20.06.2022
790 Clear 25 1013 10 10000 4.12 170 08:44 20.06.2022
791 Clear 28 1011 9 10000 6.17 320 05:35 20.06.2022
792 Clear 30 1012 9 10000 7.2 300 01:44 20.06.2022
793 Clear 30 1013 9 10000 5.14 300 00:26 20.06.2022
794 Clear 29 1013 11 10000 2.57 0 22:50 19.06.2022
795 Clouds 29 1011 13 10000 6.17 280 21:57 19.06.2022
796 Clear 28 1013 13 10000 6.17 280 21:39 19.06.2022
797 Clear 27 1014 14 10000 5.14 250 20:38 19.06.2022
798 Clear 26 1013 16 10000 9.77 320 19:47 19.06.2022
799 Clear 24 1014 16 10000 9.26 320 18:45 19.06.2022
800 Clear 23 1013 18 10000 10.29 290 17:54 19.06.2022
801 Clear 22 1013 18 10000 10.29 290 17:22 19.06.2022
802 Clear 21 1012 19 10000 9.26 300 16:35 19.06.2022
803 Clear 20 1011 20 10000 9.26 310 15:41 19.06.2022
804 Clear 19 1008 20 10000 7.72 210 14:57 19.06.2022
805 Clear 19 1011 20 10000 7.72 210 14:19 19.06.2022
806 Clear 19 1010 19 10000 9.26 210 13:21 19.06.2022
807 Clear 22 1008 19 10000 9.26 220 10:55 19.06.2022
808 Clear 23 1008 19 10000 11.32 240 09:46 19.06.2022
809 Clear 24 1008 17 10000 13.38 240 08:47 19.06.2022
810 Clear 25 1006 21 10000 5.14 249 07:59 19.06.2022
811 Clouds 29 1006 7 10000 7.2 230 05:37 19.06.2022
812 Clouds 32 1006 5 10000 8.75 220 01:29 19.06.2022
813 Clouds 32 1007 5 10000 9.77 220 00:24 19.06.2022
814 Clouds 31 1007 6 10000 10.8 240 23:36 18.06.2022
815 Clouds 30 1008 7 10000 7.72 220 22:39 18.06.2022
816 Clouds 28 1005 7 10000 7.2 210 20:57 18.06.2022
817 Clouds 28 1008 7 10000 8.75 210 20:38 18.06.2022
818 Clouds 27 1008 7 10000 7.72 190 19:38 18.06.2022
819 Clouds 26 1008 9 10000 7.72 190 18:45 18.06.2022
820 Clouds 24 1007 13 10000 7.72 190 17:34 18.06.2022
821 Clouds 23 1007 14 10000 9.26 210 16:47 18.06.2022
822 Clouds 23 1007 14 10000 7.72 180 15:31 18.06.2022
823 Clouds 23 1006 13 10000 6.69 180 14:44 18.06.2022
824 Clouds 24 1006 13 10000 8.23 200 13:22 18.06.2022
825 Clouds 25 1006 13 10000 8.23 180 11:39 18.06.2022
826 Clouds 26 1006 12 10000 8.75 190 10:47 18.06.2022
827 Clouds 27 1006 12 10000 7.72 220 09:23 18.06.2022
828 Clouds 28 1006 12 10000 7.2 220 08:30 18.06.2022
829 Clouds 28 1006 12 10000 7.2 220 08:30 18.06.2022
830 Clouds 31 1005 11 10000 8.23 220 06:46 18.06.2022
831 Dust 35 1001 10 10000 14.4 230 03:45 18.06.2022
832 Dust 38 1001 6 10000 12.86 210 01:26 18.06.2022
833 Dust 38 1001 6 10000 12.86 210 01:26 18.06.2022
834 Clouds 39 1002 6 10000 12.86 210 00:48 18.06.2022
835 Clouds 38 1002 6 10000 11.83 170 23:52 17.06.2022
836 Clouds 39 1002 6 10000 11.83 170 23:20 17.06.2022
837 Clouds 36 1004 11 10000 5.66 230 20:56 17.06.2022
838 Clouds 35 1002 12 10000 7.72 200 19:59 17.06.2022
839 Clouds 33 1006 13 10000 7.72 180 18:44 17.06.2022
840 Smoke 31 1006 13 10000 7.72 170 17:43 17.06.2022
841 Smoke 29 1005 15 10000 6.69 180 16:43 17.06.2022
842 Smoke 28 1005 17 10000 8.23 170 15:43 17.06.2022
843 Smoke 28 1006 16 10000 8.23 170 15:20 17.06.2022
844 Clouds 28 1006 16 10000 6.17 170 14:20 17.06.2022
845 Clear 28 1005 16 10000 5.14 180 13:46 17.06.2022
846 Clear 27 1003 20 10000 2.23 172 12:57 17.06.2022
847 Clear 28 1004 12 10000 6.17 170 11:57 17.06.2022
848 Clear 29 1003 15 10000 6.17 170 11:36 17.06.2022
849 Clear 32 1005 10 10000 5.66 180 10:51 17.06.2022
850 Clear 33 1003 8 10000 6.69 200 08:30 17.06.2022
851 Clear 34 1005 8 10000 7.2 180 07:47 17.06.2022
852 Clear 35 1002 8 10000 8.23 160 05:57 17.06.2022
853 Clear 41 1003 5 10000 7.72 170 02:52 17.06.2022
854 Clear 41 1005 6 10000 7.2 150 00:42 17.06.2022
855 Clear 40 1007 7 10000 6.17 130 22:45 16.06.2022
856 Clear 40 1007 7 10000 6.17 130 22:20 16.06.2022
857 Clear 38 1009 7 10000 3.09 110 21:19 16.06.2022
858 Clear 37 1009 8 10000 4.12 40 20:50 16.06.2022
859 Clear 36 1006 9 10000 2.57 80 19:57 16.06.2022
860 Clear 33 1010 10 10000 4.12 80 18:34 16.06.2022
861 Clear 31 1010 11 10000 1.54 70 17:44 16.06.2022
862 Clear 31 1010 11 10000 1.54 70 17:44 16.06.2022
863 Clear 28 1011 13 10000 3.09 220 16:46 16.06.2022
864 Clear 25 1010 14 10000 3.6 330 15:37 16.06.2022
865 Clear 24 1009 16 10000 3.6 330 15:18 16.06.2022
866 Clear 25 1008 14 10000 3.6 200 13:46 16.06.2022
867 Clear 25 1008 13 10000 5.14 180 12:38 16.06.2022
868 Clear 25 1008 14 10000 3.6 200 11:54 16.06.2022
869 Clear 26 1008 12 10000 3.6 200 11:18 16.06.2022
870 Clear 27 1008 11 10000 3.09 320 10:33 16.06.2022
871 Clear 28 1009 12 10000 2.57 310 09:25 16.06.2022
872 Clear 29 1009 12 10000 2.06 250 08:46 16.06.2022
873 Clear 30 1008 13 10000 3.09 30 07:29 16.06.2022
874 Clear 36 1009 6 10000 3.09 90 05:42 16.06.2022
875 Clear 37 1009 5 10000 2.57 320 02:54 16.06.2022
876 Clear 37 1010 6 10000 3.09 100 01:51 16.06.2022
877 Clear 37 1010 6 10000 3.09 100 01:21 16.06.2022
878 Clear 37 1010 6 10000 3.09 100 01:21 16.06.2022
879 Clear 36 1011 5 10000 4.12 160 23:49 15.06.2022
880 Clear 35 1012 6 10000 4.12 340 22:45 15.06.2022
881 Clear 34 1013 6 10000 5.81 50 21:28 15.06.2022
882 Clear 34 1010 6 10000 5.66 60 20:57 15.06.2022
883 Clear 33 1013 6 10000 5.66 60 20:35 15.06.2022
884 Clear 31 1013 6 10000 8.75 50 19:46 15.06.2022
885 Clear 30 1013 7 10000 5.66 20 18:29 15.06.2022
886 Clear 28 1013 8 10000 4.63 30 17:42 15.06.2022
887 Clear 25 1012 11 10000 5.66 320 15:51 15.06.2022
888 Clear 23 1011 15 10000 2.57 40 14:30 15.06.2022
889 Clear 23 1007 17 10000 2.57 60 12:57 15.06.2022
890 Clear 24 1010 12 10000 4.63 340 12:33 15.06.2022
891 Clear 25 1009 15 10000 1.54 190 10:53 15.06.2022
892 Clear 26 1010 13 10000 3.09 270 10:20 15.06.2022
893 Clear 25 1007 16 10000 2.06 350 08:57 15.06.2022
894 Clear 27 1007 14 10000 2.06 180 07:21 15.06.2022
895 Clear 32 1007 8 10000 3.09 30 04:51 15.06.2022
896 Clear 33 1008 7 10000 4.63 170 02:28 15.06.2022
897 Clear 32 1010 7 10000 3.09 40 00:54 15.06.2022
898 Clear 32 1011 8 10000 4.12 350 23:55 14.06.2022
899 Clear 31 1011 8 10000 4.12 350 23:37 14.06.2022
900 Clear 30 1012 8 10000 4.12 300 22:28 14.06.2022
901 Clear 29 1013 8 10000 4.12 320 21:41 14.06.2022
902 Clear 29 1011 9 10000 6.17 30 20:57 14.06.2022
903 Clear 28 1014 8 10000 6.17 30 20:32 14.06.2022
904 Clear 27 1014 9 10000 8.75 30 19:22 14.06.2022
905 Clear 26 1014 10 10000 8.75 340 18:25 14.06.2022
906 Clear 24 1013 11 10000 9.39 20 16:48 14.06.2022
907 Clear 23 1012 13 10000 9.77 40 15:50 14.06.2022
908 Clear 23 1012 13 10000 9.77 40 15:28 14.06.2022
909 Dust 23 1011 14 10000 8.94 10 14:40 14.06.2022
910 Dust 24 1011 13 10000 12.86 10 13:46 14.06.2022
911 Dust 26 1010 11 10000 14.4 30 12:48 14.06.2022
912 Dust 28 1009 10 10000 10.29 360 11:41 14.06.2022
913 Clear 29 1008 8 10000 10.8 10 10:49 14.06.2022
914 Clear 29 1008 8 10000 10.8 10 10:49 14.06.2022
915 Clear 29 1008 8 10000 10.8 10 10:24 14.06.2022
916 Clear 30 1006 10 10000 6.69 310 08:49 14.06.2022
917 Clear 31 1005 10 10000 6.69 210 07:49 14.06.2022
918 Clouds 34 1003 9 10000 7.72 220 05:46 14.06.2022
919 Clouds 35 1002 10 10000 9.77 210 03:20 14.06.2022
920 Clouds 36 1003 15 10000 10.29 220 00:54 14.06.2022
921 Clouds 35 1003 17 10000 7.2 230 23:41 13.06.2022
922 Clouds 34 1004 20 10000 8.75 210 22:26 13.06.2022
923 Clouds 33 1004 22 10000 8.75 220 21:52 13.06.2022
924 Clouds 32 1005 24 10000 8.75 230 20:42 13.06.2022
925 Clouds 31 1004 26 10000 7.72 200 19:35 13.06.2022
926 Clouds 30 1005 31 10000 9.77 210 18:31 13.06.2022
927 Clouds 28 1004 35 10000 10.29 230 17:47 13.06.2022
928 Clouds 27 1004 39 10000 11.32 210 16:53 13.06.2022
929 Clouds 26 1003 40 10000 11.83 230 15:40 13.06.2022
930 Dust 27 1003 37 10000 12.35 230 14:47 13.06.2022
931 Dust 28 1002 34 10000 11.83 220 13:55 13.06.2022
932 Dust 28 1001 32 10000 13.89 240 12:49 13.06.2022
933 Clouds 29 1001 29 10000 13.38 210 11:37 13.06.2022
934 Dust 30 1001 27 10000 10.8 210 10:27 13.06.2022
935 Dust 31 1001 24 10000 10.8 200 09:42 13.06.2022
936 Clouds 32 1001 21 10000 10.8 200 08:24 13.06.2022
937 Clouds 35 1002 14 10000 12.35 210 06:33 13.06.2022
938 Clouds 39 1001 8 10000 11.83 230 03:28 13.06.2022
939 Clouds 40 1002 7 10000 12.86 220 01:38 13.06.2022
940 Clouds 41 1002 6 10000 13.38 210 00:22 13.06.2022
941 Clouds 40 1003 7 10000 11.32 230 23:29 12.06.2022
942 Clear 40 1004 8 10000 12.35 210 22:23 12.06.2022
943 Clear 39 1005 10 10000 10.29 230 21:28 12.06.2022
944 Clear 37 1005 11 10000 10.8 220 20:34 12.06.2022
945 Clear 36 1006 13 10000 9.26 220 19:36 12.06.2022
946 Clear 34 1006 15 10000 7.72 210 18:39 12.06.2022
947 Clear 30 1006 18 10000 5.66 200 16:42 12.06.2022
948 Clear 28 1005 20 10000 7.72 200 15:24 12.06.2022
949 Clear 28 1005 21 10000 7.72 180 14:31 12.06.2022
950 Clear 29 1006 18 10000 7.2 180 13:55 12.06.2022
951 Clear 30 1004 18 10000 6.69 190 12:46 12.06.2022
952 Clear 32 1007 14 10000 7.2 250 11:47 12.06.2022
953 Clear 33 1007 14 10000 6.17 200 10:45 12.06.2022
954 Clear 34 1008 12 10000 7.72 220 09:25 12.06.2022
955 Clear 36 1008 11 10000 8.75 210 08:48 12.06.2022
956 Clear 37 1008 9 10000 8.23 230 07:38 12.06.2022
957 Clouds 39 1005 9 10000 8.75 230 05:29 12.06.2022
958 Clouds 41 1005 7 10000 11.32 220 03:38 12.06.2022
959 Clouds 42 1006 7 10000 10.29 220 01:43 12.06.2022
960 Clear 42 1001 9 10000 5.36 255 00:58 12.06.2022
961 Clouds 42 1007 8 10000 11.32 230 00:25 12.06.2022
962 Clouds 42 1008 7 10000 9.26 220 23:48 11.06.2022
963 Clouds 42 1008 7 10000 9.26 220 23:48 11.06.2022
964 Clouds 42 1009 8 10000 8.23 190 22:39 11.06.2022
965 Clouds 42 1009 8 10000 8.23 190 22:18 11.06.2022
966 Clouds 41 1010 9 10000 10.29 230 20:38 11.06.2022
967 Clear 40 1005 10 10000 4.92 241 19:59 11.06.2022
968 Clouds 40 1010 10 10000 6.69 240 19:26 11.06.2022
969 Clouds 37 1011 13 10000 7.2 220 18:34 11.06.2022
970 Clouds 36 1011 15 10000 7.72 210 17:51 11.06.2022
971 Clouds 35 1011 15 10000 7.72 210 17:28 11.06.2022
972 Clear 34 1007 17 10000 2.06 230 16:57 11.06.2022
973 Clouds 33 1011 18 10000 6.17 210 16:30 11.06.2022
974 Clouds 32 1010 19 10000 6.17 200 15:43 11.06.2022
975 Clear 31 1011 17 10000 5.66 200 13:53 11.06.2022
976 Clear 29 1009 19 10000 2.06 210 12:57 11.06.2022
977 Clouds 34 1011 14 10000 6.17 210 10:55 11.06.2022
978 Clouds 34 1011 14 10000 4.63 190 09:55 11.06.2022
979 Clouds 34 1010 12 10000 4.63 190 09:19 11.06.2022
980 Clear 35 1009 12 10000 4.63 180 07:43 11.06.2022
981 Clouds 37 1008 11 10000 6.17 210 06:30 11.06.2022
982 Clouds 41 1009 9 10000 7.2 210 04:49 11.06.2022
983 Clouds 42 1009 8 10000 8.75 230 01:53 11.06.2022
984 Clouds 42 1009 8 10000 8.75 230 01:33 11.06.2022
985 Clouds 42 1009 9 10000 7.72 170 00:20 11.06.2022
986 Clouds 42 1011 9 10000 7.72 250 22:32 10.06.2022
987 Clouds 41 1011 10 10000 8.23 220 21:52 10.06.2022
988 Clouds 40 1012 13 10000 5.66 220 20:42 10.06.2022
989 Clouds 39 1012 14 10000 5.66 220 20:22 10.06.2022
990 Clouds 37 1012 15 10000 4.12 230 19:38 10.06.2022
991 Clouds 37 1012 15 10000 4.12 230 19:18 10.06.2022
992 Clouds 37 1012 15 10000 4.12 230 19:18 10.06.2022
993 Clouds 35 1013 16 10000 2.24 70 18:18 10.06.2022
994 Clouds 33 1012 17 10000 4.12 210 17:35 10.06.2022
995 Clear 31 1012 20 10000 5.66 200 16:51 10.06.2022
996 Clear 29 1012 21 10000 5.14 210 15:45 10.06.2022
997 Clear 27 1009 26 10000 0.28 222 14:57 10.06.2022
998 Clear 28 1010 23 10000 4.63 200 13:36 10.06.2022
999 Clear 30 1010 22 10000 6.17 180 12:21 10.06.2022
1000 Clear 30 1010 21 10000 5.66 190 11:30 10.06.2022
1001 Clouds 31 1010 19 10000 4.63 200 10:36 10.06.2022
1002 Clouds 31 1010 19 10000 4.12 160 09:37 10.06.2022
1003 Clouds 32 1005 18 10000 0.89 275 07:58 10.06.2022
1004 Clouds 35 1008 14 10000 5.66 260 06:50 10.06.2022
1005 Clouds 35 1008 14 10000 5.66 260 06:31 10.06.2022
1006 Clouds 37 1008 13 10000 6.71 260 05:34 10.06.2022
1007 Clouds 40 1007 11 10000 7.2 260 02:50 10.06.2022
1008 Clouds 41 1007 11 10000 5.66 150 01:37 10.06.2022
1009 Clear 41 1005 12 10000 6.69 130 23:58 09.06.2022
1010 Clouds 40 1009 11 10000 8.23 180 22:47 09.06.2022
1011 Clouds 39 1010 13 10000 5.66 140 21:46 09.06.2022
1012 Clouds 39 1010 13 10000 4.63 150 21:28 09.06.2022
1013 Clouds 38 1010 14 10000 5.14 120 20:40 09.06.2022
1014 Clouds 36 1010 15 10000 4.63 130 19:51 09.06.2022
1015 Clouds 34 1011 17 10000 4.63 190 18:41 09.06.2022
1016 Clear 33 1010 19 10000 4.12 210 17:55 09.06.2022
1017 Clouds 30 1010 22 10000 5.14 190 16:28 09.06.2022
1018 Clouds 27 1009 25 10000 4.12 210 15:22 09.06.2022
1019 Clouds 27 1008 22 10000 5.14 190 14:30 09.06.2022
1020 Clouds 28 1008 20 10000 4.63 180 13:44 09.06.2022
1021 Clouds 29 1008 20 10000 4.63 180 13:19 09.06.2022
1022 Clouds 31 1007 19 10000 5.66 210 11:35 09.06.2022
1023 Clouds 33 1008 16 10000 4.12 220 09:55 09.06.2022
1024 Clouds 32 1008 17 10000 4.12 220 09:55 09.06.2022
1025 Clouds 33 1008 16 10000 4.12 220 09:37 09.06.2022
1026 Clouds 33 1007 16 10000 4.12 190 08:38 09.06.2022
1027 Clouds 34 1007 13 10000 4.63 180 07:29 09.06.2022
1028 Clouds 38 1004 10 10000 7.2 220 04:30 09.06.2022
1029 Clouds 40 1006 11 10000 6.69 270 00:35 09.06.2022
1030 Clouds 40 1007 12 10000 6.17 180 23:18 08.06.2022
1031 Clouds 39 1007 13 10000 5.66 150 22:43 08.06.2022
1032 Clouds 39 1008 13 10000 5.66 150 22:23 08.06.2022
1033 Clouds 38 1008 14 10000 4.63 170 21:40 08.06.2022
1034 Clouds 37 1009 16 10000 4.12 130 20:25 08.06.2022
1035 Clouds 35 1010 17 10000 3.09 0 19:42 08.06.2022
1036 Clouds 34 1010 19 10000 4.12 120 18:48 08.06.2022
1037 Clouds 32 1010 21 10000 3.6 260 17:46 08.06.2022
1038 Clear 28 1006 28 10000 1.54 40 15:56 08.06.2022
1039 Clouds 27 1008 25 10000 3.09 330 14:44 08.06.2022
1040 Clouds 28 1007 24 10000 4.63 200 12:55 08.06.2022
1041 Clouds 28 1007 24 10000 4.63 200 12:55 08.06.2022
1042 Clouds 28 1007 24 10000 4.63 200 12:55 08.06.2022
1043 Clouds 28 1007 24 10000 4.63 200 12:55 08.06.2022
1044 Clouds 28 1007 24 10000 4.63 200 12:55 08.06.2022
1045 Clouds 29 1007 22 10000 4.63 200 11:36 08.06.2022
1046 Clouds 30 1007 21 10000 5.14 210 10:51 08.06.2022
1047 Clouds 32 1007 19 10000 7.2 170 09:30 08.06.2022
1048 Clouds 33 1008 16 10000 5.14 170 08:55 08.06.2022
1049 Clouds 35 1006 16 10000 5.14 110 07:21 08.06.2022
1050 Clouds 35 1006 16 10000 5.14 110 07:21 08.06.2022
1051 Clouds 38 1005 13 10000 7.2 140 04:47 08.06.2022
1052 Clouds 39 1006 11 10000 3.09 170 01:25 08.06.2022
1053 Clouds 38 1007 11 10000 3.6 360 23:32 07.06.2022
1054 Clouds 38 1008 12 10000 2.57 310 22:54 07.06.2022
1055 Clouds 38 1008 11 10000 3.09 140 22:34 07.06.2022
1056 Clear 37 1009 12 10000 3.09 90 21:39 07.06.2022
1057 Clear 37 1009 11 10000 3.09 90 21:20 07.06.2022
1058 Clear 36 1009 11 10000 2.68 360 20:40 07.06.2022
1059 Clear 36 1006 11 10000 3.09 60 19:57 07.06.2022
1060 Clouds 33 1010 12 10000 4.12 50 18:26 07.06.2022
1061 Clouds 32 1009 16 10000 4.63 360 17:33 07.06.2022
1062 Clouds 29 1008 22 10000 5.14 240 16:44 07.06.2022
1063 Clear 28 1004 26 10000 2.24 333 15:58 07.06.2022
1064 Clouds 27 1008 23 10000 5.14 210 15:36 07.06.2022
1065 Clouds 27 1008 24 10000 5.14 210 15:18 07.06.2022
1066 Clear 27 1007 22 10000 5.66 180 14:42 07.06.2022
1067 Clear 27 1006 23 10000 4.63 190 13:34 07.06.2022
1068 Clear 28 1005 23 10000 7.2 190 12:54 07.06.2022
1069 Clear 29 1005 21 10000 5.14 170 11:51 07.06.2022
1070 Clear 30 1005 19 10000 5.14 190 10:48 07.06.2022
1071 Clear 31 1004 18 10000 4.12 190 08:53 07.06.2022
1072 Clouds 33 1007 17 10000 5.14 230 07:54 07.06.2022
1073 Clouds 35 1006 15 10000 7.2 140 06:41 07.06.2022
1074 Clouds 37 1005 11 10000 5.14 160 04:41 07.06.2022
1075 Clouds 38 1005 14 10000 4.12 180 01:27 07.06.2022
1076 Clouds 37 1006 15 10000 3.6 60 23:53 06.06.2022
1077 Clouds 37 1007 15 10000 2.06 0 22:54 06.06.2022
1078 Clouds 36 1007 15 10000 3.6 90 22:29 06.06.2022
1079 Clouds 34 1008 19 10000 2.57 40 20:54 06.06.2022
1080 Clear 32 1010 21 10000 4.12 30 19:29 06.06.2022
1081 Clear 31 1008 23 10000 2.68 230 18:49 06.06.2022
1082 Clear 30 1008 23 10000 2.57 230 18:21 06.06.2022
1083 Clear 28 1008 27 10000 5.66 210 17:26 06.06.2022
1084 Clear 26 1007 31 10000 7.2 200 16:18 06.06.2022
1085 Clear 25 1007 33 10000 6.69 190 15:28 06.06.2022
1086 Clouds 24 1006 34 10000 6.17 190 14:30 06.06.2022
1087 Clear 25 1007 32 10000 7.2 200 13:22 06.06.2022
1088 Clear 27 1006 27 10000 8.75 200 12:36 06.06.2022
1089 Clear 27 1006 25 10000 8.75 200 11:53 06.06.2022
1090 Clear 28 1006 24 10000 8.23 200 10:21 06.06.2022
1091 Clear 29 1006 20 10000 8.75 190 09:33 06.06.2022
1092 Clear 31 1006 16 10000 10.29 200 08:32 06.06.2022
1093 Clouds 32 1006 14 10000 7.72 200 07:28 06.06.2022
1094 Clouds 35 1005 14 10000 6.17 220 05:18 06.06.2022
1095 Clouds 37 1004 13 10000 7.72 220 02:42 06.06.2022
1096 Clear 38 1003 14 10000 10.8 210 00:57 06.06.2022
1097 Clouds 37 1006 13 10000 6.26 180 00:37 06.06.2022
1098 Clouds 36 1007 14 10000 4.12 100 23:28 05.06.2022
1099 Clouds 35 1007 15 10000 3.13 70 22:33 05.06.2022
1100 Clouds 32 1009 19 10000 2.24 40 20:40 05.06.2022
1101 Clouds 30 1009 20 10000 0 0 19:26 05.06.2022
1102 Clouds 29 1008 24 10000 3.09 230 18:26 05.06.2022
1103 Clouds 27 1008 26 10000 5.66 200 17:50 05.06.2022
1104 Clouds 27 1008 27 10000 5.66 200 17:23 05.06.2022
1105 Clouds 25 1008 29 10000 5.14 210 16:49 05.06.2022
1106 Clouds 23 1007 33 10000 5.66 210 15:50 05.06.2022
1107 Smoke 23 1007 33 10000 4.63 210 14:22 05.06.2022
1108 Clouds 25 1007 27 10000 9.26 200 12:43 05.06.2022
1109 Clouds 25 1007 26 10000 7.2 200 11:35 05.06.2022
1110 Clouds 27 1007 25 10000 7.2 200 10:25 05.06.2022
1111 Clouds 26 1005 26 10000 3.61 213 09:58 05.06.2022
1112 Clouds 28 1007 21 10000 7.72 180 08:26 05.06.2022
1113 Clouds 31 1007 17 10000 5.66 230 06:54 05.06.2022
1114 Clouds 32 1006 16 10000 6.17 240 05:20 05.06.2022
1115 Clouds 34 1006 15 10000 8.75 220 03:38 05.06.2022
1116 Clouds 34 1006 15 10000 7.72 220 01:32 05.06.2022
1117 Clouds 35 1005 16 10000 8.75 220 23:58 04.06.2022
1118 Clouds 33 1008 16 10000 9.26 160 21:49 04.06.2022
1119 Clouds 32 1008 17 10000 8.75 200 20:21 04.06.2022
1120 Clouds 27 1006 25 10000 5.03 196 17:59 04.06.2022
1121 Clouds 25 1008 25 10000 7.72 180 16:42 04.06.2022
1122 Clouds 25 1008 26 10000 7.72 180 16:18 04.06.2022
1123 Clouds 24 1006 26 10000 6.69 190 14:37 04.06.2022
1124 Clouds 26 1007 20 10000 6.17 190 11:51 04.06.2022
1125 Clear 28 1006 16 10000 6.17 190 10:57 04.06.2022
1126 Clouds 27 1007 20 10000 7.2 230 10:22 04.06.2022
1127 Clouds 28 1007 17 10000 7.2 230 09:41 04.06.2022
1128 Clouds 29 1006 17 10000 6.69 200 08:40 04.06.2022
1129 Clouds 30 1006 13 10000 4.12 190 07:39 04.06.2022
1130 Clouds 34 1005 10 10000 8.23 200 04:33 04.06.2022
1131 Clouds 36 1002 11 10000 9.44 222 00:56 04.06.2022
1132 Clouds 36 1006 9 10000 7.72 220 23:35 03.06.2022
1133 Clouds 35 1006 11 10000 8.75 210 22:30 03.06.2022
1134 Clouds 35 1006 10 10000 6.69 210 21:21 03.06.2022
1135 Clouds 33 1007 12 10000 7.72 210 20:33 03.06.2022
1136 Clouds 29 1005 16 10000 2.74 180 17:58 03.06.2022
1137 Clouds 27 1007 15 10000 6.17 210 16:47 03.06.2022
1138 Clouds 25 1006 15 10000 6.17 200 15:18 03.06.2022
1139 Clouds 26 1006 16 10000 5.66 170 12:56 03.06.2022
1140 Clouds 28 1006 14 10000 6.69 170 11:19 03.06.2022
1141 Clouds 29 1006 13 10000 4.12 210 09:38 03.06.2022
1142 Clouds 30 1006 10 10000 3.09 210 08:45 03.06.2022
1143 Clouds 31 1006 10 10000 3.6 200 07:26 03.06.2022
1144 Clouds 32 1006 10 10000 4.12 220 06:32 03.06.2022
1145 Clear 33 1005 8 10000 6.17 250 05:19 03.06.2022
1146 Clouds 36 1007 6 10000 6.17 110 00:28 03.06.2022
1147 Clouds 35 1009 6 10000 4.63 80 22:41 02.06.2022
1148 Clear 33 1010 7 10000 3.6 110 21:38 02.06.2022
1149 Clear 32 1011 8 10000 2.57 0 20:22 02.06.2022
1150 Clear 30 1012 9 10000 3.09 100 19:46 02.06.2022
1151 Clear 30 1012 9 10000 3.09 100 19:28 02.06.2022
1152 Clear 26 1012 11 10000 1.54 0 17:32 02.06.2022
1153 Clear 23 1011 14 10000 3.6 200 16:27 02.06.2022
1154 Clear 20 1010 14 10000 3.6 200 14:19 02.06.2022
1155 Clear 21 1010 14 10000 4.12 190 13:29 02.06.2022
1156 Clear 23 1010 14 10000 4.12 200 11:24 02.06.2022
1157 Clear 24 1010 12 10000 4.12 190 10:20 02.06.2022
1158 Clear 24 1010 14 10000 3.6 300 09:27 02.06.2022
1159 Clear 24 1011 14 10000 3.6 280 08:26 02.06.2022
1160 Clouds 26 1011 13 10000 3.6 190 07:21 02.06.2022
1161 Clouds 31 1010 7 10000 2.24 90 04:49 02.06.2022
1162 Clouds 32 1010 7 10000 4.12 140 02:37 02.06.2022
1163 Clouds 31 1013 9 10000 4.63 60 23:43 01.06.2022
1164 Clouds 31 1013 9 10000 4.63 60 23:43 01.06.2022
1165 Clouds 31 1013 9 10000 4.63 60 23:43 01.06.2022
1166 Clear 29 1014 11 10000 4.63 40 22:31 01.06.2022
1167 Clear 28 1015 13 10000 4.63 360 21:32 01.06.2022
1168 Clear 27 1015 14 10000 5.36 360 20:40 01.06.2022
1169 Clear 27 1013 16 10000 3.86 19 19:59 01.06.2022
1170 Clear 26 1016 16 10000 5.66 40 19:19 01.06.2022
1171 Clear 23 1016 19 10000 6.17 340 17:44 01.06.2022
1172 Clear 22 1016 21 10000 7.72 340 16:34 01.06.2022
1173 Clear 20 1015 22 10000 6.26 360 14:53 01.06.2022
1174 Clear 21 1015 21 10000 7.2 40 13:45 01.06.2022
1175 Clear 22 1014 21 10000 8.23 40 12:26 01.06.2022
1176 Clear 24 1013 19 10000 7.2 20 09:40 01.06.2022
1177 Clear 26 1012 16 10000 7.72 20 08:38 01.06.2022
1178 Clear 27 1012 13 10000 7.72 20 07:22 01.06.2022
1179 Clear 28 1009 13 10000 7.2 20 05:23 01.06.2022
1180 Clouds 29 1009 13 10000 2.24 0 00:22 01.06.2022
1181 Clouds 28 1010 13 10000 1.54 0 23:26 31.05.2022
1182 Clouds 28 1010 14 10000 3.09 70 22:36 31.05.2022
1183 Clouds 28 1011 15 10000 6.69 330 21:45 31.05.2022
1184 Clouds 26 1011 16 10000 7.2 20 20:45 31.05.2022
1185 Clouds 26 1011 16 10000 7.2 20 20:45 31.05.2022
1186 Clear 26 1009 18 10000 8.23 30 19:57 31.05.2022
1187 Clouds 24 1011 17 10000 9.26 30 18:50 31.05.2022
1188 Clouds 23 1010 17 10000 10.29 320 17:50 31.05.2022
1189 Clouds 21 1009 18 10000 5.36 355 16:53 31.05.2022
1190 Clouds 19 1008 22 10000 4.12 330 15:40 31.05.2022
1191 Clear 18 1007 21 10000 4.12 170 13:45 31.05.2022
1192 Clear 19 1007 18 10000 5.66 60 12:20 31.05.2022
1193 Clear 19 1006 21 10000 4.12 50 10:53 31.05.2022
1194 Clear 22 1006 18 10000 3.6 30 08:49 31.05.2022
1195 Clouds 23 1006 15 10000 5.14 120 07:21 31.05.2022
1196 Clouds 27 1006 10 10000 3.09 210 04:53 31.05.2022
1197 Clouds 27 1007 12 10000 5.36 330 00:26 31.05.2022
1198 Clouds 26 1008 13 10000 3.13 70 23:26 30.05.2022
1199 Clouds 26 1008 15 10000 3.6 170 22:48 30.05.2022
1200 Clouds 25 1008 14 10000 2.06 0 21:51 30.05.2022
1201 Clouds 25 1009 14 10000 2.06 0 21:32 30.05.2022
1202 Clouds 23 1009 17 10000 5.36 60 19:51 30.05.2022
1203 Clouds 22 1009 19 10000 6.69 10 18:39 30.05.2022
1204 Clouds 20 1009 21 10000 7.72 10 17:24 30.05.2022
1205 Clouds 19 1009 22 10000 5.81 60 16:39 30.05.2022
1206 Clear 18 1008 22 10000 10.29 20 13:44 30.05.2022
1207 Clear 19 1007 21 10000 9.77 30 12:21 30.05.2022
1208 Clear 22 1007 12 10000 7.72 10 10:40 30.05.2022
1209 Clear 23 1006 8 10000 9.26 330 09:19 30.05.2022
1210 Clear 25 1003 7 10000 12.52 340 06:30 30.05.2022
1211 Clear 27 1003 6 10000 10.8 340 05:47 30.05.2022
1212 Clouds 31 1001 5 10000 11.32 330 01:32 30.05.2022
1213 Clear 30 1002 6 10000 11.83 330 22:50 29.05.2022
1214 Clear 30 1002 7 10000 11.83 330 22:31 29.05.2022
1215 Clear 28 1003 10 10000 11.32 300 20:51 29.05.2022
1216 Clear 27 1003 12 10000 11.83 330 19:30 29.05.2022
1217 Dust 26 1003 15 10000 10.29 320 18:37 29.05.2022
1218 Dust 24 1002 25 10000 10.8 330 17:23 29.05.2022
1219 Dust 22 1000 33 10000 8.75 320 15:48 29.05.2022
1220 Clear 21 999 38 10000 5.14 190 14:57 29.05.2022
1221 Dust 22 1000 28 8047 9.26 210 13:46 29.05.2022
1222 Dust 23 999 27 6437 8.23 210 11:34 29.05.2022
1223 Dust 24 999 27 8047 8.75 200 10:38 29.05.2022
1224 Dust 26 1000 23 6437 10.29 180 08:39 29.05.2022
1225 Dust 29 999 21 10000 11.32 210 05:48 29.05.2022
1226 Clouds 31 998 18 10000 11.32 220 04:43 29.05.2022
1227 Clouds 33 999 16 10000 10.8 210 02:50 29.05.2022
1228 Clouds 34 1001 16 10000 9.26 240 23:49 28.05.2022
1229 Clouds 34 1001 15 10000 9.26 240 23:26 28.05.2022
1230 Clouds 33 1003 15 10000 9.26 160 22:25 28.05.2022
1231 Clouds 32 1003 17 10000 8.75 210 21:31 28.05.2022
1232 Clouds 30 1003 17 10000 11.32 210 19:21 28.05.2022
1233 Clouds 29 1004 18 10000 8.75 210 18:46 28.05.2022
1234 Clouds 27 1003 19 10000 9.26 180 17:35 28.05.2022
1235 Clouds 26 1005 17 10000 10.29 220 16:35 28.05.2022
1236 Clouds 25 1003 19 10000 10.8 170 15:38 28.05.2022
1237 Clouds 26 1004 16 10000 9.77 200 13:57 28.05.2022
1238 Clouds 27 1005 18 10000 9.26 210 12:43 28.05.2022
1239 Clear 28 1005 13 10000 8.23 210 11:57 28.05.2022
1240 Clouds 28 1006 15 10000 9.77 230 10:49 28.05.2022
1241 Clear 29 1005 15 10000 10.29 230 09:56 28.05.2022
1242 Clouds 31 1007 11 10000 9.26 220 08:43 28.05.2022
1243 Clouds 31 1007 11 10000 6.17 200 07:23 28.05.2022
1244 Clouds 33 1007 9 10000 5.66 200 05:24 28.05.2022
1245 Clouds 36 1008 7 10000 8.75 250 02:38 28.05.2022
1246 Clouds 38 1009 7 10000 8.75 200 00:31 28.05.2022
1247 Clouds 37 1011 8 10000 9.77 210 22:50 27.05.2022
1248 Clouds 36 1012 8 10000 9.77 180 21:37 27.05.2022
1249 Clouds 35 1012 8 10000 7.2 180 20:48 27.05.2022
1250 Clouds 35 1012 8 10000 7.2 180 20:21 27.05.2022
1251 Clouds 34 1013 9 10000 7.2 190 19:41 27.05.2022
1252 Clouds 33 1013 10 10000 7.2 190 19:21 27.05.2022
1253 Clouds 29 1013 15 10000 8.23 170 17:34 27.05.2022
1254 Clouds 27 1012 17 10000 6.17 190 16:36 27.05.2022
1255 Clouds 27 1012 18 10000 6.69 190 15:20 27.05.2022
1256 Clouds 28 1012 18 10000 7.72 180 13:41 27.05.2022
1257 Clouds 28 1011 18 10000 7.72 200 12:28 27.05.2022
1258 Clouds 29 1011 17 10000 7.2 200 11:31 27.05.2022
1259 Clouds 29 1011 15 10000 7.2 210 10:47 27.05.2022
1260 Clear 28 1008 20 10000 3.9 213 09:59 27.05.2022
1261 Clouds 31 1011 11 10000 7.2 190 09:31 27.05.2022
1262 Clouds 32 1010 12 10000 6.69 180 07:41 27.05.2022
1263 Clouds 34 1007 11 10000 6.69 200 05:25 27.05.2022
1264 Clouds 38 1008 7 10000 10.29 240 01:47 27.05.2022
1265 Clouds 39 1009 7 10000 10.29 180 23:55 26.05.2022
1266 Clouds 38 1010 7 10000 11.32 170 22:29 26.05.2022
1267 Clouds 38 1011 8 10000 6.17 200 21:33 26.05.2022
1268 Clouds 34 1012 12 10000 3.6 30 19:49 26.05.2022
1269 Clouds 33 1012 13 10000 3.6 30 19:18 26.05.2022
1270 Clouds 33 1012 13 10000 3.6 30 19:18 26.05.2022
1271 Clouds 29 1012 15 10000 2.06 60 17:36 26.05.2022
1272 Clouds 27 1011 16 10000 5.14 200 16:35 26.05.2022
1273 Clouds 24 1010 19 10000 3.6 200 15:34 26.05.2022
1274 Clouds 23 1009 18 10000 3.6 30 14:21 26.05.2022
1275 Clear 25 1009 19 10000 4.63 190 12:20 26.05.2022
1276 Clear 24 1008 17 10000 5.14 170 11:21 26.05.2022
1277 Clouds 27 1009 13 10000 3.6 220 09:39 26.05.2022
1278 Clouds 28 1009 13 10000 3.09 210 08:51 26.05.2022
1279 Clouds 31 1008 12 10000 3.09 40 06:51 26.05.2022
1280 Clear 36 1008 7 10000 1.54 60 02:54 26.05.2022
1281 Clear 35 1011 8 10000 3.6 120 00:20 26.05.2022
1282 Clear 35 1011 8 10000 3.13 40 23:19 25.05.2022
1283 Smoke 34 1013 9 10000 4.63 90 21:46 25.05.2022
1284 Smoke 33 1013 9 10000 5.66 50 20:53 25.05.2022
1285 Clouds 33 1010 12 10000 0.89 98 19:59 25.05.2022
1286 Smoke 30 1013 11 10000 4.12 40 18:48 25.05.2022
1287 Clouds 27 1013 11 10000 2.24 60 17:26 25.05.2022
1288 Clouds 25 1013 14 10000 3.09 310 16:35 25.05.2022
1289 Clouds 23 1013 16 10000 4.12 160 15:49 25.05.2022
1290 Clear 21 1011 17 10000 5.66 60 14:51 25.05.2022
1291 Clear 21 1011 17 10000 5.66 60 14:32 25.05.2022
1292 Clear 22 1011 15 10000 4.12 360 13:28 25.05.2022
1293 Clear 24 1009 14 10000 1.83 1 11:51 25.05.2022
1294 Clear 24 1009 15 10000 5.14 200 10:42 25.05.2022
1295 Clouds 25 1009 14 10000 4.12 200 09:53 25.05.2022
1296 Clouds 24 1006 17 10000 0.45 298 08:22 25.05.2022
1297 Clouds 25 1006 18 10000 0.45 286 06:45 25.05.2022
1298 Clouds 33 1008 8 10000 3.09 50 02:55 25.05.2022
1299 Clouds 32 1011 8 10000 6.17 50 23:52 24.05.2022
1300 Clouds 32 1011 9 10000 6.17 50 23:23 24.05.2022
1301 Clouds 31 1012 9 10000 2.06 0 22:18 24.05.2022
1302 Clouds 30 1012 9 10000 3.6 70 21:38 24.05.2022
1303 Clouds 30 1012 9 10000 3.6 70 21:19 24.05.2022
1304 Clouds 28 1013 10 10000 2.57 350 19:32 24.05.2022
1305 Clear 27 1013 10 10000 3.09 40 18:49 24.05.2022
1306 Clouds 23 1013 14 10000 3.6 90 16:40 24.05.2022
1307 Clear 21 1012 17 10000 3.6 90 15:54 24.05.2022
1308 Clouds 20 1011 15 10000 5.66 70 14:45 24.05.2022
1309 Clouds 20 1011 16 10000 6.17 30 13:48 24.05.2022
1310 Clouds 21 1011 15 10000 7.2 60 12:42 24.05.2022
1311 Clouds 22 1010 18 10000 6.69 40 10:18 24.05.2022
1312 Clouds 22 1009 17 10000 3.6 70 09:41 24.05.2022
1313 Clouds 24 1009 16 10000 2.57 290 08:43 24.05.2022
1314 Clear 24 1007 17 10000 1.54 20 06:56 24.05.2022
1315 Clouds 31 1008 10 10000 3.6 70 03:48 24.05.2022
1316 Clouds 32 1009 10 10000 5.14 90 01:49 24.05.2022
1317 Clouds 31 1009 10 10000 5.14 90 01:18 24.05.2022
1318 Clouds 30 1011 11 10000 5.14 60 22:50 23.05.2022
1319 Clouds 30 1012 12 10000 3.6 80 21:54 23.05.2022
1320 Clear 29 1009 15 10000 1.34 142 20:59 23.05.2022
1321 Clouds 28 1013 13 10000 4.63 30 20:26 23.05.2022
1322 Clouds 27 1013 13 10000 9.77 30 19:31 23.05.2022
1323 Clouds 27 1012 15 10000 9.26 30 18:54 23.05.2022
1324 Clouds 26 1013 15 10000 9.26 30 18:27 23.05.2022
1325 Clouds 24 1014 17 10000 6.71 70 17:18 23.05.2022
1326 Clouds 22 1013 16 10000 8.23 10 14:52 23.05.2022
1327 Clouds 24 1011 12 10000 6.69 60 12:50 23.05.2022
1328 Clouds 25 1011 15 10000 4.12 340 11:26 23.05.2022
1329 Clouds 25 1009 14 10000 4.12 210 09:50 23.05.2022
1330 Clouds 26 1009 14 10000 4.12 210 09:23 23.05.2022
1331 Clouds 27 1009 15 10000 4.12 210 07:48 23.05.2022
1332 Clouds 29 1009 10 10000 4.63 230 06:45 23.05.2022
1333 Clouds 30 1009 13 10000 5.66 260 05:21 23.05.2022
1334 Clouds 33 1009 10 10000 2.68 0 02:19 23.05.2022
1335 Clouds 33 1009 9 10000 3.13 325 01:37 23.05.2022
1336 Clouds 32 1011 11 10000 3.6 220 23:51 22.05.2022
1337 Clouds 31 1012 10 10000 6.17 240 22:35 22.05.2022
1338 Clear 30 1012 12 10000 2.06 280 21:55 22.05.2022
1339 Clear 29 1013 12 10000 2.68 0 20:53 22.05.2022
1340 Clouds 28 1014 11 10000 2.68 0 20:27 22.05.2022
1341 Clear 28 1012 14 10000 2.06 60 19:56 22.05.2022
1342 Clear 26 1014 13 10000 4.12 50 18:55 22.05.2022
1343 Clouds 25 1014 13 10000 4.12 50 18:25 22.05.2022
1344 Clouds 23 1014 15 10000 2.06 250 17:33 22.05.2022
1345 Clear 21 1014 18 10000 1.54 230 16:31 22.05.2022
1346 Clouds 18 1013 19 10000 4.12 190 14:49 22.05.2022
1347 Clear 18 1013 17 10000 3.6 200 13:48 22.05.2022
1348 Clear 18 1012 17 10000 3.09 210 12:52 22.05.2022
1349 Clear 19 1012 17 10000 3.6 160 11:44 22.05.2022
1350 Clear 21 1013 16 10000 3.6 50 09:45 22.05.2022
1351 Clear 21 1012 15 10000 3.6 60 08:54 22.05.2022
1352 Clouds 23 1012 16 10000 3.6 20 07:22 22.05.2022
1353 Clouds 23 1012 16 10000 3.6 20 07:22 22.05.2022
1354 Clouds 23 1012 16 10000 1.54 130 06:23 22.05.2022
1355 Clear 28 1010 10 10000 4.12 190 02:23 22.05.2022
1356 Clear 28 1011 11 10000 2.24 0 00:44 22.05.2022
1357 Clouds 27 1012 11 10000 2.24 0 23:55 21.05.2022
1358 Clouds 26 1012 11 10000 2.24 0 23:20 21.05.2022
1359 Clouds 25 1013 11 10000 4.12 90 21:43 21.05.2022
1360 Clouds 24 1013 11 10000 4.12 90 21:25 21.05.2022
1361 Clear 24 1014 13 10000 6.69 40 20:25 21.05.2022
1362 Clear 22 1014 13 10000 7.72 40 19:35 21.05.2022
1363 Clear 20 1014 15 10000 6.17 30 17:51 21.05.2022
1364 Clear 18 1013 16 10000 4.63 20 16:46 21.05.2022
1365 Clear 16 1011 19 10000 6.69 30 14:38 21.05.2022
1366 Clear 16 1012 18 10000 5.66 60 13:52 21.05.2022
1367 Clear 16 1010 19 10000 6.69 30 12:50 21.05.2022
1368 Clear 17 1010 20 10000 6.69 30 12:26 21.05.2022
1369 Clear 18 1010 16 10000 9.77 20 10:44 21.05.2022
1370 Squall 18 1010 16 10000 16.46 30 09:44 21.05.2022
1371 Clear 19 1008 17 10000 10.29 40 08:57 21.05.2022
1372 Clear 21 1008 11 10000 13.38 30 07:54 21.05.2022
1373 Clear 25 1004 12 10000 3.58 50 04:29 21.05.2022
1374 Clouds 26 1005 11 10000 6.17 30 00:38 21.05.2022
1375 Clouds 26 1003 14 10000 7.2 40 22:59 20.05.2022
1376 Clouds 25 1005 12 10000 8.23 330 22:24 20.05.2022
1377 Clouds 25 1006 13 10000 9.77 330 21:43 20.05.2022
1378 Clear 24 1003 15 10000 11.32 40 20:56 20.05.2022
1379 Clouds 24 1001 16 10000 6.26 29 19:59 20.05.2022
1380 Clouds 23 1005 14 10000 13.38 340 19:26 20.05.2022
1381 Clouds 22 1005 15 10000 16.09 360 18:46 20.05.2022
1382 Dust 21 1003 15 10000 12.96 360 17:24 20.05.2022
1383 Dust 22 1002 15 10000 14.4 320 16:19 20.05.2022
1384 Clouds 23 1000 17 10000 9.26 40 15:47 20.05.2022
1385 Clouds 26 1000 19 10000 8.75 30 14:30 20.05.2022
1386 Clouds 26 999 22 10000 5.14 190 13:55 20.05.2022
1387 Clouds 27 998 18 10000 9.26 190 11:38 20.05.2022
1388 Dust 28 998 17 10000 8.75 220 10:19 20.05.2022
1389 Dust 31 998 13 9656 10.29 200 08:45 20.05.2022
1390 Clouds 32 999 14 10000 10.8 210 07:18 20.05.2022
1391 Clouds 34 999 9 10000 10.29 220 06:32 20.05.2022
1392 Clouds 34 997 11 10000 9.66 234 04:59 20.05.2022
1393 Clouds 38 1002 10 10000 9.77 210 00:54 20.05.2022
1394 Clouds 38 1004 11 10000 8.23 230 22:48 19.05.2022
1395 Clouds 38 1004 11 10000 8.23 230 22:20 19.05.2022
1396 Clouds 36 1006 11 10000 7.72 210 21:48 19.05.2022
1397 Clouds 36 1006 11 10000 7.72 210 21:22 19.05.2022
1398 Clouds 35 1007 12 10000 7.2 210 20:34 19.05.2022
1399 Clouds 34 1008 11 10000 5.14 190 19:50 19.05.2022
1400 Clouds 31 1009 14 10000 7.2 210 18:22 19.05.2022
1401 Clouds 27 1010 18 10000 6.17 200 16:35 19.05.2022
1402 Clouds 24 1009 19 10000 5.14 200 15:19 19.05.2022
1403 Clouds 24 1009 19 10000 5.66 190 14:25 19.05.2022
1404 Clouds 24 1009 18 10000 5.66 190 13:23 19.05.2022
1405 Clouds 26 1009 14 10000 6.17 180 11:29 19.05.2022
1406 Clouds 28 1010 15 10000 5.14 210 09:27 19.05.2022
1407 Clouds 29 1010 14 10000 6.17 190 07:50 19.05.2022
1408 Clouds 31 1010 13 10000 5.14 160 06:18 19.05.2022
1409 Clouds 36 1011 7 10000 3.6 240 02:23 19.05.2022
1410 Clear 36 1010 12 10000 1.34 219 23:57 18.05.2022
1411 Clouds 35 1014 11 10000 4.63 30 22:47 18.05.2022
1412 Clouds 34 1015 12 10000 2.57 0 21:51 18.05.2022
1413 Clouds 34 1015 12 10000 2.57 0 21:29 18.05.2022
1414 Clear 33 1015 12 10000 2.68 50 20:47 18.05.2022
1415 Clear 33 1015 14 10000 2.57 50 20:18 18.05.2022
1416 Clear 30 1015 15 10000 1.54 120 18:33 18.05.2022
1417 Clear 27 1015 16 10000 2.06 160 17:41 18.05.2022
1418 Clear 27 1015 17 10000 2.06 160 17:23 18.05.2022
1419 Clear 24 1014 20 10000 3.09 300 16:34 18.05.2022
1420 Clear 22 1014 19 10000 3.6 190 15:41 18.05.2022
1421 Clear 22 1013 21 10000 3.09 310 14:35 18.05.2022
1422 Clear 22 1013 20 10000 3.6 190 13:35 18.05.2022
1423 Clear 23 1012 19 10000 4.12 220 12:43 18.05.2022
1424 Clear 24 1012 17 10000 4.63 200 11:34 18.05.2022
1425 Clear 23 1009 20 10000 3.09 60 10:56 18.05.2022
1426 Clear 23 1009 20 10000 3.09 60 10:56 18.05.2022
1427 Clear 26 1011 15 10000 3.6 210 09:31 18.05.2022
1428 Clouds 28 1010 15 10000 4.12 170 07:36 18.05.2022
1429 Clear 32 1008 9 10000 7.2 140 05:56 18.05.2022
1430 Clouds 36 1007 11 10000 5.14 90 01:20 18.05.2022
1431 Clouds 36 1008 12 10000 5.66 190 00:22 18.05.2022
1432 Clear 35 1007 15 10000 3.6 100 21:56 17.05.2022
1433 Clear 34 1010 13 10000 4.12 180 21:20 17.05.2022
1434 Clouds 32 1006 15 10000 2.24 145 19:59 17.05.2022
1435 Clear 31 1010 11 10000 4.12 210 19:27 17.05.2022
1436 Clouds 27 1010 16 10000 5.14 190 17:50 17.05.2022
1437 Clouds 26 1009 17 10000 7.72 210 16:58 17.05.2022
1438 Clouds 25 1009 17 10000 7.72 210 16:29 17.05.2022
1439 Clouds 23 1008 19 10000 8.23 210 15:24 17.05.2022
1440 Clear 23 1007 19 10000 7.72 180 14:30 17.05.2022
1441 Clear 23 1007 19 10000 7.72 180 14:30 17.05.2022
1442 Clear 23 1007 19 10000 7.72 180 14:30 17.05.2022
1443 Clear 23 1007 19 10000 5.14 190 13:32 17.05.2022
1444 Clear 27 1007 13 10000 7.2 180 11:37 17.05.2022
1445 Clouds 29 1008 11 10000 7.72 210 09:23 17.05.2022
1446 Clouds 30 1007 12 10000 6.69 210 08:23 17.05.2022
1447 Clouds 32 1007 9 10000 5.66 230 06:45 17.05.2022
1448 Clouds 36 1005 11 10000 6.69 250 02:55 17.05.2022
1449 Clouds 37 1006 11 10000 7.72 140 00:32 17.05.2022
1450 Clouds 36 1007 12 10000 5.66 200 22:42 16.05.2022
1451 Clouds 34 1008 12 10000 4.12 130 21:36 16.05.2022
1452 Clouds 33 1009 13 10000 4.63 200 20:46 16.05.2022
1453 Clouds 31 1009 15 10000 4.12 220 19:22 16.05.2022
1454 Clouds 29 1009 17 10000 5.66 190 18:18 16.05.2022
1455 Clouds 24 1009 22 10000 8.23 180 15:49 16.05.2022
1456 Clear 23 1007 18 10000 6.17 210 13:49 16.05.2022
1457 Clear 24 1007 17 10000 5.14 180 12:50 16.05.2022
1458 Clouds 28 1008 11 10000 6.69 200 10:52 16.05.2022
1459 Clouds 30 1009 7 10000 5.14 200 08:55 16.05.2022
1460 Clouds 32 1007 6 10000 4.12 210 06:34 16.05.2022
1461 Clouds 37 1007 6 10000 4.63 80 02:38 16.05.2022
1462 Clouds 36 1010 7 10000 3.6 110 23:19 15.05.2022
1463 Clouds 35 1011 8 10000 3.09 350 22:28 15.05.2022
1464 Clouds 35 1012 8 10000 2.06 0 21:38 15.05.2022
1465 Clouds 34 1012 9 10000 3.09 10 20:53 15.05.2022
1466 Clouds 32 1013 10 10000 2.06 80 19:24 15.05.2022
1467 Clouds 28 1014 13 10000 1.54 220 17:48 15.05.2022
1468 Clouds 20 1014 11 10000 3.09 150 15:44 15.05.2022
1469 Clouds 22 1013 13 10000 3.6 160 13:49 15.05.2022
1470 Clouds 23 1013 12 10000 5.14 220 12:22 15.05.2022
1471 Clouds 24 1014 12 10000 3.09 200 11:38 15.05.2022
1472 Clouds 24 1014 8 10000 5.14 200 10:20 15.05.2022
1473 Clouds 26 1013 10 10000 3.6 170 07:36 15.05.2022
1474 Clear 25 1011 16 10000 3.09 40 06:57 15.05.2022
1475 Clouds 34 1013 8 10000 3.09 80 04:26 15.05.2022
1476 Clear 35 1014 8 10000 2.24 0 00:48 15.05.2022
1477 Clear 34 1015 8 10000 2.24 0 23:38 14.05.2022
1478 Clear 33 1016 9 10000 2.57 0 22:45 14.05.2022
1479 Clouds 32 1017 11 10000 2.57 120 21:27 14.05.2022
1480 Clouds 30 1017 11 10000 2.06 0 20:32 14.05.2022
1481 Clouds 29 1017 12 10000 1.54 70 19:21 14.05.2022
1482 Clear 29 1015 15 10000 0.45 101 18:59 14.05.2022
1483 Clouds 25 1017 14 10000 3.09 190 17:54 14.05.2022
1484 Clouds 21 1016 17 10000 3.6 170 16:32 14.05.2022
1485 Clear 19 1014 19 10000 1.19 331 14:56 14.05.2022
1486 Clear 18 1015 18 10000 3.09 200 14:30 14.05.2022
1487 Clear 21 1016 13 10000 5.14 200 12:23 14.05.2022
1488 Clear 21 1015 14 10000 5.14 210 10:53 14.05.2022
1489 Clear 21 1015 15 10000 5.14 210 10:20 14.05.2022
1490 Clear 21 1015 15 10000 4.63 200 09:51 14.05.2022
1491 Clear 23 1015 13 10000 3.09 300 08:22 14.05.2022
1492 Clear 27 1014 11 10000 3.6 70 05:26 14.05.2022
1493 Clear 32 1014 12 10000 1.54 250 01:57 14.05.2022
1494 Clear 30 1017 11 10000 2.57 0 23:31 13.05.2022
1495 Clear 30 1017 13 10000 2.57 280 22:56 13.05.2022
1496 Clear 29 1018 11 10000 2.57 280 22:22 13.05.2022
1497 Clouds 28 1019 12 10000 2.24 30 21:35 13.05.2022
1498 Clear 26 1020 12 10000 2.57 0 20:43 13.05.2022
1499 Clear 26 1019 13 10000 2.57 0 20:23 13.05.2022
1500 Clear 24 1020 14 10000 1.54 0 19:21 13.05.2022
1501 Clear 21 1020 17 10000 3.6 310 17:50 13.05.2022
1502 Clear 20 1020 18 10000 3.6 310 17:24 13.05.2022
1503 Clear 14 1019 20 10000 3.09 180 15:53 13.05.2022
1504 Clear 14 1018 22 10000 3.6 330 14:47 13.05.2022
1505 Clear 14 1017 24 10000 0.89 0 12:58 13.05.2022
1506 Clear 15 1018 19 10000 5.66 310 12:25 13.05.2022
1507 Clear 17 1018 20 10000 3.6 320 10:35 13.05.2022
1508 Clear 17 1018 18 10000 3.09 200 09:29 13.05.2022
1509 Clear 18 1018 20 10000 3.09 200 07:59 13.05.2022
1510 Clouds 19 1018 19 10000 3.09 200 07:30 13.05.2022
1511 Clouds 21 1018 15 10000 2.57 90 05:46 13.05.2022
1512 Clouds 24 1019 13 10000 2.24 0 01:37 13.05.2022
1513 Clouds 23 1020 14 10000 2.57 30 23:34 12.05.2022
1514 Clouds 23 1021 16 10000 3.09 0 22:35 12.05.2022
1515 Clouds 21 1023 16 10000 4.63 350 21:35 12.05.2022
1516 Clouds 20 1024 19 10000 3.6 10 20:22 12.05.2022
1517 Clear 18 1024 22 10000 5.66 340 18:30 12.05.2022
1518 Clear 15 1024 26 10000 6.17 330 16:52 12.05.2022
1519 Clear 12 1023 30 10000 5.66 340 15:30 12.05.2022
1520 Clouds 11 1021 29 10000 1.79 24 13:58 12.05.2022
1521 Clear 13 1021 27 10000 6.69 340 12:46 12.05.2022
1522 Clear 14 1021 22 10000 6.17 320 10:34 12.05.2022
1523 Clear 14 1020 24 10000 4.86 326 08:58 12.05.2022
1524 Clear 15 1020 22 10000 6.17 270 08:37 12.05.2022
1525 Clouds 16 1019 19 10000 8.23 300 07:25 12.05.2022
1526 Clouds 17 1017 18 10000 8.23 280 04:50 12.05.2022
1527 Clouds 19 1014 18 10000 15.43 310 01:55 12.05.2022
1528 Clouds 20 1013 13 10000 11.32 270 23:42 11.05.2022
1529 Clouds 20 1013 15 10000 9.77 270 22:22 11.05.2022
1530 Clouds 20 1013 15 10000 9.77 210 21:27 11.05.2022
1531 Clear 19 1012 16 10000 7.2 170 20:45 11.05.2022
1532 Clear 15 1013 21 10000 8.75 200 17:43 11.05.2022
1533 Clear 14 1012 22 10000 10.29 210 16:47 11.05.2022
1534 Clear 12 1011 26 10000 10.8 180 14:49 11.05.2022
1535 Clear 12 1012 27 10000 10.8 180 14:25 11.05.2022
1536 Clouds 13 1012 26 10000 9.26 190 13:37 11.05.2022
1537 Clouds 14 1012 28 10000 6.17 200 11:48 11.05.2022
1538 Clouds 17 1012 21 10000 7.2 230 09:34 11.05.2022
1539 Clouds 18 1010 25 10000 3.89 252 06:59 11.05.2022
1540 Clouds 22 1011 15 10000 9.26 210 03:38 11.05.2022
1541 Clouds 22 1013 13 10000 9.77 190 23:45 10.05.2022
1542 Clouds 22 1013 14 10000 8.23 250 22:30 10.05.2022
1543 Clouds 22 1014 13 10000 10.29 220 21:41 10.05.2022
1544 Clouds 20 1014 14 10000 7.2 210 20:48 10.05.2022
1545 Clouds 19 1015 14 10000 3.6 220 19:18 10.05.2022
1546 Clear 16 1013 17 10000 10.8 200 17:43 10.05.2022
1547 Clouds 14 1013 19 10000 9.26 220 16:39 10.05.2022
1548 Clouds 13 1011 24 10000 11.32 200 13:54 10.05.2022
1549 Clouds 14 1010 24 10000 11.83 200 12:30 10.05.2022
1550 Clouds 14 1009 26 10000 9.77 200 11:42 10.05.2022
1551 Clear 15 1008 28 10000 12.35 210 10:57 10.05.2022
1552 Clouds 16 1009 26 10000 12.35 220 09:52 10.05.2022
1553 Clouds 17 1009 23 10000 10.8 200 08:22 10.05.2022
1554 Clouds 19 1008 16 10000 8.23 210 06:21 10.05.2022
1555 Clouds 22 1007 11 10000 12.35 230 02:31 10.05.2022
1556 Clouds 22 1008 14 10000 9.77 240 23:55 09.05.2022
1557 Clouds 22 1008 15 10000 7.2 190 22:41 09.05.2022
1558 Clouds 21 1009 16 10000 7.2 180 21:42 09.05.2022
1559 Clear 18 1010 16 10000 2.06 0 20:21 09.05.2022
1560 Clear 17 1011 17 10000 5.66 320 18:26 09.05.2022
1561 Clear 16 1009 20 10000 6.69 330 17:27 09.05.2022
1562 Clear 14 1008 23 10000 9.26 310 16:19 09.05.2022
1563 Clear 13 1008 25 10000 8.23 310 15:47 09.05.2022
1564 Clear 13 1007 24 10000 8.75 300 14:37 09.05.2022
1565 Clear 12 1009 29 10000 1.08 333 13:59 09.05.2022
1566 Clear 13 1007 24 10000 5.14 340 13:23 09.05.2022
1567 Dust 14 1006 25 10000 4.63 220 11:53 09.05.2022
1568 Dust 16 1005 19 10000 7.72 230 10:48 09.05.2022
1569 Dust 15 1005 21 10000 7.72 230 10:26 09.05.2022
1570 Dust 18 1002 16 10000 10.29 220 07:57 09.05.2022
1571 Dust 22 1000 15 10000 10.8 230 05:53 09.05.2022
1572 Dust 28 997 14 10000 9.77 200 00:59 09.05.2022
1573 Dust 28 998 15 6437 15.95 210 23:28 08.05.2022
1574 Clear 27 999 17 10000 13.89 200 22:32 08.05.2022
1575 Clear 26 1000 18 10000 12.35 240 21:20 08.05.2022
1576 Clear 26 1001 19 10000 10.29 230 20:23 08.05.2022
1577 Clear 24 1002 21 10000 7.72 200 19:33 08.05.2022
1578 Clear 24 1001 22 10000 10.8 220 18:38 08.05.2022
1579 Clear 22 1001 25 10000 10.8 210 17:39 08.05.2022
1580 Clear 18 1001 29 10000 8.23 200 15:46 08.05.2022
1581 Clear 18 1001 29 10000 8.23 200 15:22 08.05.2022
1582 Clouds 20 1000 18 10000 11.32 210 12:46 08.05.2022
1583 Clear 21 997 19 10000 0.89 234 10:59 08.05.2022
1584 Clouds 22 1000 18 10000 11.32 210 10:22 08.05.2022
1585 Dust 22 1000 16 10000 10.8 200 09:51 08.05.2022
1586 Dust 25 1001 11 10000 11.32 200 07:43 08.05.2022
1587 Clouds 26 999 17 10000 6.97 241 05:57 08.05.2022
1588 Dust 31 1000 11 10000 11.83 220 03:21 08.05.2022
1589 Clouds 34 1001 15 10000 14.4 240 00:42 08.05.2022
1590 Clouds 33 1002 16 10000 7.2 230 23:55 07.05.2022
1591 Clear 33 1000 17 10000 6.71 314 22:59 07.05.2022
1592 Clouds 32 1003 17 10000 10.8 220 22:35 07.05.2022
1593 Clouds 31 1004 19 10000 10.8 220 21:55 07.05.2022
1594 Clouds 31 1004 19 10000 10.8 220 21:20 07.05.2022
1595 Clouds 30 1001 21 10000 2.24 334 19:59 07.05.2022
1596 Clouds 28 1005 23 10000 6.17 200 18:41 07.05.2022
1597 Clouds 24 1006 27 10000 8.75 210 16:19 07.05.2022
1598 Clouds 24 1005 21 10000 7.72 180 14:51 07.05.2022
1599 Clouds 26 1006 20 10000 5.66 210 11:21 07.05.2022
1600 Clouds 28 1007 17 10000 10.29 200 09:39 07.05.2022
1601 Clouds 30 1007 15 10000 9.26 190 08:28 07.05.2022
1602 Clouds 32 1007 13 10000 7.72 190 06:44 07.05.2022
1603 Clouds 33 1006 12 10000 7.72 220 05:41 07.05.2022
1604 Clouds 34 1006 14 10000 9.77 190 03:54 07.05.2022
1605 Clouds 35 1009 14 10000 6.17 240 23:41 06.05.2022
1606 Clouds 33 1011 15 10000 3.09 0 22:34 06.05.2022
1607 Clouds 32 1011 15 10000 5.14 160 21:47 06.05.2022
1608 Clouds 31 1012 15 10000 3.09 110 20:39 06.05.2022
1609 Clouds 29 1012 18 10000 3.6 240 19:43 06.05.2022
1610 Clouds 28 1012 18 10000 3.6 240 19:19 06.05.2022
1611 Clouds 27 1012 21 10000 4.63 230 18:25 06.05.2022
1612 Clouds 25 1012 20 10000 4.63 210 17:27 06.05.2022
1613 Clouds 22 1011 23 10000 5.66 210 15:49 06.05.2022
1614 Clouds 19 1007 29 10000 0.45 350 14:58 06.05.2022
1615 Clouds 22 1010 21 10000 7.72 200 13:31 06.05.2022
1616 Clouds 23 1010 19 10000 8.23 190 12:41 06.05.2022
1617 Clouds 21 1007 23 10000 0.45 301 11:58 06.05.2022
1618 Clouds 26 1011 14 10000 8.75 200 10:36 06.05.2022
1619 Clouds 27 1011 11 10000 8.75 180 09:46 06.05.2022
1620 Clouds 27 1011 10 10000 7.2 210 08:52 06.05.2022
1621 Clouds 28 1011 10 10000 6.17 210 07:26 06.05.2022
1622 Clouds 30 1010 10 10000 5.66 230 05:48 06.05.2022
1623 Clouds 33 1010 10 10000 6.69 240 02:51 06.05.2022
1624 Clouds 33 1010 10 10000 6.17 240 01:31 06.05.2022
1625 Clouds 31 1013 15 10000 4.12 100 22:45 05.05.2022
1626 Clouds 31 1013 15 10000 4.12 100 22:45 05.05.2022
1627 Clouds 29 1014 17 10000 6.17 140 21:31 05.05.2022
1628 Clouds 27 1015 20 10000 3.09 120 20:26 05.05.2022
1629 Smoke 24 1016 23 10000 5.14 60 18:35 05.05.2022
1630 Clear 20 1016 30 10000 3.6 160 16:35 05.05.2022
1631 Clear 17 1015 32 10000 5.14 70 14:51 05.05.2022
1632 Clear 17 1015 31 10000 4.63 70 13:24 05.05.2022
1633 Clear 17 1015 32 10000 1.54 220 12:53 05.05.2022
1634 Clear 19 1015 26 10000 3.6 200 10:52 05.05.2022
1635 Clear 19 1014 26 10000 3.6 200 09:40 05.05.2022
1636 Clouds 22 1014 24 10000 3.6 160 07:36 05.05.2022
1637 Clouds 24 1013 22 10000 3.09 150 05:19 05.05.2022
1638 Clear 28 1011 19 10000 1.79 246 01:59 05.05.2022
1639 Clouds 27 1013 18 10000 4.12 10 01:29 05.05.2022
1640 Clear 27 1015 19 10000 5.14 60 23:52 04.05.2022
1641 Clear 26 1016 20 10000 5.66 50 22:42 04.05.2022
1642 Clear 25 1016 21 10000 7.2 10 21:50 04.05.2022
1643 Clear 25 1016 21 10000 7.2 10 21:29 04.05.2022
1644 Clouds 24 1017 22 10000 6.17 20 20:27 04.05.2022
1645 Clouds 23 1017 25 10000 7.72 30 19:53 04.05.2022
1646 Clouds 22 1017 23 10000 7.72 30 19:18 04.05.2022
1647 Clear 21 1017 25 10000 6.17 30 18:22 04.05.2022
1648 Clear 20 1017 26 10000 8.23 40 17:51 04.05.2022
1649 Clear 17 1016 29 10000 6.17 340 15:42 04.05.2022
1650 Clear 16 1017 29 10000 6.17 340 15:23 04.05.2022
1651 Clear 16 1017 28 10000 7.72 340 14:21 04.05.2022
1652 Clear 17 1017 28 10000 8.23 10 13:35 04.05.2022
1653 Clear 17 1016 27 10000 8.75 20 12:33 04.05.2022
1654 Clear 18 1015 27 10000 7.72 30 10:41 04.05.2022
1655 Clear 19 1015 25 10000 7.72 50 09:44 04.05.2022
1656 Clear 20 1013 23 10000 10.8 40 08:47 04.05.2022
1657 Clear 20 1013 23 10000 10.8 40 08:47 04.05.2022
1658 Clear 21 1011 17 10000 3.6 300 06:49 04.05.2022
1659 Clear 27 1008 13 10000 5.36 57 02:59 04.05.2022
1660 Clear 26 1011 12 10000 10.29 330 00:48 04.05.2022
1661 Clouds 25 1012 12 10000 11.32 330 22:40 03.05.2022
1662 Clear 24 1013 13 10000 9.26 350 21:46 03.05.2022
1663 Clear 24 1011 15 10000 7.72 310 20:56 03.05.2022
1664 Clear 23 1013 15 10000 10.29 330 20:30 03.05.2022
1665 Clear 20 1012 19 10000 11.83 350 18:54 03.05.2022
1666 Clear 20 1012 19 10000 11.83 350 18:21 03.05.2022
1667 Clear 18 1011 22 10000 13.38 340 16:44 03.05.2022
1668 Clouds 18 1008 23 10000 10.8 310 15:38 03.05.2022
1669 Clouds 21 1005 19 10000 9.26 220 12:48 03.05.2022
1670 Clouds 21 1004 22 10000 9.26 220 12:27 03.05.2022
1671 Clouds 21 1004 22 10000 9.26 220 12:27 03.05.2022
1672 Clear 21 1001 22 10000 0.89 294 10:57 03.05.2022
1673 Clouds 24 1004 14 10000 12.35 200 09:35 03.05.2022
1674 Clouds 26 1004 13 10000 7.72 190 07:33 03.05.2022
1675 Clouds 27 1004 12 10000 9.26 200 06:45 03.05.2022
1676 Clouds 31 1006 12 10000 7.72 190 01:52 03.05.2022
1677 Clouds 28 1011 16 10000 7.72 190 22:44 02.05.2022
1678 Clouds 26 1013 19 10000 2.06 90 21:55 02.05.2022
1679 Clouds 25 1013 19 10000 3.6 170 21:23 02.05.2022
1680 Clouds 21 1014 23 10000 3.09 360 18:46 02.05.2022
1681 Clouds 21 1014 24 10000 3.09 360 18:25 02.05.2022
1682 Clear 20 1014 26 10000 3.6 20 17:37 02.05.2022
1683 Clear 17 1014 30 10000 2.06 320 16:23 02.05.2022
1684 Clear 16 1014 30 10000 4.12 330 15:37 02.05.2022
1685 Clear 16 1012 30 10000 2.23 339 13:58 02.05.2022
1686 Clear 17 1013 26 10000 2.57 50 12:27 02.05.2022
1687 Clear 18 1013 23 10000 4.63 320 10:52 02.05.2022
1688 Clear 19 1013 20 10000 5.14 330 09:30 02.05.2022
1689 Clear 20 1010 21 10000 5.4 339 07:57 02.05.2022
1690 Clear 24 1008 12 10000 12.35 340 04:44 02.05.2022
1691 Clouds 29 1005 15 10000 10.8 320 00:25 02.05.2022
1692 Clouds 29 1005 15 10000 9.26 330 23:52 01.05.2022
1693 Clear 28 1005 17 10000 9.26 350 22:40 01.05.2022
1694 Clear 28 1006 18 10000 8.75 300 21:30 01.05.2022
1695 Clear 27 1005 17 10000 9.26 310 20:19 01.05.2022
1696 Clear 26 1005 20 10000 11.32 320 19:18 01.05.2022
1697 Clear 25 1004 19 10000 8.75 310 18:46 01.05.2022
1698 Clear 23 1004 23 10000 7.72 240 17:46 01.05.2022
1699 Clear 20 1004 28 10000 9.77 210 16:24 01.05.2022
1700 Clear 19 1003 28 10000 6.17 210 15:38 01.05.2022
1701 Clear 20 1002 22 10000 8.23 220 13:52 01.05.2022
1702 Clear 22 1003 16 10000 9.26 170 11:28 01.05.2022
1703 Clear 24 1005 9 10000 11.32 200 09:32 01.05.2022
1704 Clear 25 1005 11 10000 10.29 210 08:47 01.05.2022
1705 Clear 30 1005 6 10000 8.75 210 04:31 01.05.2022
1706 Clouds 31 1009 11 10000 3.09 0 00:34 01.05.2022
1707 Clouds 27 1014 13 10000 3.09 120 21:51 30.04.2022
1708 Clouds 27 1014 13 10000 3.09 120 21:19 30.04.2022
1709 Clouds 25 1015 15 10000 4.63 40 19:45 30.04.2022
1710 Clouds 24 1015 16 10000 3.09 160 18:45 30.04.2022
1711 Clouds 19 1015 20 10000 4.12 70 16:54 30.04.2022
1712 Clouds 16 1014 22 10000 5.14 80 15:48 30.04.2022
1713 Clear 15 1014 22 10000 2.57 140 14:53 30.04.2022
1714 Clear 17 1014 21 10000 2.06 210 13:30 30.04.2022
1715 Clear 18 1014 18 10000 4.12 190 11:34 30.04.2022
1716 Clear 18 1015 18 10000 3.6 180 10:49 30.04.2022
1717 Clear 19 1015 17 10000 1.54 230 09:48 30.04.2022
1718 Clear 22 1014 16 10000 2.57 120 06:48 30.04.2022
1719 Clouds 28 1013 11 10000 3.09 120 03:34 30.04.2022
1720 Clear 26 1016 14 10000 4.12 10 23:53 29.04.2022
1721 Clouds 25 1016 14 10000 5.66 40 22:34 29.04.2022
1722 Clear 25 1017 15 10000 6.17 40 21:54 29.04.2022
1723 Clear 23 1017 15 10000 8.75 10 20:51 29.04.2022
1724 Clear 22 1017 16 10000 9.26 30 19:47 29.04.2022
1725 Clear 21 1017 18 10000 9.26 10 18:36 29.04.2022
1726 Clear 19 1016 18 10000 8.75 350 17:25 29.04.2022
1727 Clear 17 1015 20 10000 9.77 320 15:52 29.04.2022
1728 Clear 17 1013 19 10000 9.26 340 14:23 29.04.2022
1729 Clear 16 1013 20 10000 3.6 190 13:22 29.04.2022
1730 Clear 18 1011 16 10000 6.17 330 11:50 29.04.2022
1731 Clear 19 1009 13 10000 6.69 200 09:23 29.04.2022
1732 Clear 21 1007 14 10000 8.23 200 07:28 29.04.2022
1733 Clear 22 1006 11 10000 10.29 210 06:46 29.04.2022
1734 Clear 23 1005 14 10000 7.72 200 05:44 29.04.2022
1735 Clear 28 1006 8 10000 11.83 220 00:46 29.04.2022
1736 Clear 28 1006 8 10000 11.83 230 23:48 28.04.2022
1737 Clear 28 1007 9 10000 10.8 210 22:45 28.04.2022
1738 Clouds 27 1007 10 10000 12.35 200 21:47 28.04.2022
1739 Clouds 27 1007 10 10000 12.35 200 21:22 28.04.2022
1740 Clouds 26 1008 11 10000 12.86 200 20:35 28.04.2022
1741 Clear 24 1007 12 10000 10.29 220 19:46 28.04.2022
1742 Clouds 23 1007 12 10000 10.29 220 19:23 28.04.2022
1743 Clouds 22 1007 13 10000 9.26 200 18:36 28.04.2022
1744 Clouds 20 1007 15 10000 9.77 190 17:26 28.04.2022
1745 Clouds 19 1006 17 10000 7.2 180 16:41 28.04.2022
1746 Clouds 19 1006 16 10000 7.2 180 16:19 28.04.2022
1747 Clouds 18 1006 16 10000 9.26 200 15:40 28.04.2022
1748 Clouds 19 1007 17 10000 8.23 220 14:36 28.04.2022
1749 Clouds 20 1007 19 10000 9.77 220 12:55 28.04.2022
1750 Clouds 20 1006 20 10000 4.64 205 11:59 28.04.2022
1751 Clouds 22 1008 19 10000 6.69 190 10:47 28.04.2022
1752 Clouds 22 1008 18 10000 6.69 190 10:26 28.04.2022
1753 Clouds 24 1008 16 10000 9.26 210 08:44 28.04.2022
1754 Clouds 25 1008 16 10000 8.94 230 07:37 28.04.2022
1755 Clouds 27 1007 14 10000 8.23 200 06:33 28.04.2022
1756 Clouds 27 1007 12 10000 6.69 200 05:39 28.04.2022
1757 Clouds 28 1007 14 10000 7.72 220 04:40 28.04.2022
1758 Clouds 31 1006 14 10000 7.72 190 00:36 28.04.2022
1759 Clouds 30 1007 14 10000 6.26 190 22:45 27.04.2022
1760 Clear 30 1005 17 10000 4.02 275 21:56 27.04.2022
1761 Clouds 29 1008 14 10000 7.72 210 21:26 27.04.2022
1762 Clear 28 1009 16 10000 7.2 200 20:38 27.04.2022
1763 Clear 27 1009 17 10000 7.2 200 19:38 27.04.2022
1764 Clear 27 1009 18 10000 7.2 200 19:18 27.04.2022
1765 Clear 25 1009 20 10000 8.75 210 18:25 27.04.2022
1766 Clouds 22 1009 22 10000 8.75 200 17:26 27.04.2022
1767 Clouds 19 1008 24 10000 8.23 180 15:22 27.04.2022
1768 Clouds 22 1008 20 10000 5.14 200 12:27 27.04.2022
1769 Clouds 22 1008 18 10000 6.17 190 11:21 27.04.2022
1770 Clouds 23 1007 12 10000 4.63 200 09:45 27.04.2022
1771 Clouds 24 1008 13 10000 4.12 180 07:25 27.04.2022
1772 Clouds 26 1008 10 10000 5.14 190 05:37 27.04.2022
1773 Clouds 31 1008 8 10000 4.63 160 01:52 27.04.2022
1774 Clouds 31 1009 8 10000 4.63 130 00:52 27.04.2022
1775 Clouds 31 1008 10 10000 3.13 236 23:57 26.04.2022
1776 Clouds 30 1010 8 10000 6.69 100 23:23 26.04.2022
1777 Clouds 29 1011 9 10000 6.26 80 22:41 26.04.2022
1778 Clouds 28 1012 11 10000 4.63 50 21:48 26.04.2022
1779 Clouds 27 1013 10 10000 3.6 140 20:53 26.04.2022
1780 Clouds 26 1013 10 10000 3.6 90 20:33 26.04.2022
1781 Clouds 25 1013 11 10000 3.09 50 19:32 26.04.2022
1782 Clouds 23 1013 14 10000 3.6 110 18:45 26.04.2022
1783 Clouds 22 1012 15 10000 1.68 130 17:59 26.04.2022
1784 Clouds 20 1014 16 10000 1.54 180 17:22 26.04.2022
1785 Clouds 15 1014 18 10000 2.06 330 14:28 26.04.2022
1786 Clouds 16 1014 18 10000 2.57 300 13:33 26.04.2022
1787 Clouds 16 1012 19 10000 0.89 331 11:57 26.04.2022
1788 Clouds 17 1014 17 10000 3.6 200 10:37 26.04.2022
1789 Clouds 18 1014 16 10000 2.57 300 09:25 26.04.2022
1790 Clear 19 1015 16 10000 3.6 60 07:38 26.04.2022
1791 Clouds 24 1014 11 10000 2.06 60 04:33 26.04.2022
1792 Clouds 26 1016 10 10000 2.24 0 01:30 26.04.2022
1793 Clouds 26 1017 11 10000 5.66 60 00:26 26.04.2022
1794 Clouds 25 1018 13 10000 3.09 90 22:36 25.04.2022
1795 Clouds 24 1020 13 10000 7.2 50 21:42 25.04.2022
1796 Clouds 24 1021 15 10000 4.63 90 20:40 25.04.2022
1797 Clouds 22 1020 21 10000 1.34 207 18:58 25.04.2022
1798 Clouds 19 1021 20 10000 6.17 10 17:54 25.04.2022
1799 Clear 17 1020 25 10000 1.34 305 16:59 25.04.2022
1800 Clouds 13 1021 25 10000 4.63 360 15:29 25.04.2022
1801 Clear 13 1020 26 10000 6.17 40 14:42 25.04.2022
1802 Clear 14 1020 25 10000 6.26 50 13:33 25.04.2022
1803 Clear 15 1019 21 10000 4.12 40 11:38 25.04.2022
1804 Clear 16 1020 21 10000 5.66 40 10:26 25.04.2022
1805 Clear 16 1019 20 10000 2.68 280 08:39 25.04.2022
1806 Clear 18 1018 21 10000 4.12 40 06:39 25.04.2022
1807 Clouds 23 1017 13 10000 4.63 40 03:47 25.04.2022
1808 Clouds 24 1018 13 10000 4.12 360 00:43 25.04.2022
1809 Clouds 23 1019 14 10000 9.26 30 23:51 24.04.2022
1810 Clear 22 1019 15 10000 6.17 360 22:41 24.04.2022
1811 Clear 22 1020 15 10000 6.69 30 22:20 24.04.2022
1812 Clear 21 1020 16 10000 9.26 40 21:26 24.04.2022
1813 Clear 21 1021 17 10000 9.26 40 20:48 24.04.2022
1814 Clear 21 1021 17 10000 9.26 40 20:29 24.04.2022
1815 Clear 20 1021 18 10000 8.75 30 19:45 24.04.2022
1816 Clear 18 1020 20 10000 6.71 340 18:20 24.04.2022
1817 Clear 17 1020 22 10000 7.72 330 17:28 24.04.2022
1818 Clear 16 1019 26 10000 3.13 48 16:58 24.04.2022
1819 Clear 15 1020 24 10000 6.17 320 16:32 24.04.2022
1820 Clear 14 1019 25 10000 5.81 340 15:54 24.04.2022
1821 Clear 14 1018 26 10000 2.24 16 14:58 24.04.2022
1822 Clear 14 1018 25 10000 3.13 34 13:56 24.04.2022
1823 Clear 15 1018 22 10000 5.66 330 13:24 24.04.2022
1824 Clear 15 1017 24 10000 2.68 53 11:56 24.04.2022
1825 Clear 16 1018 20 10000 7.2 350 11:27 24.04.2022
1826 Clear 17 1018 20 10000 5.66 20 09:55 24.04.2022
1827 Clear 18 1017 18 10000 12.86 40 08:51 24.04.2022
1828 Clouds 20 1016 16 10000 6.69 20 06:18 24.04.2022
1829 Clouds 22 1015 15 10000 7.2 290 03:37 24.04.2022
1830 Clouds 22 1015 15 10000 7.2 290 03:37 24.04.2022
1831 Clouds 23 1016 14 10000 6.69 320 01:37 24.04.2022
1832 Clouds 23 1017 16 10000 8.23 360 23:57 23.04.2022
1833 Clouds 23 1017 17 10000 8.23 360 23:26 23.04.2022
1834 Clouds 22 1018 18 10000 6.17 70 22:46 23.04.2022
1835 Clouds 21 1018 20 10000 7.2 10 21:51 23.04.2022
1836 Clouds 21 1019 20 10000 7.72 40 21:32 23.04.2022
1837 Clouds 20 1019 22 10000 8.75 320 20:33 23.04.2022
1838 Clouds 18 1019 24 10000 7.72 360 19:41 23.04.2022
1839 Clouds 18 1019 25 10000 7.72 360 19:18 23.04.2022
1840 Clouds 18 1019 27 10000 9.39 350 18:46 23.04.2022
1841 Clouds 16 1019 31 10000 6.69 330 17:48 23.04.2022
1842 Clouds 14 1019 37 10000 8.23 320 16:49 23.04.2022
1843 Clouds 13 1018 39 10000 8.23 320 16:21 23.04.2022
1844 Clear 12 1017 40 10000 5.66 320 14:27 23.04.2022
1845 Clear 13 1016 39 10000 0.89 103 11:59 23.04.2022
1846 Clear 14 1016 39 10000 4.12 330 10:40 23.04.2022
1847 Clouds 14 1015 41 10000 3.6 150 08:30 23.04.2022
1848 Clouds 16 1013 41 10000 5.81 80 05:45 23.04.2022
1849 Clouds 18 1011 34 10000 10.29 50 03:54 23.04.2022
1850 Clouds 19 1010 28 10000 4.63 230 00:18 23.04.2022
1851 Clouds 18 1010 34 10000 5.14 220 23:25 22.04.2022
1852 Rain 15 1012 53 10000 3.6 260 21:59 22.04.2022
1853 Clouds 12 1012 66 10000 8.23 320 21:40 22.04.2022
1854 Rain 15 1011 45 10000 11.83 300 20:37 22.04.2022
1855 Clouds 14 1009 48 10000 8.75 350 19:39 22.04.2022
1856 Clouds 14 1009 46 10000 9.39 270 19:18 22.04.2022
1857 Clouds 14 1007 45 10000 10.8 230 18:28 22.04.2022
1858 Clouds 14 1006 46 10000 10.8 220 17:24 22.04.2022
1859 Clouds 13 1003 49 10000 4.47 252 15:59 22.04.2022
1860 Clouds 13 1005 51 10000 10.29 220 15:31 22.04.2022
1861 Clouds 13 1006 53 10000 12.35 210 14:38 22.04.2022
1862 Clouds 13 1006 53 10000 12.35 210 14:38 22.04.2022
1863 Clouds 14 1006 49 10000 11.32 230 13:42 22.04.2022
1864 Clouds 14 1006 45 10000 9.26 230 12:48 22.04.2022
1865 Clouds 17 1006 36 10000 9.77 210 11:23 22.04.2022
1866 Clouds 17 1004 38 10000 5.36 208 10:57 22.04.2022
1867 Clouds 17 1006 33 10000 9.77 200 10:34 22.04.2022
1868 Clouds 17 1004 34 10000 4.02 203 09:59 22.04.2022
1869 Clouds 18 1006 28 10000 10.8 200 09:22 22.04.2022
1870 Clouds 19 1006 27 10000 11.83 210 08:48 22.04.2022
1871 Clouds 21 1007 21 10000 10.29 220 06:42 22.04.2022
1872 Clouds 28 1006 12 10000 14.92 200 01:24 22.04.2022
1873 Clouds 27 1008 11 10000 11.32 200 23:33 21.04.2022
1874 Clouds 27 1008 13 10000 12.35 220 22:47 21.04.2022
1875 Clouds 25 1009 15 10000 13.89 190 21:42 21.04.2022
1876 Clouds 24 1010 17 10000 13.38 200 20:31 21.04.2022
1877 Clear 22 1010 19 10000 12.35 210 18:49 21.04.2022
1878 Clear 22 1010 19 10000 12.35 210 18:28 21.04.2022
1879 Clear 20 1009 25 10000 11.32 190 17:19 21.04.2022
1880 Clear 18 1009 30 10000 9.26 180 15:25 21.04.2022
1881 Clear 18 1008 29 10000 8.23 170 14:52 21.04.2022
1882 Clear 18 1008 30 10000 8.23 170 14:18 21.04.2022
1883 Clear 19 1008 31 10000 9.77 180 13:21 21.04.2022
1884 Clear 19 1007 31 10000 10.29 190 12:22 21.04.2022
1885 Clear 22 1009 24 10000 8.23 190 09:36 21.04.2022
1886 Clear 22 1008 23 10000 9.26 200 08:46 21.04.2022
1887 Clear 25 1008 17 10000 10.29 230 06:44 21.04.2022
1888 Clouds 27 1006 16 10000 9.26 210 03:41 21.04.2022
1889 Clouds 28 1006 15 10000 9.77 220 03:22 21.04.2022
1890 Clouds 29 1006 15 10000 7.2 210 02:44 21.04.2022
1891 Clouds 29 1006 15 10000 7.2 210 02:44 21.04.2022
1892 Haze 29 1007 17 10000 7.2 150 00:35 21.04.2022
1893 Clouds 28 1008 18 10000 4.63 240 23:37 20.04.2022
1894 Clouds 28 1008 19 10000 4.63 240 23:18 20.04.2022
1895 Clouds 27 1009 21 10000 4.12 170 22:34 20.04.2022
1896 Clouds 25 1010 23 10000 5.14 170 21:43 20.04.2022
1897 Clouds 24 1010 24 10000 3.6 100 20:44 20.04.2022
1898 Clouds 24 1010 24 10000 3.6 100 20:44 20.04.2022
1899 Clouds 24 1010 24 10000 3.6 100 20:44 20.04.2022
1900 Clouds 23 1010 25 10000 3.6 100 20:21 20.04.2022
1901 Clear 23 1010 27 10000 1.79 156 19:44 20.04.2022
1902 Clouds 21 1010 30 10000 4.63 230 18:46 20.04.2022
1903 Clouds 19 1009 33 10000 7.2 200 17:49 20.04.2022
1904 Clouds 17 1009 37 10000 7.2 200 16:39 20.04.2022
1905 Clear 15 1004 40 10000 0.45 179 14:58 20.04.2022
1906 Clouds 18 1008 31 10000 7.2 210 12:22 20.04.2022
1907 Clouds 19 1007 29 10000 8.23 210 11:40 20.04.2022
1908 Clouds 19 1007 27 10000 8.23 210 10:39 20.04.2022
1909 Clouds 20 1006 28 10000 10.29 200 09:28 20.04.2022
1910 Dust 20 1005 26 10000 11.32 210 08:27 20.04.2022
1911 Dust 21 1004 25 10000 10.8 200 07:53 20.04.2022
1912 Clouds 23 1003 21 10000 8.23 210 05:29 20.04.2022
1913 Clouds 29 1002 11 10000 15.95 200 01:35 20.04.2022
1914 Clouds 30 1002 9 10000 12.35 230 00:21 20.04.2022
1915 Clouds 30 1004 10 10000 15.43 220 22:53 19.04.2022
1916 Clouds 29 1004 10 10000 15.43 220 22:23 19.04.2022
1917 Clouds 29 1005 11 10000 14.4 210 21:48 19.04.2022
1918 Clear 29 1003 13 10000 14.4 210 20:57 19.04.2022
1919 Clouds 28 1006 12 10000 14.4 210 20:37 19.04.2022
1920 Clouds 26 1006 12 10000 13.38 210 19:32 19.04.2022
1921 Clouds 25 1006 13 10000 13.89 160 18:30 19.04.2022
1922 Clouds 23 1007 14 10000 12.35 200 16:50 19.04.2022
1923 Clouds 22 1008 15 10000 12.35 200 16:25 19.04.2022
1924 Clouds 22 1003 18 10000 2.24 205 15:59 19.04.2022
1925 Clouds 22 1007 14 10000 11.83 220 14:44 19.04.2022
1926 Clouds 23 1006 13 10000 12.35 190 12:53 19.04.2022
1927 Clouds 23 1006 12 10000 12.35 190 12:31 19.04.2022
1928 Clouds 24 1007 13 10000 9.77 190 11:34 19.04.2022
1929 Clouds 26 1008 10 10000 8.23 200 09:35 19.04.2022
1930 Clouds 26 1009 10 10000 6.17 200 07:43 19.04.2022
1931 Clouds 30 1007 8 10000 8.23 240 04:25 19.04.2022
1932 Clouds 32 1009 7 10000 7.72 250 01:41 19.04.2022
1933 Clouds 32 1011 6 10000 5.66 200 23:49 18.04.2022
1934 Clouds 31 1012 8 10000 6.17 240 22:46 18.04.2022
1935 Clouds 29 1013 9 10000 5.36 80 21:25 18.04.2022
1936 Clouds 27 1014 12 10000 5.14 210 20:39 18.04.2022
1937 Clouds 27 1011 17 10000 1.34 130 19:59 18.04.2022
1938 Clouds 25 1014 14 10000 5.14 210 19:33 18.04.2022
1939 Clouds 24 1014 15 10000 6.17 200 18:45 18.04.2022
1940 Clouds 22 1014 17 10000 3.6 190 17:49 18.04.2022
1941 Clouds 21 1014 17 10000 3.6 190 17:19 18.04.2022
1942 Clouds 19 1014 18 10000 2.06 340 16:39 18.04.2022
1943 Clouds 17 1014 18 10000 2.57 310 15:32 18.04.2022
1944 Clouds 17 1014 16 10000 3.6 210 14:27 18.04.2022
1945 Clear 18 1014 19 10000 3.09 60 12:56 18.04.2022
1946 Clouds 19 1014 15 10000 6.69 200 12:24 18.04.2022
1947 Clouds 20 1014 14 10000 5.66 170 10:47 18.04.2022
1948 Clouds 20 1014 13 10000 4.12 190 09:53 18.04.2022
1949 Clouds 20 1015 13 10000 4.12 190 09:27 18.04.2022
1950 Clouds 23 1015 11 10000 2.68 180 07:25 18.04.2022
1951 Clouds 30 1014 9 10000 4.12 230 02:45 18.04.2022
1952 Clear 28 1017 16 10000 3.09 0 23:23 17.04.2022
1953 Clear 27 1018 17 10000 3.09 130 22:37 17.04.2022
1954 Clear 26 1019 19 10000 3.09 0 21:34 17.04.2022
1955 Clear 24 1020 21 10000 2.06 50 20:52 17.04.2022
1956 Clear 23 1020 21 10000 2.06 50 20:19 17.04.2022
1957 Clear 22 1018 25 10000 0.89 134 18:58 17.04.2022
1958 Clear 18 1019 26 10000 3.09 200 17:31 17.04.2022
1959 Clear 13 1017 33 10000 4.63 200 15:37 17.04.2022
1960 Clear 13 1017 34 10000 5.14 210 14:46 17.04.2022
1961 Clear 14 1016 32 10000 5.14 220 13:37 17.04.2022
1962 Clear 15 1016 32 10000 4.63 230 12:49 17.04.2022
1963 Clear 16 1013 31 10000 0.78 232 10:59 17.04.2022
1964 Clear 17 1015 28 10000 6.17 180 10:30 17.04.2022
1965 Clear 18 1015 28 10000 5.14 180 09:55 17.04.2022
1966 Clear 18 1015 26 10000 5.14 180 09:21 17.04.2022
1967 Dust 19 1014 23 10000 5.14 190 08:41 17.04.2022
1968 Dust 21 1012 22 10000 7.2 180 06:32 17.04.2022
1969 Dust 25 1009 18 10000 13.38 220 02:31 17.04.2022
1970 Clouds 25 1009 18 10000 16.98 220 00:42 17.04.2022
1971 Clouds 25 1009 18 10000 14.92 240 23:38 16.04.2022
1972 Clouds 24 1010 22 10000 14.4 200 21:49 16.04.2022
1973 Clouds 23 1010 23 10000 14.92 190 20:54 16.04.2022
1974 Clouds 23 1010 23 10000 13.89 180 19:30 16.04.2022
1975 Clouds 22 1009 24 10000 13.38 180 18:44 16.04.2022
1976 Clouds 20 1009 27 10000 12.86 180 17:21 16.04.2022
1977 Clouds 18 1009 29 10000 10.29 210 16:19 16.04.2022
1978 Clear 18 1006 31 10000 2.24 225 14:59 16.04.2022
1979 Clouds 18 1009 28 10000 8.75 200 14:41 16.04.2022
1980 Clouds 18 1008 28 10000 8.23 170 13:50 16.04.2022
1981 Clouds 18 1008 28 10000 8.23 170 13:18 16.04.2022
1982 Clouds 19 1009 25 10000 9.26 210 11:50 16.04.2022
1983 Clouds 20 1009 24 10000 6.69 180 10:35 16.04.2022
1984 Clouds 20 1009 23 10000 8.23 200 09:37 16.04.2022
1985 Clouds 21 1009 22 10000 6.69 180 08:52 16.04.2022
1986 Clouds 22 1009 21 10000 6.17 140 07:23 16.04.2022
1987 Clouds 23 1008 20 10000 5.66 210 05:45 16.04.2022
1988 Clouds 27 1008 18 10000 7.72 260 01:49 16.04.2022
1989 Clouds 26 1010 18 10000 6.69 230 23:52 15.04.2022
1990 Clouds 24 1010 18 10000 3.09 230 22:51 15.04.2022
1991 Clouds 24 1010 19 10000 3.09 230 22:29 15.04.2022
1992 Clouds 23 1012 20 10000 3.09 0 21:25 15.04.2022
1993 Clouds 22 1012 21 10000 4.12 180 20:38 15.04.2022
1994 Clouds 21 1012 23 10000 3.09 70 19:46 15.04.2022
1995 Clouds 20 1012 23 10000 3.09 70 19:23 15.04.2022
1996 Clouds 19 1012 26 10000 5.14 230 18:42 15.04.2022
1997 Clouds 18 1012 27 10000 5.14 230 18:22 15.04.2022
1998 Clear 16 1011 29 10000 5.66 200 17:27 15.04.2022
1999 Clouds 14 1010 33 10000 5.14 210 16:25 15.04.2022
2000 Clouds 14 1009 34 10000 4.63 200 15:52 15.04.2022
2001 Clouds 14 1008 34 10000 6.69 210 14:20 15.04.2022
2002 Clear 15 1007 30 10000 10.29 220 12:53 15.04.2022
2003 Clear 16 1007 28 10000 10.29 220 12:26 15.04.2022
2004 Dust 17 1007 26 10000 9.77 200 11:52 15.04.2022
2005 Dust 17 1007 24 10000 8.75 200 10:48 15.04.2022
2006 Dust 18 1007 23 10000 8.75 200 10:21 15.04.2022
2007 Clear 19 1006 23 10000 7.2 190 09:23 15.04.2022
2008 Clear 19 1006 22 10000 8.94 210 08:49 15.04.2022
2009 Clouds 22 1007 18 10000 8.75 220 06:51 15.04.2022
2010 Clouds 23 1006 16 10000 6.69 210 04:49 15.04.2022
2011 Clouds 24 1009 12 10000 7.2 140 00:51 15.04.2022
2012 Clouds 24 1011 13 10000 5.14 130 23:28 14.04.2022
2013 Clouds 23 1012 14 10000 7.2 210 22:46 14.04.2022
2014 Clouds 22 1012 14 10000 7.2 210 22:27 14.04.2022
2015 Clouds 21 1013 14 10000 2.68 100 21:50 14.04.2022
2016 Clouds 18 1014 13 10000 2.57 230 19:53 14.04.2022
2017 Clouds 18 1014 14 10000 2.57 230 19:22 14.04.2022
2018 Clouds 15 1014 14 10000 4.63 200 17:48 14.04.2022
2019 Clouds 14 1014 15 10000 4.63 200 17:18 14.04.2022
2020 Clouds 11 1014 18 10000 4.12 200 16:21 14.04.2022
2021 Clear 12 1013 17 10000 6.69 210 13:54 14.04.2022
2022 Clear 11 1013 17 10000 6.69 210 13:26 14.04.2022
2023 Clear 12 1013 15 10000 3.6 180 12:33 14.04.2022
2024 Clear 13 1014 13 10000 4.12 180 11:47 14.04.2022
2025 Clear 13 1014 13 10000 4.12 180 11:20 14.04.2022
2026 Clear 14 1014 13 10000 6.17 210 10:33 14.04.2022
2027 Clear 14 1014 14 10000 5.14 180 09:50 14.04.2022
2028 Clear 14 1014 12 10000 4.12 160 08:35 14.04.2022
2029 Clear 16 1015 13 10000 2.57 110 05:58 14.04.2022
2030 Clouds 20 1015 10 10000 4.12 260 01:49 14.04.2022
2031 Clouds 18 1017 12 10000 5.66 210 22:41 13.04.2022
2032 Clouds 17 1018 12 10000 3.09 160 21:44 13.04.2022
2033 Clouds 15 1019 13 10000 1.79 197 20:47 13.04.2022
2034 Clear 15 1020 15 10000 3.09 340 19:54 13.04.2022
2035 Clouds 13 1019 16 10000 4.12 360 18:43 13.04.2022
2036 Clear 11 1019 16 10000 4.63 340 17:52 13.04.2022
2037 Clear 10 1019 18 10000 4.63 340 17:23 13.04.2022
2038 Clear 7 1018 22 10000 5.66 340 16:18 13.04.2022
2039 Clear 7 1017 22 10000 6.17 340 15:31 13.04.2022
2040 Clear 7 1016 23 10000 5.14 210 14:43 13.04.2022
2041 Clear 7 1016 22 10000 5.14 210 13:55 13.04.2022
2042 Clear 7 1015 23 10000 1.54 20 12:57 13.04.2022
2043 Clear 8 1015 20 10000 4.63 200 12:19 13.04.2022
2044 Clear 8 1015 18 10000 2.68 200 10:41 13.04.2022
2045 Clear 10 1014 15 10000 4.12 170 08:49 13.04.2022
2046 Clear 10 1014 15 10000 4.12 170 08:24 13.04.2022
2047 Clear 11 1014 13 10000 3.09 320 06:50 13.04.2022
2048 Clear 12 1014 14 10000 3.09 320 06:24 13.04.2022
2049 Clouds 16 1012 8 10000 10.29 290 02:37 13.04.2022
2050 Clouds 16 1013 9 10000 11.32 340 00:20 13.04.2022
2051 Clouds 15 1013 11 10000 11.83 330 22:45 12.04.2022
2052 Clear 15 1013 14 10000 9.26 290 21:56 12.04.2022
2053 Clouds 14 1014 14 10000 10.29 350 20:49 12.04.2022
2054 Clouds 14 1014 14 10000 10.29 350 20:49 12.04.2022
2055 Clouds 13 1014 14 10000 10.29 350 20:22 12.04.2022
2056 Clear 12 1014 16 10000 9.39 350 19:41 12.04.2022
2057 Clear 12 1014 16 10000 9.39 350 19:19 12.04.2022
2058 Clouds 10 1013 19 10000 10.29 340 17:49 12.04.2022
2059 Clouds 9 1012 19 10000 10.8 340 16:50 12.04.2022
2060 Dust 9 1010 17 10000 12.35 300 15:39 12.04.2022
2061 Dust 9 1010 17 10000 12.35 300 15:20 12.04.2022
2062 Dust 9 1007 18 10000 15.43 340 13:53 12.04.2022
2063 Dust 10 1007 18 10000 15.43 340 13:27 12.04.2022
2064 Dust 10 1007 18 10000 15.43 340 13:27 12.04.2022
2065 Dust 10 1006 17 10000 13.41 350 12:26 12.04.2022
2066 Dust 11 1005 18 10000 14.92 340 11:39 12.04.2022
2067 Dust 13 1004 20 10000 16.46 310 10:29 12.04.2022
2068 Dust 16 999 30 10000 14.92 230 08:53 12.04.2022
2069 Dust 17 998 32 10000 16.46 230 07:47 12.04.2022
2070 Dust 19 996 27 9656 14.92 220 05:47 12.04.2022
2071 Dust 24 995 23 4828 15.95 210 02:53 12.04.2022
2072 Dust 25 998 18 8047 12.86 200 23:25 11.04.2022
2073 Dust 24 999 18 10000 14.4 210 22:44 11.04.2022
2074 Clouds 23 1000 17 10000 13.38 200 21:36 11.04.2022
2075 Clouds 23 1001 17 10000 10.8 210 20:49 11.04.2022
2076 Clouds 22 1002 17 10000 10.8 210 20:28 11.04.2022
2077 Clouds 20 1003 17 10000 9.77 210 19:29 11.04.2022
2078 Clouds 20 1001 19 10000 2.24 203 18:59 11.04.2022
2079 Clouds 18 1003 18 10000 10.29 210 18:33 11.04.2022
2080 Clouds 16 1003 19 10000 5.14 180 17:43 11.04.2022
2081 Clouds 14 1003 22 10000 6.69 200 16:38 11.04.2022
2082 Clouds 13 1003 20 10000 6.69 190 15:24 11.04.2022
2083 Clouds 14 1004 19 10000 5.14 180 13:44 11.04.2022
2084 Clouds 14 1004 18 10000 7.72 190 12:41 11.04.2022
2085 Clouds 14 1004 18 10000 7.72 190 12:22 11.04.2022
2086 Clouds 15 1005 17 10000 4.12 210 10:47 11.04.2022
2087 Clouds 15 1003 19 10000 0.45 300 09:58 11.04.2022
2088 Clouds 16 1005 16 10000 2.57 10 08:23 11.04.2022
2089 Clear 19 1005 14 10000 0 0 04:57 11.04.2022
2090 Clouds 23 1008 10 10000 3.09 30 00:49 11.04.2022
2091 Clouds 21 1010 10 10000 5.14 60 22:27 10.04.2022
2092 Clouds 21 1011 11 10000 9.26 40 21:54 10.04.2022
2093 Clouds 20 1012 10 10000 9.26 40 21:23 10.04.2022
2094 Clouds 20 1013 11 10000 8.75 40 20:21 10.04.2022
2095 Clouds 19 1013 11 10000 10.29 20 19:37 10.04.2022
2096 Clouds 18 1012 11 10000 10.8 30 18:50 10.04.2022
2097 Clouds 18 1012 12 10000 10.8 30 18:26 10.04.2022
2098 Clouds 17 1012 12 10000 10.29 30 17:46 10.04.2022
2099 Clouds 16 1009 16 10000 3.13 47 16:59 10.04.2022
2100 Clouds 16 1011 14 10000 12.86 30 15:40 10.04.2022
2101 Clouds 17 1010 14 10000 10.29 320 14:42 10.04.2022
2102 Clear 18 1009 14 10000 11.32 310 13:44 10.04.2022
2103 Clouds 20 1007 15 10000 11.32 20 12:32 10.04.2022
2104 Clouds 22 1007 12 10000 10.8 340 11:44 10.04.2022
2105 Clouds 21 1006 12 10000 8.75 20 11:18 10.04.2022
2106 Clouds 23 1007 8 10000 9.26 340 10:31 10.04.2022
2107 Clouds 24 1006 7 10000 8.23 320 09:41 10.04.2022
2108 Clear 25 1004 9 10000 10.29 340 08:28 10.04.2022
2109 Clear 25 1002 11 10000 5.66 360 07:57 10.04.2022
2110 Clear 26 1003 14 10000 5.19 323 06:59 10.04.2022
2111 Clouds 31 1001 8 10000 8.23 250 03:37 10.04.2022
2112 Clouds 32 1002 9 10000 9.39 260 02:18 10.04.2022
2113 Clouds 33 1004 11 10000 7.72 230 23:53 09.04.2022
2114 Clouds 32 1005 12 10000 8.75 240 22:54 09.04.2022
2115 Clouds 32 1005 12 10000 8.75 240 22:54 09.04.2022
2116 Clouds 32 1005 12 10000 8.75 240 22:33 09.04.2022
2117 Clear 30 1006 13 10000 5.14 240 21:19 09.04.2022
2118 Clouds 28 1007 14 10000 3.09 220 20:30 09.04.2022
2119 Clear 28 1006 15 10000 1.34 315 19:56 09.04.2022
2120 Clear 27 1007 15 10000 4.63 340 19:38 09.04.2022
2121 Clouds 23 1008 18 10000 8.23 220 18:23 09.04.2022
2122 Clouds 20 1009 17 10000 3.6 320 17:48 09.04.2022
2123 Clouds 21 1006 20 10000 1.01 202 16:56 09.04.2022
2124 Clouds 19 1008 19 10000 2.06 310 16:29 09.04.2022
2125 Clouds 19 1009 19 10000 2.06 330 15:49 09.04.2022
2126 Clouds 18 1009 19 10000 5.14 50 15:25 09.04.2022
2127 Clouds 19 1009 18 10000 5.66 210 14:25 09.04.2022
2128 Smoke 20 1009 17 10000 3.09 190 13:26 09.04.2022
2129 Smoke 20 1010 17 10000 5.66 210 12:53 09.04.2022
2130 Smoke 20 1011 16 10000 6.17 180 11:44 09.04.2022
2131 Clear 21 1011 15 10000 6.17 190 10:41 09.04.2022
2132 Clear 21 1011 15 10000 6.17 190 10:18 09.04.2022
2133 Clear 21 1012 13 10000 5.66 210 09:21 09.04.2022
2134 Clear 23 1012 16 10000 3.09 180 07:49 09.04.2022
2135 Clouds 30 1013 10 10000 2.57 300 03:22 09.04.2022
2136 Clouds 30 1016 10 10000 3.09 140 00:33 09.04.2022
2137 Clouds 30 1018 11 10000 2.57 0 23:20 08.04.2022
2138 Clouds 28 1019 11 10000 5.14 80 21:42 08.04.2022
2139 Clear 26 1020 13 10000 5.66 60 20:41 08.04.2022
2140 Clouds 25 1021 13 10000 5.14 60 19:41 08.04.2022
2141 Clouds 23 1022 15 10000 3.6 60 18:38 08.04.2022
2142 Clear 22 1020 18 10000 0.45 177 17:59 08.04.2022
2143 Clouds 20 1022 17 10000 1.54 230 17:27 08.04.2022
2144 Clouds 17 1022 21 10000 2.57 20 16:52 08.04.2022
2145 Clouds 16 1022 22 10000 2.57 20 16:22 08.04.2022
2146 Clear 16 1022 20 10000 1.54 280 15:28 08.04.2022
2147 Clear 16 1021 21 10000 2.68 200 14:44 08.04.2022
2148 Clear 16 1021 20 10000 3.6 160 13:55 08.04.2022
2149 Clear 16 1021 20 10000 3.6 160 13:30 08.04.2022
2150 Clear 17 1021 18 10000 3.6 320 12:45 08.04.2022
2151 Clear 17 1020 20 10000 3.09 80 10:56 08.04.2022
2152 Clear 19 1022 15 10000 4.12 70 09:41 08.04.2022
2153 Clear 20 1020 16 10000 1.29 355 08:59 08.04.2022
2154 Clear 20 1021 13 10000 3.13 280 07:42 08.04.2022
2155 Clear 22 1021 10 10000 3.09 70 06:44 08.04.2022
2156 Clear 28 1022 8 10000 6.69 50 02:37 08.04.2022
2157 Clear 28 1023 8 10000 7.2 80 00:29 08.04.2022
2158 Clear 28 1024 7 10000 8.75 40 23:42 07.04.2022
2159 Clear 27 1025 8 10000 6.17 10 22:41 07.04.2022
2160 Clear 26 1025 8 10000 7.2 20 22:23 07.04.2022
2161 Clear 26 1024 11 10000 7.2 20 21:58 07.04.2022
2162 Clear 25 1026 10 10000 5.66 30 21:28 07.04.2022
2163 Clear 24 1027 11 10000 3.09 40 20:42 07.04.2022
2164 Clear 22 1028 12 10000 2.57 60 19:51 07.04.2022
2165 Clear 17 1028 15 10000 3.6 70 17:29 07.04.2022
2166 Clear 16 1026 19 10000 0.45 278 16:59 07.04.2022
2167 Clear 14 1027 17 10000 2.06 30 16:33 07.04.2022
2168 Clear 14 1027 15 10000 4.63 50 15:40 07.04.2022
2169 Clear 13 1026 19 10000 6.69 40 13:54 07.04.2022
2170 Clear 13 1026 20 10000 6.69 40 13:23 07.04.2022
2171 Clear 15 1026 17 10000 8.23 30 11:52 07.04.2022
2172 Clear 16 1026 17 10000 7.72 60 10:46 07.04.2022
2173 Clear 18 1025 15 10000 6.26 30 08:43 07.04.2022
2174 Clear 19 1023 18 10000 1.34 78 06:59 07.04.2022
2175 Clear 21 1024 13 10000 5.81 60 05:21 07.04.2022
2176 Clear 25 1022 11 10000 10.29 40 02:34 07.04.2022
2177 Clear 25 1023 11 10000 8.75 50 00:43 07.04.2022
2178 Clear 24 1024 11 10000 9.26 40 23:28 06.04.2022
2179 Clear 23 1024 12 10000 10.8 30 22:44 06.04.2022
2180 Clear 23 1024 12 10000 10.8 30 22:20 06.04.2022
2181 Clear 21 1025 14 10000 8.94 50 20:47 06.04.2022
2182 Clear 21 1022 16 10000 4.02 32 19:59 06.04.2022
2183 Clear 19 1025 15 10000 10.29 40 19:24 06.04.2022
2184 Clear 18 1024 16 10000 12.86 40 18:48 06.04.2022
2185 Clear 17 1024 18 10000 10.8 50 17:36 06.04.2022
2186 Clear 16 1021 20 10000 9.26 50 16:56 06.04.2022
2187 Clear 16 1022 19 10000 9.83 40 16:32 06.04.2022
2188 Clear 15 1021 20 10000 9.83 40 15:43 06.04.2022
2189 Clear 17 1018 19 10000 9.26 50 13:48 06.04.2022
2190 Clear 18 1017 18 10000 9.83 30 12:30 06.04.2022
2191 Clear 21 1015 16 10000 9.77 50 10:57 06.04.2022
2192 Clear 21 1015 14 10000 9.77 50 10:33 06.04.2022
2193 Clear 22 1015 12 10000 8.23 40 09:46 06.04.2022
2194 Clear 23 1014 15 10000 4.79 1 08:59 06.04.2022
2195 Clear 24 1012 13 10000 7.2 350 07:59 06.04.2022
2196 Clear 27 1011 11 10000 12.52 340 05:45 06.04.2022
2197 Clouds 32 1010 11 10000 11.83 310 00:45 06.04.2022
2198 Clouds 32 1011 12 10000 10.8 340 23:48 05.04.2022
2199 Clouds 30 1012 15 10000 11.32 310 21:51 05.04.2022
2200 Clouds 29 1010 20 10000 2.07 58 20:59 05.04.2022
2201 Clouds 28 1013 14 10000 11.32 310 20:23 05.04.2022
2202 Clouds 25 1011 18 10000 9.26 320 18:31 05.04.2022
2203 Clouds 22 1011 21 10000 5.66 290 17:21 05.04.2022
2204 Clouds 20 1012 22 10000 4.63 300 16:42 05.04.2022
2205 Clear 19 1011 22 10000 5.66 220 15:51 05.04.2022
2206 Clear 19 1011 22 10000 5.66 220 15:31 05.04.2022
2207 Clear 19 1010 20 10000 5.14 200 13:49 05.04.2022
2208 Clear 20 1010 20 10000 6.17 210 12:33 05.04.2022
2209 Clear 22 1010 18 10000 5.66 170 11:43 05.04.2022
2210 Clear 22 1010 17 10000 5.66 170 11:24 05.04.2022
2211 Clouds 22 1010 18 10000 4.12 170 09:31 05.04.2022
2212 Clouds 23 1010 17 10000 5.14 210 08:33 05.04.2022
2213 Clouds 27 1008 13 10000 4.63 280 04:19 05.04.2022
2214 Clouds 29 1010 13 10000 5.14 310 23:45 04.04.2022
2215 Clouds 28 1010 14 10000 4.12 320 22:38 04.04.2022
2216 Clouds 27 1011 14 10000 3.09 260 21:51 04.04.2022
2217 Clouds 28 1011 15 10000 3.09 260 21:20 04.04.2022
2218 Clouds 26 1012 18 10000 3.09 0 20:47 04.04.2022
2219 Clouds 24 1012 22 10000 4.63 230 19:30 04.04.2022
2220 Clouds 22 1011 25 10000 5.66 210 18:44 04.04.2022
2221 Clear 19 1010 32 10000 3.09 180 17:21 04.04.2022
2222 Clear 16 1010 32 10000 5.66 210 16:34 04.04.2022
2223 Clear 16 1009 33 10000 3.6 190 15:34 04.04.2022
2224 Clear 16 1009 32 10000 2.57 310 14:46 04.04.2022
2225 Clear 16 1009 33 10000 2.57 310 14:28 04.04.2022
2226 Clear 16 1006 34 10000 1.46 281 12:59 04.04.2022
2227 Clouds 18 1009 32 10000 3.09 330 11:29 04.04.2022
2228 Clouds 18 1009 31 10000 3.09 310 10:29 04.04.2022
2229 Clouds 21 1007 29 10000 2.23 290 06:58 04.04.2022
2230 Clouds 25 1008 19 10000 3.6 50 03:18 04.04.2022
2231 Clouds 26 1011 20 10000 3.6 340 23:47 03.04.2022
2232 Clouds 25 1012 21 10000 5.14 80 22:24 03.04.2022
2233 Clouds 25 1012 21 10000 6.69 80 21:32 03.04.2022
2234 Clouds 24 1013 22 10000 9.26 60 20:35 03.04.2022
2235 Clouds 22 1013 27 10000 6.17 60 18:51 03.04.2022
2236 Clear 20 1012 31 10000 5.66 60 17:57 03.04.2022
2237 Clouds 19 1012 29 10000 5.66 60 17:37 03.04.2022
2238 Clouds 17 1012 31 10000 6.17 40 16:50 03.04.2022
2239 Clouds 17 1010 32 10000 0.65 54 15:59 03.04.2022
2240 Clouds 18 1011 28 10000 4.12 210 14:27 03.04.2022
2241 Clouds 18 1011 27 10000 4.63 200 13:38 03.04.2022
2242 Clouds 19 1009 27 10000 0.52 202 11:59 03.04.2022
2243 Clouds 21 1011 23 10000 6.17 200 10:22 03.04.2022
2244 Clouds 21 1011 20 10000 6.17 200 09:19 03.04.2022
2245 Clouds 24 1011 19 10000 7.2 170 06:41 03.04.2022
2246 Clear 28 1009 19 10000 7.2 100 02:56 03.04.2022
2247 Clouds 29 1011 16 10000 4.02 169 00:29 03.04.2022
2248 Clouds 28 1013 17 10000 5.66 140 22:52 02.04.2022
2249 Clear 28 1012 19 10000 3.09 160 21:57 02.04.2022
2250 Clouds 27 1014 19 10000 3.6 100 21:26 02.04.2022
2251 Clouds 25 1014 22 10000 4.12 30 20:39 02.04.2022
2252 Clear 22 1015 25 10000 2.06 300 18:51 02.04.2022
2253 Clear 21 1014 26 10000 2.06 300 18:20 02.04.2022
2254 Clear 19 1014 29 10000 1.54 290 17:43 02.04.2022
2255 Clear 16 1012 36 10000 0.5 192 15:59 02.04.2022
2256 Clear 16 1013 33 10000 3.09 310 15:20 02.04.2022
2257 Clear 16 1013 32 10000 2.06 330 14:32 02.04.2022
2258 Clear 16 1013 31 10000 2.57 200 13:34 02.04.2022
2259 Clear 17 1013 31 10000 3.09 180 12:34 02.04.2022
2260 Clear 18 1013 28 10000 3.09 190 10:50 02.04.2022
2261 Clear 20 1012 27 10000 2.68 250 08:44 02.04.2022
2262 Clear 21 1010 28 10000 0.75 84 05:58 02.04.2022
2263 Clear 26 1010 18 10000 3.6 350 03:31 02.04.2022
2264 Clouds 26 1012 20 10000 4.63 20 23:55 01.04.2022
2265 Clouds 25 1013 21 10000 2.68 0 22:55 01.04.2022
2266 Clouds 24 1013 21 10000 4.12 50 21:31 01.04.2022
2267 Clouds 23 1013 22 10000 6.17 50 20:50 01.04.2022
2268 Clouds 22 1014 21 10000 5.66 30 19:51 01.04.2022
2269 Clouds 22 1014 21 10000 5.66 30 19:27 01.04.2022
2270 Clouds 21 1013 22 10000 5.66 340 18:42 01.04.2022
2271 Clouds 19 1012 24 10000 6.17 330 17:46 01.04.2022
2272 Clouds 16 1011 26 10000 5.14 330 16:34 01.04.2022
2273 Clouds 15 1010 28 10000 5.81 10 15:19 01.04.2022
2274 Clouds 16 1009 32 10000 5.14 320 14:18 01.04.2022
2275 Clouds 16 1009 34 10000 3.6 200 13:32 01.04.2022
2276 Clouds 16 1008 33 10000 5.66 320 12:32 01.04.2022
2277 Clouds 17 1008 32 10000 3.6 330 11:18 01.04.2022
2278 Clouds 19 1008 29 10000 3.09 190 09:53 01.04.2022
2279 Clouds 20 1005 31 10000 0.89 304 07:59 01.04.2022
2280 Clouds 21 1006 27 10000 5.66 150 06:30 01.04.2022
2281 Clouds 23 1005 23 10000 6.17 130 04:45 01.04.2022
2282 Clouds 25 1005 19 10000 4.63 40 03:41 01.04.2022
2283 Clouds 25 1005 19 10000 2.24 0 01:53 01.04.2022
2284 Clouds 25 1007 23 10000 3.09 210 22:56 31.03.2022
2285 Clouds 23 1009 24 10000 2.24 0 21:49 31.03.2022
2286 Clouds 22 1009 24 10000 2.24 0 21:22 31.03.2022
2287 Clouds 21 1010 26 10000 2.57 220 20:28 31.03.2022
2288 Clouds 20 1010 29 10000 2.57 210 19:46 31.03.2022
2289 Clouds 18 1010 31 10000 4.12 210 18:38 31.03.2022
2290 Clouds 16 1009 34 10000 3.6 350 17:32 31.03.2022
2291 Clouds 15 1009 37 10000 4.12 210 16:18 31.03.2022
2292 Clouds 14 1008 37 10000 5.14 200 15:33 31.03.2022
2293 Clouds 15 1008 35 10000 6.17 200 14:52 31.03.2022
2294 Clouds 15 1008 35 10000 6.17 200 14:20 31.03.2022
2295 Clouds 18 1007 30 10000 7.72 200 11:32 31.03.2022
2296 Clouds 19 1008 27 10000 5.66 200 10:41 31.03.2022
2297 Clouds 20 1009 24 10000 3.6 160 09:43 31.03.2022
2298 Clouds 21 1009 21 10000 4.63 130 07:49 31.03.2022
2299 Clouds 24 1007 20 10000 0.89 110 03:57 31.03.2022
2300 Clouds 25 1013 18 10000 3.6 40 23:27 30.03.2022
2301 Clouds 24 1014 18 10000 5.36 20 22:20 30.03.2022
2302 Clouds 23 1015 20 10000 5.66 330 21:32 30.03.2022
2303 Clouds 23 1015 21 10000 7.72 330 20:44 30.03.2022
2304 Clouds 22 1016 24 10000 5.81 320 19:54 30.03.2022
2305 Clouds 20 1015 27 10000 5.66 340 18:50 30.03.2022
2306 Clouds 20 1015 27 10000 5.66 340 18:50 30.03.2022
2307 Clouds 18 1015 33 10000 4.12 320 17:52 30.03.2022
2308 Clouds 17 1015 35 10000 4.12 320 17:29 30.03.2022
2309 Clouds 15 1014 37 10000 4.12 350 16:41 30.03.2022
2310 Clouds 15 1014 38 10000 4.12 350 16:18 30.03.2022
2311 Clouds 15 1013 37 10000 3.6 340 14:42 30.03.2022
2312 Clear 16 1013 36 10000 5.14 310 13:26 30.03.2022
2313 Clouds 16 1013 39 10000 3.09 330 12:32 30.03.2022
2314 Clouds 17 1013 40 10000 3.13 311 10:48 30.03.2022
2315 Clear 17 1012 39 10000 0.89 333 09:58 30.03.2022
2316 Clouds 18 1012 39 10000 5.66 100 08:27 30.03.2022
2317 Clouds 20 1011 30 10000 7.2 70 07:28 30.03.2022
2318 Clouds 21 1009 29 10000 5.14 270 05:40 30.03.2022
2319 Clouds 22 1008 28 10000 7.72 340 02:40 30.03.2022
2320 Clouds 20 1009 35 10000 9.77 330 22:43 29.03.2022
2321 Clouds 19 1009 39 10000 8.75 320 21:52 29.03.2022
2322 Clouds 18 1009 40 10000 8.75 320 21:34 29.03.2022
2323 Clouds 16 1009 44 10000 7.72 330 20:26 29.03.2022
2324 Clouds 15 1009 49 10000 8.23 340 19:32 29.03.2022
2325 Clouds 15 1008 58 10000 5.66 230 18:53 29.03.2022
2326 Clouds 13 1008 65 10000 3.6 210 17:52 29.03.2022
2327 Clouds 12 1007 68 10000 3.6 210 17:18 29.03.2022
2328 Clouds 11 1007 73 10000 2.57 180 16:52 29.03.2022
2329 Clouds 10 1006 80 10000 2.06 170 15:29 29.03.2022
2330 Clouds 10 1006 81 10000 2.24 360 14:43 29.03.2022
2331 Clouds 10 1005 80 10000 2.57 80 13:34 29.03.2022
2332 Clouds 11 1005 78 10000 3.09 280 12:21 29.03.2022
2333 Clouds 11 1003 74 10000 0.65 304 10:59 29.03.2022
2334 Clouds 11 1003 71 10000 0.89 112 09:58 29.03.2022
2335 Clouds 12 1005 72 10000 5.66 80 08:44 29.03.2022
2336 Clouds 12 1006 73 9656 6.17 180 06:48 29.03.2022
2337 Clouds 23 1000 21 10000 10.8 190 02:27 29.03.2022
2338 Clouds 26 1003 11 10000 14.92 160 23:26 28.03.2022
2339 Clouds 25 1003 16 10000 14.92 170 22:57 28.03.2022
2340 Clouds 26 1004 10 10000 16.46 200 22:31 28.03.2022
2341 Dust 25 1004 10 10000 15.95 200 21:38 28.03.2022
2342 Clouds 25 1005 12 10000 12.35 150 20:32 28.03.2022
2343 Clouds 23 1006 16 10000 11.32 170 19:48 28.03.2022
2344 Clouds 23 1006 16 10000 11.32 170 19:30 28.03.2022
2345 Clouds 22 1006 18 10000 8.75 170 18:44 28.03.2022
2346 Clouds 21 1007 19 10000 11.32 180 17:41 28.03.2022
2347 Clouds 20 1006 20 10000 7.72 180 16:47 28.03.2022
2348 Clouds 21 1006 18 10000 4.12 180 14:53 28.03.2022
2349 Clouds 21 1006 17 10000 4.12 180 14:23 28.03.2022
2350 Clouds 21 1007 17 10000 3.09 130 12:51 28.03.2022
2351 Clouds 21 1007 17 10000 3.09 170 11:42 28.03.2022
2352 Clouds 21 1007 15 10000 4.63 190 09:47 28.03.2022
2353 Clouds 21 1007 15 10000 4.63 190 09:20 28.03.2022
2354 Clouds 23 1007 13 10000 6.17 200 08:23 28.03.2022
2355 Clear 22 1005 13 10000 3.06 196 07:56 28.03.2022
2356 Clouds 26 1006 10 10000 8.75 180 05:55 28.03.2022
2357 Clouds 30 1007 10 10000 9.77 180 23:53 27.03.2022
2358 Clouds 30 1008 12 10000 6.69 150 22:25 27.03.2022
2359 Clouds 30 1008 12 10000 6.69 150 22:25 27.03.2022
2360 Clouds 30 1008 12 10000 6.69 150 22:25 27.03.2022
2361 Clouds 29 1009 13 10000 7.2 150 21:42 27.03.2022
2362 Clouds 29 1006 17 10000 6.79 178 20:58 27.03.2022
2363 Clouds 27 1010 15 10000 5.66 160 20:18 27.03.2022
2364 Clouds 24 1010 17 10000 4.12 130 19:34 27.03.2022
2365 Clouds 22 1009 20 10000 3.6 180 18:29 27.03.2022
2366 Clouds 20 1009 23 10000 4.12 200 17:42 27.03.2022
2367 Clouds 19 1009 24 10000 4.12 200 17:23 27.03.2022
2368 Clouds 18 1008 23 10000 4.12 200 15:39 27.03.2022
2369 Clear 19 1008 23 10000 2.57 320 13:57 27.03.2022
2370 Clouds 20 1008 18 10000 3.13 190 12:50 27.03.2022
2371 Clouds 21 1008 17 10000 4.12 200 11:30 27.03.2022
2372 Clear 23 1009 14 10000 3.6 10 09:32 27.03.2022
2373 Clouds 26 1009 11 10000 7.2 180 06:44 27.03.2022
2374 Clouds 33 1008 9 10000 8.23 150 01:41 27.03.2022
2375 Clouds 33 1008 10 10000 7.2 100 00:25 27.03.2022
2376 Clouds 32 1010 8 10000 5.14 160 22:45 26.03.2022
2377 Clear 31 1011 12 10000 3.6 90 21:50 26.03.2022
2378 Clouds 30 1012 12 10000 3.6 90 21:26 26.03.2022
2379 Clouds 27 1013 15 10000 3.6 90 19:31 26.03.2022
2380 Clouds 24 1013 18 10000 3.6 70 17:54 26.03.2022
2381 Clouds 23 1013 19 10000 3.6 70 17:33 26.03.2022
2382 Clouds 20 1013 24 10000 5.14 70 16:27 26.03.2022
2383 Clouds 18 1014 23 10000 3.6 180 15:23 26.03.2022
2384 Clouds 19 1013 21 10000 3.6 180 13:54 26.03.2022
2385 Clouds 19 1013 21 10000 3.6 180 13:18 26.03.2022
2386 Clouds 20 1013 21 10000 4.63 180 11:41 26.03.2022
2387 Clouds 21 1014 19 10000 5.66 190 10:29 26.03.2022
2388 Clouds 23 1014 16 10000 4.63 200 08:44 26.03.2022
2389 Clouds 25 1014 17 10000 3.6 220 06:25 26.03.2022
2390 Clouds 26 1014 17 10000 6.17 200 05:22 26.03.2022
2391 Clouds 32 1013 12 10000 4.12 110 00:28 26.03.2022
2392 Clouds 29 1017 14 10000 2.24 70 21:51 25.03.2022
2393 Clouds 28 1018 14 10000 3.6 110 20:46 25.03.2022
2394 Clouds 28 1018 16 10000 3.6 110 20:20 25.03.2022
2395 Clouds 25 1019 17 10000 1.54 10 18:47 25.03.2022
2396 Clouds 22 1019 20 10000 1.54 150 17:47 25.03.2022
2397 Clouds 21 1019 21 10000 1.54 150 17:27 25.03.2022
2398 Clouds 18 1019 27 10000 3.09 180 16:18 25.03.2022
2399 Clear 16 1018 28 10000 2.57 210 14:26 25.03.2022
2400 Clear 16 1017 27 10000 1.54 40 12:57 25.03.2022
2401 Clear 18 1017 25 10000 4.12 190 10:22 25.03.2022
2402 Clear 19 1017 23 10000 3.6 320 09:28 25.03.2022
2403 Clear 20 1017 23 10000 2.57 180 07:54 25.03.2022
2404 Clear 20 1017 20 10000 2.57 320 07:28 25.03.2022
2405 Clear 22 1016 20 10000 2.57 180 05:55 25.03.2022
2406 Clouds 29 1016 14 10000 3.09 120 00:46 25.03.2022
2407 Clouds 27 1018 13 10000 3.09 30 22:39 24.03.2022
2408 Clouds 26 1019 13 10000 2.68 350 21:42 24.03.2022
2409 Clouds 24 1020 12 10000 2.06 30 20:26 24.03.2022
2410 Clouds 23 1021 14 10000 2.57 90 19:47 24.03.2022
2411 Clouds 19 1021 19 10000 0.89 127 17:47 24.03.2022
2412 Clouds 18 1021 20 10000 0.89 115 17:19 24.03.2022
2413 Clouds 13 1020 27 10000 3.09 170 15:21 24.03.2022
2414 Clear 12 1020 24 10000 2.57 290 14:43 24.03.2022
2415 Clear 12 1020 24 10000 2.57 290 14:18 24.03.2022
2416 Clear 13 1020 24 10000 3.6 180 12:52 24.03.2022
2417 Clear 14 1020 22 10000 3.6 170 11:44 24.03.2022
2418 Clear 15 1020 21 10000 4.63 160 09:53 24.03.2022
2419 Clear 15 1020 20 10000 2.68 210 08:41 24.03.2022
2420 Clear 17 1020 18 10000 2.57 200 06:49 24.03.2022
2421 Clear 24 1019 13 10000 4.12 50 02:24 24.03.2022
2422 Clear 24 1022 13 10000 2.68 30 23:20 23.03.2022
2423 Clear 22 1024 16 10000 2.57 120 21:27 23.03.2022
2424 Clear 22 1022 20 10000 0.89 126 20:59 23.03.2022
2425 Clear 20 1025 20 10000 5.14 60 19:45 23.03.2022
2426 Clear 19 1026 22 10000 3.6 30 18:36 23.03.2022
2427 Clear 17 1026 25 10000 0.89 132 17:36 23.03.2022
2428 Clear 14 1026 30 10000 2.06 240 16:33 23.03.2022
2429 Clear 12 1026 35 10000 2.57 70 14:51 23.03.2022
2430 Clear 12 1026 35 10000 2.57 70 14:24 23.03.2022
2431 Clear 13 1025 32 10000 6.69 60 12:50 23.03.2022
2432 Clear 16 1024 28 10000 9.77 20 09:42 23.03.2022
2433 Clear 18 1023 25 10000 8.75 40 06:41 23.03.2022
2434 Clear 20 1021 24 10000 3.6 80 04:41 23.03.2022
2435 Clouds 24 1020 19 10000 4.63 70 00:29 23.03.2022
2436 Clouds 23 1021 21 10000 7.72 40 22:46 22.03.2022
2437 Clouds 22 1023 23 10000 6.26 80 21:29 22.03.2022
2438 Clouds 21 1023 24 10000 8.23 40 20:40 22.03.2022
2439 Clouds 20 1024 25 10000 9.26 30 19:41 22.03.2022
2440 Clear 20 1024 26 10000 9.26 30 19:18 22.03.2022
2441 Clouds 18 1024 27 10000 12.86 30 18:22 22.03.2022
2442 Clouds 17 1024 29 10000 7.2 340 17:29 22.03.2022
2443 Clouds 14 1023 32 10000 7.72 330 16:21 22.03.2022
2444 Clouds 11 1023 34 10000 4.12 20 15:22 22.03.2022
2445 Clouds 12 1023 33 10000 6.69 340 14:46 22.03.2022
2446 Clouds 12 1023 33 10000 6.69 340 14:27 22.03.2022
2447 Clouds 12 1022 31 10000 6.69 50 13:27 22.03.2022
2448 Clouds 12 1022 29 10000 5.66 60 11:52 22.03.2022
2449 Clouds 13 1021 27 10000 8.23 70 10:35 22.03.2022
2450 Clouds 14 1020 25 10000 8.75 50 08:24 22.03.2022
2451 Clouds 17 1018 20 10000 6.69 50 05:21 22.03.2022
2452 Clouds 20 1017 17 10000 3.6 110 03:46 22.03.2022
2453 Clouds 22 1017 19 10000 4.02 32 23:59 21.03.2022
2454 Clouds 20 1019 15 10000 7.2 310 22:29 21.03.2022
2455 Clouds 18 1020 16 10000 5.66 10 20:54 21.03.2022
2456 Clouds 17 1021 16 10000 6.69 340 20:34 21.03.2022
2457 Clouds 17 1019 20 10000 7.59 2 19:58 21.03.2022
2458 Clouds 16 1022 17 10000 7.72 330 19:27 21.03.2022
2459 Clouds 15 1022 18 10000 9.77 20 18:18 21.03.2022
2460 Clouds 13 1022 19 10000 7.72 20 17:18 21.03.2022
2461 Clouds 12 1022 21 10000 7.72 20 16:42 21.03.2022
2462 Clouds 10 1020 23 10000 6.69 350 15:48 21.03.2022
2463 Clouds 10 1020 23 10000 6.69 350 15:19 21.03.2022
2464 Clear 10 1019 25 10000 3.58 52 13:58 21.03.2022
2465 Clouds 11 1019 18 10000 7.72 30 12:35 21.03.2022
2466 Clouds 12 1018 16 10000 8.75 40 11:45 21.03.2022
2467 Clouds 12 1017 15 10000 8.23 40 10:36 21.03.2022
2468 Clouds 13 1016 13 10000 8.75 350 08:30 21.03.2022
2469 Clouds 15 1014 13 10000 16.09 330 06:48 21.03.2022
2470 Clouds 18 1011 10 10000 13.41 340 02:51 21.03.2022
2471 Clouds 21 1009 17 10000 10.8 320 23:43 20.03.2022
2472 Clouds 21 1009 20 10000 10.8 330 22:44 20.03.2022
2473 Clouds 20 1010 23 10000 13.41 310 21:52 20.03.2022
2474 Clouds 20 1010 23 10000 13.41 310 21:25 20.03.2022
2475 Clouds 19 1010 27 10000 13.38 330 20:43 20.03.2022
2476 Clouds 17 1010 34 10000 6.17 300 19:59 20.03.2022
2477 Clouds 16 1010 33 10000 11.32 340 19:31 20.03.2022
2478 Clouds 16 1009 33 10000 11.32 330 18:22 20.03.2022
2479 Clouds 16 1008 35 10000 11.83 320 17:33 20.03.2022
2480 Clouds 15 1008 38 10000 10.8 310 16:57 20.03.2022
2481 Clouds 12 1007 45 10000 7.72 310 15:34 20.03.2022
2482 Clouds 12 1007 45 10000 5.14 230 14:35 20.03.2022
2483 Clouds 13 1006 40 10000 12.86 330 12:35 20.03.2022
2484 Clouds 14 1006 37 10000 7.72 210 11:23 20.03.2022
2485 Clouds 15 1006 42 10000 11.83 240 09:26 20.03.2022
2486 Clouds 17 1006 36 10000 9.77 200 07:28 20.03.2022
2487 Clouds 20 1006 26 10000 9.77 240 05:40 20.03.2022
2488 Clouds 25 1006 10 10000 11.32 190 01:50 20.03.2022
2489 Clouds 26 1007 10 10000 11.83 180 00:45 20.03.2022
2490 Clouds 25 1008 12 10000 10.8 190 23:19 19.03.2022
2491 Clouds 22 1012 15 10000 4.63 70 21:28 19.03.2022
2492 Clouds 21 1014 17 10000 5.14 60 20:49 19.03.2022
2493 Clouds 20 1014 19 10000 1.79 123 18:58 19.03.2022
2494 Clouds 17 1016 18 10000 4.12 70 18:24 19.03.2022
2495 Clouds 16 1016 22 10000 0 0 17:35 19.03.2022
2496 Clouds 12 1016 22 10000 4.63 80 15:46 19.03.2022
2497 Clear 12 1017 24 10000 4.63 90 14:57 19.03.2022
2498 Clouds 12 1016 22 10000 4.12 60 13:19 19.03.2022
2499 Clear 12 1016 24 10000 2.57 290 12:40 19.03.2022
2500 Clear 13 1016 22 10000 3.6 210 11:54 19.03.2022
2501 Clear 13 1016 22 10000 3.6 210 11:54 19.03.2022
2502 Clear 13 1017 21 10000 4.12 180 10:53 19.03.2022
2503 Clear 15 1017 20 10000 4.12 200 07:33 19.03.2022
2504 Clouds 20 1016 15 10000 3.6 120 03:49 19.03.2022
2505 Clouds 23 1016 12 10000 4.12 80 02:29 19.03.2022
2506 Clouds 24 1017 13 10000 2.68 50 23:45 18.03.2022
2507 Clouds 22 1018 13 10000 2.06 100 22:28 18.03.2022
2508 Clouds 22 1019 14 10000 3.13 0 21:45 18.03.2022
2509 Clouds 20 1020 16 10000 3.6 60 19:52 18.03.2022
2510 Clouds 20 1020 16 10000 3.6 60 19:52 18.03.2022
2511 Clouds 19 1020 16 10000 3.6 60 19:21 18.03.2022
2512 Clear 16 1020 20 10000 2.57 310 17:52 18.03.2022
2513 Clear 12 1020 22 10000 2.06 300 16:49 18.03.2022
2514 Clear 10 1019 23 10000 4.12 190 15:32 18.03.2022
2515 Clear 10 1018 24 10000 3.09 180 14:23 18.03.2022
2516 Clear 10 1018 24 10000 3.6 180 12:36 18.03.2022
2517 Clouds 11 1018 23 10000 3.09 170 10:53 18.03.2022
2518 Clouds 11 1018 22 10000 2.57 310 09:30 18.03.2022
2519 Clouds 12 1018 23 10000 3.6 160 08:32 18.03.2022
2520 Clouds 14 1018 21 10000 3.09 40 06:35 18.03.2022
2521 Clouds 18 1016 18 10000 3.09 60 02:57 18.03.2022
2522 Clouds 20 1018 15 10000 2.57 330 00:23 18.03.2022
2523 Clouds 21 1019 14 10000 4.63 60 23:38 17.03.2022
2524 Clouds 20 1020 16 10000 4.63 30 22:25 17.03.2022
2525 Clouds 20 1022 17 10000 5.66 50 21:48 17.03.2022
2526 Clouds 19 1022 18 10000 5.66 50 21:23 17.03.2022
2527 Clouds 19 1023 20 10000 6.17 30 20:45 17.03.2022
2528 Clouds 17 1023 23 10000 7.2 30 19:50 17.03.2022
2529 Clouds 17 1023 23 10000 7.2 30 19:28 17.03.2022
2530 Clouds 16 1023 25 10000 6.69 50 18:46 17.03.2022
2531 Clear 14 1021 31 10000 1.81 42 16:57 17.03.2022
2532 Clouds 11 1022 29 10000 6.69 90 15:44 17.03.2022
2533 Clouds 11 1021 28 10000 9.26 30 15:25 17.03.2022
2534 Clear 11 1020 28 10000 8.23 50 14:29 17.03.2022
2535 Clear 13 1019 28 10000 5.36 360 12:54 17.03.2022
2536 Clear 14 1019 27 10000 7.72 330 12:23 17.03.2022
2537 Clear 14 1019 28 10000 4.63 350 11:27 17.03.2022
2538 Clear 14 1019 34 10000 3.6 20 10:29 17.03.2022
2539 Clear 15 1019 37 10000 6.17 60 08:37 17.03.2022
2540 Clouds 15 1018 37 10000 4.63 360 07:34 17.03.2022
2541 Clouds 17 1016 34 10000 7.72 30 05:47 17.03.2022
2542 Clouds 17 1016 34 10000 7.72 30 05:47 17.03.2022
2543 Clouds 23 1012 18 10000 11.32 310 01:30 17.03.2022
2544 Clouds 24 1012 18 10000 7.2 10 23:50 16.03.2022
2545 Clouds 24 1013 19 10000 7.72 350 22:48 16.03.2022
2546 Clouds 24 1013 19 10000 7.72 350 22:30 16.03.2022
2547 Clouds 23 1015 20 10000 8.23 330 21:39 16.03.2022
2548 Clouds 22 1015 24 10000 9.77 320 19:41 16.03.2022
2549 Clouds 22 1015 25 10000 9.77 320 19:20 16.03.2022
2550 Clear 20 1015 29 10000 11.32 310 18:37 16.03.2022
2551 Clouds 19 1015 32 10000 10.8 320 17:43 16.03.2022
2552 Clouds 19 1015 32 10000 10.8 320 17:19 16.03.2022
2553 Clouds 15 1014 35 10000 7.72 320 15:55 16.03.2022
2554 Clouds 16 1013 35 10000 3.09 320 14:25 16.03.2022
2555 Clouds 16 1013 33 10000 3.6 340 13:27 16.03.2022
2556 Clouds 17 1013 29 10000 3.09 180 11:54 16.03.2022
2557 Clouds 17 1014 29 10000 4.12 340 11:20 16.03.2022
2558 Clouds 18 1014 29 10000 6.17 320 10:23 16.03.2022
2559 Clouds 18 1014 25 10000 3.6 320 08:52 16.03.2022
2560 Clouds 18 1014 25 10000 0.45 288 05:58 16.03.2022
2561 Clouds 24 1015 15 10000 3.13 50 01:35 16.03.2022
2562 Clouds 24 1018 16 10000 5.14 30 22:38 15.03.2022
2563 Clouds 23 1020 17 10000 3.6 60 21:52 15.03.2022
2564 Clouds 21 1022 18 10000 3.6 70 20:18 15.03.2022
2565 Clouds 19 1023 22 10000 0.89 115 18:54 15.03.2022
2566 Clouds 14 1022 30 10000 0 0 16:55 15.03.2022
2567 Clouds 12 1023 34 10000 1.54 330 16:28 15.03.2022
2568 Clear 10 1022 37 10000 0.89 298 14:57 15.03.2022
2569 Clouds 10 1022 34 10000 3.6 170 14:34 15.03.2022
2570 Clouds 10 1022 35 10000 3.09 180 13:28 15.03.2022
2571 Smoke 11 1022 32 10000 4.12 210 12:21 15.03.2022
2572 Smoke 12 1023 31 10000 3.6 190 11:29 15.03.2022
2573 Clouds 13 1023 29 10000 3.6 190 09:39 15.03.2022
2574 Clouds 13 1023 28 10000 3.6 160 08:32 15.03.2022
2575 Clouds 14 1023 27 10000 3.09 300 07:50 15.03.2022
2576 Clouds 15 1024 27 10000 3.09 150 06:51 15.03.2022
2577 Clouds 20 1023 19 10000 2.24 130 02:38 15.03.2022
2578 Clouds 20 1023 20 10000 4.63 50 23:38 14.03.2022
2579 Clouds 20 1023 20 10000 4.63 50 23:20 14.03.2022
2580 Clouds 20 1022 24 10000 1.43 58 21:59 14.03.2022
2581 Clouds 19 1025 22 10000 5.66 50 21:20 14.03.2022
2582 Clouds 19 1026 23 10000 6.69 40 20:34 14.03.2022
2583 Clouds 18 1026 24 10000 7.72 30 19:47 14.03.2022
2584 Clouds 16 1026 26 10000 9.26 30 18:23 14.03.2022
2585 Clouds 15 1026 28 10000 6.71 50 17:43 14.03.2022
2586 Clouds 13 1025 28 10000 5.14 60 16:54 14.03.2022
2587 Clouds 11 1024 29 10000 4.12 40 15:29 14.03.2022
2588 Clouds 11 1023 27 10000 5.81 80 14:24 14.03.2022
2589 Clouds 13 1020 22 10000 3.6 330 11:36 14.03.2022
2590 Clouds 14 1020 18 10000 5.14 350 10:23 14.03.2022
2591 Clouds 14 1019 18 10000 2.06 360 09:38 14.03.2022
2592 Clouds 15 1019 17 10000 6.69 10 09:18 14.03.2022
2593 Clouds 15 1018 17 10000 4.12 10 08:46 14.03.2022
2594 Clear 16 1017 16 10000 3.6 320 07:21 14.03.2022
2595 Clear 19 1014 14 10000 3.6 230 04:22 14.03.2022
2596 Clouds 23 1013 13 10000 5.14 190 01:46 14.03.2022
2597 Clouds 22 1013 14 10000 3.6 320 00:35 14.03.2022
2598 Clouds 19 1014 16 10000 1.54 0 21:55 13.03.2022
2599 Clouds 19 1014 16 10000 1.54 0 21:26 13.03.2022
2600 Clouds 17 1015 17 10000 2.68 50 20:46 13.03.2022
2601 Clouds 17 1015 17 10000 2.68 50 20:23 13.03.2022
2602 Clouds 15 1016 19 10000 3.09 10 19:42 13.03.2022
2603 Clouds 15 1016 19 10000 3.09 10 19:23 13.03.2022
2604 Clouds 15 1016 19 10000 3.09 10 19:23 13.03.2022
2605 Clouds 15 1016 19 10000 3.09 10 19:23 13.03.2022
2606 Clouds 15 1016 19 10000 3.09 10 19:23 13.03.2022
2607 Clouds 14 1016 20 10000 5.66 80 18:45 13.03.2022
2608 Clouds 14 1016 20 10000 5.66 80 18:26 13.03.2022
2609 Clouds 12 1016 21 10000 5.14 80 17:39 13.03.2022
2610 Clouds 10 1015 23 10000 4.63 190 16:46 13.03.2022
2611 Clouds 10 1015 23 10000 4.63 190 16:25 13.03.2022
2612 Clouds 9 1014 24 10000 4.12 200 15:42 13.03.2022
2613 Clear 8 1015 23 10000 5.14 200 14:49 13.03.2022
2614 Clear 9 1015 22 10000 4.12 180 13:29 13.03.2022
2615 Clear 9 1015 24 10000 2.57 330 12:25 13.03.2022
2616 Clear 10 1016 22 10000 2.57 340 11:44 13.03.2022
2617 Clear 10 1017 21 10000 4.12 220 10:50 13.03.2022
2618 Clear 11 1017 20 10000 4.12 220 10:30 13.03.2022
2619 Clear 11 1018 20 10000 4.12 200 09:42 13.03.2022
2620 Clear 11 1018 20 10000 4.12 190 08:50 13.03.2022
2621 Clear 12 1018 20 10000 4.12 190 08:30 13.03.2022
2622 Clear 12 1018 18 10000 2.57 180 07:19 13.03.2022
2623 Clear 14 1018 21 10000 0.17 12 04:58 13.03.2022
2624 Clear 20 1019 13 10000 1.54 160 01:48 13.03.2022
2625 Clear 20 1021 12 10000 3.13 90 23:28 12.03.2022
2626 Clear 18 1024 12 10000 2.24 0 21:39 12.03.2022
2627 Clear 17 1025 13 10000 2.68 50 20:19 12.03.2022
2628 Clear 16 1026 13 10000 2.06 10 19:46 12.03.2022
2629 Clear 14 1027 15 10000 2.57 30 18:40 12.03.2022
2630 Clear 12 1027 17 10000 0.45 117 17:49 12.03.2022
2631 Clear 7 1027 23 10000 3.09 160 16:28 12.03.2022
2632 Clear 6 1026 22 10000 4.12 160 15:48 12.03.2022
2633 Clear 6 1026 22 10000 4.12 160 15:19 12.03.2022
2634 Clear 6 1026 21 10000 4.12 160 13:53 12.03.2022
2635 Clear 7 1027 19 10000 4.12 170 12:27 12.03.2022
2636 Clear 8 1027 19 10000 4.63 160 11:52 12.03.2022
2637 Clear 8 1027 19 10000 4.63 160 11:32 12.03.2022
2638 Clear 8 1027 18 10000 3.6 190 10:18 12.03.2022
2639 Clear 8 1027 18 10000 4.63 180 09:41 12.03.2022
2640 Clear 10 1027 17 10000 3.09 200 07:52 12.03.2022
2641 Clear 10 1027 17 10000 3.6 160 06:30 12.03.2022
2642 Clouds 16 1027 12 10000 3.6 20 00:31 12.03.2022
2643 Clouds 15 1027 12 10000 3.09 50 23:38 11.03.2022
2644 Clouds 15 1028 12 10000 2.06 320 22:29 11.03.2022
2645 Clear 13 1029 13 10000 4.12 130 21:23 11.03.2022
2646 Clear 13 1030 14 10000 4.12 70 20:42 11.03.2022
2647 Clear 12 1030 14 10000 4.12 70 20:22 11.03.2022
2648 Clear 11 1030 14 10000 6.69 60 19:29 11.03.2022
2649 Clear 8 1030 19 10000 3.13 60 17:50 11.03.2022
2650 Clear 7 1030 19 10000 3.13 60 17:21 11.03.2022
2651 Clear 3 1028 28 10000 6.17 60 15:57 11.03.2022
2652 Clear 3 1028 24 10000 6.17 60 15:29 11.03.2022
2653 Clear 5 1026 21 10000 6.71 360 13:28 11.03.2022
2654 Clear 4 1026 21 10000 7.2 10 12:30 11.03.2022
2655 Clear 4 1027 24 10000 5.14 40 11:57 11.03.2022
2656 Clear 6 1025 20 10000 6.71 30 10:24 11.03.2022
2657 Clear 6 1025 17 10000 5.81 10 09:32 11.03.2022
2658 Clear 7 1025 18 10000 6.69 10 08:25 11.03.2022
2659 Clear 7 1024 18 10000 7.2 20 07:46 11.03.2022
2660 Clear 8 1023 17 10000 6.69 20 06:25 11.03.2022
2661 Clear 9 1020 16 10000 7.2 30 04:24 11.03.2022
2662 Clouds 12 1017 14 10000 11.83 340 00:39 11.03.2022
2663 Clouds 12 1016 18 10000 13.89 20 22:32 10.03.2022
2664 Clouds 12 1016 21 10000 12.52 340 21:52 10.03.2022
2665 Clouds 12 1016 22 10000 12.52 340 21:24 10.03.2022
2666 Clouds 11 1015 25 10000 11.32 10 19:54 10.03.2022
2667 Clouds 10 1015 26 10000 11.16 342 18:56 10.03.2022
2668 Clouds 11 1013 35 10000 13.38 320 17:37 10.03.2022
2669 Clouds 11 1011 41 10000 9.77 330 16:42 10.03.2022
2670 Clouds 11 1009 49 10000 4.12 20 15:27 10.03.2022
2671 Clouds 13 1008 44 10000 8.75 360 13:30 10.03.2022
2672 Clouds 13 1007 38 10000 10.29 320 12:34 10.03.2022
2673 Clouds 13 1007 33 10000 8.75 330 11:23 10.03.2022
2674 Clouds 14 1007 27 10000 6.17 320 09:27 10.03.2022
2675 Clouds 15 1007 35 10000 7.72 310 07:46 10.03.2022
2676 Clear 17 1006 23 10000 1.45 273 04:59 10.03.2022
2677 Clouds 21 1007 17 10000 5.14 230 01:53 10.03.2022
2678 Clouds 21 1009 18 10000 3.6 160 23:29 09.03.2022
2679 Clouds 20 1011 19 10000 6.69 250 21:54 09.03.2022
2680 Clouds 20 1011 19 10000 6.69 180 21:34 09.03.2022
2681 Clouds 18 1013 21 10000 3.6 210 19:55 09.03.2022
2682 Clouds 15 1014 23 10000 3.6 90 18:34 09.03.2022
2683 Clouds 13 1014 26 10000 3.09 210 17:27 09.03.2022
2684 Clouds 10 1014 30 10000 3.6 200 16:34 09.03.2022
2685 Clouds 8 1013 33 10000 4.12 190 15:31 09.03.2022
2686 Clouds 8 1013 30 10000 5.14 190 13:54 09.03.2022
2687 Clouds 8 1013 29 10000 4.63 210 12:48 09.03.2022
2688 Clear 8 1014 29 10000 5.14 210 11:54 09.03.2022
2689 Clear 9 1013 30 10000 5.14 210 11:35 09.03.2022
2690 Clear 9 1014 28 10000 4.12 180 10:34 09.03.2022
2691 Clear 10 1014 29 10000 1.34 234 08:57 09.03.2022
2692 Clear 10 1015 27 10000 4.63 220 07:54 09.03.2022
2693 Clouds 15 1016 21 10000 1.54 160 02:57 09.03.2022
2694 Clouds 16 1017 19 10000 2.68 0 00:43 09.03.2022
2695 Clouds 16 1019 20 10000 2.68 0 22:47 08.03.2022
2696 Clouds 15 1019 20 10000 2.68 0 22:26 08.03.2022
2697 Clouds 15 1021 22 10000 3.6 90 21:23 08.03.2022
2698 Clouds 14 1022 22 10000 3.09 130 20:35 08.03.2022
2699 Clouds 13 1023 22 10000 3.09 120 19:35 08.03.2022
2700 Clouds 11 1024 24 10000 4.63 340 18:44 08.03.2022
2701 Clouds 9 1024 26 10000 2.68 40 17:30 08.03.2022
2702 Clear 4 1025 34 10000 4.63 50 15:56 08.03.2022
2703 Clear 5 1024 30 10000 5.14 350 14:19 08.03.2022
2704 Clear 6 1024 29 10000 3.6 20 12:43 08.03.2022
2705 Clear 6 1024 28 10000 3.09 90 11:45 08.03.2022
2706 Clear 7 1024 27 10000 4.63 30 10:44 08.03.2022
2707 Clear 7 1024 26 10000 4.63 50 09:43 08.03.2022
2708 Clear 9 1024 23 10000 7.2 20 06:43 08.03.2022
2709 Clear 11 1023 19 10000 4.63 20 04:52 08.03.2022
2710 Clouds 14 1023 18 10000 10.29 30 23:50 07.03.2022
2711 Clouds 13 1025 21 10000 7.2 10 21:54 07.03.2022
2712 Clouds 13 1025 21 10000 7.2 10 21:31 07.03.2022
2713 Clouds 12 1026 21 10000 10.8 320 20:44 07.03.2022
2714 Clouds 11 1026 23 10000 10.8 340 19:55 07.03.2022
2715 Clouds 11 1026 24 10000 11.83 320 19:29 07.03.2022
2716 Clouds 10 1026 25 10000 11.83 340 18:40 07.03.2022
2717 Clouds 9 1025 26 10000 9.77 320 17:41 07.03.2022
2718 Clouds 8 1025 29 10000 5.81 17 16:55 07.03.2022
2719 Clouds 6 1024 30 10000 10.29 320 15:32 07.03.2022
2720 Clouds 7 1022 34 10000 5.36 331 12:54 07.03.2022
2721 Clouds 7 1022 33 10000 6.69 330 12:21 07.03.2022
2722 Clear 8 1022 33 10000 7.2 310 10:36 07.03.2022
2723 Clear 10 1021 29 10000 4.63 330 08:39 07.03.2022
2724 Clouds 13 1019 28 10000 4.12 300 03:41 07.03.2022
2725 Clouds 15 1018 26 10000 5.14 310 00:22 07.03.2022
2726 Clouds 16 1019 26 10000 5.66 300 23:29 06.03.2022
2727 Clouds 15 1019 27 10000 7.72 340 22:32 06.03.2022
2728 Clouds 15 1019 27 10000 7.2 340 21:45 06.03.2022
2729 Clouds 13 1019 30 10000 9.26 320 20:30 06.03.2022
2730 Clouds 13 1019 32 10000 8.23 320 19:50 06.03.2022
2731 Clouds 11 1019 36 10000 7.72 330 18:51 06.03.2022
2732 Clouds 10 1018 42 10000 3.09 150 17:53 06.03.2022
2733 Clouds 9 1018 43 10000 3.09 150 17:20 06.03.2022
2734 Clouds 7 1018 48 10000 3.09 190 16:40 06.03.2022
2735 Clouds 5 1017 54 10000 3.09 280 15:37 06.03.2022
2736 Clouds 5 1016 55 10000 5.66 320 14:49 06.03.2022
2737 Clouds 5 1016 55 10000 5.66 320 14:28 06.03.2022
2738 Clouds 6 1015 55 10000 7.2 320 12:43 06.03.2022
2739 Clear 6 1014 56 10000 8.23 310 11:56 06.03.2022
2740 Clouds 6 1014 56 10000 11.32 300 10:45 06.03.2022
2741 Clouds 6 1013 53 10000 10.29 290 09:34 06.03.2022
2742 Clouds 7 1013 45 10000 10.29 300 08:28 06.03.2022
2743 Clouds 7 1012 41 10000 10.29 310 07:33 06.03.2022
2744 Clouds 9 1011 29 10000 1.34 322 03:58 06.03.2022
2745 Clouds 12 1010 22 10000 10.8 210 00:42 06.03.2022
2746 Clouds 12 1010 22 10000 10.8 210 00:23 06.03.2022
2747 Clouds 13 1010 21 10000 7.2 240 23:19 05.03.2022
2748 Clouds 12 1010 27 10000 9.26 240 22:42 05.03.2022
2749 Clouds 12 1011 28 10000 10.29 260 21:36 05.03.2022
2750 Clouds 11 1010 31 10000 10.29 230 20:57 05.03.2022
2751 Clouds 11 1010 23 10000 12.35 220 19:23 05.03.2022
2752 Clouds 11 1010 23 10000 12.35 220 18:50 05.03.2022
2753 Clouds 11 1010 29 10000 11.83 220 17:39 05.03.2022
2754 Dust 10 1009 36 10000 12.35 210 16:20 05.03.2022
2755 Dust 10 1009 42 10000 8.94 210 15:30 05.03.2022
2756 Dust 11 1008 44 10000 10.29 200 14:42 05.03.2022
2757 Dust 11 1008 43 10000 10.29 200 14:24 05.03.2022
2758 Clouds 11 1007 47 10000 9.77 190 12:55 05.03.2022
2759 Clouds 12 1008 50 10000 9.26 180 11:39 05.03.2022
2760 Clouds 12 1008 50 10000 9.26 180 11:18 05.03.2022
2761 Clouds 12 1009 49 10000 8.23 220 09:40 05.03.2022
2762 Clouds 12 1009 48 10000 8.75 190 08:46 05.03.2022
2763 Clouds 13 1009 45 10000 7.2 180 07:23 05.03.2022
2764 Clouds 13 1009 45 10000 7.2 180 07:23 05.03.2022
2765 Clouds 14 1009 40 10000 7.2 210 05:39 05.03.2022
2766 Clouds 18 1008 28 10000 9.77 210 00:51 05.03.2022
2767 Clouds 18 1008 28 10000 9.77 230 23:30 04.03.2022
2768 Clouds 18 1008 28 10000 8.75 160 22:40 04.03.2022
2769 Clouds 18 1008 29 10000 8.23 180 21:45 04.03.2022
2770 Clouds 18 1009 31 10000 9.26 170 20:48 04.03.2022
2771 Clouds 17 1009 32 10000 9.77 200 19:39 04.03.2022
2772 Clouds 16 1007 34 10000 5.31 197 18:59 04.03.2022
2773 Clouds 16 1008 34 10000 9.26 200 18:36 04.03.2022
2774 Clouds 14 1008 35 10000 8.23 190 17:29 04.03.2022
2775 Clouds 13 1007 36 10000 7.72 180 16:26 04.03.2022
2776 Clouds 13 1007 32 10000 7.2 220 15:27 04.03.2022
2777 Clouds 14 1006 26 10000 4.63 180 13:38 04.03.2022
2778 Clouds 14 1006 24 10000 4.63 170 12:48 04.03.2022
2779 Clouds 15 1007 23 10000 4.63 130 11:37 04.03.2022
2780 Clouds 15 1007 21 10000 4.63 190 10:30 04.03.2022
2781 Clouds 15 1007 20 10000 4.12 170 09:28 04.03.2022
2782 Clouds 17 1007 18 10000 4.12 220 08:20 04.03.2022
2783 Clouds 18 1007 17 10000 3.6 160 06:55 04.03.2022
2784 Clouds 24 1007 12 10000 7.2 180 02:52 04.03.2022
2785 Clouds 26 1010 13 10000 4.63 40 23:43 03.03.2022
2786 Clouds 25 1011 14 10000 3.6 20 22:18 03.03.2022
2787 Clear 24 1012 16 10000 4.02 70 21:37 03.03.2022
2788 Clouds 24 1009 19 10000 2.09 137 20:56 03.03.2022
2789 Clouds 22 1014 16 10000 2.06 70 19:42 03.03.2022
2790 Clouds 20 1014 18 10000 2.06 150 18:44 03.03.2022
2791 Clouds 18 1015 20 10000 3.09 190 17:43 03.03.2022
2792 Clouds 17 1015 20 10000 3.09 190 17:24 03.03.2022
2793 Clouds 13 1014 23 10000 2.57 190 15:47 03.03.2022
2794 Clouds 13 1014 22 10000 3.6 160 14:51 03.03.2022
2795 Clouds 14 1014 22 10000 3.6 160 14:32 03.03.2022
2796 Clouds 14 1014 22 10000 2.57 280 12:44 03.03.2022
2797 Clouds 14 1014 22 10000 3.09 290 11:32 03.03.2022
2798 Clouds 14 1015 22 10000 3.09 280 10:39 03.03.2022
2799 Clouds 15 1016 20 10000 2.57 180 08:44 03.03.2022
2800 Clouds 17 1014 18 10000 0.53 235 06:58 03.03.2022
2801 Clouds 17 1016 17 10000 4.12 160 06:23 03.03.2022
2802 Clouds 26 1017 12 10000 3.6 130 00:40 03.03.2022
2803 Clouds 25 1018 11 10000 2.24 80 23:28 02.03.2022
2804 Clouds 25 1018 15 10000 2.57 100 22:44 02.03.2022
2805 Clouds 24 1020 15 10000 3.6 40 21:23 02.03.2022
2806 Clouds 24 1020 15 10000 3.6 40 21:23 02.03.2022
2807 Clouds 22 1021 16 10000 6.17 60 20:30 02.03.2022
2808 Clouds 21 1021 17 10000 2.06 50 19:45 02.03.2022
2809 Clouds 21 1021 17 10000 2.06 50 19:26 02.03.2022
2810 Clouds 19 1021 18 10000 0 0 18:39 02.03.2022
2811 Clouds 19 1021 18 10000 0 0 18:39 02.03.2022
2812 Clouds 19 1021 18 10000 0 0 18:39 02.03.2022
2813 Clouds 17 1021 20 10000 2.06 290 17:45 02.03.2022
2814 Clouds 13 1021 23 10000 3.09 170 16:54 02.03.2022
2815 Clouds 11 1021 25 10000 3.09 170 16:36 02.03.2022
2816 Clouds 10 1021 24 10000 3.6 160 14:42 02.03.2022
2817 Clouds 11 1020 24 10000 1.54 210 13:23 02.03.2022
2818 Clouds 12 1020 23 10000 4.12 180 12:40 02.03.2022
2819 Clouds 12 1021 22 10000 3.6 180 11:38 02.03.2022
2820 Clouds 13 1021 21 10000 3.6 180 11:18 02.03.2022
2821 Clear 14 1021 19 10000 5.14 190 09:41 02.03.2022
2822 Clear 15 1021 17 10000 3.6 180 08:51 02.03.2022
2823 Clear 16 1020 17 10000 4.12 170 07:25 02.03.2022
2824 Clouds 17 1020 15 10000 4.12 160 05:44 02.03.2022
2825 Clear 26 1017 15 10000 0.98 71 00:57 02.03.2022
2826 Clear 25 1020 12 10000 2.57 0 23:46 01.03.2022
2827 Clear 24 1021 13 10000 1.54 0 22:45 01.03.2022
2828 Clear 24 1019 18 10000 1.14 39 21:56 01.03.2022
2829 Clear 22 1022 14 10000 3.6 20 21:21 01.03.2022
2830 Clear 21 1023 15 10000 2.06 20 20:24 01.03.2022
2831 Clear 19 1024 17 10000 2.06 20 19:23 01.03.2022
2832 Clear 18 1024 17 10000 2.06 140 18:35 01.03.2022
2833 Clear 15 1024 20 10000 1.54 180 17:55 01.03.2022
2834 Clear 11 1024 27 10000 3.09 170 16:54 01.03.2022
2835 Clear 10 1024 27 10000 3.09 180 15:59 01.03.2022
2836 Clear 9 1023 26 10000 3.09 290 15:23 01.03.2022
2837 Clear 9 1023 26 10000 2.06 300 14:34 01.03.2022
2838 Clear 10 1023 25 10000 2.57 300 13:27 01.03.2022
2839 Clear 11 1021 25 10000 1.67 8 12:58 01.03.2022
2840 Clear 10 1023 23 10000 3.6 160 12:22 01.03.2022
2841 Clear 12 1023 21 10000 4.63 160 10:26 01.03.2022
2842 Clear 13 1022 20 10000 3.6 160 08:36 01.03.2022
2843 Clear 14 1022 19 10000 3.09 20 07:36 01.03.2022
2844 Clear 17 1022 15 10000 2.57 260 04:28 01.03.2022
2845 Clear 23 1020 14 10000 3.96 42 00:59 01.03.2022
2846 Clouds 23 1022 11 10000 5.66 40 23:48 28.02.2022
2847 Clouds 22 1023 12 10000 6.69 50 22:52 28.02.2022
2848 Clouds 21 1025 13 10000 4.63 50 21:50 28.02.2022
2849 Clouds 20 1025 13 10000 4.63 50 21:24 28.02.2022
2850 Clouds 17 1027 15 10000 6.69 40 19:52 28.02.2022
2851 Clouds 16 1027 16 10000 6.69 40 19:22 28.02.2022
2852 Clouds 14 1027 17 10000 3.6 70 18:36 28.02.2022
2853 Clouds 12 1027 19 10000 3.09 60 17:23 28.02.2022
2854 Clouds 8 1027 23 10000 3.09 160 16:32 28.02.2022
2855 Clouds 6 1026 25 10000 2.57 180 15:23 28.02.2022
2856 Clouds 6 1026 23 10000 4.63 70 14:30 28.02.2022
2857 Clouds 7 1026 23 10000 4.63 40 13:34 28.02.2022
2858 Clouds 8 1027 21 10000 3.09 70 12:31 28.02.2022
2859 Clouds 7 1026 22 10000 3.09 360 11:37 28.02.2022
2860 Clear 8 1027 22 10000 3.09 320 10:44 28.02.2022
2861 Clear 8 1027 21 10000 3.09 320 10:19 28.02.2022
2862 Clear 9 1027 19 10000 3.6 170 09:30 28.02.2022
2863 Clouds 10 1027 19 10000 4.12 200 08:26 28.02.2022
2864 Clouds 10 1027 19 10000 3.6 40 07:19 28.02.2022
2865 Clouds 12 1027 18 10000 2.24 280 04:31 28.02.2022
2866 Clouds 14 1027 16 10000 2.68 340 03:30 28.02.2022
2867 Clouds 17 1028 13 10000 4.63 20 23:26 27.02.2022
2868 Clear 16 1028 14 10000 3.6 330 22:33 27.02.2022
2869 Clouds 15 1029 15 10000 5.66 60 21:47 27.02.2022
2870 Clouds 14 1030 16 10000 2.06 10 20:54 27.02.2022
2871 Clouds 14 1030 17 10000 3.6 110 20:27 27.02.2022
2872 Clouds 14 1032 18 10000 0.89 110 19:56 27.02.2022
2873 Clouds 12 1031 17 10000 2.57 10 19:26 27.02.2022
2874 Clouds 11 1032 19 10000 2.06 260 18:39 27.02.2022
2875 Clouds 9 1032 22 10000 2.06 170 17:54 27.02.2022
2876 Clouds 4 1031 26 10000 2.57 330 16:37 27.02.2022
2877 Clouds 3 1030 31 10000 3.09 160 15:55 27.02.2022
2878 Clouds 3 1030 28 10000 2.57 140 13:21 27.02.2022
2879 Clouds 4 1030 27 10000 2.57 180 12:32 27.02.2022
2880 Clouds 5 1030 24 10000 4.12 160 10:54 27.02.2022
2881 Clouds 5 1030 25 10000 1.03 31 09:58 27.02.2022
2882 Clouds 6 1030 22 10000 3.09 170 09:37 27.02.2022
2883 Clouds 6 1030 22 10000 3.09 170 09:18 27.02.2022
2884 Clouds 7 1030 22 10000 3.09 170 06:44 27.02.2022
2885 Clear 7 1030 21 10000 2.57 160 05:36 27.02.2022
2886 Clear 13 1029 15 10000 4.63 50 00:52 27.02.2022
2887 Clear 13 1030 18 10000 5.14 40 22:56 26.02.2022
2888 Clear 11 1030 19 10000 6.69 40 21:39 26.02.2022
2889 Clear 10 1031 19 10000 7.2 50 20:52 26.02.2022
2890 Clear 10 1031 20 10000 7.2 50 20:19 26.02.2022
2891 Clear 9 1031 22 10000 8.23 40 19:41 26.02.2022
2892 Clear 7 1031 26 10000 7.72 60 18:49 26.02.2022
2893 Clear 6 1031 29 10000 8.23 10 17:42 26.02.2022
2894 Clear 4 1030 34 10000 5.81 30 16:49 26.02.2022
2895 Clear 3 1029 35 10000 8.75 20 15:49 26.02.2022
2896 Clear 2 1029 37 10000 8.75 20 15:22 26.02.2022
2897 Clear 2 1028 39 10000 7.2 40 14:53 26.02.2022
2898 Clear 2 1028 37 10000 7.2 40 14:33 26.02.2022
2899 Clear 3 1028 36 10000 5.81 50 13:19 26.02.2022
2900 Clear 4 1027 36 10000 5.36 40 12:20 26.02.2022
2901 Clear 4 1027 34 10000 7.2 70 11:28 26.02.2022
2902 Clear 4 1027 35 10000 6.26 70 10:39 26.02.2022
2903 Clear 5 1026 33 10000 4.12 50 08:48 26.02.2022
2904 Clear 7 1025 29 10000 7.72 50 06:51 26.02.2022
2905 Clear 13 1022 14 10000 1.34 0 00:50 26.02.2022
2906 Clear 13 1023 17 10000 2.57 70 22:47 25.02.2022
2907 Clear 12 1024 18 10000 4.12 60 21:40 25.02.2022
2908 Clear 12 1024 18 10000 4.12 60 21:21 25.02.2022
2909 Clear 11 1025 20 10000 5.14 20 20:32 25.02.2022
2910 Clear 10 1027 24 10000 4.02 59 18:59 25.02.2022
2911 Clouds 6 1025 28 10000 3.6 360 17:27 25.02.2022
2912 Clouds 3 1024 35 10000 3.6 350 16:24 25.02.2022
2913 Clouds 2 1024 36 10000 6.69 310 15:43 25.02.2022
2914 Clouds 2 1024 34 10000 6.69 310 15:20 25.02.2022
2915 Clear 1 1023 36 10000 3.09 310 14:42 25.02.2022
2916 Clear 2 1023 36 10000 4.63 70 13:36 25.02.2022
2917 Clear 2 1023 38 10000 3.6 70 12:56 25.02.2022
2918 Clear 3 1023 34 10000 3.6 350 11:28 25.02.2022
2919 Clear 3 1023 34 10000 2.24 230 10:29 25.02.2022
2920 Clear 3 1023 34 10000 1.54 60 09:57 25.02.2022
2921 Clear 4 1023 33 10000 2.57 190 09:18 25.02.2022
2922 Clear 4 1022 31 10000 3.09 190 07:41 25.02.2022
2923 Clear 5 1022 29 10000 2.68 50 05:48 25.02.2022
2924 Clear 8 1021 25 10000 3.6 80 03:34 25.02.2022
2925 Clear 10 1022 23 10000 3.6 180 23:42 24.02.2022
2926 Clear 9 1024 25 10000 2.06 0 21:56 24.02.2022
2927 Clear 8 1024 25 10000 2.06 0 21:37 24.02.2022
2928 Clear 8 1024 25 10000 2.06 0 21:18 24.02.2022
2929 Clear 7 1026 29 10000 1.54 0 19:38 24.02.2022
2930 Clear 5 1026 32 10000 2.06 70 18:43 24.02.2022
2931 Clear 5 1026 33 10000 2.06 70 18:18 24.02.2022
2932 Clear 4 1025 36 10000 2.06 60 17:33 24.02.2022
2933 Clear 4 1025 36 10000 2.06 60 17:33 24.02.2022
2934 Clear 2 1025 43 10000 5.66 310 16:45 24.02.2022
2935 Clear 1 1025 44 10000 5.66 310 16:21 24.02.2022
2936 Clear 0 1023 49 10000 3.6 20 14:53 24.02.2022
2937 Clear 1 1023 46 10000 5.66 360 14:26 24.02.2022
2938 Clear 1 1023 47 10000 4.12 70 13:39 24.02.2022
2939 Clear 1 1023 47 10000 4.12 70 13:39 24.02.2022
2940 Clear 2 1021 49 10000 4.63 350 12:50 24.02.2022
2941 Clear 3 1020 40 10000 4.12 40 10:40 24.02.2022
2942 Clouds 4 1021 38 10000 0.89 5 08:59 24.02.2022
2943 Clouds 5 1019 34 10000 6.26 350 08:40 24.02.2022
2944 Clouds 6 1016 31 10000 8.94 320 05:52 24.02.2022
2945 Clouds 7 1011 43 10000 4.12 110 01:56 24.02.2022
2946 Clouds 9 1009 43 10000 6.69 250 22:56 23.02.2022
2947 Clouds 8 1009 40 10000 5.36 260 21:43 23.02.2022
2948 Clouds 8 1010 42 10000 5.66 330 20:31 23.02.2022
2949 Clouds 7 1010 46 10000 7.72 240 19:47 23.02.2022
2950 Clouds 6 1010 52 10000 6.69 290 18:32 23.02.2022
2951 Clouds 4 1009 55 10000 6.69 210 17:44 23.02.2022
2952 Clouds 3 1007 53 10000 6.69 210 14:44 23.02.2022
2953 Clouds 4 1007 53 10000 5.36 220 12:45 23.02.2022
2954 Clouds 4 1007 48 10000 5.49 236 11:59 23.02.2022
2955 Clouds 5 1006 44 10000 7.2 200 10:31 23.02.2022
2956 Clouds 7 1006 44 10000 5.4 242 08:59 23.02.2022
2957 Clouds 7 1006 47 10000 9.26 210 08:23 23.02.2022
2958 Clouds 9 1005 51 10000 12.86 220 03:49 23.02.2022
2959 Dust 14 1004 25 10000 12.35 220 00:39 23.02.2022
2960 Dust 14 1004 24 10000 13.89 230 23:38 22.02.2022
2961 Dust 13 1005 27 8047 12.86 220 22:32 22.02.2022
2962 Dust 13 1007 29 10000 13.89 200 21:49 22.02.2022
2963 Dust 13 1007 29 10000 13.89 200 21:30 22.02.2022
2964 Clouds 12 1008 31 10000 14.4 220 20:55 22.02.2022
2965 Clouds 12 1007 30 10000 14.4 220 20:29 22.02.2022
2966 Clouds 12 1008 33 10000 9.26 220 19:42 22.02.2022
2967 Clouds 11 1008 33 10000 9.26 220 19:19 22.02.2022
2968 Clouds 10 1008 39 10000 9.77 220 17:48 22.02.2022
2969 Clouds 9 1008 40 10000 9.77 220 17:21 22.02.2022
2970 Clouds 8 1008 43 10000 6.69 200 16:37 22.02.2022
2971 Clouds 7 1008 41 10000 8.75 190 15:40 22.02.2022
2972 Dust 6 1008 39 10000 5.36 200 14:44 22.02.2022
2973 Dust 8 1008 33 10000 4.63 220 12:23 22.02.2022
2974 Dust 9 1007 29 10000 5.36 240 10:50 22.02.2022
2975 Dust 11 1006 26 10000 6.17 220 08:41 22.02.2022
2976 Dust 12 1006 25 9656 5.66 190 07:26 22.02.2022
2977 Clear 14 1003 24 10000 2.91 271 04:59 22.02.2022
2978 Dust 18 1001 15 8047 12.86 220 01:45 22.02.2022
2979 Dust 18 1001 15 8047 12.86 220 01:45 22.02.2022
2980 Dust 18 1001 15 8047 12.86 220 01:45 22.02.2022
2981 Dust 19 1001 21 10000 12.35 240 22:46 21.02.2022
2982 Dust 18 1002 22 10000 11.83 210 21:33 21.02.2022
2983 Dust 17 1002 24 10000 13.89 220 20:35 21.02.2022
2984 Dust 17 1002 24 10000 13.89 220 20:35 21.02.2022
2985 Dust 16 1002 26 10000 11.32 190 18:46 21.02.2022
2986 Clouds 14 1001 29 10000 6.9 231 16:58 21.02.2022
2987 Clouds 14 1002 26 10000 8.23 180 15:20 21.02.2022
2988 Clouds 14 1002 27 10000 8.75 180 14:21 21.02.2022
2989 Clouds 14 1003 26 10000 3.13 180 13:20 21.02.2022
2990 Clouds 15 1004 26 10000 10.29 200 12:23 21.02.2022
2991 Clouds 16 1003 27 10000 6.09 227 10:58 21.02.2022
2992 Clouds 16 1005 23 10000 7.72 200 09:34 21.02.2022
2993 Clouds 19 1007 16 10000 5.36 190 05:35 21.02.2022
2994 Clouds 21 1009 15 10000 4.63 200 23:41 20.02.2022
2995 Clouds 20 1011 18 10000 6.69 240 22:21 20.02.2022
2996 Clouds 19 1013 19 10000 4.12 30 21:42 20.02.2022
2997 Clouds 18 1014 20 10000 2.24 0 20:53 20.02.2022
2998 Clouds 18 1014 20 10000 3.09 120 20:33 20.02.2022
2999 Clouds 16 1015 21 10000 2.57 120 19:31 20.02.2022
3000 Clouds 16 1015 21 10000 2.57 120 19:31 20.02.2022
3001 Clouds 15 1016 23 10000 1.54 10 18:50 20.02.2022
3002 Clouds 15 1016 24 10000 1.54 10 18:31 20.02.2022
3003 Clouds 13 1016 27 10000 2.06 200 17:47 20.02.2022
3004 Clouds 7 1015 32 10000 3.6 200 15:32 20.02.2022
3005 Clouds 8 1015 33 10000 3.6 170 14:41 20.02.2022
3006 Clouds 9 1015 31 10000 4.63 180 13:23 20.02.2022
3007 Clouds 9 1015 29 10000 3.09 190 12:22 20.02.2022
3008 Clouds 10 1017 27 10000 3.09 190 10:21 20.02.2022
3009 Clouds 11 1017 26 10000 4.12 190 09:53 20.02.2022
3010 Clear 11 1017 26 10000 3.09 300 07:45 20.02.2022
3011 Clear 20 1018 17 10000 2.57 70 00:54 20.02.2022
3012 Clear 21 1018 16 10000 2.57 70 00:29 20.02.2022
3013 Clear 20 1020 18 10000 3.09 70 22:25 19.02.2022
3014 Clear 19 1021 20 10000 3.6 70 21:57 19.02.2022
3015 Clear 18 1023 20 10000 3.13 70 20:51 19.02.2022
3016 Clear 17 1024 22 10000 2.57 30 19:42 19.02.2022
3017 Clear 16 1024 22 10000 1.34 30 19:20 19.02.2022
3018 Clear 14 1024 25 10000 3.6 20 18:29 19.02.2022
3019 Clear 12 1024 29 10000 3.09 290 17:33 19.02.2022
3020 Clear 8 1024 33 10000 3.09 190 16:22 19.02.2022
3021 Clear 8 1023 34 10000 0 0 14:56 19.02.2022
3022 Clear 7 1023 34 10000 3.6 190 14:37 19.02.2022
3023 Clear 9 1022 39 10000 1.17 7 11:59 19.02.2022
3024 Clear 8 1023 33 10000 3.6 290 11:36 19.02.2022
3025 Clear 10 1024 28 10000 3.6 160 09:34 19.02.2022
3026 Clear 13 1024 24 10000 2.57 160 06:53 19.02.2022
3027 Clouds 17 1023 17 10000 3.6 50 02:38 19.02.2022
3028 Clouds 19 1024 15 10000 2.24 0 23:28 18.02.2022
3029 Clouds 17 1026 16 10000 2.24 0 21:30 18.02.2022
3030 Clouds 16 1027 17 10000 2.24 30 20:33 18.02.2022
3031 Clouds 15 1028 19 10000 3.09 30 19:51 18.02.2022
3032 Clouds 13 1028 21 10000 1.54 310 18:49 18.02.2022
3033 Clouds 12 1028 21 10000 1.54 310 18:19 18.02.2022
3034 Clouds 9 1028 25 10000 2.57 180 17:21 18.02.2022
3035 Clouds 5 1026 29 10000 4.12 200 14:47 18.02.2022
3036 Clouds 6 1026 29 10000 2.57 180 13:54 18.02.2022
3037 Clouds 6 1026 28 10000 2.24 260 12:51 18.02.2022
3038 Clouds 7 1024 29 10000 1.1 331 11:58 18.02.2022
3039 Clouds 7 1026 30 10000 1.48 333 10:58 18.02.2022
3040 Clear 8 1026 25 10000 5.14 310 09:29 18.02.2022
3041 Clear 9 1026 24 10000 3.09 190 06:50 18.02.2022
3042 Clear 9 1026 24 10000 3.09 170 05:36 18.02.2022
3043 Clear 15 1026 17 10000 6.17 320 22:46 17.02.2022
3044 Clear 15 1027 19 10000 8.23 30 21:42 17.02.2022
3045 Clear 14 1028 20 10000 7.72 330 20:52 17.02.2022
3046 Clear 14 1028 20 10000 7.72 330 20:33 17.02.2022
3047 Clear 13 1028 22 10000 8.94 350 19:43 17.02.2022
3048 Clear 11 1028 24 10000 9.39 340 18:34 17.02.2022
3049 Clear 10 1028 27 10000 7.72 350 17:46 17.02.2022
3050 Clear 8 1027 31 10000 7.72 330 16:19 17.02.2022
3051 Clear 8 1025 31 10000 7.2 350 14:39 17.02.2022
3052 Clear 8 1025 30 10000 6.71 340 13:47 17.02.2022
3053 Clear 8 1024 31 10000 2.57 10 11:57 17.02.2022
3054 Clear 9 1024 29 10000 7.2 340 11:21 17.02.2022
3055 Clear 11 1021 27 10000 5.36 355 07:57 17.02.2022
3056 Clouds 18 1010 17 10000 9.77 310 00:20 17.02.2022
3057 Clouds 17 1010 23 10000 7.2 290 22:38 16.02.2022
3058 Clouds 15 1012 29 10000 8.23 340 20:24 16.02.2022
3059 Clear 14 1012 32 10000 9.26 330 19:23 16.02.2022
3060 Clouds 13 1011 34 10000 8.23 320 18:35 16.02.2022
3061 Clear 11 1011 40 10000 7.72 330 17:27 16.02.2022
3062 Clouds 10 1009 42 10000 7.72 330 15:24 16.02.2022
3063 Clouds 11 1008 39 10000 7.2 330 13:47 16.02.2022
3064 Clouds 11 1008 37 10000 8.23 320 12:27 16.02.2022
3065 Clouds 11 1007 37 10000 10.8 320 11:46 16.02.2022
3066 Clouds 11 1006 38 10000 8.23 340 10:35 16.02.2022
3067 Clouds 11 1006 40 10000 4.92 5 09:54 16.02.2022
3068 Clouds 12 1006 39 10000 10.29 10 06:44 16.02.2022
3069 Clouds 15 1003 23 10000 7.2 270 02:47 16.02.2022
3070 Clouds 18 1003 30 10000 9.77 210 22:34 15.02.2022
3071 Clouds 18 1003 29 10000 11.32 210 21:51 15.02.2022
3072 Clouds 18 1003 30 10000 11.32 210 21:30 15.02.2022
3073 Clear 18 1002 33 10000 5.81 259 20:58 15.02.2022
3074 Clouds 18 1003 29 10000 12.86 200 20:27 15.02.2022
3075 Clouds 18 1003 29 10000 14.4 200 19:46 15.02.2022
3076 Clouds 17 1003 29 10000 10.8 200 18:27 15.02.2022
3077 Clouds 16 1004 29 10000 6.69 190 17:55 15.02.2022
3078 Clouds 16 1004 29 10000 6.69 190 17:37 15.02.2022
3079 Clouds 15 1002 24 10000 10.29 180 15:43 15.02.2022
3080 Dust 16 1002 22 10000 10.8 210 14:31 15.02.2022
3081 Dust 16 1003 23 10000 8.23 180 13:25 15.02.2022
3082 Dust 17 1005 22 10000 12.35 220 11:41 15.02.2022
3083 Dust 18 1006 17 10000 14.92 220 10:30 15.02.2022
3084 Dust 18 1008 13 10000 8.75 170 08:48 15.02.2022
3085 Clouds 17 1009 13 10000 5.66 180 06:46 15.02.2022
3086 Clouds 21 1015 13 10000 3.6 80 23:35 14.02.2022
3087 Clouds 20 1017 16 10000 2.57 100 21:57 14.02.2022
3088 Clouds 18 1020 16 10000 2.06 40 20:54 14.02.2022
3089 Clouds 17 1021 16 10000 2.24 30 19:49 14.02.2022
3090 Clouds 17 1021 16 10000 2.24 30 19:29 14.02.2022
3091 Clouds 15 1021 18 10000 1.54 0 18:24 14.02.2022
3092 Clouds 12 1021 22 10000 3.09 200 17:30 14.02.2022
3093 Clouds 8 1021 25 10000 3.6 170 16:37 14.02.2022
3094 Clouds 8 1021 24 10000 3.6 180 15:22 14.02.2022
3095 Clouds 9 1021 20 10000 3.6 190 13:34 14.02.2022
3096 Clear 10 1019 20 10000 0.26 349 12:58 14.02.2022
3097 Clear 9 1022 20 10000 3.09 180 12:32 14.02.2022
3098 Clear 10 1022 20 10000 4.12 170 11:38 14.02.2022
3099 Clear 11 1023 19 10000 4.63 170 10:18 14.02.2022
3100 Clear 12 1023 19 10000 3.6 160 07:49 14.02.2022
3101 Clear 12 1023 17 10000 3.6 160 07:24 14.02.2022
3102 Clear 21 1025 12 10000 3.13 80 22:48 13.02.2022
3103 Clear 21 1025 13 10000 3.13 80 22:30 13.02.2022
3104 Clear 21 1025 15 10000 0.89 209 21:57 13.02.2022
3105 Clear 20 1026 14 10000 2.06 10 21:20 13.02.2022
3106 Clear 19 1028 15 10000 2.06 30 20:27 13.02.2022
3107 Clear 17 1028 19 10000 0.45 98 18:58 13.02.2022
3108 Clear 15 1028 19 10000 1.54 70 18:40 13.02.2022
3109 Clear 9 1027 26 10000 3.6 200 16:53 13.02.2022
3110 Clear 8 1027 25 10000 4.12 190 15:51 13.02.2022
3111 Clear 8 1026 25 10000 3.6 170 14:50 13.02.2022
3112 Clear 9 1026 24 10000 4.63 170 13:27 13.02.2022
3113 Clear 9 1026 23 10000 3.09 200 12:42 13.02.2022
3114 Clear 11 1027 22 10000 5.14 190 10:43 13.02.2022
3115 Clear 11 1027 22 10000 5.14 190 10:23 13.02.2022
3116 Clear 12 1026 18 10000 3.09 190 08:55 13.02.2022
3117 Clear 21 1024 11 10000 3.6 50 01:26 13.02.2022
3118 Clear 22 1024 11 10000 3.6 50 00:21 13.02.2022
3119 Clear 21 1026 13 10000 5.66 60 22:34 12.02.2022
3120 Clear 21 1024 18 10000 1.46 76 22:00 12.02.2022
3121 Clouds 20 1028 18 10000 4.63 50 20:55 12.02.2022
3122 Clouds 19 1028 18 10000 4.63 50 20:23 12.02.2022
3123 Clouds 17 1028 22 10000 2.24 100 18:54 12.02.2022
3124 Clouds 17 1028 22 10000 2.24 100 18:36 12.02.2022
3125 Clouds 14 1027 26 10000 2.06 170 17:39 12.02.2022
3126 Clouds 11 1026 30 10000 4.12 220 16:46 12.02.2022
3127 Clouds 11 1025 30 10000 0 0 15:53 12.02.2022
3128 Clouds 11 1025 31 10000 2.06 270 15:20 12.02.2022
3129 Clear 12 1025 30 10000 5.66 40 14:25 12.02.2022
3130 Clear 13 1024 29 10000 3.09 330 11:33 12.02.2022
3131 Clear 14 1023 26 10000 4.12 10 10:32 12.02.2022
3132 Clear 15 1023 25 10000 2.06 330 09:37 12.02.2022
3133 Clear 16 1022 25 10000 2.06 360 08:47 12.02.2022
3134 Clear 16 1022 24 10000 5.66 60 07:45 12.02.2022
3135 Clear 19 1020 20 10000 2.06 170 04:50 12.02.2022
3136 Clear 23 1018 15 10000 3.6 90 02:19 12.02.2022
3137 Clear 25 1017 17 10000 2.24 33 23:56 11.02.2022
3138 Clear 24 1019 17 10000 3.6 60 22:23 11.02.2022
3139 Clear 23 1020 20 10000 4.63 350 21:37 11.02.2022
3140 Clear 21 1021 24 10000 5.14 360 20:29 11.02.2022
3141 Clear 19 1021 27 10000 3.6 30 19:29 11.02.2022
3142 Clear 18 1021 30 10000 4.12 330 18:44 11.02.2022
3143 Clear 14 1021 36 10000 3.6 300 17:27 11.02.2022
3144 Clear 12 1020 40 10000 3.09 280 16:47 11.02.2022
3145 Clear 11 1020 40 10000 5.66 310 15:22 11.02.2022
3146 Clear 11 1020 39 10000 6.69 290 14:38 11.02.2022
3147 Clear 11 1020 40 10000 6.69 290 14:19 11.02.2022
3148 Clear 12 1019 39 10000 4.63 340 13:47 11.02.2022
3149 Clear 12 1020 38 10000 4.63 340 13:28 11.02.2022
3150 Clear 13 1020 34 10000 5.14 350 11:23 11.02.2022
3151 Clear 14 1020 33 10000 5.14 340 09:37 11.02.2022
3152 Clear 15 1021 32 10000 6.17 320 08:36 11.02.2022
3153 Clear 15 1020 32 10000 5.66 350 07:47 11.02.2022
3154 Clear 16 1020 30 10000 4.12 170 06:29 11.02.2022
3155 Clouds 21 1020 23 10000 2.57 60 02:22 11.02.2022
3156 Clouds 23 1022 22 10000 6.17 30 23:48 10.02.2022
3157 Clear 22 1023 24 10000 6.69 30 22:33 10.02.2022
3158 Clouds 21 1025 26 10000 5.14 10 21:42 10.02.2022
3159 Clear 20 1026 26 10000 5.36 10 20:50 10.02.2022
3160 Clear 19 1024 31 10000 3.06 23 19:58 10.02.2022
3161 Clear 19 1026 29 10000 3.58 40 19:23 10.02.2022
3162 Clear 17 1026 32 10000 7.2 340 18:33 10.02.2022
3163 Clear 15 1026 35 10000 5.14 350 17:23 10.02.2022
3164 Clear 13 1025 37 10000 6.17 350 16:43 10.02.2022
3165 Clear 13 1025 37 10000 5.81 50 15:41 10.02.2022
3166 Clear 13 1025 36 10000 5.81 50 15:21 10.02.2022
3167 Clear 13 1024 36 10000 6.69 330 14:35 10.02.2022
3168 Clear 13 1023 37 10000 2.68 348 13:56 10.02.2022
3169 Clear 14 1024 34 10000 6.17 360 13:19 10.02.2022
3170 Clear 15 1024 30 10000 8.75 10 11:53 10.02.2022
3171 Clear 15 1024 29 10000 8.75 10 11:32 10.02.2022
3172 Clear 16 1024 28 10000 7.72 360 10:23 10.02.2022
3173 Clear 16 1024 28 10000 7.2 20 09:44 10.02.2022
3174 Clear 16 1023 26 10000 6.71 350 08:40 10.02.2022
3175 Clear 16 1022 23 10000 3.13 20 06:33 10.02.2022
3176 Clouds 21 1020 14 10000 7.2 10 02:43 10.02.2022
3177 Clear 23 1019 15 10000 5.81 0 00:56 10.02.2022
3178 Clouds 23 1020 12 10000 6.17 340 00:38 10.02.2022
3179 Clouds 23 1020 11 10000 6.17 340 00:20 10.02.2022
3180 Clouds 23 1023 13 10000 3.6 10 22:54 09.02.2022
3181 Clouds 23 1023 12 10000 6.17 320 22:30 09.02.2022
3182 Clouds 22 1024 14 10000 5.66 340 21:47 09.02.2022
3183 Clouds 22 1024 12 10000 5.66 340 21:27 09.02.2022
3184 Clouds 20 1025 16 10000 7.2 330 20:43 09.02.2022
3185 Clouds 20 1025 15 10000 7.2 330 20:22 09.02.2022
3186 Clouds 18 1026 19 10000 6.17 340 19:41 09.02.2022
3187 Clouds 16 1026 22 10000 6.69 350 18:38 09.02.2022
3188 Clouds 10 1025 29 10000 1.54 220 16:55 09.02.2022
3189 Clouds 11 1023 27 10000 2.31 339 15:59 09.02.2022
3190 Clouds 9 1025 29 10000 3.6 310 15:22 09.02.2022
3191 Clear 10 1024 26 10000 3.09 350 12:43 09.02.2022
3192 Clear 11 1025 23 10000 5.14 340 11:23 09.02.2022
3193 Clear 12 1025 21 10000 1.54 230 10:33 09.02.2022
3194 Clear 12 1025 22 10000 6.17 330 09:47 09.02.2022
3195 Clear 12 1025 22 10000 6.17 330 09:20 09.02.2022
3196 Clear 13 1025 21 10000 8.23 320 08:43 09.02.2022
3197 Clear 16 1025 19 10000 4.63 20 05:55 09.02.2022
3198 Clear 17 1024 19 10000 3.6 320 03:51 09.02.2022
3199 Clear 22 1024 15 10000 6.69 20 01:55 09.02.2022
3200 Clouds 22 1024 16 10000 1.54 30 23:42 08.02.2022
3201 Clear 21 1025 17 10000 2.06 10 22:53 08.02.2022
3202 Clouds 20 1025 18 10000 2.06 120 22:27 08.02.2022
3203 Clear 20 1026 20 10000 0.89 96 21:58 08.02.2022
3204 Clouds 19 1026 19 10000 2.06 140 21:22 08.02.2022
3205 Clear 19 1027 20 10000 1.34 111 20:56 08.02.2022
3206 Clouds 18 1027 19 10000 3.09 130 20:31 08.02.2022
3207 Clouds 15 1028 23 10000 2.24 320 18:55 08.02.2022
3208 Clouds 11 1028 28 10000 2.57 290 17:50 08.02.2022
3209 Clouds 7 1027 33 10000 3.6 180 16:42 08.02.2022
3210 Clear 7 1027 32 10000 5.14 330 15:39 08.02.2022
3211 Clear 7 1027 33 10000 3.09 60 14:57 08.02.2022
3212 Clear 7 1026 30 10000 4.63 310 13:30 08.02.2022
3213 Clear 8 1027 31 10000 3.6 190 12:20 08.02.2022
3214 Clear 9 1027 29 10000 4.63 180 10:45 08.02.2022
3215 Clear 9 1027 29 10000 3.6 190 09:46 08.02.2022
3216 Clear 10 1027 27 10000 4.12 190 08:27 08.02.2022
3217 Clear 12 1027 25 10000 3.09 160 05:45 08.02.2022
3218 Clear 12 1027 25 10000 2.57 280 04:40 08.02.2022
3219 Clear 12 1027 24 10000 2.57 280 04:21 08.02.2022
3220 Clear 14 1027 22 10000 2.68 20 03:36 08.02.2022
3221 Clear 14 1027 22 10000 2.68 20 03:18 08.02.2022
3222 Clear 14 1027 26 10000 0.66 297 02:59 08.02.2022
3223 Clear 15 1027 21 10000 3.6 60 02:36 08.02.2022
3224 Clear 16 1027 20 10000 3.6 60 02:18 08.02.2022
3225 Clear 16 1027 20 10000 3.6 60 02:18 08.02.2022
3226 Clear 17 1027 18 10000 3.6 360 01:44 08.02.2022
3227 Clear 18 1027 16 10000 3.6 360 01:24 08.02.2022
3228 Clear 18 1027 18 10000 5.66 70 00:55 08.02.2022
3229 Clear 18 1028 20 10000 0.45 155 23:58 07.02.2022
3230 Clear 18 1028 17 10000 5.14 60 23:40 07.02.2022
3231 Clear 18 1028 15 10000 5.14 60 23:18 07.02.2022
3232 Clear 18 1029 19 10000 5.66 60 22:54 07.02.2022
3233 Clear 17 1029 18 10000 5.66 60 22:18 07.02.2022
3234 Clear 17 1031 18 10000 7.72 60 21:44 07.02.2022
3235 Clear 16 1031 17 10000 7.72 60 21:25 07.02.2022
3236 Clear 15 1032 19 10000 5.66 40 20:41 07.02.2022
3237 Clear 15 1032 22 10000 3.09 60 19:56 07.02.2022
3238 Clear 14 1032 20 10000 3.13 90 19:38 07.02.2022
3239 Clear 12 1033 22 10000 2.06 270 18:22 07.02.2022
3240 Clear 7 1031 28 10000 5.14 60 16:53 07.02.2022
3241 Clear 6 1031 30 10000 5.14 60 16:20 07.02.2022
3242 Clear 6 1031 30 10000 2.06 140 15:48 07.02.2022
3243 Clear 6 1030 30 10000 4.12 60 13:37 07.02.2022
3244 Clear 7 1030 29 10000 4.12 60 13:19 07.02.2022
3245 Clear 7 1031 33 10000 0.89 305 11:58 07.02.2022
3246 Clear 7 1031 33 10000 0.89 305 11:58 07.02.2022
3247 Clear 7 1031 33 10000 0.89 305 11:58 07.02.2022
3248 Clear 7 1030 29 10000 2.24 0 11:37 07.02.2022
3249 Clear 8 1030 26 10000 2.24 250 10:52 07.02.2022
3250 Clear 8 1030 27 10000 2.24 250 10:32 07.02.2022
3251 Clear 9 1030 25 10000 3.13 50 09:53 07.02.2022
3252 Clear 10 1030 24 10000 3.13 50 09:18 07.02.2022
3253 Clear 10 1030 25 10000 4.47 30 08:39 07.02.2022
3254 Clear 11 1030 23 10000 3.13 60 07:19 07.02.2022
3255 Clear 11 1029 23 10000 1.34 230 06:34 07.02.2022
3256 Clear 14 1027 20 10000 3.13 40 03:27 07.02.2022
3257 Clear 18 1026 16 10000 6.71 50 00:46 07.02.2022
3258 Clear 18 1026 16 10000 3.13 0 23:49 06.02.2022
3259 Clear 18 1027 17 10000 6.71 340 22:49 06.02.2022
3260 Clear 18 1027 20 10000 1.34 100 21:56 06.02.2022
3261 Clear 17 1028 17 10000 8.94 20 21:35 06.02.2022
3262 Clear 16 1028 18 10000 4.47 20 20:55 06.02.2022
3263 Clear 16 1028 18 10000 4.47 20 20:55 06.02.2022
3264 Clear 16 1028 18 10000 4.47 20 20:31 06.02.2022
3265 Clear 15 1029 20 10000 3.58 80 19:38 06.02.2022
3266 Clear 14 1028 21 10000 5.36 60 18:41 06.02.2022
3267 Clear 13 1029 25 10000 4.02 31 17:56 06.02.2022
3268 Clear 10 1028 25 10000 0 0 17:21 06.02.2022
3269 Clear 8 1027 28 10000 0 0 16:47 06.02.2022
3270 Clear 8 1026 28 10000 2.24 200 15:49 06.02.2022
3271 Clear 6 1026 32 10000 2.24 200 15:27 06.02.2022
3272 Clouds 7 1026 30 10000 1.34 220 14:45 06.02.2022
3273 Clouds 7 1025 28 10000 2.24 230 13:27 06.02.2022
3274 Clear 7 1026 31 10000 1.79 351 12:58 06.02.2022
3275 Clear 8 1024 29 10000 0 0 11:35 06.02.2022
3276 Clear 8 1024 27 10000 2.24 220 10:31 06.02.2022
3277 Clear 10 1023 26 10000 2.54 356 08:59 06.02.2022
3278 Clear 10 1024 24 10000 3.58 290 08:30 06.02.2022
3279 Clouds 11 1024 26 10000 2.24 230 05:31 06.02.2022
3280 Clouds 11 1024 26 10000 2.24 230 05:31 06.02.2022
3281 Clouds 14 1023 20 10000 1.34 210 02:49 06.02.2022
3282 Clouds 15 1023 20 10000 1.34 210 02:24 06.02.2022
3283 Clouds 17 1023 16 10000 0 0 00:27 06.02.2022
3284 Clouds 15 1025 20 10000 0 0 22:22 05.02.2022
3285 Clouds 14 1027 21 10000 2.68 30 21:18 05.02.2022
3286 Clouds 13 1028 22 10000 2.68 40 20:24 05.02.2022
3287 Clouds 11 1028 24 10000 2.68 70 19:46 05.02.2022
3288 Clouds 10 1028 25 10000 1.34 60 18:52 05.02.2022
3289 Clouds 6 1028 30 10000 3.13 0 17:39 05.02.2022
3290 Clouds 6 1028 30 10000 3.13 0 17:39 05.02.2022
3291 Clear 3 1028 36 10000 0 0 16:48 05.02.2022
3292 Clear 2 1028 37 10000 2.24 260 15:34 05.02.2022
3293 Clear 2 1028 38 10000 2.24 200 14:53 05.02.2022
3294 Clear 3 1029 35 10000 1.34 240 12:47 05.02.2022
3295 Clear 4 1029 35 10000 2.68 280 11:49 05.02.2022
3296 Clear 5 1029 34 10000 2.68 200 10:47 05.02.2022
3297 Clear 6 1030 31 10000 2.24 190 09:53 05.02.2022
3298 Clear 5 1030 31 10000 2.24 190 09:30 05.02.2022
3299 Clear 7 1030 31 10000 2.68 220 07:38 05.02.2022
3300 Clear 7 1031 31 10000 0 0 06:56 05.02.2022
3301 Clear 8 1030 27 10000 2.24 310 04:28 05.02.2022
3302 Clear 13 1030 20 10000 4.47 70 01:19 05.02.2022
3303 Clear 13 1031 21 10000 4.47 60 00:51 05.02.2022
3304 Clear 13 1031 21 10000 5.81 10 23:38 04.02.2022
3305 Clear 13 1031 21 10000 5.81 10 23:20 04.02.2022
3306 Clear 11 1034 25 10000 4.02 60 21:37 04.02.2022
3307 Clear 11 1034 25 10000 4.02 60 21:19 04.02.2022
3308 Clear 10 1035 27 10000 6.26 60 20:50 04.02.2022
3309 Clear 9 1035 29 10000 4.02 60 19:36 04.02.2022
3310 Clear 5 1036 36 10000 0 0 17:28 04.02.2022
3311 Clear 2 1034 40 10000 1.34 310 15:39 04.02.2022
3312 Clear 1 1033 40 10000 2.68 270 14:52 04.02.2022
3313 Clear 3 1033 38 10000 2.24 240 12:43 04.02.2022
3314 Clear 3 1032 36 10000 1.34 210 11:47 04.02.2022
3315 Clear 3 1032 36 10000 1.34 210 11:22 04.02.2022
3316 Clear 4 1032 36 10000 4.47 20 10:32 04.02.2022
3317 Clear 5 1031 33 10000 3.13 20 08:34 04.02.2022
3318 Clear 7 1028 28 10000 3.13 20 05:19 04.02.2022
3319 Clear 10 1025 23 10000 4.63 90 02:39 04.02.2022
3320 Clear 12 1025 20 10000 6.71 50 00:26 04.02.2022
3321 Clear 12 1025 20 10000 6.26 40 23:21 03.02.2022
3322 Clear 11 1025 20 10000 5.36 70 22:26 03.02.2022
3323 Clear 10 1025 21 10000 3.13 0 21:47 03.02.2022
3324 Clear 9 1027 22 10000 1.34 70 20:26 03.02.2022
3325 Clear 8 1027 25 10000 2.87 22 19:59 03.02.2022
3326 Clear 7 1027 23 10000 3.58 20 19:26 03.02.2022
3327 Clear 5 1027 25 10000 3.58 20 18:26 03.02.2022
3328 Clouds 3 1027 28 10000 0 0 17:27 03.02.2022
3329 Clear 0 1025 31 10000 2.24 50 15:44 03.02.2022
3330 Clear 1 1024 31 10000 2.24 90 14:22 03.02.2022
3331 Clear 1 1024 30 10000 1.34 40 12:32 03.02.2022
3332 Clear 2 1024 25 10000 2.24 10 09:29 03.02.2022
3333 Clear 3 1023 24 10000 4.47 50 08:19 03.02.2022
3334 Clear 7 1021 20 10000 3.13 53 02:56 03.02.2022
3335 Clear 9 1018 15 10000 8.94 10 00:29 03.02.2022
3336 Clouds 9 1019 15 10000 8.05 350 22:41 02.02.2022
3337 Clouds 9 1020 16 10000 9.39 340 21:52 02.02.2022
3338 Clouds 9 1020 16 10000 9.39 340 21:29 02.02.2022
3339 Clouds 8 1020 17 10000 10.73 330 20:27 02.02.2022
3340 Clouds 7 1020 18 10000 9.39 360 19:48 02.02.2022
3341 Clear 7 1020 22 10000 6.71 33 19:00 02.02.2022
3342 Clouds 6 1020 21 10000 9.39 350 18:25 02.02.2022
3343 Clouds 5 1019 23 10000 10.28 340 17:22 02.02.2022
3344 Clear 4 1020 26 10000 5.36 0 16:58 02.02.2022
3345 Clear 4 1018 25 10000 7.6 350 15:49 02.02.2022
3346 Clear 4 1015 24 10000 7.15 40 12:47 02.02.2022
3347 Clear 5 1015 24 10000 6.71 360 11:49 02.02.2022
3348 Clear 5 1015 24 10000 6.71 360 11:30 02.02.2022
3349 Clear 6 1014 24 10000 5.36 50 08:48 02.02.2022
3350 Clouds 12 1011 17 10000 5.36 40 02:44 02.02.2022
3351 Clouds 14 1011 20 10000 7.15 60 22:34 01.02.2022
3352 Clouds 14 1013 23 10000 2.68 30 20:55 01.02.2022
3353 Clouds 13 1014 25 10000 7.15 60 19:29 01.02.2022
3354 Clouds 10 1013 28 10000 3.58 50 17:34 01.02.2022
3355 Clouds 8 1013 30 10000 3.58 80 16:21 01.02.2022
3356 Clouds 9 1012 28 10000 4.63 80 12:57 01.02.2022
3357 Clouds 9 1012 28 10000 2.24 300 12:21 01.02.2022
3358 Clouds 9 1013 29 10000 1.34 240 08:52 01.02.2022
3359 Clouds 12 1014 21 10000 0 0 02:20 01.02.2022
3360 Clouds 14 1016 18 10000 2.68 70 23:37 31.01.2022
3361 Clouds 14 1017 18 10000 0 0 22:33 31.01.2022
3362 Clouds 14 1018 18 10000 0 0 21:35 31.01.2022
3363 Clouds 14 1018 18 10000 0 0 21:35 31.01.2022
3364 Clouds 13 1019 18 10000 0 0 20:34 31.01.2022
3365 Clouds 13 1020 22 10000 0.36 114 19:57 31.01.2022
3366 Clouds 10 1020 23 10000 0 0 18:32 31.01.2022
3367 Clear 9 1020 26 10000 2.06 360 17:57 31.01.2022
3368 Clouds 7 1020 26 10000 1.54 170 17:18 31.01.2022
3369 Clouds 6 1020 26 10000 0 0 16:21 31.01.2022
3370 Clouds 6 1020 27 10000 2.06 210 14:50 31.01.2022
3371 Clouds 5 1019 27 10000 1.54 230 13:29 31.01.2022
3372 Clouds 6 1020 26 10000 1.54 250 12:37 31.01.2022
3373 Clouds 9 1019 22 10000 0.7 236 10:59 31.01.2022
3374 Clouds 8 1020 23 10000 1.34 210 10:38 31.01.2022
3375 Clouds 8 1020 22 10000 0 0 09:36 31.01.2022
3376 Clear 9 1021 21 10000 2.24 210 08:54 31.01.2022
3377 Clear 9 1021 22 10000 2.24 210 08:20 31.01.2022
3378 Clear 9 1021 21 10000 1.34 220 07:37 31.01.2022
3379 Clear 11 1020 22 10000 2.24 250 05:24 31.01.2022
3380 Clear 18 1020 11 10000 0 0 00:23 31.01.2022
3381 Clear 17 1020 14 10000 0 0 22:33 30.01.2022
3382 Clear 17 1021 14 10000 1.34 60 21:45 30.01.2022
3383 Clear 17 1021 15 10000 1.34 60 21:24 30.01.2022
3384 Clear 16 1022 15 10000 1.34 80 20:51 30.01.2022
3385 Clear 16 1022 15 10000 1.34 80 20:31 30.01.2022
3386 Clouds 14 1023 17 10000 0 0 19:55 30.01.2022
3387 Clouds 12 1022 19 10000 0 0 18:51 30.01.2022
3388 Clouds 12 1022 20 10000 0 0 18:22 30.01.2022
3389 Clouds 9 1021 23 10000 0 0 17:30 30.01.2022
3390 Clouds 6 1021 23 10000 1.54 220 16:42 30.01.2022
3391 Clouds 5 1021 26 10000 1.54 220 16:22 30.01.2022
3392 Clear 5 1020 26 10000 1.54 240 15:54 30.01.2022
3393 Clear 6 1020 25 10000 1.54 240 15:32 30.01.2022
3394 Clear 6 1020 24 10000 2.57 200 14:47 30.01.2022
3395 Clear 7 1019 23 10000 1.54 240 13:44 30.01.2022
3396 Clouds 7 1019 24 10000 1.54 230 12:44 30.01.2022
3397 Clouds 9 1019 20 10000 0 0 10:39 30.01.2022
3398 Clouds 10 1020 23 10000 1.46 317 09:58 30.01.2022
3399 Clouds 10 1019 20 10000 0 0 09:21 30.01.2022
3400 Clouds 11 1019 23 10000 1.3 269 07:57 30.01.2022
3401 Clouds 14 1020 16 10000 2.68 260 02:44 30.01.2022
3402 Clouds 15 1020 15 10000 2.68 280 01:52 30.01.2022
3403 Clouds 16 1021 13 10000 2.24 40 23:46 29.01.2022
3404 Clouds 16 1022 14 10000 4.02 20 22:48 29.01.2022
3405 Clouds 15 1024 11 10000 2.24 30 21:28 29.01.2022
3406 Clouds 14 1025 15 10000 1.34 60 20:50 29.01.2022
3407 Clouds 13 1026 17 10000 0 0 19:47 29.01.2022
3408 Clouds 13 1026 17 10000 0 0 19:29 29.01.2022
3409 Clouds 11 1026 19 10000 0 0 18:43 29.01.2022
3410 Clouds 8 1026 23 10000 0 0 17:46 29.01.2022
3411 Clouds 4 1026 26 10000 1.34 230 16:43 29.01.2022
3412 Clouds 4 1026 26 10000 0 0 15:20 29.01.2022
3413 Clouds 5 1025 24 10000 2.24 230 13:47 29.01.2022
3414 Clouds 5 1025 25 10000 2.24 230 13:26 29.01.2022
3415 Clouds 6 1026 24 10000 1.34 250 12:42 29.01.2022
3416 Clouds 6 1026 23 10000 3.13 210 11:38 29.01.2022
3417 Clouds 7 1026 22 10000 2.68 210 10:31 29.01.2022
3418 Clouds 9 1026 18 10000 1.96 331 07:57 29.01.2022
3419 Clouds 13 1028 14 10000 3.58 40 01:37 29.01.2022
3420 Clouds 15 1029 12 10000 5.36 60 00:31 29.01.2022
3421 Clouds 15 1029 13 10000 6.71 50 23:22 28.01.2022
3422 Clouds 14 1031 13 10000 6.26 60 22:42 28.01.2022
3423 Clouds 14 1031 13 10000 6.26 60 22:18 28.01.2022
3424 Clouds 12 1034 17 10000 2.68 30 20:40 28.01.2022
3425 Clouds 11 1035 19 10000 0 0 19:51 28.01.2022
3426 Clouds 9 1035 21 10000 1.34 190 18:49 28.01.2022
3427 Clouds 7 1035 25 10000 2.24 210 17:46 28.01.2022
3428 Clear 3 1034 31 10000 2.24 200 15:46 28.01.2022
3429 Clear 4 1034 29 10000 1.34 220 14:20 28.01.2022
3430 Clear 5 1033 26 10000 0 0 12:35 28.01.2022
3431 Clear 6 1034 25 10000 2.24 220 11:38 28.01.2022
3432 Clear 7 1033 23 10000 2.68 20 10:22 28.01.2022
3433 Clear 7 1033 22 10000 4.02 50 09:45 28.01.2022
3434 Clear 9 1032 18 10000 4.47 60 07:40 28.01.2022
3435 Clear 11 1030 18 10000 4.47 60 05:24 28.01.2022
3436 Clear 12 1028 21 10000 5.81 50 03:47 28.01.2022
3437 Clear 14 1026 19 10000 6.71 50 02:23 28.01.2022
3438 Clear 15 1026 17 10000 8.05 50 01:34 28.01.2022
3439 Clear 17 1026 15 10000 5.36 40 23:33 27.01.2022
3440 Clear 15 1026 18 10000 2.24 70 21:50 27.01.2022
3441 Clear 15 1026 18 10000 2.24 70 21:30 27.01.2022
3442 Clear 14 1027 20 10000 0 0 20:53 27.01.2022
3443 Clear 12 1027 22 10000 1.34 40 19:30 27.01.2022
3444 Clear 8 1027 29 10000 0.45 225 17:56 27.01.2022
3445 Clear 4 1025 32 10000 0 0 15:31 27.01.2022
3446 Clear 3 1023 35 10000 1.34 160 13:39 27.01.2022
3447 Clear 4 1024 33 10000 2.24 250 12:46 27.01.2022
3448 Clear 4 1024 33 10000 2.24 250 12:46 27.01.2022
3449 Clear 5 1023 31 10000 0 0 10:57 27.01.2022
3450 Clear 5 1023 33 10000 2.68 210 09:19 27.01.2022
3451 Clear 6 1023 32 10000 2.68 210 08:37 27.01.2022
3452 Clear 6 1024 33 10000 1.34 300 07:22 27.01.2022
3453 Clear 10 1022 30 10000 3.6 50 02:57 27.01.2022
3454 Clear 13 1022 24 10000 2.24 0 23:33 26.01.2022
3455 Clear 12 1023 26 10000 0 0 22:25 26.01.2022
3456 Clear 12 1024 27 10000 3.13 20 21:36 26.01.2022
3457 Clear 11 1025 28 10000 3.58 40 20:41 26.01.2022
3458 Clear 11 1025 28 10000 3.58 40 20:23 26.01.2022
3459 Clear 10 1026 30 10000 1.34 350 19:23 26.01.2022
3460 Clear 8 1026 34 10000 0 0 18:45 26.01.2022
3461 Clear 6 1026 40 10000 0 0 17:51 26.01.2022
3462 Clear 5 1026 42 10000 0 0 17:23 26.01.2022
3463 Clear 3 1026 47 10000 0 0 16:33 26.01.2022
3464 Clear 3 1025 45 10000 1.34 190 15:49 26.01.2022
3465 Clear 4 1024 44 10000 0 0 14:20 26.01.2022
3466 Clear 6 1024 38 10000 3.58 20 11:52 26.01.2022
3467 Clear 6 1024 37 10000 6.71 30 10:28 26.01.2022
3468 Clear 7 1023 36 10000 2.68 100 09:48 26.01.2022
3469 Clear 8 1022 32 10000 4.02 40 07:45 26.01.2022
3470 Clear 11 1021 27 10000 2.68 90 04:24 26.01.2022
3471 Clear 15 1018 24 10000 6.26 11 23:58 25.01.2022
3472 Clouds 15 1017 21 10000 5.36 360 23:19 25.01.2022
3473 Clouds 15 1017 21 10000 9.83 30 22:21 25.01.2022
3474 Clouds 15 1018 21 10000 10.28 360 21:58 25.01.2022
3475 Clear 15 1018 20 10000 9.83 10 20:47 25.01.2022
3476 Clear 15 1018 20 10000 9.83 10 20:28 25.01.2022
3477 Clear 15 1018 20 10000 9.83 10 20:28 25.01.2022
3478 Clear 15 1018 20 10000 9.83 10 20:28 25.01.2022
3479 Clear 15 1018 21 10000 10.28 320 19:52 25.01.2022
3480 Clear 14 1017 24 10000 11.62 340 18:38 25.01.2022
3481 Clear 12 1016 31 10000 0 0 17:45 25.01.2022
3482 Clear 9 1015 37 10000 2.24 280 16:45 25.01.2022
3483 Clear 8 1015 39 10000 2.24 280 16:21 25.01.2022
3484 Clear 8 1014 36 10000 3.58 20 15:38 25.01.2022
3485 Clear 8 1014 39 10000 1.34 190 14:57 25.01.2022
3486 Clear 9 1012 36 10000 3.13 210 13:42 25.01.2022
3487 Clear 10 1013 34 10000 3.13 230 10:51 25.01.2022
3488 Clear 10 1014 31 10000 2.68 250 08:37 25.01.2022
3489 Clouds 10 1015 35 10000 2.68 220 07:29 25.01.2022
3490 Clouds 10 1014 34 10000 1.34 210 06:49 25.01.2022
3491 Clouds 11 1015 33 10000 1.34 210 05:22 25.01.2022
3492 Clear 18 1016 22 10000 2.24 80 23:37 24.01.2022
3493 Clear 18 1016 20 10000 2.24 80 23:18 24.01.2022
3494 Clear 18 1016 24 10000 0.45 115 22:59 24.01.2022
3495 Clear 17 1017 23 10000 1.34 40 22:41 24.01.2022
3496 Clear 17 1018 25 10000 0 0 21:53 24.01.2022
3497 Clear 17 1018 25 10000 0 0 21:53 24.01.2022
3498 Clear 16 1018 23 10000 0 0 21:28 24.01.2022
3499 Clear 16 1019 24 10000 1.34 30 20:30 24.01.2022
3500 Clear 14 1020 26 10000 0 0 19:44 24.01.2022
3501 Clear 14 1020 26 10000 0 0 19:24 24.01.2022
3502 Clear 12 1020 31 10000 0.45 182 17:59 24.01.2022
3503 Clear 9 1020 37 10000 1.34 200 17:24 24.01.2022
3504 Clear 7 1020 37 10000 2.68 270 16:41 24.01.2022
3505 Clear 6 1020 37 10000 2.68 270 16:18 24.01.2022
3506 Clear 6 1020 36 10000 2.24 220 14:38 24.01.2022
3507 Clear 7 1020 37 10000 0.45 310 12:58 24.01.2022
3508 Clear 7 1020 34 10000 2.24 220 12:23 24.01.2022
3509 Clear 8 1021 30 10000 2.24 220 10:27 24.01.2022
3510 Clear 8 1021 31 10000 1.34 0 09:48 24.01.2022
3511 Clear 9 1021 30 10000 2.24 220 08:34 24.01.2022
3512 Clear 10 1022 28 10000 0 0 06:19 24.01.2022
3513 Clouds 16 1022 20 10000 0 0 01:30 24.01.2022
3514 Clouds 17 1022 18 10000 2.24 130 00:35 24.01.2022
3515 Clouds 17 1022 19 10000 1.34 0 23:49 23.01.2022
3516 Clouds 17 1022 19 10000 1.34 0 23:49 23.01.2022
3517 Clouds 16 1023 21 10000 3.58 30 22:28 23.01.2022
3518 Clouds 15 1024 21 10000 3.58 30 21:46 23.01.2022
3519 Clouds 15 1024 22 10000 3.58 30 21:25 23.01.2022
3520 Clouds 14 1026 23 10000 4.47 50 20:44 23.01.2022
3521 Clear 13 1026 26 10000 5.36 360 19:43 23.01.2022
3522 Clear 11 1026 29 10000 0 0 18:50 23.01.2022
3523 Clear 9 1026 31 10000 0 0 17:44 23.01.2022
3524 Clear 7 1026 35 10000 1.34 0 16:47 23.01.2022
3525 Clear 7 1025 37 10000 0.45 229 14:59 23.01.2022
3526 Clear 7 1025 34 10000 1.34 210 14:25 23.01.2022
3527 Clear 7 1025 34 10000 1.34 210 14:25 23.01.2022
3528 Clear 9 1025 33 10000 4.47 40 12:54 23.01.2022
3529 Clear 9 1025 31 10000 4.47 40 12:22 23.01.2022
3530 Clear 9 1024 31 10000 6.71 30 11:52 23.01.2022
3531 Clear 9 1024 31 10000 6.71 30 11:18 23.01.2022
3532 Clear 10 1024 30 10000 6.26 20 10:27 23.01.2022
3533 Clear 10 1024 30 10000 6.26 10 09:51 23.01.2022
3534 Clear 11 1024 29 10000 6.71 10 08:53 23.01.2022
3535 Clear 12 1023 31 10000 2.24 17 05:56 23.01.2022
3536 Clouds 15 1020 23 10000 6.26 360 01:52 23.01.2022
3537 Clouds 16 1020 23 10000 6.26 360 01:26 23.01.2022
3538 Clouds 16 1020 22 10000 9.39 20 00:23 23.01.2022
3539 Clouds 16 1020 22 10000 9.39 30 23:44 22.01.2022
3540 Clouds 16 1020 23 10000 7.6 10 22:46 22.01.2022
3541 Clouds 15 1021 24 10000 5.81 10 21:36 22.01.2022
3542 Clouds 13 1023 26 10000 10.28 360 19:51 22.01.2022
3543 Clouds 11 1023 28 10000 7.15 360 18:49 22.01.2022
3544 Clouds 11 1023 28 10000 7.15 360 18:18 22.01.2022
3545 Clouds 9 1022 31 10000 7.6 350 17:40 22.01.2022
3546 Clear 8 1022 35 10000 4.92 328 16:56 22.01.2022
3547 Clouds 8 1021 33 10000 9.39 340 15:50 22.01.2022
3548 Clear 8 1021 35 10000 4.47 28 14:58 22.01.2022
3549 Clouds 9 1020 33 10000 10.73 350 13:42 22.01.2022
3550 Clouds 9 1021 32 10000 6.26 340 12:50 22.01.2022
3551 Clouds 9 1021 32 10000 6.26 340 12:28 22.01.2022
3552 Clouds 9 1022 33 10000 5.81 24 10:56 22.01.2022
3553 Clouds 10 1021 32 10000 6.71 340 10:29 22.01.2022
3554 Clear 10 1021 35 10000 4.92 14 09:58 22.01.2022
3555 Clouds 11 1021 32 10000 9.39 350 08:51 22.01.2022
3556 Clouds 11 1020 32 10000 9.39 360 07:38 22.01.2022
3557 Clouds 12 1019 30 10000 8.94 10 04:52 22.01.2022
3558 Clouds 14 1017 32 10000 9.83 10 01:34 22.01.2022
3559 Clouds 15 1017 31 10000 5.81 360 23:38 21.01.2022
3560 Clouds 15 1017 31 10000 5.81 360 23:38 21.01.2022
3561 Clouds 15 1017 31 10000 3.13 50 22:28 21.01.2022
3562 Clouds 13 1020 33 10000 3.58 50 20:22 21.01.2022
3563 Clouds 9 1019 39 10000 0 0 18:39 21.01.2022
3564 Clouds 7 1019 42 10000 0 0 17:28 21.01.2022
3565 Clouds 6 1018 45 10000 1.54 270 15:30 21.01.2022
3566 Clouds 6 1019 44 10000 1.54 200 13:37 21.01.2022
3567 Clouds 6 1020 43 10000 0 0 12:38 21.01.2022
3568 Clouds 7 1020 45 10000 0 0 11:27 21.01.2022
3569 Clouds 8 1020 43 10000 2.24 220 10:19 21.01.2022
3570 Clouds 8 1022 42 10000 1.34 230 08:24 21.01.2022
3571 Clouds 9 1023 43 10000 0.55 231 06:57 21.01.2022
3572 Clouds 16 1026 25 10000 0 0 23:36 20.01.2022
3573 Clouds 16 1027 26 10000 2.24 0 22:24 20.01.2022
3574 Clouds 15 1028 28 10000 2.68 0 21:43 20.01.2022
3575 Clouds 14 1029 30 10000 4.47 40 20:43 20.01.2022
3576 Clouds 13 1030 34 10000 6.26 10 19:20 20.01.2022
3577 Clouds 12 1029 37 10000 3.58 90 18:50 20.01.2022
3578 Clouds 10 1029 40 10000 3.13 30 17:29 20.01.2022
3579 Clear 8 1028 45 10000 4.47 60 15:43 20.01.2022
3580 Clear 7 1028 46 10000 4.47 60 15:22 20.01.2022
3581 Clear 8 1027 44 10000 5.36 70 13:41 20.01.2022
3582 Clear 9 1026 41 10000 7.15 20 12:35 20.01.2022
3583 Clear 9 1026 44 10000 4.47 30 11:50 20.01.2022
3584 Clear 9 1026 46 10000 2.24 50 10:40 20.01.2022
3585 Clear 10 1025 42 10000 5.81 10 09:40 20.01.2022
3586 Clear 9 1025 47 10000 2.68 300 08:32 20.01.2022
3587 Clear 11 1023 47 10000 1.34 280 05:32 20.01.2022
3588 Clouds 17 1021 30 10000 2.24 130 23:28 19.01.2022
3589 Clouds 17 1021 32 10000 0 0 22:24 19.01.2022
3590 Clouds 16 1022 36 10000 0 0 21:23 19.01.2022
3591 Clouds 15 1022 39 10000 0 0 20:49 19.01.2022
3592 Clouds 14 1023 48 10000 1.34 80 19:45 19.01.2022
3593 Clouds 11 1022 58 10000 1.34 200 18:40 19.01.2022
3594 Clouds 9 1021 65 10000 0 0 17:45 19.01.2022
3595 Clouds 6 1021 74 10000 2.24 250 16:48 19.01.2022
3596 Haze 6 1020 75 10000 2.06 210 14:42 19.01.2022
3597 Smoke 7 1019 78 10000 1.34 220 12:43 19.01.2022
3598 Smoke 7 1019 77 10000 1.34 250 11:42 19.01.2022
3599 Smoke 8 1019 75 10000 1.34 260 10:35 19.01.2022
3600 Clouds 8 1019 77 10000 2.24 210 09:34 19.01.2022
3601 Clouds 9 1019 71 10000 0.14 221 06:56 19.01.2022
3602 Clouds 13 1016 60 10000 2.24 70 02:41 19.01.2022
3603 Clouds 15 1016 51 10000 2.24 80 23:20 18.01.2022
3604 Clouds 15 1016 50 10000 2.24 0 22:34 18.01.2022
3605 Clouds 14 1017 55 10000 2.24 80 21:01 18.01.2022
3606 Clouds 13 1018 55 10000 0.45 114 19:55 18.01.2022
3607 Clouds 12 1018 56 10000 0 0 19:36 18.01.2022
3608 Smoke 11 1018 68 10000 2.68 90 18:51 18.01.2022
3609 Smoke 10 1018 74 10000 0 0 17:58 18.01.2022
3610 Clouds 9 1017 66 10000 1.54 240 16:58 18.01.2022
3611 Rain 8 1017 74 10000 0 0 15:47 18.01.2022
3612 Rain 8 1017 74 10000 0 0 15:22 18.01.2022
3613 Clouds 9 1016 59 10000 1.34 200 12:47 18.01.2022
3614 Clouds 10 1016 41 10000 0 0 10:47 18.01.2022
3615 Clouds 10 1017 37 10000 0 0 09:21 18.01.2022
3616 Clouds 10 1017 37 10000 0 0 07:55 18.01.2022
3617 Clouds 13 1016 27 10000 1.34 110 02:35 18.01.2022
3618 Clouds 16 1017 23 10000 2.24 70 23:46 17.01.2022
3619 Clouds 15 1017 24 10000 2.24 60 22:27 17.01.2022
3620 Clouds 15 1018 23 10000 0 0 21:35 17.01.2022
3621 Clouds 14 1019 24 10000 2.24 70 20:24 17.01.2022
3622 Clouds 10 1020 30 10000 0 0 18:30 17.01.2022
3623 Clouds 8 1019 35 10000 1.54 230 17:44 17.01.2022
3624 Clouds 6 1019 36 10000 0 0 16:44 17.01.2022
3625 Clouds 6 1019 35 10000 0 0 15:22 17.01.2022
3626 Clear 7 1018 33 10000 2.06 310 14:56 17.01.2022
3627 Clouds 7 1018 35 10000 1.34 250 13:26 17.01.2022
3628 Clear 7 1019 35 10000 0 0 12:56 17.01.2022
3629 Clouds 7 1018 34 10000 0 0 11:49 17.01.2022
3630 Clouds 8 1019 34 10000 1.54 220 10:21 17.01.2022
3631 Clouds 8 1019 33 10000 2.06 210 09:34 17.01.2022
3632 Clouds 8 1019 32 10000 1.34 200 07:24 17.01.2022
3633 Clear 9 1019 32 10000 2.06 50 06:56 17.01.2022
3634 Clouds 16 1019 22 10000 0 0 00:55 17.01.2022
3635 Clouds 16 1020 23 10000 0 0 22:29 16.01.2022
3636 Clouds 14 1022 26 10000 0 0 20:36 16.01.2022
3637 Clouds 10 1023 33 10000 0 0 18:51 16.01.2022
3638 Clear 9 1024 35 10000 0.81 348 17:59 16.01.2022
3639 Clouds 6 1023 39 10000 0 0 17:21 16.01.2022
3640 Clouds 4 1023 42 10000 2.24 250 16:33 16.01.2022
3641 Clouds 5 1022 40 10000 2.06 220 14:31 16.01.2022
3642 Clouds 5 1022 39 10000 2.06 210 13:46 16.01.2022
3643 Clouds 7 1023 36 10000 1.54 230 12:46 16.01.2022
3644 Clouds 7 1024 36 10000 2.06 280 11:41 16.01.2022
3645 Clouds 7 1024 36 10000 2.06 200 10:53 16.01.2022
3646 Clouds 8 1022 34 10000 1.28 345 09:59 16.01.2022
3647 Clouds 8 1024 36 10000 2.24 220 09:40 16.01.2022
3648 Clouds 8 1024 36 10000 2.24 220 09:22 16.01.2022
3649 Clouds 9 1024 33 10000 1.34 200 07:30 16.01.2022
3650 Smoke 15 1025 25 10000 2.68 270 00:38 16.01.2022
3651 Clouds 15 1025 25 10000 0 0 23:40 15.01.2022
3652 Clouds 14 1027 27 10000 1.34 0 21:23 15.01.2022
3653 Clear 14 1028 30 10000 2.57 230 20:56 15.01.2022
3654 Clouds 14 1029 29 10000 0 0 20:38 15.01.2022
3655 Clouds 12 1030 33 10000 0 0 19:28 15.01.2022
3656 Clouds 10 1030 37 10000 0 0 18:31 15.01.2022
3657 Clouds 6 1030 43 10000 1.34 230 16:52 15.01.2022
3658 Clouds 7 1029 42 10000 2.68 210 15:38 15.01.2022
3659 Clouds 8 1028 41 10000 2.24 190 13:35 15.01.2022
3660 Clouds 8 1028 42 10000 0 0 11:46 15.01.2022
3661 Clouds 10 1028 37 10000 2.24 10 09:49 15.01.2022
3662 Clouds 13 1027 32 10000 3.13 50 05:27 15.01.2022
3663 Clouds 18 1023 22 10000 6.71 360 23:44 14.01.2022
3664 Clouds 18 1025 22 10000 7.15 40 21:29 14.01.2022
3665 Clouds 18 1026 23 10000 5.81 30 20:37 14.01.2022
3666 Clear 17 1026 26 10000 4.02 5 19:56 14.01.2022
3667 Clouds 15 1025 29 10000 1.34 110 18:43 14.01.2022
3668 Clouds 13 1025 34 10000 2.24 160 17:52 14.01.2022
3669 Clouds 10 1023 42 10000 2.24 210 16:43 14.01.2022
3670 Clouds 10 1023 42 10000 2.24 210 16:43 14.01.2022
3671 Clouds 9 1022 42 10000 1.34 210 15:33 14.01.2022
3672 Clouds 8 1021 43 10000 0 0 14:29 14.01.2022
3673 Clouds 10 1019 40 10000 1.83 341 12:59 14.01.2022
3674 Clouds 10 1020 41 10000 2.68 280 11:53 14.01.2022
3675 Smoke 10 1020 39 10000 1.34 260 10:40 14.01.2022
3676 Clouds 11 1020 39 10000 0 0 08:53 14.01.2022
3677 Clouds 12 1021 35 10000 0 0 07:32 14.01.2022
3678 Clouds 15 1021 30 10000 0 0 02:27 14.01.2022
3679 Clouds 17 1022 26 10000 3.13 90 00:33 14.01.2022
3680 Clouds 17 1024 27 10000 0 0 21:52 13.01.2022
3681 Clouds 16 1024 28 10000 0 0 21:29 13.01.2022
3682 Clouds 15 1025 33 10000 0.45 157 19:58 13.01.2022
3683 Clouds 14 1026 32 10000 0 0 19:29 13.01.2022
3684 Clouds 13 1026 35 10000 0 0 18:40 13.01.2022
3685 Clouds 9 1026 39 10000 0 0 16:53 13.01.2022
3686 Clouds 9 1025 38 10000 0 0 15:39 13.01.2022
3687 Clouds 8 1025 38 10000 0 0 15:21 13.01.2022
3688 Clouds 8 1025 38 10000 2.68 210 13:29 13.01.2022
3689 Clouds 9 1026 35 10000 0 0 11:18 13.01.2022
3690 Clouds 10 1027 34 10000 2.24 210 09:23 13.01.2022
3691 Clouds 10 1027 33 10000 2.24 250 08:29 13.01.2022
3692 Clouds 11 1025 35 10000 0.66 345 07:58 13.01.2022
3693 Clouds 11 1027 32 10000 1.34 260 07:19 13.01.2022
3694 Clouds 12 1027 30 10000 2.24 200 05:21 13.01.2022
3695 Clear 14 1027 28 10000 2.24 230 03:48 13.01.2022
3696 Clouds 17 1027 23 10000 0 0 01:39 13.01.2022
3697 Clouds 18 1027 22 10000 0 0 23:53 12.01.2022
3698 Clouds 18 1027 20 10000 0 0 23:34 12.01.2022
3699 Clouds 18 1028 22 10000 1.34 20 22:32 12.01.2022
3700 Clouds 17 1029 23 10000 0 0 21:43 12.01.2022
3701 Clouds 16 1029 24 10000 0 0 21:19 12.01.2022
3702 Clouds 16 1030 25 10000 1.34 150 20:47 12.01.2022
3703 Clouds 12 1031 30 10000 0 0 18:52 12.01.2022
3704 Clouds 11 1031 30 10000 0 0 18:18 12.01.2022
3705 Clouds 7 1030 38 10000 2.24 230 16:52 12.01.2022
3706 Clouds 6 1029 37 10000 2.24 230 15:38 12.01.2022
3707 Clouds 6 1029 37 10000 1.34 230 14:39 12.01.2022
3708 Clouds 8 1028 36 10000 1.74 0 12:57 12.01.2022
3709 Clouds 8 1030 30 10000 1.34 220 09:48 12.01.2022
3710 Clear 9 1028 31 10000 1.21 339 07:58 12.01.2022
3711 Clouds 8 1030 30 10000 2.24 250 07:33 12.01.2022
3712 Clouds 13 1028 24 10000 1.34 200 02:38 12.01.2022
3713 Clouds 16 1028 20 10000 0 0 23:27 11.01.2022
3714 Clouds 15 1028 21 10000 1.34 60 22:39 11.01.2022
3715 Clouds 15 1028 21 10000 1.34 60 22:18 11.01.2022
3716 Clouds 13 1032 25 10000 0 0 20:40 11.01.2022
3717 Clouds 12 1033 27 10000 0 0 19:35 11.01.2022
3718 Clear 8 1032 35 10000 2.57 210 17:54 11.01.2022
3719 Clear 4 1031 40 10000 1.34 250 16:40 11.01.2022
3720 Clear 4 1031 40 10000 1.34 250 16:40 11.01.2022
3721 Clear 4 1031 40 10000 1.34 250 16:18 11.01.2022
3722 Clouds 5 1030 40 10000 1.54 220 14:53 11.01.2022
3723 Clouds 5 1030 38 10000 1.54 220 14:34 11.01.2022
3724 Clouds 5 1030 39 10000 2.06 200 13:52 11.01.2022
3725 Clouds 5 1030 39 10000 2.06 200 13:28 11.01.2022
3726 Clouds 6 1030 39 10000 2.24 230 12:34 11.01.2022
3727 Clouds 7 1030 35 10000 2.24 180 10:32 11.01.2022
3728 Clouds 8 1031 33 10000 1.34 220 07:55 11.01.2022
3729 Clouds 10 1031 30 10000 1.34 220 04:28 11.01.2022
3730 Clouds 15 1030 21 10000 2.68 330 00:27 11.01.2022
3731 Clouds 15 1030 20 10000 2.68 330 23:39 10.01.2022
3732 Clouds 15 1031 22 10000 4.02 10 22:39 10.01.2022
3733 Clouds 15 1031 22 10000 4.02 10 22:18 10.01.2022
3734 Clouds 14 1033 25 10000 0 0 21:33 10.01.2022
3735 Clouds 14 1033 28 10000 0.45 87 20:59 10.01.2022
3736 Clouds 13 1034 27 10000 1.34 60 20:41 10.01.2022
3737 Clouds 13 1034 27 10000 1.34 60 20:19 10.01.2022
3738 Clouds 11 1035 30 10000 1.34 0 19:38 10.01.2022
3739 Clouds 11 1035 31 10000 1.34 0 19:19 10.01.2022
3740 Clouds 10 1035 33 10000 1.34 190 18:46 10.01.2022
3741 Clouds 5 1034 44 10000 2.24 220 16:48 10.01.2022
3742 Clouds 5 1034 44 10000 2.24 220 16:26 10.01.2022
3743 Clouds 5 1033 43 10000 0 0 14:43 10.01.2022
3744 Clouds 5 1033 43 10000 2.68 270 13:22 10.01.2022
3745 Clear 7 1033 40 10000 2.06 250 11:56 10.01.2022
3746 Clear 6 1033 38 10000 1.34 230 10:48 10.01.2022
3747 Clear 7 1033 39 10000 1.34 210 09:33 10.01.2022
3748 Clear 9 1032 34 10000 1.34 250 05:51 10.01.2022
3749 Clear 13 1031 28 10000 4.47 40 02:30 10.01.2022
3750 Clear 15 1030 24 10000 5.81 40 01:20 10.01.2022
3751 Clear 16 1030 23 10000 6.71 50 00:19 10.01.2022
3752 Clear 15 1030 24 10000 6.26 40 22:44 09.01.2022
3753 Clear 15 1031 26 10000 0.89 35 21:57 09.01.2022
3754 Clear 15 1031 25 10000 5.36 50 21:37 09.01.2022
3755 Clear 15 1031 25 10000 5.36 50 21:37 09.01.2022
3756 Clear 15 1031 25 10000 5.36 50 21:37 09.01.2022
3757 Clear 14 1031 26 10000 5.36 50 21:18 09.01.2022
3758 Clear 14 1032 28 10000 3.58 10 20:45 09.01.2022
3759 Clear 14 1032 28 10000 3.58 10 20:26 09.01.2022
3760 Clear 12 1032 34 10000 0 0 19:38 09.01.2022
3761 Clear 12 1032 34 10000 0 0 19:20 09.01.2022
3762 Clear 10 1031 38 10000 2.24 180 18:37 09.01.2022
3763 Clear 8 1031 43 10000 1.34 200 17:48 09.01.2022
3764 Clear 8 1030 45 10000 1.34 200 17:29 09.01.2022
3765 Clear 6 1030 46 10000 2.68 220 16:43 09.01.2022
3766 Clear 6 1029 48 10000 2.06 200 15:42 09.01.2022
3767 Clear 6 1029 48 10000 2.06 200 15:42 09.01.2022
3768 Clear 6 1029 48 10000 0.45 223 14:58 09.01.2022
3769 Clear 6 1027 45 10000 1.34 220 14:24 09.01.2022
3770 Smoke 7 1027 45 10000 2.57 200 13:48 09.01.2022
3771 Clear 8 1027 45 10000 2.88 345 11:58 09.01.2022
3772 Clear 8 1026 42 10000 1.34 150 11:28 09.01.2022
3773 Clear 9 1025 40 10000 0 0 09:55 09.01.2022
3774 Clear 9 1025 38 10000 0 0 09:20 09.01.2022
3775 Clear 10 1024 35 10000 4.63 80 06:57 09.01.2022
3776 Clouds 16 1018 23 10000 5.36 330 01:30 09.01.2022
3777 Clouds 17 1017 22 10000 5.36 350 00:38 09.01.2022
3778 Clouds 17 1017 24 10000 3.58 330 23:34 08.01.2022
3779 Clouds 18 1016 25 10000 5.36 360 22:48 08.01.2022
3780 Clouds 17 1017 26 10000 6.71 10 21:28 08.01.2022
3781 Clouds 16 1017 29 10000 4.47 10 20:44 08.01.2022
3782 Clouds 16 1017 29 10000 4.47 10 20:22 08.01.2022
3783 Clouds 15 1017 34 10000 2.68 360 19:22 08.01.2022
3784 Clouds 11 1015 45 10000 3.13 170 17:38 08.01.2022
3785 Clouds 8 1014 50 10000 0 0 16:45 08.01.2022
3786 Clear 9 1013 46 10000 2.68 240 15:34 08.01.2022
3787 Clear 10 1012 44 10000 0 0 14:25 08.01.2022
3788 Clouds 11 1009 42 10000 3.58 360 11:43 08.01.2022
3789 Clouds 12 1008 39 10000 2.68 300 10:40 08.01.2022
3790 Clouds 12 1008 38 10000 2.68 300 10:21 08.01.2022
3791 Clouds 13 1007 33 10000 1.34 210 09:34 08.01.2022
3792 Clouds 14 1007 39 10000 0 0 06:18 08.01.2022
3793 Clouds 17 1007 31 10000 2.68 20 01:41 08.01.2022
3794 Clouds 17 1008 33 10000 0 0 23:31 07.01.2022
3795 Clouds 15 1011 39 10000 2.24 40 21:49 07.01.2022
3796 Clouds 14 1012 43 10000 1.54 50 20:34 07.01.2022
3797 Clouds 12 1013 44 10000 2.57 40 19:27 07.01.2022
3798 Clouds 12 1013 44 10000 2.57 40 19:27 07.01.2022
3799 Clouds 11 1013 48 10000 1.54 80 18:49 07.01.2022
3800 Clouds 10 1013 48 10000 1.54 80 18:21 07.01.2022
3801 Clouds 8 1012 56 10000 0 0 17:24 07.01.2022
3802 Clear 6 1012 62 10000 0 0 14:56 07.01.2022
3803 Clear 5 1012 63 10000 0 0 13:52 07.01.2022
3804 Clear 6 1013 61 10000 0 0 12:51 07.01.2022
3805 Clear 7 1014 59 10000 0 0 11:22 07.01.2022
3806 Clear 11 1015 45 10000 2.24 190 04:25 07.01.2022
3807 Smoke 13 1014 40 10000 1.34 70 02:46 07.01.2022
3808 Smoke 15 1014 33 10000 0 0 01:48 07.01.2022
3809 Smoke 15 1014 33 10000 0 0 01:48 07.01.2022
3810 Smoke 16 1014 32 10000 0 0 01:25 07.01.2022
3811 Smoke 17 1015 32 10000 0 0 00:30 07.01.2022
3812 Smoke 17 1015 32 10000 0 0 00:30 07.01.2022
3813 Clear 16 1017 33 10000 2.68 60 22:33 06.01.2022
3814 Clouds 14 1019 37 10000 1.34 70 20:51 06.01.2022
3815 Clouds 14 1019 38 10000 1.34 70 20:18 06.01.2022
3816 Clouds 13 1019 40 10000 2.24 80 19:36 06.01.2022
3817 Clouds 8 1020 50 10000 0 0 17:51 06.01.2022
3818 Clouds 8 1020 50 10000 0 0 17:23 06.01.2022
3819 Clouds 5 1020 55 10000 1.34 230 16:32 06.01.2022
3820 Clouds 6 1019 54 10000 1.34 250 15:44 06.01.2022
3821 Clouds 6 1019 57 10000 1.34 250 15:21 06.01.2022
3822 Clouds 6 1019 55 10000 0 0 14:20 06.01.2022
3823 Clouds 6 1019 53 10000 0 0 13:33 06.01.2022
3824 Clouds 6 1019 51 10000 1.54 220 12:20 06.01.2022
3825 Clouds 6 1019 49 10000 1.54 230 11:29 06.01.2022
3826 Clouds 7 1019 49 10000 1.34 240 10:50 06.01.2022
3827 Clouds 8 1020 42 10000 3.13 280 06:38 06.01.2022
3828 Clouds 15 1019 26 10000 3.13 80 00:34 06.01.2022
3829 Clouds 15 1019 25 10000 0 0 23:22 05.01.2022
3830 Clouds 14 1020 26 10000 1.34 50 22:48 05.01.2022
3831 Clouds 14 1020 26 10000 1.34 50 22:21 05.01.2022
3832 Clouds 13 1021 27 10000 1.34 10 21:25 05.01.2022
3833 Clouds 12 1022 29 10000 1.34 70 20:30 05.01.2022
3834 Clouds 12 1022 29 10000 1.34 70 20:30 05.01.2022
3835 Clouds 10 1023 33 10000 0 0 19:28 05.01.2022
3836 Clear 8 1023 37 10000 0 0 17:56 05.01.2022
3837 Clear 5 1022 47 10000 0 0 16:56 05.01.2022
3838 Clouds 3 1022 49 10000 0 0 16:18 05.01.2022
3839 Clouds 4 1022 47 10000 1.34 250 14:54 05.01.2022
3840 Clouds 4 1022 46 10000 0 0 13:33 05.01.2022
3841 Clouds 5 1022 44 10000 0.34 327 11:59 05.01.2022
3842 Clear 5 1023 41 10000 1.34 260 08:21 05.01.2022
3843 Clear 6 1023 40 10000 2.24 200 06:37 05.01.2022
3844 Clear 6 1023 40 10000 2.24 200 06:37 05.01.2022
3845 Clouds 12 1022 24 10000 3.58 60 01:20 05.01.2022
3846 Clouds 13 1022 22 10000 1.34 90 23:42 04.01.2022
3847 Clouds 13 1022 23 10000 1.34 90 23:19 04.01.2022
3848 Clouds 11 1024 26 10000 0 0 21:36 04.01.2022
3849 Clouds 10 1025 27 10000 2.24 70 20:41 04.01.2022
3850 Clouds 7 1026 35 10000 0 0 18:35 04.01.2022
3851 Clouds 4 1025 44 10000 0 0 17:19 04.01.2022
3852 Clouds 2 1024 48 10000 1.54 210 16:31 04.01.2022
3853 Clouds 3 1024 44 10000 0.86 359 14:58 04.01.2022
3854 Clouds 2 1022 47 10000 2.24 220 14:37 04.01.2022
3855 Clouds 2 1022 48 10000 0 0 13:55 04.01.2022
3856 Clouds 2 1022 44 10000 0 0 12:20 04.01.2022
3857 Clouds 3 1022 43 10000 2.06 210 10:21 04.01.2022
3858 Clouds 4 1021 41 10000 2.68 310 08:49 04.01.2022
3859 Clouds 4 1022 40 10000 1.34 260 06:28 04.01.2022
3860 Clouds 9 1021 26 10000 0 0 00:42 04.01.2022
3861 Clouds 10 1022 25 10000 2.24 80 23:49 03.01.2022
3862 Clouds 9 1022 25 10000 0 0 22:21 03.01.2022
3863 Clouds 9 1023 25 10000 2.24 60 21:38 03.01.2022
3864 Clouds 9 1025 26 10000 1.34 0 20:40 03.01.2022
3865 Clouds 6 1026 30 10000 0 0 18:55 03.01.2022
3866 Clouds 5 1026 31 10000 0 0 18:30 03.01.2022
3867 Clouds 5 1026 31 10000 0 0 18:30 03.01.2022
3868 Clouds 3 1026 36 10000 1.34 180 17:20 03.01.2022
3869 Clouds -1 1026 45 10000 1.34 250 16:31 03.01.2022
3870 Clear 0 1025 40 10000 1.34 190 14:31 03.01.2022
3871 Clear 0 1025 40 10000 2.06 220 12:52 03.01.2022
3872 Clear 1 1025 38 10000 2.68 210 11:50 03.01.2022
3873 Clear 1 1025 37 10000 0 0 10:38 03.01.2022
3874 Clouds 1 1026 37 10000 2.68 280 09:28 03.01.2022
3875 Clouds 2 1026 34 10000 2.68 200 07:53 03.01.2022
3876 Clear 5 1028 31 10000 0.45 106 02:56 03.01.2022
3877 Clear 8 1028 21 10000 2.24 80 23:23 02.01.2022
3878 Clear 8 1030 24 10000 0.89 102 22:56 02.01.2022
3879 Clear 7 1029 26 10000 3.13 80 21:52 02.01.2022
3880 Clear 6 1031 29 10000 2.68 50 20:50 02.01.2022
3881 Clear 6 1031 29 10000 2.68 50 20:29 02.01.2022
3882 Clear 4 1032 33 10000 0 0 19:31 02.01.2022
3883 Clear 3 1032 37 10000 0 0 18:55 02.01.2022
3884 Clear 2 1033 43 10000 0.89 220 17:56 02.01.2022
3885 Clear 1 1032 47 10000 1.34 210 17:38 02.01.2022
3886 Clear 0 1032 48 10000 1.34 210 17:20 02.01.2022
3887 Clear -2 1031 55 10000 0 0 16:27 02.01.2022
3888 Clear -2 1030 52 10000 1.34 220 14:41 02.01.2022
3889 Clear -1 1030 51 10000 2.24 210 13:25 02.01.2022
3890 Clear -1 1030 48 10000 1.34 220 12:31 02.01.2022
3891 Clear -1 1030 46 10000 0 0 11:41 02.01.2022
3892 Clear 0 1030 48 10000 1.34 210 10:53 02.01.2022
3893 Clear 0 1030 47 10000 2.68 190 09:55 02.01.2022
3894 Clouds 1 1030 42 10000 2.68 10 07:29 02.01.2022
3895 Clouds 6 1026 25 10000 4.47 50 02:20 02.01.2022
3896 Clouds 8 1024 23 10000 6.26 30 23:41 01.01.2022
3897 Clouds 8 1024 23 10000 6.26 30 23:22 01.01.2022
3898 Clouds 8 1024 23 10000 5.36 50 22:24 01.01.2022
3899 Clear 7 1024 24 10000 5.36 50 21:44 01.01.2022
3900 Clear 7 1024 27 10000 7.72 40 20:56 01.01.2022
3901 Clear 7 1024 24 10000 7.15 360 20:19 01.01.2022
3902 Clear 7 1024 25 10000 9.39 350 19:32 01.01.2022
3903 Clear 6 1022 26 10000 8.05 340 18:29 01.01.2022
3904 Clouds 4 1019 30 10000 6.26 330 16:51 01.01.2022
3905 Clouds 4 1019 31 10000 6.26 330 16:29 01.01.2022
3906 Clear 4 1018 31 10000 5.81 330 15:31 01.01.2022
3907 Clear 4 1016 31 10000 8.05 320 14:22 01.01.2022
3908 Clear 5 1013 31 10000 8.05 320 12:50 01.01.2022
3909 Clouds 5 1014 33 10000 5.81 24 11:59 01.01.2022
3910 Clouds 5 1012 31 10000 8.94 330 11:24 01.01.2022
3911 Clouds 6 1011 29 10000 9.83 340 10:42 01.01.2022
3912 Smoke 6 1009 30 10000 12.96 340 09:47 01.01.2022
3913 Clouds 8 1008 33 10000 11.18 340 08:26 01.01.2022
3914 Clouds 8 1006 36 10000 4.02 30 07:55 01.01.2022
3915 Clouds 8 1006 34 10000 4.02 30 07:34 01.01.2022
3916 Clouds 8 1005 39 10000 7.15 340 06:42 01.01.2022
3917 Clouds 9 1002 52 10000 13.41 320 04:38 01.01.2022
3918 Clouds 12 1000 48 10000 5.81 250 02:54 01.01.2022
3919 Clouds 14 1000 46 10000 5.36 280 23:44 31.12.2021
3920 Clouds 14 1002 47 10000 5.36 230 21:54 31.12.2021
3921 Clouds 13 1003 48 10000 6.26 220 20:41 31.12.2021
3922 Clouds 13 1004 54 10000 6.26 180 19:31 31.12.2021
3923 Clouds 12 1004 59 10000 4.12 200 18:44 31.12.2021
3924 Clouds 10 1004 64 10000 3.58 220 17:45 31.12.2021
3925 Clouds 10 1004 64 10000 3.58 220 17:19 31.12.2021
3926 Clouds 9 1003 63 10000 4.02 190 16:40 31.12.2021
3927 Clear 9 1003 58 10000 3.13 223 15:57 31.12.2021
3928 Clouds 10 1003 60 10000 5.36 200 15:29 31.12.2021
3929 Clouds 9 1003 61 10000 4.02 182 14:57 31.12.2021
3930 Clouds 9 1003 61 10000 4.02 182 14:57 31.12.2021
3931 Clouds 10 1004 62 10000 5.36 190 14:31 31.12.2021
3932 Clouds 10 1004 61 10000 5.36 190 13:42 31.12.2021
3933 Clouds 10 1005 61 10000 5.81 180 12:49 31.12.2021
3934 Clouds 10 1006 61 10000 4.02 190 11:52 31.12.2021
3935 Clouds 10 1006 61 10000 4.02 190 11:33 31.12.2021
3936 Clouds 10 1007 64 10000 5.66 190 10:38 31.12.2021
3937 Clouds 10 1007 64 10000 5.66 190 10:20 31.12.2021
3938 Clouds 11 1007 63 10000 6.26 190 09:33 31.12.2021
3939 Clouds 10 1008 64 10000 3.58 200 08:47 31.12.2021
3940 Clouds 11 1009 61 10000 4.47 200 07:32 31.12.2021
3941 Clouds 12 1009 50 10000 4.47 190 00:47 31.12.2021
3942 Clouds 12 1011 49 10000 2.68 0 22:50 30.12.2021
3943 Clouds 12 1011 50 10000 2.68 0 22:26 30.12.2021
3944 Clouds 12 1012 54 10000 2.68 120 21:37 30.12.2021
3945 Clouds 12 1012 54 10000 2.68 120 21:37 30.12.2021
3946 Clouds 11 1013 55 10000 1.34 80 20:49 30.12.2021
3947 Clouds 11 1013 56 10000 1.34 80 20:28 30.12.2021
3948 Clouds 10 1014 59 10000 0 0 19:48 30.12.2021
3949 Clouds 10 1014 60 10000 0 0 19:18 30.12.2021
3950 Clouds 9 1014 65 10000 0 0 18:20 30.12.2021
3951 Clouds 7 1014 70 10000 0 0 16:37 30.12.2021
3952 Clouds 7 1013 70 10000 0 0 15:52 30.12.2021
3953 Clouds 7 1013 69 10000 2.24 290 14:41 30.12.2021
3954 Clouds 7 1013 68 10000 2.24 290 14:19 30.12.2021
3955 Clouds 7 1013 69 10000 0 0 13:23 30.12.2021
3956 Clouds 7 1013 66 10000 1.34 290 11:34 30.12.2021
3957 Clouds 7 1013 67 10000 2.24 280 10:27 30.12.2021
3958 Clouds 7 1013 67 10000 2.24 300 09:27 30.12.2021
3959 Clouds 8 1013 56 10000 2.68 190 06:55 30.12.2021
3960 Clouds 9 1012 52 10000 1.34 160 04:25 30.12.2021
3961 Clouds 9 1011 52 10000 3.13 0 03:40 30.12.2021
3962 Clouds 10 1010 46 10000 3.58 110 00:42 30.12.2021
3963 Clouds 10 1010 45 10000 1.34 0 23:36 29.12.2021
3964 Clouds 9 1010 47 10000 3.13 30 22:32 29.12.2021
3965 Clouds 9 1011 49 10000 4.02 60 21:53 29.12.2021
3966 Clouds 8 1012 51 10000 3.58 80 20:56 29.12.2021
3967 Clouds 8 1012 52 10000 3.58 80 20:25 29.12.2021
3968 Clouds 7 1013 56 10000 1.34 0 19:31 29.12.2021
3969 Clouds 5 1012 64 10000 2.24 80 18:30 29.12.2021
3970 Clouds 3 1012 69 10000 1.34 220 17:30 29.12.2021
3971 Clear 3 1013 69 10000 0.45 69 16:58 29.12.2021
3972 Clouds 1 1011 74 10000 1.34 200 16:19 29.12.2021
3973 Clear 2 1011 72 10000 0.72 144 14:59 29.12.2021
3974 Clear 2 1009 77 10000 0 0 12:57 29.12.2021
3975 Clear 2 1009 74 10000 1.34 200 12:30 29.12.2021
3976 Clear 3 1008 70 10000 2.24 220 10:53 29.12.2021
3977 Clear 4 1009 76 10000 0.89 250 08:56 29.12.2021
3978 Clouds 4 1009 80 10000 0.89 232 06:59 29.12.2021
3979 Clouds 4 1007 70 10000 2.24 270 06:30 29.12.2021
3980 Clouds 4 1007 70 10000 2.68 300 05:52 29.12.2021
3981 Clouds 6 1006 61 10000 5.36 340 03:48 29.12.2021
3982 Clouds 9 1005 45 10000 5.14 220 00:32 29.12.2021
3983 Clear 9 1006 46 10000 2.24 150 23:57 28.12.2021
3984 Clouds 9 1005 45 10000 0.89 155 22:56 28.12.2021
3985 Clouds 9 1005 42 10000 2.68 200 22:24 28.12.2021
3986 Clouds 9 1006 45 10000 0 0 21:54 28.12.2021
3987 Clouds 9 1006 45 10000 0 0 21:28 28.12.2021
3988 Clouds 8 1007 50 10000 3.58 210 19:52 28.12.2021
3989 Clouds 7 1007 54 10000 4.02 200 18:53 28.12.2021
3990 Clouds 7 1007 55 10000 4.02 200 18:24 28.12.2021
3991 Clouds 5 1006 59 10000 4.47 220 17:29 28.12.2021
3992 Clouds 4 1006 61 10000 3.58 200 15:53 28.12.2021
3993 Clouds 4 1006 62 10000 3.58 200 15:29 28.12.2021
3994 Clouds 5 1005 60 10000 4.47 210 14:55 28.12.2021
3995 Clouds 5 1005 60 10000 4.47 210 14:22 28.12.2021
3996 Clouds 4 1006 64 10000 0.89 295 13:58 28.12.2021
3997 Clouds 5 1005 61 10000 3.13 200 13:37 28.12.2021
3998 Clouds 5 1005 60 10000 5.36 200 12:55 28.12.2021
3999 Clouds 5 1005 60 10000 5.36 200 12:20 28.12.2021
4000 Clouds 7 1005 56 10000 5.81 200 10:19 28.12.2021
4001 Clouds 8 1005 52 10000 4.47 220 07:33 28.12.2021
4002 Clouds 10 1004 49 10000 7.15 220 03:35 28.12.2021
4003 Clouds 11 1004 39 10000 7.15 230 23:39 27.12.2021
4004 Clouds 11 1005 37 10000 9.39 200 22:21 27.12.2021
4005 Clouds 11 1007 36 10000 7.15 220 21:30 27.12.2021
4006 Clouds 10 1009 38 10000 8.94 220 20:39 27.12.2021
4007 Clouds 10 1010 38 10000 8.94 230 19:48 27.12.2021
4008 Clouds 9 1010 39 10000 8.94 230 19:27 27.12.2021
4009 Clouds 6 1011 43 10000 7.15 220 17:51 27.12.2021
4010 Clouds 6 1011 44 10000 7.15 220 17:28 27.12.2021
4011 Clear 4 1012 46 10000 1.34 134 15:56 27.12.2021
4012 Clouds 5 1011 45 10000 9.83 230 15:19 27.12.2021
4013 Clouds 5 1010 45 10000 9.39 220 14:22 27.12.2021
4014 Clouds 6 1011 42 10000 5.81 200 12:52 27.12.2021
4015 Clear 7 1011 39 10000 2.24 227 10:56 27.12.2021
4016 Clouds 6 1011 42 10000 5.81 200 10:27 27.12.2021
4017 Clouds 7 1012 39 10000 3.58 200 09:19 27.12.2021
4018 Clear 7 1013 38 10000 6.26 200 07:34 27.12.2021
4019 Clear 8 1013 36 10000 5.36 210 06:29 27.12.2021
4020 Clouds 10 1012 37 10000 3.13 210 01:52 27.12.2021
4021 Clouds 12 1012 34 10000 7.6 190 23:49 26.12.2021
4022 Clouds 12 1012 33 10000 7.6 190 23:19 26.12.2021
4023 Clouds 12 1012 34 10000 5.36 200 21:37 26.12.2021
4024 Clouds 11 1013 35 10000 5.81 220 19:55 26.12.2021
4025 Clouds 10 1012 37 10000 6.26 250 18:46 26.12.2021
4026 Clouds 9 1012 38 10000 6.26 250 18:22 26.12.2021
4027 Clouds 8 1008 48 10000 5.36 220 15:53 26.12.2021
4028 Clouds 9 1007 55 10000 6.26 190 13:51 26.12.2021
4029 Clouds 9 1007 56 10000 6.26 190 13:32 26.12.2021
4030 Clouds 9 1007 59 10000 8.94 190 12:36 26.12.2021
4031 Clouds 9 1008 58 10000 6.69 200 11:24 26.12.2021
4032 Clouds 10 1008 53 10000 4.47 190 09:35 26.12.2021
4033 Clouds 10 1008 59 10000 3.58 200 08:50 26.12.2021
4034 Clouds 10 1008 60 10000 3.58 200 08:27 26.12.2021
4035 Clouds 12 1009 47 10000 3.13 210 02:19 26.12.2021
4036 Clouds 14 1009 41 10000 6.71 230 00:40 26.12.2021
4037 Clouds 15 1009 40 10000 5.81 190 23:37 25.12.2021
4038 Clouds 15 1010 41 10000 5.36 190 22:38 25.12.2021
4039 Clouds 15 1010 41 10000 5.36 190 22:20 25.12.2021
4040 Clouds 13 1013 48 10000 3.58 160 20:27 25.12.2021
4041 Clouds 12 1014 55 10000 4.02 200 19:19 25.12.2021
4042 Clouds 10 1014 66 10000 0 0 18:39 25.12.2021
4043 Clouds 6 1013 77 10000 2.24 250 16:50 25.12.2021
4044 Clouds 6 1013 73 10000 1.34 310 15:38 25.12.2021
4045 Clear 6 1012 73 10000 1.34 210 14:23 25.12.2021
4046 Clear 7 1012 68 10000 2.24 240 12:40 25.12.2021
4047 Clear 9 1011 63 10000 4.47 170 10:49 25.12.2021
4048 Clear 9 1011 61 10000 6.71 180 09:49 25.12.2021
4049 Clear 10 1011 58 10000 4.47 180 07:28 25.12.2021
4050 Clouds 15 1006 48 10000 8.05 220 01:43 25.12.2021
4051 Clouds 16 1005 46 10000 6.26 170 00:22 25.12.2021
4052 Clear 17 1004 47 10000 1.34 300 21:59 24.12.2021
4053 Clouds 15 1006 55 10000 4.47 230 19:27 24.12.2021
4054 Clouds 14 1006 62 10000 1.79 213 18:57 24.12.2021
4055 Rain 12 1005 74 10000 3.58 220 16:49 24.12.2021
4056 Rain 12 1004 73 10000 4.02 210 15:52 24.12.2021
4057 Clouds 12 1004 72 10000 4.02 210 15:32 24.12.2021
4058 Clouds 12 1004 76 10000 4.02 190 14:35 24.12.2021
4059 Rain 12 1004 72 10000 2.68 188 13:59 24.12.2021
4060 Snow 12 1004 72 10000 4.02 200 13:32 24.12.2021
4061 Clouds 13 1005 70 10000 3.13 210 12:47 24.12.2021
4062 Clouds 13 1006 71 10000 4.47 210 11:46 24.12.2021
4063 Clouds 13 1006 69 10000 4.47 210 11:24 24.12.2021
4064 Clouds 13 1006 70 10000 6.71 200 10:45 24.12.2021
4065 Clouds 13 1006 70 10000 7.15 200 09:25 24.12.2021
4066 Clouds 13 1007 72 10000 6.71 200 08:19 24.12.2021
4067 Clouds 13 1007 72 10000 5.36 200 07:44 24.12.2021
4068 Rain 12 1010 73 10000 0 0 00:48 24.12.2021
4069 Clouds 13 1011 67 8047 0 0 23:54 23.12.2021
4070 Rain 13 1011 57 10000 0 0 22:54 23.12.2021
4071 Rain 13 1011 56 10000 0 0 22:26 23.12.2021
4072 Rain 14 1011 57 10000 0 0 21:59 23.12.2021
4073 Clouds 13 1013 52 10000 2.68 90 20:54 23.12.2021
4074 Clouds 12 1014 50 10000 2.68 50 19:39 23.12.2021
4075 Clouds 11 1015 44 10000 0 0 18:32 23.12.2021
4076 Clouds 10 1015 45 10000 2.68 330 17:47 23.12.2021
4077 Clouds 9 1015 48 10000 0 0 16:43 23.12.2021
4078 Clouds 9 1015 47 10000 0 0 16:23 23.12.2021
4079 Clouds 9 1015 47 10000 0 0 15:31 23.12.2021
4080 Clouds 9 1015 47 10000 0 0 14:42 23.12.2021
4081 Clouds 9 1015 47 10000 0 0 14:19 23.12.2021
4082 Clouds 9 1016 45 10000 1.34 210 12:48 23.12.2021
4083 Clouds 9 1016 46 10000 1.34 360 10:43 23.12.2021
4084 Clouds 9 1017 44 10000 1.34 280 09:35 23.12.2021
4085 Clouds 9 1018 45 10000 0.74 82 08:59 23.12.2021
4086 Clouds 10 1017 41 10000 0 0 06:48 23.12.2021
4087 Clouds 10 1017 41 10000 0 0 04:30 23.12.2021
4088 Clear 12 1019 36 10000 0.89 82 22:57 22.12.2021
4089 Clouds 12 1018 35 10000 2.24 40 22:32 22.12.2021
4090 Clouds 12 1019 37 10000 1.34 70 21:53 22.12.2021
4091 Clouds 12 1019 37 10000 1.34 70 21:28 22.12.2021
4092 Clouds 11 1020 38 10000 1.34 90 20:41 22.12.2021
4093 Clouds 10 1020 39 10000 1.34 90 20:20 22.12.2021
4094 Clouds 9 1021 42 10000 1.34 70 19:19 22.12.2021
4095 Clouds 4 1021 60 10000 1.54 210 17:39 22.12.2021
4096 Clouds 4 1020 58 10000 0 0 16:36 22.12.2021
4097 Clouds 3 1020 58 10000 1.34 210 15:36 22.12.2021
4098 Clouds 4 1021 59 10000 2.06 270 13:32 22.12.2021
4099 Clouds 4 1020 55 10000 1.54 220 12:31 22.12.2021
4100 Haze 5 1021 53 10000 2.24 210 09:53 22.12.2021
4101 Haze 5 1021 53 10000 2.24 210 09:33 22.12.2021
4102 Clouds 5 1022 54 10000 0 0 07:22 22.12.2021
4103 Clouds 6 1022 51 10000 2.24 220 05:41 22.12.2021
4104 Clouds 7 1022 51 10000 2.24 220 05:22 22.12.2021
4105 Clouds 8 1022 47 10000 0 0 04:47 22.12.2021
4106 Clouds 8 1022 47 10000 0 0 04:22 22.12.2021
4107 Clouds 8 1021 46 10000 0 0 03:32 22.12.2021
4108 Clouds 13 1021 32 10000 0 0 00:29 22.12.2021
4109 Clouds 13 1022 32 10000 0 0 22:51 21.12.2021
4110 Clouds 12 1022 33 10000 0 0 22:27 21.12.2021
4111 Clouds 12 1023 35 10000 0 0 21:43 21.12.2021
4112 Clouds 10 1024 38 10000 0 0 20:53 21.12.2021
4113 Clouds 10 1024 39 10000 0 0 20:20 21.12.2021
4114 Clouds 9 1025 43 10000 1.34 190 19:41 21.12.2021
4115 Clouds 9 1025 44 10000 1.34 50 18:38 21.12.2021
4116 Clouds 8 1026 48 10000 1.28 20 17:59 21.12.2021
4117 Clouds 8 1024 48 10000 0 0 17:40 21.12.2021
4118 Clouds 7 1023 45 10000 0 0 15:47 21.12.2021
4119 Clouds 7 1023 45 10000 0 0 15:19 21.12.2021
4120 Clouds 7 1024 46 10000 0 0 13:47 21.12.2021
4121 Clouds 7 1024 46 10000 0 0 13:29 21.12.2021
4122 Clouds 7 1025 45 10000 2.68 200 10:55 21.12.2021
4123 Clouds 7 1025 47 10000 0 0 09:57 21.12.2021
4124 Clouds 7 1024 46 10000 2.24 230 09:18 21.12.2021
4125 Clouds 7 1025 45 10000 0 0 07:50 21.12.2021
4126 Clouds 7 1025 45 10000 0 0 07:25 21.12.2021
4127 Clouds 8 1026 42 10000 0.45 294 04:56 21.12.2021
4128 Clouds 9 1024 36 10000 1.34 200 02:39 21.12.2021
4129 Clouds 12 1025 31 10000 0.45 111 23:58 20.12.2021
4130 Clouds 12 1024 29 10000 2.68 20 22:49 20.12.2021
4131 Clouds 12 1024 29 10000 2.68 20 22:28 20.12.2021
4132 Clouds 12 1025 29 10000 1.34 0 21:42 20.12.2021
4133 Clouds 11 1025 30 10000 1.34 0 21:22 20.12.2021
4134 Clouds 11 1025 32 10000 0 0 20:41 20.12.2021
4135 Clouds 9 1026 36 10000 0 0 19:48 20.12.2021
4136 Clouds 9 1026 37 10000 0 0 19:29 20.12.2021
4137 Clouds 7 1026 42 10000 0 0 18:49 20.12.2021
4138 Clouds 5 1025 45 10000 1.54 210 17:52 20.12.2021
4139 Clear 4 1024 53 10000 0 0 16:56 20.12.2021
4140 Clouds 1 1024 58 10000 2.24 220 16:36 20.12.2021
4141 Clouds 1 1023 56 10000 1.54 230 15:47 20.12.2021
4142 Clouds 3 1023 51 10000 1.54 200 14:41 20.12.2021
4143 Smoke 3 1023 54 10000 0 0 12:44 20.12.2021
4144 Clouds 3 1022 51 10000 2.68 210 10:55 20.12.2021
4145 Clouds 3 1022 49 10000 2.68 220 09:47 20.12.2021
4146 Clear 4 1023 45 10000 0 0 08:56 20.12.2021
4147 Clouds 4 1023 47 10000 2.24 220 08:38 20.12.2021
4148 Clear 5 1023 48 10000 0 0 07:44 20.12.2021
4149 Clear 5 1022 46 10000 1.54 230 06:40 20.12.2021
4150 Clear 8 1022 37 10000 0 0 02:32 20.12.2021
4151 Clouds 12 1022 27 10000 2.68 80 23:37 19.12.2021
4152 Clouds 12 1022 28 10000 0 0 22:44 19.12.2021
4153 Clouds 11 1023 30 10000 0 0 21:44 19.12.2021
4154 Clouds 11 1023 30 10000 0 0 21:25 19.12.2021
4155 Clouds 10 1024 32 10000 0 0 20:24 19.12.2021
4156 Clouds 9 1025 34 10000 0 0 19:43 19.12.2021
4157 Clouds 8 1025 37 10000 0 0 18:54 19.12.2021
4158 Clouds 6 1024 41 10000 0 0 18:20 19.12.2021
4159 Clouds 4 1024 46 10000 0 0 17:45 19.12.2021
4160 Clouds 1 1024 56 10000 2.06 230 16:46 19.12.2021
4161 Clear 2 1023 53 10000 1.54 340 15:56 19.12.2021
4162 Clouds 1 1023 54 10000 0 0 15:25 19.12.2021
4163 Clouds 1 1022 53 10000 1.54 210 14:48 19.12.2021
4164 Clear 2 1022 50 10000 1.54 220 13:41 19.12.2021
4165 Clear 2 1022 52 10000 1.54 220 13:20 19.12.2021
4166 Clear 2 1022 51 10000 0 0 12:33 19.12.2021
4167 Clear 3 1023 48 10000 2.24 210 11:39 19.12.2021
4168 Clouds 3 1023 48 10000 1.34 260 10:51 19.12.2021
4169 Clouds 3 1023 51 10000 1.34 260 10:23 19.12.2021
4170 Clouds 4 1024 48 10000 2.68 200 08:55 19.12.2021
4171 Clouds 5 1024 46 10000 2.24 220 06:54 19.12.2021
4172 Clouds 8 1024 36 10000 0 0 02:30 19.12.2021
4173 Clouds 11 1024 28 10000 1.34 0 00:55 19.12.2021
4174 Clouds 11 1024 28 10000 0 0 23:21 18.12.2021
4175 Clouds 11 1025 28 10000 0 0 22:29 18.12.2021
4176 Clouds 10 1026 30 10000 2.24 20 21:44 18.12.2021
4177 Clouds 10 1026 30 10000 2.24 20 21:26 18.12.2021
4178 Clouds 10 1027 32 10000 2.24 50 20:43 18.12.2021
4179 Clouds 8 1028 37 10000 1.34 0 19:40 18.12.2021
4180 Clouds 6 1028 43 10000 2.24 190 18:26 18.12.2021
4181 Clouds 4 1028 51 10000 2.68 210 17:49 18.12.2021
4182 Clouds 2 1028 58 10000 1.34 270 16:50 18.12.2021
4183 Clouds 1 1028 60 10000 1.34 270 16:21 18.12.2021
4184 Clear 2 1027 57 10000 1.34 280 15:24 18.12.2021
4185 Clear 2 1027 58 10000 2.24 200 14:19 18.12.2021
4186 Clear 3 1027 59 10000 1.64 346 11:59 18.12.2021
4187 Clear 4 1027 53 10000 2.68 350 10:42 18.12.2021
4188 Clear 5 1026 50 10000 4.47 360 09:32 18.12.2021
4189 Clear 5 1027 46 10000 5.36 360 08:36 18.12.2021
4190 Clouds 6 1026 46 10000 5.81 360 07:41 18.12.2021
4191 Clear 10 1024 36 10000 6.71 30 01:47 18.12.2021
4192 Clear 11 1024 32 10000 0.89 0 23:56 17.12.2021
4193 Clear 11 1023 33 10000 3.13 0 22:51 17.12.2021
4194 Clear 11 1024 36 10000 3.13 50 21:50 17.12.2021
4195 Clear 10 1024 41 10000 6.26 10 20:48 17.12.2021
4196 Clear 9 1026 46 10000 2.24 0 19:58 17.12.2021
4197 Clear 7 1024 50 10000 6.26 350 18:40 17.12.2021
4198 Clear 6 1024 53 10000 6.26 350 18:18 17.12.2021
4199 Clear 4 1024 67 10000 0 0 16:57 17.12.2021
4200 Clear 2 1022 68 10000 0 0 16:28 17.12.2021
4201 Clear 3 1022 65 10000 4.47 30 15:51 17.12.2021
4202 Clear 3 1021 63 10000 4.47 30 14:43 17.12.2021
4203 Clear 2 1021 66 10000 1.34 360 13:55 17.12.2021
4204 Clear 3 1021 67 10000 2.68 260 12:37 17.12.2021
4205 Clear 3 1020 64 10000 1.34 200 10:42 17.12.2021
4206 Clouds 4 1020 62 10000 2.24 200 09:47 17.12.2021
4207 Clouds 4 1020 61 10000 2.24 230 08:43 17.12.2021
4208 Clouds 4 1020 61 10000 2.24 230 08:18 17.12.2021
4209 Clear 6 1020 56 10000 0 0 04:57 17.12.2021
4210 Clouds 8 1018 46 10000 5.66 30 00:57 17.12.2021
4211 Clouds 8 1017 45 10000 0 0 22:44 16.12.2021
4212 Clouds 8 1017 46 10000 0 0 22:22 16.12.2021
4213 Clouds 8 1017 46 10000 0 0 21:43 16.12.2021
4214 Clouds 7 1018 49 10000 2.68 0 20:40 16.12.2021
4215 Clouds 7 1018 49 10000 2.68 0 20:21 16.12.2021
4216 Clouds 6 1019 52 10000 3.13 60 19:27 16.12.2021
4217 Clouds 5 1019 54 10000 0 0 18:31 16.12.2021
4218 Clouds 3 1019 61 10000 0 0 17:36 16.12.2021
4219 Clouds 1 1019 66 10000 2.24 200 16:24 16.12.2021
4220 Clouds 1 1019 66 10000 0 0 15:38 16.12.2021
4221 Clouds 1 1020 64 10000 2.24 260 13:45 16.12.2021
4222 Clear 2 1021 64 10000 3.6 50 11:56 16.12.2021
4223 Clouds 2 1020 63 10000 2.24 250 11:18 16.12.2021
4224 Clear 2 1021 63 10000 2.68 220 10:39 16.12.2021
4225 Clear 2 1021 59 10000 2.68 210 09:42 16.12.2021
4226 Clear 3 1022 56 10000 0 0 06:23 16.12.2021
4227 Clear 4 1022 50 10000 1.34 180 04:33 16.12.2021
4228 Clouds 9 1021 31 10000 1.34 340 23:47 15.12.2021
4229 Clouds 9 1022 32 10000 0 0 22:49 15.12.2021
4230 Clouds 9 1022 32 10000 0 0 22:21 15.12.2021
4231 Clouds 9 1022 35 10000 0 0 21:31 15.12.2021
4232 Clouds 8 1023 37 10000 2.68 350 20:41 15.12.2021
4233 Clouds 8 1023 42 10000 2.24 0 19:53 15.12.2021
4234 Clouds 7 1022 45 10000 1.34 190 18:50 15.12.2021
4235 Clouds 6 1022 46 10000 1.34 190 18:18 15.12.2021
4236 Clouds 5 1021 53 10000 0 0 17:43 15.12.2021
4237 Clouds 4 1022 58 10000 2.01 264 16:59 15.12.2021
4238 Clouds 4 1019 55 10000 2.24 160 15:47 15.12.2021
4239 Clouds 4 1019 56 10000 2.24 160 15:29 15.12.2021
4240 Clouds 3 1018 59 10000 2.24 0 14:44 15.12.2021
4241 Clouds 4 1017 53 10000 2.24 160 13:27 15.12.2021
4242 Clouds 5 1015 50 10000 3.13 210 11:40 15.12.2021
4243 Clouds 6 1012 52 10000 6.71 250 09:38 15.12.2021
4244 Clouds 6 1008 56 10000 7.15 230 07:55 15.12.2021
4245 Clouds 8 1002 59 10000 10.28 220 04:22 15.12.2021
4246 Clouds 13 1003 60 10000 7.15 160 23:53 14.12.2021
4247 Clouds 12 1004 60 10000 6.26 160 22:55 14.12.2021
4248 Clouds 13 1005 60 10000 6.26 160 22:37 14.12.2021
4249 Clouds 13 1007 55 10000 7.15 160 21:25 14.12.2021
4250 Clouds 13 1009 55 10000 6.26 160 20:18 14.12.2021
4251 Clouds 13 1011 53 10000 5.81 170 19:21 14.12.2021
4252 Clouds 12 1012 55 10000 5.36 170 18:38 14.12.2021
4253 Clouds 11 1012 57 10000 2.24 170 17:51 14.12.2021
4254 Clouds 10 1012 57 10000 4.63 170 16:43 14.12.2021
4255 Clouds 9 1012 58 10000 4.02 190 15:54 14.12.2021
4256 Clouds 9 1013 51 10000 3.58 180 13:35 14.12.2021
4257 Clouds 9 1013 46 10000 3.13 190 12:47 14.12.2021
4258 Clouds 10 1014 44 10000 3.58 190 11:25 14.12.2021
4259 Clouds 10 1014 42 10000 3.58 170 10:28 14.12.2021
4260 Clouds 10 1014 42 10000 2.68 190 09:53 14.12.2021
4261 Clouds 11 1015 38 10000 2.24 170 08:40 14.12.2021
4262 Clouds 11 1015 39 10000 2.24 170 08:20 14.12.2021
4263 Clouds 11 1015 37 10000 2.68 190 06:40 14.12.2021
4264 Clouds 14 1016 31 10000 1.34 20 23:42 13.12.2021
4265 Clouds 13 1016 30 10000 1.34 0 22:18 13.12.2021
4266 Clouds 12 1017 31 10000 2.24 0 21:34 13.12.2021
4267 Clear 12 1018 32 10000 1.34 0 20:51 13.12.2021
4268 Clouds 11 1018 32 10000 1.34 0 20:20 13.12.2021
4269 Clouds 10 1019 33 10000 1.34 0 19:49 13.12.2021
4270 Clouds 6 1018 44 10000 2.24 300 17:27 13.12.2021
4271 Clouds 3 1017 47 10000 1.34 220 16:24 13.12.2021
4272 Clouds 2 1017 47 10000 1.34 220 15:43 13.12.2021
4273 Clear 3 1016 44 10000 0 0 13:57 13.12.2021
4274 Clouds 3 1016 45 10000 0 0 13:31 13.12.2021
4275 Clouds 3 1017 44 10000 1.34 210 12:39 13.12.2021
4276 Clouds 3 1016 41 10000 0 0 11:44 13.12.2021
4277 Clouds 4 1017 41 10000 0 0 11:24 13.12.2021
4278 Clouds 3 1016 41 10000 2.68 200 10:21 13.12.2021
4279 Clouds 4 1017 41 10000 2.24 230 08:43 13.12.2021
4280 Clouds 5 1017 36 10000 1.34 250 05:38 13.12.2021
4281 Clear 7 1016 36 10000 0 0 03:57 13.12.2021
4282 Clouds 12 1016 24 10000 1.34 0 23:43 12.12.2021
4283 Clear 11 1019 27 10000 0 0 21:56 12.12.2021
4284 Clouds 10 1019 25 10000 1.34 0 20:48 12.12.2021
4285 Clouds 8 1020 26 10000 0 0 19:34 12.12.2021
4286 Clouds 5 1020 33 10000 0 0 17:54 12.12.2021
4287 Clouds 1 1019 40 10000 1.34 240 16:29 12.12.2021
4288 Clouds 1 1019 40 10000 0 0 15:53 12.12.2021
4289 Clouds 1 1019 40 10000 0 0 15:28 12.12.2021
4290 Clouds 1 1018 39 10000 2.24 210 14:38 12.12.2021
4291 Clouds 1 1018 39 10000 2.24 200 13:47 12.12.2021
4292 Clouds 2 1019 40 10000 1.34 240 12:47 12.12.2021
4293 Clouds 2 1019 38 10000 1.34 220 11:45 12.12.2021
4294 Clouds 2 1019 38 10000 1.34 220 11:45 12.12.2021
4295 Clouds 2 1019 38 10000 1.34 220 11:25 12.12.2021
4296 Clouds 2 1020 37 10000 0 0 10:43 12.12.2021
4297 Clouds 2 1020 36 10000 2.68 200 09:45 12.12.2021
4298 Clouds 3 1021 36 10000 1.34 240 08:38 12.12.2021
4299 Clouds 4 1021 34 10000 2.24 230 06:35 12.12.2021
4300 Clouds 5 1022 32 10000 1.34 260 05:28 12.12.2021
4301 Clouds 5 1022 34 10000 1.05 37 03:58 12.12.2021
4302 Clouds 9 1022 22 10000 2.24 70 00:42 12.12.2021
4303 Clouds 9 1024 23 10000 0 0 22:42 11.12.2021
4304 Clouds 9 1024 24 10000 0 0 22:19 11.12.2021
4305 Clouds 8 1025 33 10000 0 0 21:22 11.12.2021
4306 Clouds 7 1027 29 10000 0 0 19:40 11.12.2021
4307 Clouds 7 1027 30 10000 0 0 19:20 11.12.2021
4308 Clouds 5 1027 35 10000 2.24 20 18:38 11.12.2021
4309 Clouds 3 1027 42 10000 0 0 17:41 11.12.2021
4310 Clear 0 1029 49 10000 0 0 15:57 11.12.2021
4311 Clear 0 1027 49 10000 2.24 200 15:37 11.12.2021
4312 Clear 1 1027 47 10000 1.34 250 14:21 11.12.2021
4313 Clear 2 1027 44 10000 0.96 37 11:58 11.12.2021
4314 Clear 3 1026 39 10000 3.13 360 10:24 11.12.2021
4315 Clear 4 1026 38 10000 3.58 60 09:37 11.12.2021
4316 Clear 8 1024 31 10000 4.02 60 03:25 11.12.2021
4317 Clouds 11 1021 26 10000 7.15 50 00:44 11.12.2021
4318 Clouds 11 1021 26 10000 6.71 60 23:39 10.12.2021
4319 Clouds 12 1021 27 10000 4.02 30 22:33 10.12.2021
4320 Clouds 11 1021 28 10000 5.36 20 21:37 10.12.2021
4321 Clouds 10 1022 33 10000 9.39 10 19:55 10.12.2021
4322 Clouds 9 1021 38 10000 9.39 10 19:18 10.12.2021
4323 Clouds 7 1019 53 10000 3.58 20 17:23 10.12.2021
4324 Clouds 6 1018 56 10000 2.68 360 16:32 10.12.2021
4325 Clouds 6 1016 57 10000 4.02 30 15:42 10.12.2021
4326 Clouds 6 1016 57 10000 4.02 30 15:23 10.12.2021
4327 Clouds 7 1014 64 10000 1.34 0 13:53 10.12.2021
4328 Clouds 7 1014 63 10000 1.34 0 13:31 10.12.2021
4329 Clouds 7 1014 64 10000 2.24 160 12:47 10.12.2021
4330 Clouds 8 1013 59 10000 2.68 0 11:34 10.12.2021
4331 Clouds 8 1012 66 10000 0 0 10:50 10.12.2021
4332 Clouds 9 1011 68 10000 4.47 280 09:30 10.12.2021
4333 Clouds 10 1010 68 10000 2.24 170 07:21 10.12.2021
4334 Clouds 12 1006 51 10000 6.71 200 02:51 10.12.2021
4335 Clouds 13 1005 51 10000 1.79 0 00:57 10.12.2021
4336 Clouds 14 1006 50 10000 6.26 220 23:38 09.12.2021
4337 Clouds 14 1006 51 10000 8.05 220 22:40 09.12.2021
4338 Clouds 14 1005 51 10000 8.05 220 22:19 09.12.2021
4339 Clouds 14 1006 48 10000 9.83 220 21:20 09.12.2021
4340 Dust 14 1006 50 10000 6.71 220 20:34 09.12.2021
4341 Dust 14 1007 50 10000 9.39 200 19:22 09.12.2021
4342 Clouds 14 1007 52 10000 6.71 200 18:50 09.12.2021
4343 Clouds 14 1007 56 10000 2.24 0 17:57 09.12.2021
4344 Dust 14 1007 55 10000 9.39 220 17:27 09.12.2021
4345 Clouds 14 1007 54 10000 1.79 0 16:57 09.12.2021
4346 Clouds 14 1007 51 10000 6.26 200 16:20 09.12.2021
4347 Clouds 13 1007 48 10000 7.72 200 14:52 09.12.2021
4348 Clouds 13 1007 52 10000 4.47 160 13:50 09.12.2021
4349 Clouds 12 1008 54 10000 4.47 170 12:47 09.12.2021
4350 Clouds 11 1009 58 10000 5.66 200 11:25 09.12.2021
4351 Clouds 11 1010 58 10000 1.34 0 09:45 09.12.2021
4352 Clouds 12 1012 54 10000 3.13 190 06:51 09.12.2021
4353 Clouds 14 1012 49 10000 2.68 220 03:49 09.12.2021
4354 Clouds 18 1013 38 10000 4.02 260 23:50 08.12.2021
4355 Clouds 18 1013 39 10000 4.02 260 23:31 08.12.2021
4356 Clouds 18 1013 41 10000 3.58 150 22:53 08.12.2021
4357 Clouds 17 1014 46 10000 1.34 0 21:49 08.12.2021
4358 Clouds 17 1014 46 10000 1.34 0 21:30 08.12.2021
4359 Clouds 16 1016 49 10000 2.24 0 20:19 08.12.2021
4360 Clouds 15 1017 55 10000 2.24 0 19:39 08.12.2021
4361 Clouds 14 1017 63 10000 0 0 18:53 08.12.2021
4362 Clouds 14 1017 63 10000 0 0 18:53 08.12.2021
4363 Clouds 12 1017 71 10000 1.34 190 17:52 08.12.2021
4364 Clouds 10 1016 69 10000 0.1 172 15:59 08.12.2021
4365 Clouds 10 1017 75 10000 0 0 15:31 08.12.2021
4366 Clouds 10 1016 74 10000 2.24 260 14:52 08.12.2021
4367 Clouds 11 1016 76 10000 2.24 200 12:39 08.12.2021
4368 Clouds 12 1017 74 10000 2.24 200 10:32 08.12.2021
4369 Clouds 12 1018 74 10000 1.34 270 09:30 08.12.2021
4370 Clouds 12 1018 75 10000 2.68 360 07:29 08.12.2021
4371 Clouds 13 1017 57 10000 0.53 297 04:58 08.12.2021
4372 Clouds 16 1015 41 10000 2.68 30 23:48 07.12.2021
4373 Clouds 16 1015 39 10000 2.68 40 22:27 07.12.2021
4374 Clouds 16 1015 36 10000 1.34 0 21:23 07.12.2021
4375 Clouds 16 1016 34 10000 2.24 20 20:24 07.12.2021
4376 Clouds 15 1015 32 10000 0 0 18:55 07.12.2021
4377 Clouds 14 1015 34 10000 0 0 17:53 07.12.2021
4378 Clouds 13 1014 33 10000 0 0 17:20 07.12.2021
4379 Clouds 13 1014 33 10000 2.68 340 16:34 07.12.2021
4380 Clouds 13 1013 32 10000 0 0 15:34 07.12.2021
4381 Clouds 13 1012 30 10000 0 0 14:30 07.12.2021
4382 Clouds 13 1012 30 10000 2 320 12:56 07.12.2021
4383 Clouds 13 1012 30 10000 2 320 12:56 07.12.2021
4384 Clouds 13 1012 29 10000 1.34 270 11:52 07.12.2021
4385 Clouds 14 1012 29 10000 1.34 250 10:36 07.12.2021
4386 Clouds 14 1013 28 10000 2.24 280 08:42 07.12.2021
4387 Clouds 14 1013 29 10000 1.34 350 06:21 07.12.2021
4388 Clouds 14 1013 29 10000 0 0 05:39 07.12.2021
4389 Clouds 20 1015 20 10000 2.68 100 23:49 06.12.2021
4390 Clouds 20 1014 22 10000 1.38 113 22:58 06.12.2021
4391 Clouds 20 1016 19 10000 1.34 50 22:37 06.12.2021
4392 Clouds 20 1017 20 10000 1.34 0 21:52 06.12.2021
4393 Clouds 19 1018 21 10000 2.68 60 20:40 06.12.2021
4394 Clouds 19 1018 20 10000 2.68 60 20:22 06.12.2021
4395 Clouds 18 1019 21 10000 0 0 19:22 06.12.2021
4396 Clouds 16 1020 24 10000 0 0 18:29 06.12.2021
4397 Clouds 14 1020 28 10000 0 0 17:40 06.12.2021
4398 Clouds 12 1020 29 10000 1.34 240 16:48 06.12.2021
4399 Clouds 11 1019 28 10000 2.68 210 15:41 06.12.2021
4400 Clouds 11 1019 29 10000 1.34 230 13:46 06.12.2021
4401 Clouds 12 1019 28 10000 3.13 0 12:39 06.12.2021
4402 Clouds 12 1019 28 10000 1.34 210 11:38 06.12.2021
4403 Clouds 14 1019 25 10000 2.68 310 08:51 06.12.2021
4404 Clouds 15 1019 23 10000 0 0 06:42 06.12.2021
4405 Clouds 24 1017 14 10000 0 0 23:38 05.12.2021
4406 Clouds 22 1019 19 10000 2.24 0 21:52 05.12.2021
4407 Clouds 22 1019 19 10000 2.24 0 21:19 05.12.2021
4408 Clouds 20 1020 21 10000 2.68 150 20:19 05.12.2021
4409 Clouds 19 1021 23 10000 1.34 40 19:33 05.12.2021
4410 Clouds 18 1021 25 10000 0 0 18:55 05.12.2021
4411 Clouds 16 1021 26 10000 0 0 18:20 05.12.2021
4412 Clouds 13 1021 30 10000 2.57 190 17:48 05.12.2021
4413 Clouds 10 1020 34 10000 0 0 16:48 05.12.2021
4414 Clouds 10 1020 35 10000 0 0 16:26 05.12.2021
4415 Clear 10 1020 34 10000 2.68 210 15:48 05.12.2021
4416 Clear 10 1020 35 10000 2.24 220 14:41 05.12.2021
4417 Clear 10 1020 35 10000 2.24 220 14:23 05.12.2021
4418 Clear 10 1020 33 10000 2.68 200 13:22 05.12.2021
4419 Clear 11 1020 32 10000 4.02 300 12:40 05.12.2021
4420 Clear 11 1020 32 10000 4.02 300 12:18 05.12.2021
4421 Clear 12 1020 32 10000 2.24 300 11:30 05.12.2021
4422 Clear 13 1019 30 10000 1.33 304 09:59 05.12.2021
4423 Clear 12 1020 33 10000 3.58 190 08:24 05.12.2021
4424 Clear 15 1019 31 10000 1.34 190 03:27 05.12.2021
4425 Clear 21 1019 21 10000 1.34 0 23:45 04.12.2021
4426 Clear 20 1020 24 10000 0 0 21:55 04.12.2021
4427 Clear 19 1020 26 10000 1.54 220 20:57 04.12.2021
4428 Clear 18 1021 26 10000 1.34 190 20:20 04.12.2021
4429 Clear 17 1022 29 10000 0 0 19:32 04.12.2021
4430 Clear 15 1022 31 10000 0 0 18:21 04.12.2021
4431 Clear 12 1022 36 10000 0 0 17:39 04.12.2021
4432 Clear 9 1021 42 10000 1.34 240 16:51 04.12.2021
4433 Clear 9 1021 42 10000 1.34 240 16:31 04.12.2021
4434 Clear 9 1021 42 10000 1.34 220 15:40 04.12.2021
4435 Clear 10 1020 37 10000 2.68 220 11:54 04.12.2021
4436 Clear 10 1020 37 10000 2.68 220 11:32 04.12.2021
4437 Clear 10 1020 38 10000 2.24 210 10:53 04.12.2021
4438 Clear 11 1020 36 10000 1.34 220 08:48 04.12.2021
4439 Clear 12 1019 34 10000 2.24 210 06:28 04.12.2021
4440 Clear 14 1019 34 10000 2.24 220 04:42 04.12.2021
4441 Clouds 20 1017 24 10000 2.24 60 00:24 04.12.2021
4442 Clouds 21 1018 24 10000 0 0 23:26 03.12.2021
4443 Clouds 21 1018 24 10000 0 0 23:26 03.12.2021
4444 Clouds 21 1018 24 10000 2.24 50 22:46 03.12.2021
4445 Clouds 19 1019 25 10000 1.34 90 21:26 03.12.2021
4446 Clouds 19 1020 26 10000 0 0 20:54 03.12.2021
4447 Clouds 18 1021 28 10000 1.34 100 19:53 03.12.2021
4448 Clouds 16 1021 29 10000 0 0 18:34 03.12.2021
4449 Clouds 16 1020 32 10000 0.92 351 17:59 03.12.2021
4450 Clouds 10 1020 38 10000 2.68 200 15:47 03.12.2021
4451 Clouds 11 1020 39 10000 0 0 12:54 03.12.2021
4452 Clouds 12 1019 37 10000 1.34 220 11:49 03.12.2021
4453 Clouds 12 1019 36 10000 1.34 200 10:55 03.12.2021
4454 Clouds 13 1020 34 10000 2.68 210 08:27 03.12.2021
4455 Clouds 14 1020 34 10000 2.24 200 07:43 03.12.2021
4456 Clouds 16 1019 31 10000 1.34 200 04:35 03.12.2021
4457 Clouds 20 1019 23 10000 0 0 00:48 03.12.2021
4458 Clouds 21 1019 22 10000 1.34 40 23:47 02.12.2021
4459 Clouds 20 1020 24 10000 2.24 90 22:24 02.12.2021
4460 Clouds 20 1020 23 10000 2.24 120 21:35 02.12.2021
4461 Clouds 20 1021 22 10000 0 0 20:40 02.12.2021
4462 Clouds 20 1022 22 10000 0 0 20:20 02.12.2021
4463 Clouds 17 1023 26 10000 0 0 18:35 02.12.2021
4464 Clouds 10 1022 33 10000 2.24 210 16:33 02.12.2021
4465 Clouds 10 1022 32 10000 1.34 200 15:30 02.12.2021
4466 Clouds 10 1021 32 10000 3.13 210 14:51 02.12.2021
4467 Clouds 11 1021 34 10000 1.34 270 12:53 02.12.2021
4468 Clouds 11 1021 30 10000 1.34 270 12:19 02.12.2021
4469 Clouds 13 1022 27 10000 3.13 210 10:41 02.12.2021
4470 Clouds 13 1022 25 10000 2.24 240 09:25 02.12.2021
4471 Clouds 15 1021 21 10000 2.68 200 06:45 02.12.2021
4472 Clear 21 1021 19 10000 0 0 00:57 02.12.2021
4473 Clouds 24 1021 15 10000 2.68 40 23:30 01.12.2021
4474 Clouds 23 1022 15 10000 0 0 22:25 01.12.2021
4475 Clouds 23 1023 16 10000 0 0 21:42 01.12.2021
4476 Clear 21 1023 21 10000 1.43 53 19:59 01.12.2021
4477 Clouds 20 1025 20 10000 1.34 300 19:36 01.12.2021
4478 Clouds 15 1025 25 10000 2.24 220 17:50 01.12.2021
4479 Clear 14 1024 30 10000 1.28 344 16:59 01.12.2021
4480 Clouds 11 1024 29 10000 3.13 220 15:37 01.12.2021
4481 Clouds 12 1024 29 10000 2.68 320 14:24 01.12.2021
4482 Clouds 12 1023 28 10000 2.24 0 13:36 01.12.2021
4483 Clouds 13 1023 28 10000 2.68 230 10:43 01.12.2021
4484 Clear 14 1021 29 10000 1.83 4 09:59 01.12.2021
4485 Clouds 15 1023 26 10000 2.24 220 08:50 01.12.2021
4486 Clouds 15 1022 26 10000 2.24 220 07:54 01.12.2021
4487 Clouds 15 1022 25 10000 2.24 220 07:19 01.12.2021
4488 Clouds 18 1021 25 10000 2.06 260 03:50 01.12.2021
4489 Clouds 20 1020 23 10000 1.54 260 02:34 01.12.2021
4490 Clear 25 1019 19 10000 2.47 29 23:59 30.11.2021
4491 Clouds 25 1020 17 10000 1.34 120 23:28 30.11.2021
4492 Clear 24 1021 18 10000 1.34 0 22:22 30.11.2021
4493 Clear 22 1022 20 10000 1.34 60 20:46 30.11.2021
4494 Clear 22 1022 20 10000 1.34 60 20:23 30.11.2021
4495 Clear 21 1024 21 10000 2.24 30 19:38 30.11.2021
4496 Clear 19 1023 24 10000 0 0 18:51 30.11.2021
4497 Clear 16 1023 27 10000 0 0 17:21 30.11.2021
4498 Clear 11 1021 31 10000 3.13 220 15:50 30.11.2021
4499 Clear 12 1021 30 10000 2.68 260 14:29 30.11.2021
4500 Clear 11 1020 31 10000 0 0 13:29 30.11.2021
4501 Clear 13 1020 29 10000 3.58 200 12:53 30.11.2021
4502 Clear 13 1020 28 10000 3.13 210 11:52 30.11.2021
4503 Clear 13 1020 28 10000 3.13 210 11:25 30.11.2021
4504 Clear 12 1020 28 10000 1.34 260 10:35 30.11.2021
4505 Clear 14 1020 27 10000 2.68 190 08:54 30.11.2021
4506 Clear 14 1020 26 10000 2.68 190 08:32 30.11.2021
4507 Clear 14 1020 27 10000 2.24 230 07:48 30.11.2021
4508 Clear 15 1019 27 10000 1.02 291 04:59 30.11.2021
4509 Clear 20 1019 20 10000 0 0 01:45 30.11.2021
4510 Clear 21 1019 18 10000 0 0 01:26 30.11.2021
4511 Clear 23 1019 17 10000 0 0 23:25 29.11.2021
4512 Clear 23 1019 19 10000 0.97 80 22:58 29.11.2021
4513 Clear 23 1020 17 10000 0 0 22:34 29.11.2021
4514 Clear 22 1021 18 10000 0 0 21:46 29.11.2021
4515 Clear 21 1021 18 10000 0 0 21:19 29.11.2021
4516 Clear 21 1022 19 10000 0 0 20:44 29.11.2021
4517 Clear 21 1022 22 10000 1 61 19:57 29.11.2021
4518 Clear 20 1023 20 10000 1.34 0 19:38 29.11.2021
4519 Clear 19 1023 22 10000 0 0 18:56 29.11.2021
4520 Clear 20 1021 15 10000 0.64 31 18:37 29.11.2021
4521 Clear 17 1021 20 10000 1.05 335 17:21 29.11.2021
4522 Clear 17 1021 20 10000 1.05 335 16:33 29.11.2021
4523 Clear 12 1021 24 10000 1.25 338 15:55 29.11.2021
4524 Clear 12 1021 24 10000 1.49 341 14:45 29.11.2021
4525 Clear 13 1021 23 10000 1.75 340 13:47 29.11.2021
4526 Clear 13 1020 23 10000 1.73 348 12:56 29.11.2021
4527 Clear 13 1021 23 10000 1.35 344 11:51 29.11.2021
4528 Clear 13 1021 23 10000 1.18 332 10:59 29.11.2021
4529 Clear 9 1024 23 10000 0 0 09:56 29.11.2021
4530 Clear 13 1024 21 10000 1.54 220 06:44 29.11.2021
4531 Clear 15 1024 17 10000 3.09 230 04:53 29.11.2021
4532 Clear 22 1023 11 10000 0 0 00:44 29.11.2021
4533 Clear 22 1024 10 10000 0 0 23:47 28.11.2021
4534 Clear 22 1024 10 10000 0 0 23:28 28.11.2021
4535 Clear 20 1025 11 10000 0 0 21:53 28.11.2021
4536 Clear 21 1025 11 10000 0 0 21:27 28.11.2021
4537 Clear 18 1026 12 10000 0 0 20:35 28.11.2021
4538 Clear 17 1027 13 10000 0 0 19:29 28.11.2021
4539 Clear 14 1027 14 10000 1.54 60 18:38 28.11.2021
4540 Clear 7 1027 19 10000 0 0 17:56 28.11.2021
4541 Clear 12 1027 17 10000 0 0 17:32 28.11.2021
4542 Clear 8 1026 20 10000 0 0 16:44 28.11.2021
4543 Clear 8 1026 20 10000 0 0 16:22 28.11.2021
4544 Clear 8 1026 20 10000 0 0 15:33 28.11.2021
4545 Clear 8 1025 20 10000 2.57 210 14:49 28.11.2021
4546 Clear 8 1025 19 10000 2.06 200 13:49 28.11.2021
4547 Clear 8 1024 16 10000 2.57 280 12:54 28.11.2021
4548 Clear 8 1025 19 10000 2.06 200 11:19 28.11.2021
4549 Clear 9 1024 20 10000 1.54 220 10:22 28.11.2021
4550 Clear 10 1024 19 10000 1.54 220 09:40 28.11.2021
4551 Clear 11 1024 16 10000 2.06 210 08:19 28.11.2021
4552 Clouds 21 1020 7 10000 0 0 00:39 28.11.2021
4553 Clouds 19 1022 9 10000 0 0 21:40 27.11.2021
4554 Clouds 15 1023 11 10000 0 0 19:49 27.11.2021
4555 Clear 5 1023 19 10000 0 0 17:57 27.11.2021
4556 Clear 6 1020 13 10000 1.29 337 15:59 27.11.2021
4557 Clear 7 1021 20 10000 1.54 220 14:30 27.11.2021
4558 Clear 6 1019 13 10000 1.35 346 12:58 27.11.2021
4559 Clear 8 1020 18 10000 2.06 200 10:52 27.11.2021
4560 Clear 8 1020 18 10000 2.06 230 09:53 27.11.2021
4561 Clear 9 1021 16 10000 1.54 280 08:44 27.11.2021
4562 Clouds 10 1020 16 10000 1.54 200 06:34 27.11.2021
4563 Clouds 16 1020 12 10000 1.54 200 02:25 27.11.2021
4564 Clouds 18 1021 8 10000 0 0 23:40 26.11.2021
4565 Clouds 18 1022 9 10000 2.06 0 22:26 26.11.2021
4566 Clouds 17 1024 10 10000 0 0 21:41 26.11.2021
4567 Clouds 17 1024 10 10000 0 0 21:22 26.11.2021
4568 Clouds 16 1025 10 10000 0 0 20:40 26.11.2021
4569 Clouds 13 1026 13 10000 0 0 19:55 26.11.2021
4570 Clouds 11 1027 16 10000 0 0 18:44 26.11.2021
4571 Clouds 8 1027 19 10000 0 0 17:24 26.11.2021
4572 Clouds 5 1027 22 10000 1.54 220 16:45 26.11.2021
4573 Clouds 5 1027 24 10000 1.54 240 14:50 26.11.2021
4574 Clouds 6 1027 24 10000 2.06 260 13:34 26.11.2021
4575 Clouds 8 1028 20 10000 2.68 250 10:44 26.11.2021
4576 Clouds 9 1028 19 10000 1.34 240 09:49 26.11.2021
4577 Clouds 9 1028 19 10000 2.68 270 08:50 26.11.2021
4578 Clouds 9 1028 19 10000 2.68 270 08:19 26.11.2021
4579 Clouds 9 1029 20 10000 2.24 280 06:30 26.11.2021
4580 Clear 11 1029 18 10000 2.68 280 04:52 26.11.2021
4581 Clear 12 1029 18 10000 2.06 220 03:35 26.11.2021
4582 Clouds 17 1030 13 10000 5.36 20 23:43 25.11.2021
4583 Clouds 16 1031 14 10000 6.26 30 22:25 25.11.2021
4584 Clear 14 1033 16 10000 4.47 60 20:43 25.11.2021
4585 Clear 13 1034 18 10000 3.13 20 19:21 25.11.2021
4586 Clear 11 1034 20 10000 4.02 60 18:25 25.11.2021
4587 Clear 9 1034 22 10000 0 0 17:27 25.11.2021
4588 Clear 7 1034 24 10000 0 0 16:45 25.11.2021
4589 Clear 7 1033 26 10000 1.79 0 15:59 25.11.2021
4590 Clear 7 1033 24 10000 2.68 70 14:31 25.11.2021
4591 Clear 8 1032 26 10000 2.24 0 12:57 25.11.2021
4592 Clear 9 1032 23 10000 4.02 0 11:56 25.11.2021
4593 Clear 10 1031 19 10000 10.28 20 10:43 25.11.2021
4594 Clear 11 1030 17 10000 9.39 360 08:21 25.11.2021
4595 Clear 13 1025 15 10000 6.71 360 03:18 25.11.2021
4596 Clear 15 1024 16 10000 8.94 20 01:26 25.11.2021
4597 Clear 16 1023 17 10000 6.71 340 22:33 24.11.2021
4598 Clear 15 1023 18 10000 8.05 10 21:48 24.11.2021
4599 Clear 15 1023 18 10000 8.05 10 21:22 24.11.2021
4600 Clear 15 1024 19 10000 9.83 20 20:27 24.11.2021
4601 Clear 15 1023 19 10000 6.71 360 19:40 24.11.2021
4602 Clear 13 1023 22 10000 7.6 350 18:19 24.11.2021
4603 Clouds 12 1020 25 10000 7.15 20 16:47 24.11.2021
4604 Clear 11 1018 28 10000 7.2 350 14:58 24.11.2021
4605 Clouds 11 1018 24 10000 5.81 40 14:22 24.11.2021
4606 Clouds 12 1016 22 10000 7.6 40 13:35 24.11.2021
4607 Clouds 11 1015 25 10000 2.68 200 11:34 24.11.2021
4608 Clear 11 1015 27 10000 0.89 0 10:58 24.11.2021
4609 Clouds 11 1014 25 10000 2.24 160 10:36 24.11.2021
4610 Clouds 12 1013 23 10000 3.58 250 09:33 24.11.2021
4611 Clear 13 1013 24 10000 3.13 240 07:41 24.11.2021
4612 Clouds 13 1012 25 10000 1.34 180 05:41 24.11.2021
4613 Clouds 15 1011 25 10000 1.34 170 03:44 24.11.2021
4614 Clouds 20 1011 16 10000 2.68 30 23:33 23.11.2021
4615 Clouds 20 1012 17 10000 2.57 40 22:39 23.11.2021
4616 Clouds 19 1012 18 10000 2.68 20 21:45 23.11.2021
4617 Clouds 18 1014 21 10000 0 0 20:36 23.11.2021
4618 Clouds 16 1015 21 10000 2.24 90 19:34 23.11.2021
4619 Clouds 14 1015 23 10000 0 0 18:34 23.11.2021
4620 Clouds 13 1016 26 10000 1.34 210 17:41 23.11.2021
4621 Clouds 13 1016 26 10000 1.34 210 17:41 23.11.2021
4622 Clouds 12 1016 28 10000 0 0 16:37 23.11.2021
4623 Clouds 11 1016 28 10000 0 0 15:27 23.11.2021
4624 Clear 11 1015 29 10000 1.54 160 14:56 23.11.2021
4625 Clouds 11 1016 28 10000 0 0 13:29 23.11.2021
4626 Clouds 11 1017 26 10000 0 0 10:28 23.11.2021
4627 Clouds 12 1018 25 10000 1.34 280 09:48 23.11.2021
4628 Clouds 12 1018 23 10000 2.68 210 08:41 23.11.2021
4629 Clouds 14 1020 21 10000 1.34 220 04:53 23.11.2021
4630 Clear 15 1020 20 10000 1.54 280 03:37 23.11.2021
4631 Clouds 20 1022 14 10000 0 0 23:42 22.11.2021
4632 Clouds 20 1022 16 10000 0 0 23:20 22.11.2021
4633 Clouds 20 1023 16 10000 2.68 360 22:31 22.11.2021
4634 Clouds 19 1024 17 10000 3.58 10 21:45 22.11.2021
4635 Clouds 18 1024 17 10000 3.58 10 21:21 22.11.2021
4636 Clear 17 1025 19 10000 2.24 110 20:43 22.11.2021
4637 Clear 16 1027 21 10000 0 0 19:24 22.11.2021
4638 Clear 14 1027 22 10000 1.34 180 18:41 22.11.2021
4639 Clear 14 1027 22 10000 1.34 180 18:41 22.11.2021
4640 Clear 14 1027 23 10000 1.34 180 18:22 22.11.2021
4641 Clear 9 1027 28 10000 2.68 210 16:45 22.11.2021
4642 Clear 7 1027 30 10000 2.68 210 15:32 22.11.2021
4643 Clear 8 1027 29 10000 1.34 230 12:51 22.11.2021
4644 Clear 9 1027 28 10000 2.24 210 11:39 22.11.2021
4645 Clear 10 1027 27 10000 1.34 230 10:27 22.11.2021
4646 Clear 11 1027 25 10000 2.24 200 08:44 22.11.2021
4647 Clear 11 1027 24 10000 2.24 200 08:24 22.11.2021
4648 Clear 18 1026 18 10000 5.36 40 01:43 22.11.2021
4649 Clear 19 1026 17 10000 6.26 70 23:21 21.11.2021
4650 Clear 19 1026 18 10000 5.81 40 22:45 21.11.2021
4651 Clear 19 1027 19 10000 7.15 60 21:22 21.11.2021
4652 Clear 18 1029 21 10000 5.36 40 20:36 21.11.2021
4653 Clear 17 1030 23 10000 3.13 20 19:35 21.11.2021
4654 Clear 14 1029 31 10000 4.02 0 17:57 21.11.2021
4655 Clear 13 1029 30 10000 3.58 60 17:36 21.11.2021
4656 Clear 11 1027 35 10000 2.68 100 15:21 21.11.2021
4657 Clear 12 1027 34 10000 3.58 30 14:42 21.11.2021
4658 Clear 12 1026 35 10000 4.47 30 13:23 21.11.2021
4659 Clear 12 1026 34 10000 5.81 10 12:27 21.11.2021
4660 Clear 13 1026 34 10000 5.36 30 11:38 21.11.2021
4661 Clear 14 1025 33 10000 4.02 50 10:19 21.11.2021
4662 Clear 14 1025 33 10000 4.02 50 09:47 21.11.2021
4663 Clouds 14 1024 37 10000 0 0 08:33 21.11.2021
4664 Clouds 15 1024 35 10000 3.58 60 07:53 21.11.2021
4665 Clouds 15 1023 32 10000 3.58 40 06:37 21.11.2021
4666 Clouds 16 1022 30 10000 2.68 320 05:42 21.11.2021
4667 Clouds 17 1020 27 10000 1.34 290 03:26 21.11.2021
4668 Clouds 17 1019 28 10000 2.06 310 02:56 21.11.2021
4669 Clouds 18 1020 26 10000 1.54 130 02:18 21.11.2021
4670 Clouds 21 1019 22 10000 3.13 60 00:50 21.11.2021
4671 Clouds 22 1019 20 10000 2.68 60 22:35 20.11.2021
4672 Clouds 21 1019 21 10000 1.34 0 21:33 20.11.2021
4673 Clouds 20 1020 22 10000 0 0 20:32 20.11.2021
4674 Clouds 18 1020 25 10000 1.34 300 18:45 20.11.2021
4675 Clouds 17 1020 27 10000 1.34 300 18:24 20.11.2021
4676 Clouds 13 1020 31 10000 0 0 17:22 20.11.2021
4677 Clouds 10 1019 35 10000 1.34 250 15:23 20.11.2021
4678 Clouds 10 1018 35 10000 1.34 210 14:39 20.11.2021
4679 Clouds 10 1018 35 10000 1.34 210 14:20 20.11.2021
4680 Clear 11 1017 37 10000 0.89 0 11:56 20.11.2021
4681 Clear 11 1017 37 10000 0.89 0 11:56 20.11.2021
4682 Clouds 12 1017 34 10000 0.45 0 09:58 20.11.2021
4683 Clouds 12 1017 32 10000 0 0 08:44 20.11.2021
4684 Clouds 13 1018 31 10000 1.34 210 06:50 20.11.2021
4685 Clouds 14 1017 29 10000 0 0 05:21 20.11.2021
4686 Clouds 15 1017 28 10000 2.24 220 04:49 20.11.2021
4687 Clouds 19 1017 22 10000 0 0 00:43 20.11.2021
4688 Clouds 20 1017 21 10000 0 0 00:18 20.11.2021
4689 Clouds 20 1018 21 10000 2.24 50 22:54 19.11.2021
4690 Clouds 19 1019 21 10000 2.68 60 21:36 19.11.2021
4691 Clouds 19 1020 21 10000 1.34 60 20:48 19.11.2021
4692 Clouds 18 1020 22 10000 1.34 60 20:29 19.11.2021
4693 Clouds 17 1021 24 10000 1.34 50 19:47 19.11.2021
4694 Clouds 16 1021 26 10000 1.34 50 18:49 19.11.2021
4695 Clouds 14 1020 27 10000 1.34 20 17:45 19.11.2021
4696 Clouds 13 1020 31 10000 0 0 16:43 19.11.2021
4697 Clouds 13 1020 31 10000 0 0 16:43 19.11.2021
4698 Clouds 12 1019 31 10000 1.34 200 15:22 19.11.2021
4699 Clouds 13 1020 30 10000 1.34 250 11:54 19.11.2021
4700 Clouds 12 1020 28 10000 0 0 10:25 19.11.2021
4701 Clouds 12 1020 29 10000 0 0 08:39 19.11.2021
4702 Clouds 13 1020 27 10000 2.24 200 06:29 19.11.2021
4703 Clouds 14 1020 25 10000 1.34 210 04:22 19.11.2021
4704 Clouds 19 1020 21 10000 0.45 0 23:59 18.11.2021
4705 Clouds 19 1020 18 10000 0 0 23:41 18.11.2021
4706 Clouds 18 1022 19 10000 1.34 50 21:41 18.11.2021
4707 Clouds 17 1023 19 10000 1.34 0 20:46 18.11.2021
4708 Clouds 17 1023 18 10000 1.34 0 20:28 18.11.2021
4709 Clouds 17 1024 19 10000 0 0 19:43 18.11.2021
4710 Clouds 15 1024 21 10000 1.34 30 18:40 18.11.2021
4711 Clouds 14 1024 23 10000 1.34 210 17:54 18.11.2021
4712 Clouds 13 1024 25 10000 1.34 210 17:35 18.11.2021
4713 Clouds 9 1023 30 10000 1.34 220 16:43 18.11.2021
4714 Clouds 9 1023 29 10000 1.34 190 15:23 18.11.2021
4715 Clouds 9 1022 31 10000 1.34 200 13:21 18.11.2021
4716 Clouds 10 1022 26 10000 2.24 150 11:45 18.11.2021
4717 Clouds 11 1022 26 10000 2.24 150 11:26 18.11.2021
4718 Clouds 11 1022 24 10000 1.34 360 10:55 18.11.2021
4719 Clouds 12 1022 23 10000 3.13 70 09:28 18.11.2021
4720 Clouds 13 1022 26 10000 3.13 90 07:31 18.11.2021
4721 Clouds 15 1021 24 10000 2.24 220 05:47 18.11.2021
4722 Clouds 18 1020 22 10000 3.6 50 02:35 18.11.2021
4723 Clouds 20 1019 20 10000 5.36 60 01:21 18.11.2021
4724 Clouds 21 1019 21 10000 5.81 40 22:41 17.11.2021
4725 Clouds 21 1019 21 10000 5.81 40 22:20 17.11.2021
4726 Clouds 21 1020 23 10000 5.81 60 21:36 17.11.2021
4727 Clouds 20 1020 24 10000 4.02 60 20:18 17.11.2021
4728 Clouds 17 1020 30 10000 0 0 17:44 17.11.2021
4729 Clouds 15 1019 35 10000 0.45 0 16:59 17.11.2021
4730 Clouds 13 1015 34 10000 2.03 333 13:59 17.11.2021
4731 Clouds 13 1016 33 10000 0 0 12:39 17.11.2021
4732 Clouds 13 1016 33 10000 1.34 300 11:37 17.11.2021
4733 Clouds 14 1015 31 10000 1.34 280 10:28 17.11.2021
4734 Clouds 15 1015 29 10000 1.34 250 09:23 17.11.2021
4735 Clouds 16 1014 27 10000 1.34 210 07:41 17.11.2021
4736 Clouds 18 1012 28 10000 0 0 03:31 17.11.2021
4737 Clouds 23 1012 22 10000 4.02 70 00:47 17.11.2021
4738 Clouds 24 1013 20 10000 2.24 0 22:44 16.11.2021
4739 Clouds 22 1015 23 10000 2.24 180 20:20 16.11.2021
4740 Clouds 22 1014 26 10000 0.45 0 19:59 16.11.2021
4741 Clouds 19 1016 31 10000 2.24 210 18:53 16.11.2021
4742 Clouds 18 1016 30 10000 2.24 210 18:29 16.11.2021
4743 Clouds 16 1016 32 10000 1.34 220 17:34 16.11.2021
4744 Clouds 15 1015 33 10000 1.34 270 16:32 16.11.2021
4745 Clouds 15 1015 33 10000 2.68 230 15:49 16.11.2021
4746 Clouds 15 1015 32 10000 2.68 280 14:31 16.11.2021
4747 Clouds 16 1015 32 10000 2.24 280 11:22 16.11.2021
4748 Clouds 16 1016 31 10000 3.13 280 09:45 16.11.2021
4749 Clouds 17 1016 30 10000 1.34 290 08:25 16.11.2021
4750 Clouds 17 1017 28 10000 0 0 07:31 16.11.2021
4751 Clouds 23 1017 22 10000 1.34 120 01:20 16.11.2021
4752 Clouds 24 1019 21 10000 1.34 90 22:52 15.11.2021
4753 Clouds 24 1019 21 10000 1.34 90 22:21 15.11.2021
4754 Clouds 24 1020 21 10000 1.34 0 21:52 15.11.2021
4755 Clouds 24 1021 22 10000 1.34 0 21:26 15.11.2021
4756 Clouds 22 1023 23 10000 0 0 19:41 15.11.2021
4757 Clouds 20 1023 25 10000 0 0 18:30 15.11.2021
4758 Clouds 14 1023 34 10000 1.54 210 16:20 15.11.2021
4759 Clouds 13 1022 34 10000 2.24 230 15:40 15.11.2021
4760 Clouds 13 1022 34 10000 2.24 230 15:21 15.11.2021
4761 Clouds 13 1022 34 10000 1.54 230 13:22 15.11.2021
4762 Clear 15 1021 30 10000 0 0 10:57 15.11.2021
4763 Smoke 15 1022 30 10000 2.24 210 09:27 15.11.2021
4764 Smoke 15 1022 30 10000 2.24 210 09:27 15.11.2021
4765 Clouds 17 1022 27 10000 1.34 200 07:45 15.11.2021
4766 Smoke 18 1021 26 10000 2.24 220 05:19 15.11.2021
4767 Clouds 26 1021 19 10000 0 0 23:37 14.11.2021
4768 Clouds 25 1022 19 10000 2.68 50 22:35 14.11.2021
4769 Clouds 23 1025 23 10000 2.24 60 19:53 14.11.2021
4770 Clouds 22 1025 24 10000 2.24 60 19:18 14.11.2021
4771 Clouds 21 1024 27 10000 1.34 90 18:54 14.11.2021
4772 Clouds 20 1024 28 10000 1.34 90 18:36 14.11.2021
4773 Clouds 20 1024 28 10000 1.34 90 18:18 14.11.2021
4774 Clouds 18 1025 31 10000 2.06 190 17:55 14.11.2021
4775 Clouds 18 1024 31 10000 2.06 190 17:37 14.11.2021
4776 Clouds 17 1025 31 10000 2.06 190 17:19 14.11.2021
4777 Clouds 14 1024 35 10000 3.09 210 16:46 14.11.2021
4778 Clouds 14 1024 37 10000 3.09 210 16:20 14.11.2021
4779 Clouds 13 1024 36 10000 1.54 170 15:23 14.11.2021
4780 Clear 13 1024 37 10000 2.06 230 14:49 14.11.2021
4781 Clear 14 1024 36 10000 2.06 230 14:28 14.11.2021
4782 Clear 14 1023 35 10000 1.54 250 13:54 14.11.2021
4783 Clear 14 1023 36 10000 1.54 250 13:35 14.11.2021
4784 Clear 15 1023 34 10000 2.24 220 12:27 14.11.2021
4785 Clear 15 1023 33 10000 2.68 210 11:41 14.11.2021
4786 Clear 16 1023 34 10000 2.24 220 10:41 14.11.2021
4787 Clear 16 1023 34 10000 1.34 270 09:48 14.11.2021
4788 Clear 17 1023 32 10000 1.34 200 08:54 14.11.2021
4789 Clear 17 1022 32 10000 1.34 260 07:19 14.11.2021
4790 Clouds 26 1020 23 10000 0 0 23:47 13.11.2021
4791 Clouds 25 1021 23 10000 1.34 60 22:26 13.11.2021
4792 Clear 25 1021 26 10000 0.89 0 21:56 13.11.2021
4793 Clouds 24 1022 25 10000 0 0 21:22 13.11.2021
4794 Clouds 22 1024 27 10000 1.34 340 19:38 13.11.2021
4795 Clouds 20 1024 30 10000 0 0 18:33 13.11.2021
4796 Clouds 20 1024 30 10000 0 0 18:33 13.11.2021
4797 Clouds 18 1024 34 10000 1.54 270 17:55 13.11.2021
4798 Clouds 13 1023 41 10000 0 0 16:37 13.11.2021
4799 Clear 13 1023 40 10000 0 0 15:20 13.11.2021
4800 Clear 14 1022 39 10000 0 0 14:20 13.11.2021
4801 Clear 14 1022 38 10000 1.34 230 13:18 13.11.2021
4802 Clear 15 1022 37 10000 2.68 210 12:22 13.11.2021
4803 Clear 15 1022 37 10000 2.24 180 11:34 13.11.2021
4804 Clear 16 1023 36 10000 1.34 220 10:44 13.11.2021
4805 Clear 16 1023 35 10000 1.54 10 09:56 13.11.2021
4806 Clear 16 1023 36 10000 3.13 210 09:34 13.11.2021
4807 Clear 17 1023 34 10000 0 0 08:56 13.11.2021
4808 Clear 17 1023 35 10000 0 0 08:23 13.11.2021
4809 Clouds 19 1023 31 10000 2.24 270 04:47 13.11.2021
4810 Clouds 20 1023 31 10000 2.24 270 04:28 13.11.2021
4811 Clouds 24 1022 25 10000 2.68 50 01:30 13.11.2021
4812 Clouds 25 1023 24 10000 4.02 40 22:46 12.11.2021
4813 Clear 25 1024 24 10000 2.68 0 21:45 12.11.2021
4814 Clear 25 1024 24 10000 2.68 0 21:45 12.11.2021
4815 Clear 23 1026 30 10000 0 0 19:46 12.11.2021
4816 Clear 22 1026 30 10000 0 0 19:27 12.11.2021
4817 Clear 21 1027 33 10000 1.54 90 18:28 12.11.2021
4818 Clear 16 1026 41 10000 1.34 270 16:34 12.11.2021
4819 Clear 14 1026 45 10000 2.24 260 15:32 12.11.2021
4820 Clouds 15 1025 40 10000 2.68 220 11:33 12.11.2021
4821 Clear 16 1025 37 10000 2.68 190 10:51 12.11.2021
4822 Clear 16 1025 36 10000 2.24 180 09:37 12.11.2021
4823 Clear 17 1025 34 10000 3.13 350 08:38 12.11.2021
4824 Clouds 22 1022 28 10000 0 0 02:28 12.11.2021
4825 Clear 24 1022 24 10000 2.68 110 23:41 11.11.2021
4826 Clear 24 1023 25 10000 3.13 40 22:30 11.11.2021
4827 Clear 23 1024 26 10000 3.6 30 21:27 11.11.2021
4828 Clouds 22 1024 27 10000 1.34 0 20:40 11.11.2021
4829 Clear 21 1025 31 10000 0.89 0 18:56 11.11.2021
4830 Clouds 18 1025 34 10000 0 0 17:43 11.11.2021
4831 Clouds 15 1025 40 10000 0 0 16:43 11.11.2021
4832 Clouds 14 1024 41 10000 2.68 130 14:46 11.11.2021
4833 Clouds 14 1024 41 10000 2.68 130 14:28 11.11.2021
4834 Clouds 15 1024 39 10000 1.34 350 13:38 11.11.2021
4835 Clouds 16 1023 37 10000 4.47 10 12:48 11.11.2021
4836 Clear 17 1023 37 10000 3.13 40 10:40 11.11.2021
4837 Clear 17 1023 37 10000 4.02 10 09:34 11.11.2021
4838 Clouds 18 1022 35 10000 1.34 270 07:38 11.11.2021
4839 Clear 19 1019 34 10000 0.45 0 03:58 11.11.2021
4840 Clouds 26 1017 23 10000 3.58 0 23:00 10.11.2021
4841 Clouds 25 1020 23 10000 2.68 0 22:22 10.11.2021
4842 Clouds 24 1021 24 10000 2.57 0 21:21 10.11.2021
4843 Clouds 24 1021 27 10000 1.34 0 20:46 10.11.2021
4844 Clouds 23 1022 30 10000 2.24 0 19:47 10.11.2021
4845 Clouds 23 1022 30 10000 2.24 0 19:47 10.11.2021
4846 Clouds 20 1022 36 10000 0 0 18:33 10.11.2021
4847 Clear 16 1021 47 10000 3.13 190 16:34 10.11.2021
4848 Clouds 15 1020 50 10000 3.13 200 14:52 10.11.2021
4849 Clouds 15 1020 50 10000 2.24 210 13:41 10.11.2021
4850 Clouds 15 1019 50 10000 2.24 200 12:47 10.11.2021
4851 Clouds 16 1019 45 10000 0 0 10:39 10.11.2021
4852 Clouds 18 1018 42 10000 2.24 200 08:45 10.11.2021
4853 Clouds 18 1018 41 10000 2.24 200 07:32 10.11.2021
4854 Clouds 18 1018 41 10000 2.24 200 07:32 10.11.2021
4855 Clouds 18 1018 39 10000 1.34 190 06:26 10.11.2021
4856 Clouds 18 1018 39 10000 3.13 240 05:51 10.11.2021
4857 Clouds 23 1016 26 10000 7.15 260 23:52 09.11.2021
4858 Clouds 24 1016 25 10000 6.26 230 21:48 09.11.2021
4859 Clouds 23 1017 24 10000 5.81 220 20:31 09.11.2021
4860 Clouds 22 1018 23 10000 4.47 190 19:21 09.11.2021
4861 Clouds 21 1018 23 10000 4.02 190 17:31 09.11.2021
4862 Clouds 19 1017 23 10000 5.36 200 15:45 09.11.2021
4863 Clouds 19 1017 20 10000 5.36 200 14:29 09.11.2021
4864 Clouds 18 1017 25 10000 6.17 200 12:53 09.11.2021
4865 Clouds 18 1017 25 10000 6.17 200 12:53 09.11.2021
4866 Clouds 18 1017 24 10000 2.24 170 11:42 09.11.2021
4867 Clouds 18 1017 24 10000 4.47 180 10:44 09.11.2021
4868 Clear 18 1017 23 10000 2.57 340 09:24 09.11.2021
4869 Clouds 18 1017 20 10000 4.02 190 08:25 09.11.2021
4870 Clouds 20 1017 16 10000 2.68 180 05:47 09.11.2021
4871 Clouds 23 1015 16 10000 3.13 220 02:22 09.11.2021
4872 Clouds 24 1014 14 10000 4.47 230 01:43 09.11.2021
4873 Clear 26 1012 18 10000 2.24 0 23:58 08.11.2021
4874 Clouds 26 1015 18 10000 2.57 0 22:49 08.11.2021
4875 Clouds 25 1015 21 10000 4.47 70 21:55 08.11.2021
4876 Clouds 24 1016 23 10000 3.58 70 20:53 08.11.2021
4877 Clouds 23 1016 25 10000 3.13 80 19:49 08.11.2021
4878 Clouds 20 1017 27 10000 0 0 18:25 08.11.2021
4879 Clouds 16 1016 34 10000 1.34 210 16:21 08.11.2021
4880 Clouds 15 1013 35 10000 0.45 0 14:58 08.11.2021
4881 Clouds 16 1015 31 10000 1.34 240 14:38 08.11.2021
4882 Clouds 16 1015 29 10000 1.34 230 13:31 08.11.2021
4883 Clouds 18 1014 29 10000 2.06 50 11:56 08.11.2021
4884 Clouds 19 1014 25 10000 4.02 190 10:50 08.11.2021
4885 Clouds 19 1014 22 10000 3.13 200 09:39 08.11.2021
4886 Clouds 20 1014 22 10000 5.36 180 08:54 08.11.2021
4887 Clouds 20 1014 20 10000 4.47 180 07:29 08.11.2021
4888 Clouds 23 1013 15 10000 2.24 190 03:48 08.11.2021
4889 Clouds 23 1013 14 10000 2.24 190 03:26 08.11.2021
4890 Clouds 28 1012 13 10000 2.68 210 23:46 07.11.2021
4891 Clouds 28 1013 13 10000 4.47 170 21:48 07.11.2021
4892 Clouds 27 1013 14 10000 4.47 170 20:54 07.11.2021
4893 Clouds 25 1015 14 10000 3.58 170 19:30 07.11.2021
4894 Clouds 23 1015 18 10000 6.69 180 18:22 07.11.2021
4895 Clouds 19 1014 23 10000 6.26 190 16:50 07.11.2021
4896 Clear 17 1014 23 10000 5.81 170 15:47 07.11.2021
4897 Clear 17 1014 24 10000 4.02 180 14:29 07.11.2021
4898 Clear 17 1013 26 10000 3.58 190 13:26 07.11.2021
4899 Clear 18 1014 24 10000 4.02 170 11:42 07.11.2021
4900 Clear 20 1014 24 10000 2.68 180 09:49 07.11.2021
4901 Clouds 21 1014 22 10000 1.34 80 07:20 07.11.2021
4902 Clouds 26 1013 9 10000 4.47 230 02:34 07.11.2021
4903 Clouds 29 1013 14 10000 5.36 200 23:22 06.11.2021
4904 Clouds 29 1014 16 10000 3.58 240 22:42 06.11.2021
4905 Clouds 27 1014 19 10000 4.47 170 21:32 06.11.2021
4906 Clouds 25 1016 23 10000 2.68 50 20:50 06.11.2021
4907 Clear 22 1016 31 10000 1.34 0 18:56 06.11.2021
4908 Clouds 16 1017 38 10000 0 0 16:44 06.11.2021
4909 Clear 14 1016 41 10000 2.68 210 14:37 06.11.2021
4910 Clear 15 1016 39 10000 1.34 260 13:38 06.11.2021
4911 Clear 15 1016 39 10000 1.34 260 13:38 06.11.2021
4912 Clear 16 1016 37 10000 2.68 270 11:46 06.11.2021
4913 Clouds 17 1016 35 10000 0 0 09:23 06.11.2021
4914 Clear 19 1014 34 10000 0.89 0 04:57 06.11.2021
4915 Clouds 25 1015 24 10000 2.24 70 01:27 06.11.2021
4916 Clouds 26 1016 22 10000 2.24 80 23:34 05.11.2021
4917 Clouds 26 1016 24 10000 2.68 50 22:33 05.11.2021
4918 Clouds 24 1018 26 10000 2.24 50 20:50 05.11.2021
4919 Clouds 24 1018 26 10000 2.24 50 20:19 05.11.2021
4920 Clouds 23 1019 27 10000 2.24 140 19:32 05.11.2021
4921 Clouds 21 1019 31 10000 1.34 0 18:38 05.11.2021
4922 Clouds 18 1019 37 10000 0 0 17:26 05.11.2021
4923 Clouds 14 1018 42 10000 0 0 15:20 05.11.2021
4924 Clouds 14 1017 41 10000 1.34 190 13:35 05.11.2021
4925 Clear 16 1017 40 10000 2.24 200 10:29 05.11.2021
4926 Clear 17 1017 37 10000 2.57 240 08:39 05.11.2021
4927 Clouds 17 1016 37 10000 2.24 210 07:21 05.11.2021
4928 Clear 19 1015 32 10000 1.34 270 04:43 05.11.2021
4929 Clouds 22 1014 27 10000 1.34 90 02:24 05.11.2021
4930 Clouds 25 1014 24 10000 1.34 90 00:30 05.11.2021
4931 Clear 26 1014 27 10000 0.45 0 22:59 04.11.2021
4932 Clouds 25 1016 25 10000 2.68 100 22:18 04.11.2021
4933 Clear 24 1017 25 10000 0 0 21:30 04.11.2021
4934 Clear 24 1018 26 10000 1.34 40 20:40 04.11.2021
4935 Clear 24 1018 26 10000 1.34 40 20:19 04.11.2021
4936 Clear 23 1019 28 10000 0 0 19:39 04.11.2021
4937 Clear 21 1019 31 10000 0 0 18:43 04.11.2021
4938 Clear 19 1020 36 10000 0 0 17:36 04.11.2021
4939 Clear 15 1019 42 10000 1.34 210 16:23 04.11.2021
4940 Clear 14 1019 44 10000 2.24 220 14:19 04.11.2021
4941 Clear 16 1018 39 10000 2.24 210 10:52 04.11.2021
4942 Clear 17 1019 38 10000 1.34 180 09:29 04.11.2021
4943 Clear 17 1019 37 10000 2.24 210 08:29 04.11.2021
4944 Clear 18 1019 36 10000 2.24 230 07:34 04.11.2021
4945 Clouds 26 1019 26 10000 2.68 30 23:52 03.11.2021
4946 Clouds 25 1019 26 10000 3.13 50 22:49 03.11.2021
4947 Clouds 25 1020 26 10000 2.24 50 21:45 03.11.2021
4948 Clouds 24 1021 27 10000 3.58 50 20:45 03.11.2021
4949 Clouds 24 1022 27 10000 3.58 50 20:27 03.11.2021
4950 Clouds 23 1023 27 10000 3.13 10 19:40 03.11.2021
4951 Clouds 22 1023 30 10000 2.24 80 18:47 03.11.2021
4952 Clouds 21 1021 33 10000 1.4 44 17:58 03.11.2021
4953 Clouds 16 1023 36 10000 1.34 230 16:53 03.11.2021
4954 Clouds 14 1022 41 10000 2.24 220 15:52 03.11.2021
4955 Clouds 14 1022 41 10000 2.24 220 15:31 03.11.2021
4956 Clouds 15 1021 38 10000 1.34 230 13:45 03.11.2021
4957 Clouds 15 1021 37 10000 1.34 200 11:38 03.11.2021
4958 Clouds 16 1022 36 10000 1.54 220 10:52 03.11.2021
4959 Clouds 16 1022 36 10000 1.54 220 10:18 03.11.2021
4960 Clouds 17 1021 35 10000 1.54 200 09:27 03.11.2021
4961 Smoke 17 1021 36 10000 0 0 08:20 03.11.2021
4962 Smoke 17 1020 34 10000 0 0 07:38 03.11.2021
4963 Clouds 19 1019 29 10000 2.24 210 04:23 03.11.2021
4964 Clouds 24 1018 23 10000 0 0 01:32 03.11.2021
4965 Clouds 25 1019 23 10000 0 0 23:30 02.11.2021
4966 Clouds 25 1019 23 10000 1.34 20 22:20 02.11.2021
4967 Clouds 24 1020 26 10000 0 0 20:45 02.11.2021
4968 Clouds 23 1020 26 10000 0 0 20:21 02.11.2021
4969 Clouds 23 1021 26 10000 0 0 19:31 02.11.2021
4970 Clouds 21 1021 28 10000 0 0 18:36 02.11.2021
4971 Clouds 20 1021 31 10000 0 0 17:48 02.11.2021
4972 Clouds 19 1021 32 10000 0 0 17:25 02.11.2021
4973 Clouds 16 1020 37 10000 1.34 180 16:19 02.11.2021
4974 Clouds 16 1018 36 10000 0.89 0 14:57 02.11.2021
4975 Clouds 16 1018 35 10000 3.58 280 13:31 02.11.2021
4976 Clouds 16 1017 36 10000 0.45 0 12:59 02.11.2021
4977 Clouds 17 1018 34 10000 2.24 210 12:18 02.11.2021
4978 Clouds 17 1018 32 10000 1.34 250 11:26 02.11.2021
4979 Clouds 18 1018 33 10000 3.58 190 10:38 02.11.2021
4980 Clouds 18 1018 32 10000 3.58 190 10:18 02.11.2021
4981 Clouds 21 1017 25 10000 6.71 220 07:47 02.11.2021
4982 Clouds 22 1017 24 10000 4.02 210 05:55 02.11.2021
4983 Clouds 23 1016 22 10000 2.68 160 03:27 02.11.2021
4984 Clouds 25 1015 19 10000 5.36 190 00:19 02.11.2021
4985 Clear 25 1015 25 10000 2.24 0 21:57 01.11.2021
4986 Clouds 24 1017 25 10000 3.58 180 20:45 01.11.2021
4987 Clouds 24 1017 26 10000 3.58 180 20:19 01.11.2021
4988 Clouds 22 1017 30 10000 2.24 0 19:41 01.11.2021
4989 Clouds 21 1017 35 10000 3.58 140 18:34 01.11.2021
4990 Clouds 19 1017 38 10000 1.34 0 17:49 01.11.2021
4991 Clear 18 1016 40 10000 1.54 30 16:57 01.11.2021
4992 Clouds 16 1016 44 10000 1.34 190 16:25 01.11.2021
4993 Clouds 16 1016 42 10000 1.34 210 15:37 01.11.2021
4994 Clouds 16 1016 42 10000 1.34 210 15:18 01.11.2021
4995 Clouds 16 1016 42 10000 2.24 240 14:37 01.11.2021
4996 Clouds 16 1016 41 10000 2.24 240 14:18 01.11.2021
4997 Clouds 17 1014 39 10000 2.24 210 12:38 01.11.2021
4998 Clouds 17 1014 38 10000 1.34 180 11:34 01.11.2021
4999 Clouds 18 1015 36 10000 4.02 180 10:20 01.11.2021
5000 Clouds 20 1014 30 10000 2.68 150 08:18 01.11.2021
5001 Clouds 20 1013 30 10000 1.34 160 07:46 01.11.2021
5002 Clouds 23 1012 25 10000 3.13 210 03:51 01.11.2021
5003 Clouds 25 1011 22 10000 6.17 230 01:44 01.11.2021
5004 Clouds 27 1011 18 10000 3.58 190 22:48 31.10.2021
5005 Clouds 26 1012 22 10000 4.47 200 20:50 31.10.2021
5006 Clouds 25 1013 26 10000 4.02 190 19:22 31.10.2021
5007 Clouds 24 1013 29 10000 4.02 170 18:41 31.10.2021
5008 Clouds 22 1013 32 10000 2.68 180 17:52 31.10.2021
5009 Clouds 18 1012 37 10000 2.68 190 15:51 31.10.2021
5010 Clouds 18 1011 36 10000 2.68 190 14:24 31.10.2021
5011 Clouds 19 1011 34 10000 4.47 190 12:50 31.10.2021
5012 Clouds 20 1011 35 10000 3.58 190 11:41 31.10.2021
5013 Clouds 20 1011 33 10000 2.68 200 10:44 31.10.2021
5014 Clouds 21 1011 32 10000 2.68 170 09:22 31.10.2021
5015 Clouds 21 1011 30 10000 3.13 190 08:37 31.10.2021
5016 Clear 26 1010 29 10000 1.34 0 01:57 31.10.2021
5017 Clouds 25 1013 27 10000 2.24 90 22:47 30.10.2021
5018 Clouds 24 1014 29 10000 0 0 21:35 30.10.2021
5019 Clear 24 1015 30 10000 1.34 0 20:50 30.10.2021
5020 Clouds 20 1015 36 10000 0 0 18:48 30.10.2021
5021 Clouds 16 1014 43 10000 1.54 190 17:25 30.10.2021
5022 Clear 14 1014 46 10000 2.24 230 15:21 30.10.2021
5023 Clear 15 1014 43 10000 1.34 240 13:40 30.10.2021
5024 Clear 15 1014 43 10000 1.34 240 13:21 30.10.2021
5025 Clear 16 1014 42 10000 1.34 230 12:51 30.10.2021
5026 Clear 16 1014 41 10000 1.34 220 11:44 30.10.2021
5027 Clear 17 1014 40 10000 2.24 210 10:32 30.10.2021
5028 Clear 18 1014 39 10000 3.13 220 08:53 30.10.2021
5029 Clear 18 1014 36 10000 2.68 270 07:25 30.10.2021
5030 Clouds 20 1014 33 10000 2.24 200 05:39 30.10.2021
5031 Clear 26 1014 24 10000 0 0 00:47 30.10.2021
5032 Clear 25 1016 28 10000 2.24 0 22:43 29.10.2021
5033 Clear 25 1016 28 10000 2.24 0 22:20 29.10.2021
5034 Clear 24 1018 31 10000 0 0 20:46 29.10.2021
5035 Clear 22 1019 33 10000 0 0 19:56 29.10.2021
5036 Clear 20 1019 38 10000 0 0 18:33 29.10.2021
5037 Clear 15 1018 46 10000 1.34 260 16:52 29.10.2021
5038 Clear 15 1018 47 10000 2.24 220 14:36 29.10.2021
5039 Clear 17 1018 43 10000 2.24 220 11:44 29.10.2021
5040 Clear 17 1020 41 10000 2.24 220 10:35 29.10.2021
5041 Clear 18 1019 39 10000 2.68 270 08:35 29.10.2021
5042 Clear 27 1021 23 10000 4.02 40 00:37 29.10.2021
5043 Clear 26 1021 25 10000 3.13 60 23:19 28.10.2021
5044 Clear 25 1022 30 10000 0.89 0 21:56 28.10.2021
5045 Clear 23 1025 31 10000 2.68 360 20:32 28.10.2021
5046 Clear 21 1025 35 10000 2.68 10 19:50 28.10.2021
5047 Clear 19 1025 40 10000 2.24 30 18:23 28.10.2021
5048 Clear 15 1022 48 10000 1.89 351 16:58 28.10.2021
5049 Clear 15 1024 46 10000 2.68 210 15:24 28.10.2021
5050 Clear 15 1023 46 10000 2.24 220 13:46 28.10.2021
5051 Clear 15 1023 48 10000 2.24 220 13:22 28.10.2021
5052 Clear 15 1023 45 10000 2.68 290 12:41 28.10.2021
5053 Clear 16 1021 43 10000 1.99 7 10:57 28.10.2021
5054 Clear 16 1023 42 10000 1.34 290 09:38 28.10.2021
5055 Clear 16 1020 42 10000 1.32 2 08:58 28.10.2021
5056 Clear 16 1023 41 10000 0 0 08:34 28.10.2021
5057 Clear 19 1022 33 10000 0 0 04:48 28.10.2021
5058 Clear 22 1023 26 10000 0 0 23:50 27.10.2021
5059 Clear 22 1023 27 10000 0 0 22:31 27.10.2021
5060 Clear 21 1025 28 10000 3.13 80 21:33 27.10.2021
5061 Clear 20 1025 30 10000 2.68 130 20:53 27.10.2021
5062 Clear 19 1025 31 10000 0.45 0 19:57 27.10.2021
5063 Clear 18 1025 32 10000 2.24 0 19:38 27.10.2021
5064 Clear 16 1026 35 10000 1.34 20 18:39 27.10.2021
5065 Clear 11 1023 48 10000 0 0 16:27 27.10.2021
5066 Clear 11 1023 47 10000 1.34 170 15:30 27.10.2021
5067 Clear 11 1022 48 10000 2.68 280 14:40 27.10.2021
5068 Clear 13 1022 43 10000 0 0 11:28 27.10.2021
5069 Clear 13 1021 42 10000 0.9 241 10:58 27.10.2021
5070 Clear 13 1021 40 10000 2.24 230 09:51 27.10.2021
5071 Clear 14 1021 38 10000 2.68 240 08:22 27.10.2021
5072 Clear 14 1020 35 10000 2.24 200 06:53 27.10.2021
5073 Clouds 19 1018 25 10000 5.66 30 02:24 27.10.2021
5074 Clear 20 1017 25 10000 3.58 0 00:56 27.10.2021
5075 Clouds 20 1017 22 10000 7.6 330 00:26 27.10.2021
5076 Clouds 20 1017 22 10000 4.47 350 23:41 26.10.2021
5077 Clouds 19 1018 23 10000 5.36 350 22:37 26.10.2021
5078 Clear 19 1017 28 10000 4.47 0 21:57 26.10.2021
5079 Clear 17 1018 30 10000 2.68 210 20:27 26.10.2021
5080 Clear 16 1017 35 10000 2.68 200 19:26 26.10.2021
5081 Clear 15 1017 38 10000 2.24 350 18:40 26.10.2021
5082 Clear 11 1014 47 10000 2.68 290 16:22 26.10.2021
5083 Clear 12 1012 45 10000 6.71 330 14:19 26.10.2021
5084 Clouds 12 1011 50 10000 0 0 11:34 26.10.2021
5085 Clear 12 1008 53 10000 4.4 305 09:59 26.10.2021
5086 Clouds 14 1007 53 10000 4.02 240 07:24 26.10.2021
5087 Rain 16 1004 55 10000 8.94 250 03:39 26.10.2021
5088 Clouds 25 1003 34 10000 8.05 180 23:50 25.10.2021
5089 Clouds 25 1003 32 10000 7.6 190 22:39 25.10.2021
5090 Clouds 26 1003 31 10000 7.6 190 22:18 25.10.2021
5091 Clouds 25 1005 31 10000 7.15 180 21:26 25.10.2021
5092 Clouds 23 1006 35 10000 4.12 170 19:45 25.10.2021
5093 Clouds 22 1006 36 10000 4.12 170 19:25 25.10.2021
5094 Clouds 22 1007 37 10000 3.6 150 18:51 25.10.2021
5095 Clouds 20 1007 38 10000 4.47 180 17:43 25.10.2021
5096 Clouds 18 1008 38 10000 2.68 150 15:41 25.10.2021
5097 Clouds 18 1006 39 10000 2.03 168 13:56 25.10.2021
5098 Clouds 19 1008 36 10000 3.58 180 12:22 25.10.2021
5099 Clouds 20 1010 35 10000 1.34 120 10:18 25.10.2021
5100 Clouds 22 1009 32 10000 3.13 180 07:47 25.10.2021
5101 Clouds 22 1008 36 10000 3.81 178 05:58 25.10.2021
5102 Clouds 25 1008 31 10000 4.47 200 00:53 25.10.2021
5103 Clouds 25 1008 30 10000 4.47 200 00:35 25.10.2021
5104 Clouds 24 1008 30 10000 4.47 190 23:45 24.10.2021
5105 Clouds 23 1009 30 10000 5.36 170 22:40 24.10.2021
5106 Clouds 23 1009 30 10000 5.36 170 22:20 24.10.2021
5107 Clouds 22 1009 31 10000 4.02 180 21:37 24.10.2021
5108 Clouds 21 1010 33 10000 2.68 180 20:42 24.10.2021
5109 Clouds 19 1010 36 10000 2.68 160 19:49 24.10.2021
5110 Clouds 18 1010 39 10000 4.47 180 18:30 24.10.2021
5111 Clouds 18 1009 40 10000 3.13 160 17:48 24.10.2021
5112 Clear 16 1007 47 10000 2.57 100 15:57 24.10.2021
5113 Clouds 16 1008 44 10000 2.68 200 15:20 24.10.2021
5114 Clouds 17 1008 40 10000 2.24 200 13:23 24.10.2021
5115 Clouds 18 1007 38 10000 3.58 190 12:26 24.10.2021
5116 Clouds 17 1008 41 10000 3.13 160 11:36 24.10.2021
5117 Clouds 18 1008 37 10000 3.13 190 10:38 24.10.2021
5118 Clouds 18 1008 37 10000 3.13 190 10:38 24.10.2021
5119 Clouds 19 1008 37 10000 2.68 190 08:43 24.10.2021
5120 Clouds 23 1003 33 10000 0.45 0 02:58 24.10.2021
5121 Clouds 25 1006 28 10000 0 0 23:51 23.10.2021
5122 Clouds 24 1007 29 10000 3.13 330 22:40 23.10.2021
5123 Clouds 23 1008 34 10000 4.02 190 20:43 23.10.2021
5124 Clouds 22 1008 36 10000 4.47 230 19:26 23.10.2021
5125 Clouds 21 1007 39 10000 7.15 230 18:43 23.10.2021
5126 Clouds 19 1007 42 10000 4.02 210 17:44 23.10.2021
5127 Clouds 19 1006 43 10000 2.24 200 16:53 23.10.2021
5128 Clouds 19 1006 42 10000 5.36 190 15:20 23.10.2021
5129 Clouds 20 1006 36 10000 6.71 200 13:18 23.10.2021
5130 Clouds 28 1010 14 10000 4.02 180 00:36 23.10.2021
5131 Clouds 26 1011 20 10000 5.36 90 23:28 22.10.2021
5132 Clear 23 1014 27 10000 0.89 0 20:56 22.10.2021
5133 Clouds 21 1015 32 10000 1.58 138 18:57 22.10.2021
5134 Clouds 19 1016 32 10000 0 0 18:20 22.10.2021
5135 Clouds 13 1016 40 10000 1.34 230 16:18 22.10.2021
5136 Clouds 14 1016 37 10000 1.34 210 14:31 22.10.2021
5137 Clouds 14 1017 36 10000 2.24 220 12:41 22.10.2021
5138 Clouds 16 1018 35 10000 0 0 10:50 22.10.2021
5139 Clouds 17 1017 33 10000 0.89 0 09:56 22.10.2021
5140 Clouds 17 1018 33 10000 2.24 230 09:32 22.10.2021
5141 Clouds 18 1019 31 10000 1.34 220 07:28 22.10.2021
5142 Clouds 19 1019 29 10000 1.34 220 06:19 22.10.2021
5143 Clouds 25 1020 22 10000 0 0 00:31 22.10.2021
5144 Clouds 25 1020 22 10000 0 0 23:48 21.10.2021
5145 Clouds 24 1021 23 10000 1.34 60 22:22 21.10.2021
5146 Clear 23 1022 24 10000 0 0 21:18 21.10.2021
5147 Clouds 22 1023 25 10000 0 0 20:21 21.10.2021
5148 Clouds 20 1023 28 10000 0 0 19:30 21.10.2021
5149 Clouds 19 1023 30 10000 0 0 18:52 21.10.2021
5150 Clouds 18 1023 33 10000 0 0 18:27 21.10.2021
5151 Clouds 16 1023 37 10000 1.34 220 17:42 21.10.2021
5152 Clouds 13 1022 41 10000 2.24 200 16:26 21.10.2021
5153 Clouds 13 1022 39 10000 2.24 220 15:21 21.10.2021
5154 Clouds 13 1021 39 10000 0 0 14:50 21.10.2021
5155 Clouds 14 1021 36 10000 1.34 210 13:27 21.10.2021
5156 Clouds 14 1021 36 10000 2.24 230 11:35 21.10.2021
5157 Clouds 15 1021 36 10000 2.06 260 09:24 21.10.2021
5158 Clouds 16 1021 33 10000 1.54 210 07:32 21.10.2021
5159 Clouds 17 1020 31 10000 0 0 05:33 21.10.2021
5160 Clouds 23 1019 25 10000 0.45 0 23:56 20.10.2021
5161 Clouds 22 1021 23 10000 0 0 22:21 20.10.2021
5162 Clouds 21 1022 24 10000 1.34 0 21:45 20.10.2021
5163 Clear 20 1021 28 10000 0.89 0 20:57 20.10.2021
5164 Clear 20 1021 28 10000 0.89 0 20:57 20.10.2021
5165 Clouds 19 1022 26 10000 1.34 0 20:37 20.10.2021
5166 Clouds 20 1021 29 10000 0.89 0 19:59 20.10.2021
5167 Clouds 17 1022 32 10000 0.45 0 18:59 20.10.2021
5168 Clouds 16 1022 31 10000 0 0 18:29 20.10.2021
5169 Clouds 10 1020 37 10000 2.24 220 15:54 20.10.2021
5170 Clouds 11 1019 35 10000 2.68 220 12:50 20.10.2021
5171 Clouds 13 1018 31 10000 1.34 240 09:30 20.10.2021
5172 Clouds 16 1017 27 10000 1.34 120 05:24 20.10.2021
5173 Clouds 21 1016 21 10000 0 0 00:53 20.10.2021
5174 Clouds 21 1016 19 10000 0 0 00:28 20.10.2021
5175 Clouds 20 1017 23 10000 2.24 40 22:21 19.10.2021
5176 Clear 19 1018 24 10000 0 0 21:28 19.10.2021
5177 Clear 18 1018 25 10000 2.24 250 20:26 19.10.2021
5178 Clear 17 1018 27 10000 2.24 70 19:46 19.10.2021
5179 Clear 16 1018 28 10000 2.24 70 19:23 19.10.2021
5180 Clear 14 1017 31 10000 0 0 18:23 19.10.2021
5181 Clear 9 1016 41 10000 1.34 220 16:25 19.10.2021
5182 Clear 9 1016 39 10000 2.68 200 15:25 19.10.2021
5183 Clear 10 1015 37 10000 0 0 14:31 19.10.2021
5184 Clear 10 1015 34 10000 2.24 200 13:49 19.10.2021
5185 Clear 11 1015 35 10000 2.68 230 11:37 19.10.2021
5186 Clear 12 1014 33 10000 2.68 280 10:51 19.10.2021
5187 Clear 12 1013 33 10000 1.34 190 09:35 19.10.2021
5188 Clear 13 1014 33 10000 2.24 180 08:53 19.10.2021
5189 Clouds 17 1009 36 10000 5.81 330 00:28 19.10.2021
5190 Clouds 17 1008 37 10000 0.89 216 23:56 18.10.2021
5191 Clouds 17 1009 35 10000 6.71 310 23:21 18.10.2021
5192 Clouds 17 1008 36 10000 4.02 210 22:55 18.10.2021
5193 Clouds 17 1007 43 10000 0.45 268 21:58 18.10.2021
5194 Clouds 17 1007 43 10000 0.45 268 21:58 18.10.2021
5195 Clouds 18 1008 38 10000 10.28 230 20:46 18.10.2021
5196 Clouds 18 1008 38 10000 10.28 230 20:20 18.10.2021
5197 Clouds 17 1008 40 10000 7.6 210 19:31 18.10.2021
5198 Clear 17 1007 42 10000 0.89 193 18:58 18.10.2021
5199 Clouds 15 1007 36 10000 5.36 210 16:30 18.10.2021
5200 Clouds 16 1006 28 10000 3.13 190 14:33 18.10.2021
5201 Clouds 18 1008 22 10000 4.47 210 11:47 18.10.2021
5202 Clouds 19 1009 20 10000 4.02 170 09:47 18.10.2021
5203 Clouds 21 1009 16 10000 2.24 180 06:39 18.10.2021
5204 Clouds 27 1012 16 10000 3.58 60 23:54 17.10.2021
5205 Smoke 25 1013 18 10000 3.13 60 22:27 17.10.2021
5206 Smoke 25 1015 18 10000 2.24 40 21:44 17.10.2021
5207 Smoke 23 1016 19 10000 2.24 100 20:49 17.10.2021
5208 Clouds 22 1016 21 10000 0.45 148 19:56 17.10.2021
5209 Clouds 21 1016 20 10000 0 0 19:37 17.10.2021
5210 Clouds 20 1016 24 10000 0.45 105 18:28 17.10.2021
5211 Clouds 14 1016 28 10000 2.24 210 16:38 17.10.2021
5212 Clouds 14 1016 27 10000 2.68 270 14:39 17.10.2021
5213 Clouds 14 1015 28 10000 0.89 0 13:59 17.10.2021
5214 Clouds 14 1017 25 10000 2.68 210 13:30 17.10.2021
5215 Clear 15 1017 24 10000 2.68 220 11:27 17.10.2021
5216 Clear 16 1018 21 10000 2.24 200 10:19 17.10.2021
5217 Clear 17 1017 22 10000 2.68 240 08:29 17.10.2021
5218 Clear 23 1017 18 10000 3.6 50 02:57 17.10.2021
5219 Clear 25 1019 13 10000 2.24 30 00:30 17.10.2021
5220 Clear 25 1021 14 10000 4.02 20 22:47 16.10.2021
5221 Clear 22 1023 18 10000 4.02 50 20:36 16.10.2021
5222 Clear 21 1023 22 10000 1.34 228 19:59 16.10.2021
5223 Clear 20 1023 20 10000 1.34 20 19:40 16.10.2021
5224 Clear 20 1023 20 10000 1.34 20 19:18 16.10.2021
5225 Clear 18 1024 22 10000 0 0 18:44 16.10.2021
5226 Clear 18 1024 22 10000 0 0 18:22 16.10.2021
5227 Clear 15 1023 28 10000 2.24 210 17:31 16.10.2021
5228 Clear 11 1023 31 10000 1.34 220 16:18 16.10.2021
5229 Clear 14 1023 25 10000 1.34 0 12:50 16.10.2021
5230 Clear 14 1023 24 10000 4.02 60 11:24 16.10.2021
5231 Clear 15 1022 22 10000 1.75 14 08:58 16.10.2021
5232 Clear 18 1023 20 10000 2.68 20 04:26 16.10.2021
5233 Clear 22 1024 14 10000 4.47 90 00:51 16.10.2021
5234 Clear 22 1024 16 10000 5.81 40 23:26 15.10.2021
5235 Clear 21 1025 18 10000 6.26 50 22:21 15.10.2021
5236 Clear 20 1026 20 10000 4.47 10 21:40 15.10.2021
5237 Clear 19 1027 22 10000 8.94 60 20:54 15.10.2021
5238 Clear 19 1027 22 10000 8.94 60 20:25 15.10.2021
5239 Clear 18 1027 24 10000 6.71 50 19:20 15.10.2021
5240 Clear 16 1027 29 10000 4.02 50 18:22 15.10.2021
5241 Clear 12 1025 33 10000 1.34 360 15:48 15.10.2021
5242 Clear 13 1025 33 10000 0 0 14:22 15.10.2021
5243 Clear 13 1024 35 10000 5.36 70 12:25 15.10.2021
5244 Clear 14 1024 33 10000 6.26 50 11:18 15.10.2021
5245 Clear 15 1023 31 10000 5.81 60 10:28 15.10.2021
5246 Clear 16 1021 30 10000 0 0 07:37 15.10.2021
5247 Clear 18 1019 26 10000 2.24 110 04:46 15.10.2021
5248 Clear 23 1018 19 10000 2.24 0 00:23 15.10.2021
5249 Clear 22 1018 20 10000 2.68 70 23:25 14.10.2021
5250 Clear 21 1019 21 10000 2.24 0 22:20 14.10.2021
5251 Clear 21 1019 22 10000 2.24 0 21:37 14.10.2021
5252 Clear 19 1019 25 10000 2.24 130 20:20 14.10.2021
5253 Clear 18 1019 28 10000 1.34 0 19:46 14.10.2021
5254 Clear 16 1019 31 10000 1.34 90 18:40 14.10.2021
5255 Clear 16 1019 31 10000 1.34 90 18:40 14.10.2021
5256 Clear 10 1017 40 10000 2.68 290 16:59 14.10.2021
5257 Clear 10 1017 40 10000 2.68 290 16:32 14.10.2021
5258 Clear 10 1016 39 10000 1.34 210 14:50 14.10.2021
5259 Clear 10 1016 38 10000 1.34 210 14:26 14.10.2021
5260 Clear 11 1015 37 10000 2.24 210 13:33 14.10.2021
5261 Clear 12 1015 33 10000 1.34 230 11:34 14.10.2021
5262 Clear 12 1014 36 10000 0 0 09:24 14.10.2021
5263 Clear 14 1014 34 10000 1.32 54 06:19 14.10.2021
5264 Clouds 20 1013 25 10000 1.34 0 00:41 14.10.2021
5265 Dust 19 1015 25 10000 2.68 320 22:42 13.10.2021
5266 Dust 18 1016 27 10000 0 0 21:36 13.10.2021
5267 Dust 17 1016 29 10000 1.34 40 20:45 13.10.2021
5268 Dust 15 1016 31 10000 0 0 19:39 13.10.2021
5269 Dust 14 1016 35 10000 0 0 18:47 13.10.2021
5270 Dust 11 1016 42 10000 2.68 300 17:22 13.10.2021
5271 Dust 10 1015 44 10000 2.24 230 14:47 13.10.2021
5272 Dust 10 1015 45 10000 2.24 230 14:25 13.10.2021
5273 Dust 10 1014 43 10000 2.24 160 12:48 13.10.2021
5274 Dust 11 1014 41 10000 2.24 100 11:37 13.10.2021
5275 Dust 11 1014 40 10000 1.34 230 10:18 13.10.2021
5276 Clear 12 1014 38 10000 1.34 180 07:53 13.10.2021
5277 Dust 16 1012 28 10000 3.13 350 03:39 13.10.2021
5278 Dust 18 1011 26 10000 2.24 340 02:21 13.10.2021
5279 Dust 18 1010 26 10000 9.39 360 23:36 12.10.2021
5280 Dust 17 1010 26 10000 8.94 360 22:53 12.10.2021
5281 Dust 17 1010 26 10000 8.94 360 22:34 12.10.2021
5282 Clouds 16 1009 29 10000 8.05 330 20:54 12.10.2021
5283 Dust 15 1009 28 10000 8.05 330 20:31 12.10.2021
5284 Dust 14 1009 29 10000 8.94 340 19:42 12.10.2021
5285 Dust 13 1008 34 10000 5.81 330 18:26 12.10.2021
5286 Dust 11 1007 40 10000 6.26 330 17:21 12.10.2021
5287 Dust 10 1006 44 10000 6.71 330 16:24 12.10.2021
5288 Dust 10 1005 46 10000 7.15 330 15:33 12.10.2021
5289 Dust 10 1003 47 10000 10.28 330 13:46 12.10.2021
5290 Dust 10 1003 48 10000 10.28 330 13:18 12.10.2021
5291 Clouds 9 1001 49 10000 7.15 330 11:30 12.10.2021
5292 Clouds 10 999 48 10000 7.6 330 09:34 12.10.2021
5293 Dust 10 999 53 10000 10.73 350 08:20 12.10.2021
5294 Dust 10 998 49 10000 13.86 330 06:44 12.10.2021
5295 Dust 12 996 44 10000 10.73 320 04:38 12.10.2021
5296 Dust 17 995 28 8047 10.73 260 02:46 12.10.2021
5297 Dust 23 995 19 6437 10.73 220 23:46 11.10.2021
5298 Dust 23 995 19 6437 10.73 220 23:28 11.10.2021
5299 Dust 24 996 18 10000 11.18 230 22:31 11.10.2021
5300 Clouds 24 998 18 10000 8.05 210 21:20 11.10.2021
5301 Clear 22 1000 19 10000 5.36 220 19:48 11.10.2021
5302 Clear 22 1000 19 10000 5.36 220 19:23 11.10.2021
5303 Clouds 20 1002 22 10000 6.26 210 18:23 11.10.2021
5304 Clouds 16 1004 31 10000 4.47 180 16:40 11.10.2021
5305 Clouds 15 1004 31 10000 4.47 180 16:19 11.10.2021
5306 Clouds 14 1005 36 10000 2.68 170 15:40 11.10.2021
5307 Clouds 14 1006 35 10000 2.24 10 14:53 11.10.2021
5308 Clear 14 1007 34 10000 2.24 270 13:51 11.10.2021
5309 Clear 15 1007 35 10000 2.24 270 13:32 11.10.2021
5310 Clear 16 1010 32 10000 2.24 170 10:49 11.10.2021
5311 Clear 17 1011 31 10000 0 0 09:45 11.10.2021
5312 Clear 18 1010 33 10000 0.45 0 07:56 11.10.2021
5313 Clear 25 1014 20 10000 0 0 01:42 11.10.2021
5314 Clear 25 1015 21 10000 1.34 100 00:53 11.10.2021
5315 Clear 25 1015 21 10000 1.34 100 00:31 11.10.2021
5316 Clear 24 1017 23 10000 2.68 80 22:22 10.10.2021
5317 Clear 23 1018 24 10000 5.36 70 21:35 10.10.2021
5318 Clear 23 1019 25 10000 2.68 50 20:48 10.10.2021
5319 Clear 22 1019 25 10000 2.68 50 20:22 10.10.2021
5320 Clear 22 1018 26 10000 1.79 0 19:59 10.10.2021
5321 Clear 22 1019 25 10000 4.02 60 19:38 10.10.2021
5322 Clear 20 1019 27 10000 5.81 350 18:37 10.10.2021
5323 Clear 17 1019 32 10000 7.15 350 17:19 10.10.2021
5324 Clear 16 1018 33 10000 2.24 130 15:47 10.10.2021
5325 Clear 16 1017 32 10000 6.26 340 14:42 10.10.2021
5326 Clear 17 1017 30 10000 7.6 350 13:34 10.10.2021
5327 Clear 17 1017 29 10000 7.6 350 12:40 10.10.2021
5328 Clear 18 1017 28 10000 6.71 340 10:55 10.10.2021
5329 Clear 18 1017 26 10000 4.47 350 09:31 10.10.2021
5330 Clear 18 1017 26 10000 4.47 350 09:31 10.10.2021
5331 Clear 19 1017 25 10000 4.47 330 08:54 10.10.2021
5332 Clear 19 1016 23 10000 4.02 330 07:53 10.10.2021
5333 Clouds 23 1014 21 10000 0 0 03:28 10.10.2021
5334 Clouds 24 1015 23 10000 1.34 190 01:28 10.10.2021
5335 Clouds 24 1015 24 10000 3.13 0 00:33 10.10.2021
5336 Clouds 23 1015 26 10000 5.36 320 23:20 09.10.2021
5337 Clouds 23 1017 29 10000 3.58 40 21:48 09.10.2021
5338 Clouds 23 1017 29 10000 3.58 40 21:29 09.10.2021
5339 Clouds 21 1017 36 10000 2.68 40 19:45 09.10.2021
5340 Clouds 20 1017 38 10000 2.68 40 19:20 09.10.2021
5341 Clouds 19 1016 40 10000 0 0 18:33 09.10.2021
5342 Clouds 16 1016 46 10000 2.68 200 17:21 09.10.2021
5343 Clouds 14 1015 52 10000 4.02 220 16:19 09.10.2021
5344 Clear 14 1014 56 10000 2.24 210 13:46 09.10.2021
5345 Clear 15 1014 55 10000 2.68 240 12:54 09.10.2021
5346 Clear 16 1014 50 10000 2.24 250 11:48 09.10.2021
5347 Clear 16 1014 49 10000 3.13 230 10:42 09.10.2021
5348 Clear 17 1013 46 10000 5.36 200 09:52 09.10.2021
5349 Clear 18 1013 45 10000 5.36 200 08:30 09.10.2021
5350 Clouds 18 1012 42 10000 4.47 200 07:49 09.10.2021
5351 Clouds 20 1012 37 10000 4.02 220 05:29 09.10.2021
5352 Clouds 22 1010 36 10000 0.45 246 02:59 09.10.2021
5353 Clouds 22 1011 36 10000 8.05 230 02:40 09.10.2021
5354 Clouds 23 1012 44 10000 4.02 200 23:51 08.10.2021
5355 Clouds 23 1013 48 10000 4.47 210 22:55 08.10.2021
5356 Clouds 22 1013 51 10000 4.47 210 22:24 08.10.2021
5357 Clouds 20 1014 67 10000 0 0 20:55 08.10.2021
5358 Clouds 19 1013 67 10000 0.45 0 18:59 08.10.2021
5359 Rain 19 1014 62 10000 2.24 180 17:36 08.10.2021
5360 Rain 20 1013 55 10000 3.58 190 16:51 08.10.2021
5361 Clouds 20 1013 55 10000 3.58 190 16:23 08.10.2021
5362 Clear 23 1011 34 10000 2.68 0 13:57 08.10.2021
5363 Clouds 24 1011 32 10000 0.45 214 12:56 08.10.2021
5364 Clouds 23 1012 35 10000 1.34 160 11:32 08.10.2021
5365 Clouds 24 1012 36 10000 2.68 170 10:41 08.10.2021
5366 Clouds 24 1012 39 10000 3.13 190 09:18 08.10.2021
5367 Clouds 28 1014 34 10000 3.13 110 23:55 07.10.2021
5368 Clouds 27 1014 35 10000 3.13 110 23:19 07.10.2021
5369 Clouds 26 1015 37 10000 2.24 70 21:46 07.10.2021
5370 Clouds 26 1015 36 10000 2.24 70 21:23 07.10.2021
5371 Clouds 25 1016 38 10000 0 0 20:20 07.10.2021
5372 Clouds 23 1016 41 10000 0 0 19:29 07.10.2021
5373 Clouds 22 1016 44 10000 0 0 18:22 07.10.2021
5374 Clouds 20 1016 45 10000 0 0 17:18 07.10.2021
5375 Clouds 19 1015 48 10000 1.34 240 15:34 07.10.2021
5376 Clouds 19 1014 46 10000 2.24 280 13:47 07.10.2021
5377 Clouds 20 1014 47 10000 2.24 280 13:28 07.10.2021
5378 Clouds 20 1014 46 10000 1.34 260 12:40 07.10.2021
5379 Clouds 21 1014 43 10000 1.34 250 10:49 07.10.2021
5380 Clouds 21 1014 42 10000 1.34 250 10:19 07.10.2021
5381 Clouds 22 1014 40 10000 0 0 09:32 07.10.2021
5382 Clouds 23 1014 38 10000 1.34 80 08:41 07.10.2021
5383 Clouds 23 1014 37 10000 1.34 210 07:42 07.10.2021
5384 Clouds 23 1013 42 10000 1.93 201 06:59 07.10.2021
5385 Clouds 28 1013 31 10000 3.13 110 02:24 07.10.2021
5386 Clouds 28 1014 34 10000 0 0 23:40 06.10.2021
5387 Clouds 27 1015 36 10000 2.68 40 22:46 06.10.2021
5388 Clouds 26 1016 39 10000 1.34 0 21:49 06.10.2021
5389 Clouds 25 1017 42 10000 2.24 0 20:35 06.10.2021
5390 Clouds 23 1017 46 10000 1.34 350 19:48 06.10.2021
5391 Clouds 22 1017 50 10000 0 0 18:39 06.10.2021
5392 Clouds 18 1017 59 10000 0 0 16:55 06.10.2021
5393 Clouds 17 1017 61 10000 0 0 15:26 06.10.2021
5394 Clouds 18 1016 57 10000 1.34 210 13:54 06.10.2021
5395 Clear 18 1016 52 10000 3.6 40 12:57 06.10.2021
5396 Clouds 18 1016 55 10000 2.24 220 12:39 06.10.2021
5397 Clouds 18 1016 56 10000 2.24 220 12:20 06.10.2021
5398 Clouds 20 1013 50 10000 1.18 81 09:59 06.10.2021
5399 Clouds 20 1016 52 10000 0 0 09:38 06.10.2021
5400 Clouds 20 1016 52 10000 0 0 08:42 06.10.2021
5401 Clouds 20 1016 49 10000 1.34 50 07:20 06.10.2021
5402 Clouds 22 1015 43 10000 3.58 80 05:26 06.10.2021
5403 Clouds 26 1014 38 10000 3.58 90 00:26 06.10.2021
5404 Clouds 27 1015 39 10000 0.89 69 23:57 05.10.2021
5405 Clouds 26 1015 39 10000 2.06 0 23:38 05.10.2021
5406 Clouds 26 1015 39 10000 2.06 0 23:19 05.10.2021
5407 Clouds 26 1016 39 10000 3.09 190 22:27 05.10.2021
5408 Clouds 26 1017 42 10000 2.06 180 21:44 05.10.2021
5409 Clouds 25 1016 43 10000 4.02 180 20:41 05.10.2021
5410 Clouds 25 1016 42 10000 4.02 180 20:23 05.10.2021
5411 Clouds 24 1017 48 10000 4.12 250 19:42 05.10.2021
5412 Rain 23 1016 46 10000 6.26 210 18:49 05.10.2021
5413 Clouds 22 1015 39 10000 2.24 210 16:36 05.10.2021
5414 Clouds 22 1014 31 10000 1.34 210 14:34 05.10.2021
5415 Clouds 22 1014 28 10000 1.34 270 13:33 05.10.2021
5416 Clouds 23 1014 28 10000 0 0 12:38 05.10.2021
5417 Clouds 23 1014 32 10000 0.56 265 11:59 05.10.2021
5418 Clouds 23 1015 27 10000 1.34 230 10:44 05.10.2021
5419 Clear 24 1014 26 10000 2.06 40 08:56 05.10.2021
5420 Clouds 27 1014 26 10000 0 0 03:56 05.10.2021
5421 Clouds 30 1016 20 10000 0 0 23:53 04.10.2021
5422 Clouds 30 1017 24 10000 0.45 115 21:59 04.10.2021
5423 Clouds 27 1018 22 10000 1.34 50 19:34 04.10.2021
5424 Clouds 25 1018 26 10000 0 0 18:26 04.10.2021
5425 Clouds 20 1017 30 10000 0 0 16:23 04.10.2021
5426 Clouds 21 1017 29 10000 2.24 210 15:31 04.10.2021
5427 Clouds 21 1017 29 10000 2.24 210 15:31 04.10.2021
5428 Clouds 21 1016 28 10000 2.24 210 14:42 04.10.2021
5429 Clouds 21 1016 27 10000 0 0 13:48 04.10.2021
5430 Clouds 21 1016 27 10000 0 0 13:24 04.10.2021
5431 Clouds 22 1016 25 10000 2.24 240 11:35 04.10.2021
5432 Clear 23 1016 24 10000 1.34 210 10:48 04.10.2021
5433 Clear 24 1013 27 10000 0.97 300 09:58 04.10.2021
5434 Clear 24 1016 24 10000 2.24 260 08:39 04.10.2021
5435 Clear 25 1015 24 10000 2.06 360 06:56 04.10.2021
5436 Clouds 33 1015 15 10000 2.68 70 00:28 04.10.2021
5437 Clouds 31 1017 15 10000 0 0 22:34 03.10.2021
5438 Clouds 30 1018 16 10000 2.24 0 21:38 03.10.2021
5439 Clouds 29 1019 17 10000 1.34 30 20:55 03.10.2021
5440 Clear 28 1019 20 10000 0 0 19:56 03.10.2021
5441 Clear 25 1019 21 10000 0 0 18:33 03.10.2021
5442 Clear 23 1019 25 10000 0 0 17:43 03.10.2021
5443 Clear 19 1018 26 10000 0 0 15:51 03.10.2021
5444 Clear 20 1017 24 10000 2.68 210 14:45 03.10.2021
5445 Clear 20 1017 27 10000 0 0 13:57 03.10.2021
5446 Clear 21 1017 23 10000 0 0 13:20 03.10.2021
5447 Clear 21 1017 23 10000 2.68 220 12:24 03.10.2021
5448 Clear 22 1017 23 10000 0 0 10:35 03.10.2021
5449 Clear 23 1017 22 10000 2.24 210 08:33 03.10.2021
5450 Clouds 31 1017 15 10000 0 0 00:41 03.10.2021
5451 Clouds 29 1019 16 10000 2.24 300 22:33 02.10.2021
5452 Clouds 28 1021 17 10000 1.34 20 20:55 02.10.2021
5453 Clear 25 1020 22 10000 0.9 63 18:59 02.10.2021
5454 Clouds 23 1020 21 10000 0 0 18:31 02.10.2021
5455 Clouds 20 1020 26 10000 0 0 17:38 02.10.2021
5456 Clouds 18 1020 23 10000 1.34 230 16:46 02.10.2021
5457 Clear 17 1019 24 10000 2.24 210 14:42 02.10.2021
5458 Clear 18 1018 20 10000 6.26 10 15:41 30.09.2021
5459 Clear 18 1017 20 10000 3.13 90 14:42 30.09.2021
5460 Clear 18 1017 21 10000 2.24 210 12:22 30.09.2021
5461 Clear 19 1017 21 10000 0 0 11:29 30.09.2021
5462 Clear 19 1017 22 10000 0 0 10:26 30.09.2021
5463 Clear 20 1016 21 10000 5.81 40 08:54 30.09.2021
5464 Clear 21 1016 19 10000 5.81 40 08:22 30.09.2021
5465 Clouds 23 1014 13 10000 3.58 20 05:50 30.09.2021
5466 Clouds 27 1012 10 10000 7.15 10 02:33 30.09.2021
5467 Clouds 27 1013 12 10000 3.58 50 00:37 30.09.2021
5468 Clouds 27 1012 16 10000 1.34 131 22:59 29.09.2021
5469 Clouds 26 1014 16 10000 6.26 360 21:54 29.09.2021
5470 Clouds 24 1015 17 10000 4.47 60 20:40 29.09.2021
5471 Clouds 24 1015 18 10000 4.47 60 20:20 29.09.2021
5472 Clouds 23 1014 18 10000 7.15 20 19:24 29.09.2021
5473 Clouds 21 1014 20 10000 8.05 10 18:18 29.09.2021
5474 Clear 20 1012 22 10000 4.92 0 16:56 29.09.2021
5475 Smoke 20 1012 20 10000 6.71 360 16:28 29.09.2021
5476 Smoke 20 1012 21 10000 7.2 30 15:35 29.09.2021
5477 Smoke 20 1012 20 10000 9.26 30 14:37 29.09.2021
5478 Smoke 21 1010 23 10000 6.17 40 13:33 29.09.2021
5479 Smoke 21 1010 22 10000 7.2 10 12:39 29.09.2021
5480 Smoke 22 1009 23 10000 4.12 360 11:23 29.09.2021
5481 Smoke 22 1009 26 10000 2.24 190 10:31 29.09.2021
5482 Haze 23 1009 29 10000 0 0 09:42 29.09.2021
5483 Smoke 24 1007 26 10000 3.58 180 07:52 29.09.2021
5484 Smoke 25 1006 26 10000 4.02 220 06:46 29.09.2021
5485 Smoke 31 1005 18 10000 8.05 220 00:28 29.09.2021
5486 Smoke 30 1006 20 10000 6.71 180 22:26 28.09.2021
5487 Smoke 30 1007 21 10000 4.47 210 21:54 28.09.2021
5488 Smoke 30 1007 21 10000 4.47 210 21:19 28.09.2021
5489 Haze 28 1008 26 10000 5.14 210 19:49 28.09.2021
5490 Smoke 27 1008 27 10000 5.14 210 19:27 28.09.2021
5491 Haze 25 1008 31 10000 5.36 180 18:41 28.09.2021
5492 Smoke 25 1008 31 10000 5.36 180 18:40 28.09.2021
5493 Smoke 23 1007 35 10000 6.17 180 16:43 28.09.2021
5494 Smoke 23 1008 37 10000 4.63 170 15:19 28.09.2021
5495 Smoke 24 1008 35 10000 5.81 200 13:25 28.09.2021
5496 Smoke 25 1008 34 10000 5.36 190 12:24 28.09.2021
5497 Smoke 25 1008 35 10000 6.26 190 11:47 28.09.2021
5498 Smoke 25 1008 35 10000 6.17 190 11:25 28.09.2021
5499 Smoke 26 1008 33 10000 3.58 180 10:27 28.09.2021
5500 Smoke 26 1009 36 10000 4.02 170 09:29 28.09.2021
5501 Smoke 27 1009 36 10000 4.47 190 08:43 28.09.2021
5502 Smoke 27 1009 34 10000 3.58 200 07:55 28.09.2021
5503 Smoke 28 1008 30 10000 3.58 200 06:25 28.09.2021
5504 Clouds 33 1009 30 10000 3.13 140 01:35 28.09.2021
5505 Clouds 33 1010 30 10000 3.58 110 00:30 28.09.2021
5506 Clouds 32 1011 32 10000 0 0 23:49 27.09.2021
5507 Clouds 32 1011 32 10000 0 0 23:24 27.09.2021
5508 Clouds 31 1013 36 10000 0 0 22:20 27.09.2021
5509 Clouds 29 1014 41 10000 3.13 60 20:54 27.09.2021
5510 Clouds 28 1014 42 10000 3.13 60 20:26 27.09.2021
5511 Clear 27 1015 47 10000 2.24 160 19:37 27.09.2021
5512 Clouds 25 1015 51 10000 0 0 18:52 27.09.2021
5513 Clouds 24 1014 55 10000 0 0 17:41 27.09.2021
5514 Clear 23 1013 58 10000 0.89 0 16:56 27.09.2021
5515 Clouds 22 1013 59 10000 0 0 16:34 27.09.2021
5516 Clear 22 1013 59 10000 1.34 360 15:37 27.09.2021
5517 Clear 23 1013 57 10000 3.13 320 13:49 27.09.2021
5518 Clear 23 1012 55 10000 2.57 300 12:22 27.09.2021
5519 Clear 25 1012 50 10000 3.58 290 10:48 27.09.2021
5520 Clouds 26 1012 46 10000 2.68 290 09:40 27.09.2021
5521 Clouds 28 1012 37 10000 2.24 270 07:44 27.09.2021
5522 Clouds 32 1010 26 10000 3.58 80 03:34 27.09.2021
5523 Clouds 33 1012 25 10000 3.13 110 23:49 26.09.2021
5524 Clear 32 1011 31 10000 0.45 0 21:57 26.09.2021
5525 Clouds 31 1014 29 10000 0 0 21:27 26.09.2021
5526 Clouds 30 1015 32 10000 0 0 20:25 26.09.2021
5527 Clouds 29 1015 34 10000 1.34 360 19:54 26.09.2021
5528 Clouds 29 1015 35 10000 1.34 360 19:25 26.09.2021
5529 Clouds 29 1015 35 10000 1.34 360 19:25 26.09.2021
5530 Clouds 29 1015 35 10000 1.34 360 19:25 26.09.2021
5531 Clouds 29 1015 35 10000 1.34 360 19:25 26.09.2021
5532 Clouds 29 1015 35 10000 1.34 360 19:25 26.09.2021
5533 Clouds 29 1015 35 10000 1.34 360 19:25 26.09.2021
5534 Clouds 27 1015 39 10000 1.34 0 18:41 26.09.2021
5535 Clouds 25 1015 44 10000 1.34 300 17:38 26.09.2021
5536 Clouds 25 1015 44 10000 1.34 300 17:20 26.09.2021
5537 Clouds 23 1014 44 10000 3.13 300 16:22 26.09.2021
5538 Clouds 23 1014 43 10000 2.24 290 15:27 26.09.2021
5539 Clouds 23 1013 45 10000 2.24 290 14:20 26.09.2021
5540 Clouds 24 1013 44 10000 0 0 13:42 26.09.2021
5541 Clouds 25 1013 42 10000 2.24 290 12:31 26.09.2021
5542 Clouds 25 1012 43 10000 0.89 0 11:56 26.09.2021
5543 Clouds 25 1013 39 10000 2.24 290 11:23 26.09.2021
5544 Clouds 26 1013 37 10000 3.58 220 09:50 26.09.2021
5545 Clouds 27 1014 35 10000 4.02 200 08:41 26.09.2021
5546 Clouds 34 1013 23 10000 0 0 00:29 26.09.2021
5547 Clouds 34 1014 22 10000 3.58 80 23:46 25.09.2021
5548 Clouds 32 1015 24 10000 3.13 110 22:39 25.09.2021
5549 Clouds 32 1015 24 10000 3.13 110 22:19 25.09.2021
5550 Clouds 32 1016 27 10000 2.68 0 21:45 25.09.2021
5551 Clouds 30 1017 29 10000 1.34 60 20:52 25.09.2021
5552 Clouds 28 1017 33 10000 1.34 100 19:40 25.09.2021
5553 Clouds 26 1017 35 10000 0 0 18:28 25.09.2021
5554 Clouds 24 1016 36 10000 0 0 17:23 25.09.2021
5555 Clear 22 1014 33 10000 1.34 300 14:38 25.09.2021
5556 Clear 23 1014 31 10000 2.68 220 13:55 25.09.2021
5557 Clear 23 1014 29 10000 0 0 12:45 25.09.2021
5558 Clear 24 1014 27 10000 2.24 230 11:27 25.09.2021
5559 Clear 25 1015 25 10000 2.24 210 10:18 25.09.2021
5560 Clear 26 1014 23 10000 0 0 08:55 25.09.2021
5561 Clear 27 1014 24 10000 2.68 240 07:47 25.09.2021
5562 Clouds 34 1013 18 10000 2.24 90 00:52 25.09.2021
5563 Clouds 33 1015 17 10000 3.58 50 22:18 24.09.2021
5564 Clouds 32 1016 17 10000 2.24 60 21:32 24.09.2021
5565 Clouds 31 1016 17 10000 3.58 40 20:32 24.09.2021
5566 Clouds 30 1017 19 10000 0 0 19:29 24.09.2021
5567 Clouds 28 1017 21 10000 0 0 18:18 24.09.2021
5568 Clouds 26 1017 26 10000 1.34 0 17:42 24.09.2021
5569 Clouds 25 1017 27 10000 1.34 0 17:23 24.09.2021
5570 Clouds 23 1016 28 10000 0 0 15:38 24.09.2021
5571 Clouds 25 1015 26 10000 3.13 10 13:21 24.09.2021
5572 Clouds 25 1015 26 10000 3.13 10 13:21 24.09.2021
5573 Smoke 25 1015 27 10000 5.81 30 12:43 24.09.2021
5574 Smoke 26 1015 26 10000 5.81 30 12:25 24.09.2021
5575 Smoke 26 1014 27 10000 1.54 80 10:49 24.09.2021
5576 Clear 28 1010 28 10000 2.27 266 08:59 24.09.2021
5577 Clear 28 1012 26 10000 4.63 190 07:57 24.09.2021
5578 Clear 28 1009 27 10000 1.54 217 06:59 24.09.2021
5579 Clouds 30 1011 24 10000 1.54 180 05:57 24.09.2021
5580 Smoke 35 1011 18 10000 2.06 100 02:29 24.09.2021
5581 Smoke 34 1014 18 10000 2.06 30 22:37 23.09.2021
5582 Clear 34 1010 21 10000 1.38 115 21:58 23.09.2021
5583 Smoke 32 1015 19 10000 0 0 20:52 23.09.2021
5584 Haze 32 1015 18 10000 0 0 20:27 23.09.2021
5585 Haze 28 1015 23 10000 2.06 30 18:27 23.09.2021
5586 Clouds 24 1013 28 10000 1.54 310 15:37 23.09.2021
5587 Clouds 24 1013 28 10000 1.54 310 15:19 23.09.2021
5588 Clouds 25 1013 28 10000 2.06 210 14:24 23.09.2021
5589 Clouds 25 1014 27 10000 1.54 250 13:26 23.09.2021
5590 Clouds 25 1014 27 10000 1.54 220 12:54 23.09.2021
5591 Clouds 25 1014 27 10000 1.54 220 12:24 23.09.2021
5592 Clear 26 1013 26 10000 0 0 11:56 23.09.2021
5593 Clear 26 1014 22 10000 2.06 190 10:29 23.09.2021
5594 Clear 26 1014 22 10000 1.54 220 09:53 23.09.2021
5595 Clear 27 1014 19 10000 2.06 250 08:42 23.09.2021
5596 Clouds 31 1015 16 10000 2.06 230 05:29 23.09.2021
5597 Clear 35 1018 12 10000 2.06 40 23:48 22.09.2021
5598 Clear 33 1020 12 10000 1.54 0 22:44 22.09.2021
5599 Clear 33 1020 12 10000 1.54 0 22:18 22.09.2021
5600 Clear 32 1021 13 10000 1.54 60 21:41 22.09.2021
5601 Clear 32 1017 17 10000 1.47 95 20:57 22.09.2021
5602 Clear 30 1023 16 10000 1.54 80 19:34 22.09.2021
5603 Clear 28 1023 18 10000 0 0 18:46 22.09.2021
5604 Clear 27 1023 19 10000 0 0 18:22 22.09.2021
5605 Clear 22 1019 20 10000 0.66 21 16:41 22.09.2021
5606 Clear 21 1022 20 10000 3.09 300 15:38 22.09.2021
5607 Clear 21 1022 18 10000 2.57 210 14:25 22.09.2021
5608 Clear 22 1022 18 10000 2.06 210 12:20 22.09.2021
5609 Clear 23 1021 19 10000 0 0 10:57 22.09.2021
5610 Clear 24 1022 17 10000 2.06 220 09:29 22.09.2021
5611 Clear 24 1022 17 10000 2.06 220 09:29 22.09.2021
5612 Clear 25 1022 17 10000 2.06 240 08:31 22.09.2021
5613 Clear 25 1022 16 10000 2.57 270 07:30 22.09.2021
5614 Clear 26 1022 16 10000 2.57 260 06:19 22.09.2021
5615 Clear 27 1022 14 10000 2.57 170 05:38 22.09.2021
5616 Clear 31 1021 13 10000 2.06 340 03:52 22.09.2021
5617 Clear 32 1022 11 10000 2.57 0 02:43 22.09.2021
5618 Clear 31 1023 12 10000 4.63 40 23:30 21.09.2021
5619 Clear 30 1024 13 10000 4.63 50 21:38 21.09.2021
5620 Clear 29 1023 17 10000 1.34 0 20:27 21.09.2021
5621 Clear 27 1023 22 10000 0.45 0 19:23 21.09.2021
5622 Clear 24 1023 23 10000 0.89 0 17:49 21.09.2021
5623 Clear 20 1025 24 10000 2.06 210 16:38 21.09.2021
5624 Clear 19 1024 24 10000 2.06 230 15:52 21.09.2021
5625 Clear 19 1021 27 10000 1.47 24 14:58 21.09.2021
5626 Clear 19 1020 28 10000 6.69 30 13:57 21.09.2021
5627 Clear 20 1022 25 10000 1.54 150 13:39 21.09.2021
5628 Clear 20 1021 23 10000 0 0 12:40 21.09.2021
5629 Clear 23 1021 17 10000 2.06 170 10:33 21.09.2021
5630 Clear 25 1020 14 10000 3.09 70 08:40 21.09.2021
5631 Clear 26 1020 15 10000 5.66 40 07:20 21.09.2021
5632 Clouds 30 1018 12 10000 4.63 60 00:48 21.09.2021
5633 Clouds 28 1019 14 10000 5.14 80 22:37 20.09.2021
5634 Clouds 28 1019 14 10000 5.66 40 21:41 20.09.2021
5635 Smoke 27 1020 17 10000 6.17 60 20:55 20.09.2021
5636 Smoke 27 1018 20 10000 2.57 40 19:33 20.09.2021
5637 Smoke 24 1017 22 10000 5.14 60 17:52 20.09.2021
5638 Clear 23 1016 25 10000 6.69 30 16:50 20.09.2021
5639 Clear 22 1014 26 10000 4.47 0 15:56 20.09.2021
5640 Clear 23 1015 23 10000 7.2 60 15:32 20.09.2021
5641 Haze 24 1014 23 10000 3.6 70 14:25 20.09.2021
5642 Clear 24 1012 26 10000 2.06 160 12:39 20.09.2021
5643 Clear 24 1012 25 10000 2.06 160 12:20 20.09.2021
5644 Clear 25 1011 24 10000 3.6 190 10:32 20.09.2021
5645 Clear 26 1011 23 10000 4.63 200 09:43 20.09.2021
5646 Clear 26 1011 22 10000 4.63 200 09:20 20.09.2021
5647 Clear 27 1010 22 10000 3.6 190 08:27 20.09.2021
5648 Clear 33 1007 15 10000 6.17 220 02:27 20.09.2021
5649 Clear 34 1009 11 10000 8.75 240 22:46 19.09.2021
5650 Clear 33 1010 11 10000 6.17 210 21:45 19.09.2021
5651 Smoke 32 1011 12 10000 5.14 210 20:53 19.09.2021
5652 Smoke 31 1012 13 10000 5.66 190 19:32 19.09.2021
5653 Smoke 29 1012 16 10000 5.66 220 18:32 19.09.2021
5654 Smoke 25 1011 20 10000 4.63 210 17:23 19.09.2021
5655 Smoke 22 1011 20 10000 5.14 190 16:32 19.09.2021
5656 Smoke 22 1011 20 10000 4.12 190 15:31 19.09.2021
5657 Smoke 23 1011 19 10000 4.12 200 14:48 19.09.2021
5658 Smoke 24 1011 18 10000 3.6 190 13:29 19.09.2021
5659 Smoke 24 1012 17 10000 3.6 220 12:52 19.09.2021
5660 Smoke 25 1012 15 10000 4.12 210 11:29 19.09.2021
5661 Clear 25 1010 17 10000 2.24 0 10:56 19.09.2021
5662 Clear 25 1013 15 10000 2.57 200 09:49 19.09.2021
5663 Clear 26 1012 13 10000 2.57 230 08:41 19.09.2021
5664 Smoke 28 1012 14 10000 1.54 200 06:42 19.09.2021
5665 Clouds 34 1013 16 10000 4.12 250 23:53 18.09.2021
5666 Clouds 33 1014 20 10000 7.2 260 22:51 18.09.2021
5667 Clouds 32 1014 29 10000 5.14 70 20:58 18.09.2021
5668 Clouds 32 1016 29 10000 5.14 70 20:38 18.09.2021
5669 Clouds 30 1016 32 10000 4.63 60 19:40 18.09.2021
5670 Clouds 30 1016 32 10000 4.63 60 19:21 18.09.2021
5671 Clouds 29 1015 33 10000 0 0 18:37 18.09.2021
5672 Clouds 28 1015 36 10000 0 0 17:45 18.09.2021
5673 Clouds 24 1015 41 10000 0 0 16:24 18.09.2021
5674 Clouds 25 1014 37 10000 0 0 13:49 18.09.2021
5675 Clouds 25 1014 37 10000 0 0 13:29 18.09.2021
5676 Clouds 25 1014 37 10000 2.57 200 12:50 18.09.2021
5677 Clouds 26 1015 36 10000 0 0 11:42 18.09.2021
5678 Clouds 27 1015 34 10000 1.54 290 10:33 18.09.2021
5679 Clouds 27 1015 33 10000 1.54 260 09:48 18.09.2021
5680 Clouds 27 1015 33 10000 1.54 260 09:19 18.09.2021
5681 Clouds 28 1011 33 10000 4.07 196 05:51 18.09.2021
5682 Clouds 33 1010 28 10000 3.52 181 00:42 18.09.2021
5683 Clouds 33 1011 28 10000 3.2 170 23:50 17.09.2021
5684 Clouds 31 1011 33 10000 2.34 163 22:38 17.09.2021
5685 Clouds 31 1012 33 10000 2.71 171 22:19 17.09.2021
5686 Clouds 29 1017 31 10000 1.54 170 21:23 17.09.2021
5687 Clouds 29 1017 20 10000 2.06 200 19:23 17.09.2021
5688 Clouds 26 1015 18 10000 1.54 290 17:25 17.09.2021
5689 Clouds 23 1014 18 10000 0 0 16:27 17.09.2021
5690 Clear 23 1012 18 10000 2.06 290 14:23 17.09.2021
5691 Clear 24 1011 15 10000 1.54 210 10:53 17.09.2021
5692 Clear 28 1010 13 10000 3.09 220 08:52 17.09.2021
5693 Clear 29 1009 13 10000 2.06 210 07:19 17.09.2021
5694 Smoke 34 1007 10 10000 6.17 240 03:54 17.09.2021
5695 Clear 37 1008 10 10000 5.14 240 23:25 16.09.2021
5696 Clear 37 1009 10 10000 5.66 210 22:25 16.09.2021
5697 Clear 36 1009 12 10000 4.12 190 21:43 16.09.2021
5698 Clear 35 1009 11 10000 4.12 190 21:22 16.09.2021
5699 Clear 34 1010 13 10000 4.63 200 20:18 16.09.2021
5700 Clear 29 1010 16 10000 4.63 190 18:20 16.09.2021
5701 Clear 27 1009 18 10000 4.12 210 17:33 16.09.2021
5702 Clear 23 1007 20 10000 3.09 50 14:56 16.09.2021
5703 Clear 23 1008 18 10000 0 0 13:56 16.09.2021
5704 Clear 25 1008 16 10000 5.66 200 12:49 16.09.2021
5705 Clear 26 1008 16 10000 5.66 200 12:28 16.09.2021
5706 Clear 27 1008 15 10000 4.12 200 11:25 16.09.2021
5707 Clear 27 1008 14 10000 2.57 190 10:33 16.09.2021
5708 Clear 28 1008 13 10000 3.6 190 09:53 16.09.2021
5709 Clear 29 1008 13 10000 3.09 190 08:42 16.09.2021
5710 Clear 30 1009 12 10000 2.06 210 07:22 16.09.2021
5711 Clear 31 1009 12 10000 3.6 180 06:43 16.09.2021
5712 Clear 34 1008 13 10000 3.6 200 04:55 16.09.2021
5713 Clear 38 1008 12 10000 4.63 100 01:27 16.09.2021
5714 Clear 38 1010 12 10000 5.14 70 23:37 15.09.2021
5715 Clear 37 1012 11 10000 3.09 90 22:47 15.09.2021
5716 Clear 36 1013 12 10000 2.06 20 21:44 15.09.2021
5717 Clear 35 1013 12 10000 2.06 20 21:25 15.09.2021
5718 Clear 33 1014 13 10000 2.57 80 19:52 15.09.2021
5719 Clear 32 1014 14 10000 2.57 80 19:19 15.09.2021
5720 Clear 29 1013 17 10000 2.57 270 17:49 15.09.2021
5721 Clear 26 1013 17 10000 1.54 230 16:54 15.09.2021
5722 Clear 24 1012 18 10000 1.54 220 15:33 15.09.2021
5723 Clear 25 1012 18 10000 2.06 230 14:44 15.09.2021
5724 Clear 26 1012 17 10000 0 0 13:51 15.09.2021
5725 Clear 26 1012 16 10000 0 0 13:29 15.09.2021
5726 Clear 27 1012 15 10000 0 0 12:42 15.09.2021
5727 Clear 27 1012 16 10000 2.06 190 11:51 15.09.2021
5728 Clear 27 1012 16 10000 2.06 190 11:19 15.09.2021
5729 Clear 28 1011 15 10000 2.06 200 10:50 15.09.2021
5730 Clear 29 1011 15 10000 3.09 220 09:26 15.09.2021
5731 Clear 31 1011 14 10000 2.06 220 07:43 15.09.2021
5732 Clear 35 1010 12 10000 1.54 110 04:24 15.09.2021
5733 Clouds 38 1012 13 10000 1.54 150 22:56 14.09.2021
5734 Clear 37 1014 10 10000 1.54 20 21:38 14.09.2021
5735 Clear 36 1014 12 10000 2.06 360 20:27 14.09.2021
5736 Clear 35 1014 12 10000 1.54 50 19:41 14.09.2021
5737 Clear 29 1014 16 10000 0 0 17:34 14.09.2021
5738 Clear 29 1012 18 10000 0 0 16:56 14.09.2021
5739 Clear 26 1012 16 10000 1.54 290 15:28 14.09.2021
5740 Clear 27 1011 16 10000 1.54 260 14:31 14.09.2021
5741 Clear 29 1011 14 10000 3.6 200 11:51 14.09.2021
5742 Clear 30 1011 13 10000 3.6 210 10:53 14.09.2021
5743 Clear 31 1010 13 10000 3.6 200 09:50 14.09.2021
5744 Clear 31 1010 15 10000 4.12 240 08:36 14.09.2021
5745 Clear 33 1009 15 10000 4.12 240 06:22 14.09.2021
5746 Clouds 40 1011 12 10000 7.2 230 23:54 13.09.2021
5747 Clouds 39 1011 11 10000 7.2 250 22:30 13.09.2021
5748 Clouds 39 1009 15 10000 8.75 220 21:59 13.09.2021
5749 Clouds 39 1012 10 10000 8.75 220 21:40 13.09.2021
5750 Smoke 35 1013 15 10000 2.06 0 19:48 13.09.2021
5751 Smoke 33 1012 17 10000 0 0 18:45 13.09.2021
5752 Smoke 33 1012 17 10000 0 0 18:45 13.09.2021
5753 Smoke 31 1013 19 10000 0 0 17:41 13.09.2021
5754 Smoke 28 1012 21 10000 0 0 16:50 13.09.2021
5755 Clear 27 1011 23 10000 1.54 60 14:56 13.09.2021
5756 Clear 27 1011 23 10000 1.54 60 14:56 13.09.2021
5757 Clear 29 1011 21 10000 2.06 210 11:52 13.09.2021
5758 Clear 30 1009 21 10000 0.45 202 10:58 13.09.2021
5759 Clear 31 1010 20 10000 3.6 200 08:55 13.09.2021
5760 Clouds 40 1010 12 10000 6.69 250 01:24 13.09.2021
5761 Clouds 39 1012 14 10000 3.6 200 22:55 12.09.2021
5762 Clouds 39 1012 15 10000 2.06 0 22:24 12.09.2021
5763 Clouds 38 1013 17 10000 4.63 100 21:23 12.09.2021
5764 Clouds 36 1014 21 10000 2.57 120 20:19 12.09.2021
5765 Clouds 35 1015 22 10000 2.06 0 19:49 12.09.2021
5766 Clouds 34 1015 23 10000 2.06 0 19:18 12.09.2021
5767 Clouds 32 1014 24 10000 1.54 0 18:18 12.09.2021
5768 Clear 28 1012 31 10000 0.81 221 15:58 12.09.2021
5769 Clear 28 1014 29 10000 1.54 190 14:47 12.09.2021
5770 Clear 28 1013 30 10000 0 0 12:45 12.09.2021
5771 Clear 30 1013 29 10000 3.09 240 10:33 12.09.2021
5772 Clear 30 1012 28 10000 2.57 240 08:39 12.09.2021
5773 Clear 32 1012 27 10000 2.06 230 07:33 12.09.2021
5774 Clouds 39 1012 17 10000 4.63 200 00:47 12.09.2021
5775 Clouds 39 1012 17 10000 4.63 200 00:47 12.09.2021
5776 Clouds 39 1012 20 10000 0.45 221 22:58 11.09.2021
5777 Clouds 38 1015 21 10000 3.6 190 21:39 11.09.2021
5778 Clouds 34 1016 26 10000 3.09 180 19:41 11.09.2021
5779 Clouds 32 1016 30 10000 3.6 180 18:28 11.09.2021
5780 Clouds 30 1015 34 10000 4.12 190 17:28 11.09.2021
5781 Clouds 27 1014 38 10000 3.09 210 15:36 11.09.2021
5782 Clouds 28 1014 35 10000 2.06 210 13:25 11.09.2021
5783 Clouds 29 1013 34 10000 3.09 190 11:44 11.09.2021
5784 Clouds 30 1013 30 10000 2.06 180 10:35 11.09.2021
5785 Clouds 32 1013 30 10000 2.06 210 08:51 11.09.2021
5786 Clouds 32 1013 29 10000 2.06 210 07:43 11.09.2021
5787 Clouds 35 1012 24 10000 3.09 210 04:23 11.09.2021
5788 Thunderstorm 37 1014 24 10000 4.63 130 22:43 10.09.2021
5789 Thunderstorm 38 1015 23 10000 3.6 100 21:57 10.09.2021
5790 Thunderstorm 38 1013 23 10000 3.6 100 21:38 10.09.2021
5791 Clouds 35 1015 26 10000 0 0 19:31 10.09.2021
5792 Clear 33 1014 30 10000 0.45 0 17:56 10.09.2021
5793 Clouds 29 1015 35 10000 2.06 280 16:27 10.09.2021
5794 Clouds 29 1012 33 10000 1.54 200 13:26 10.09.2021
5795 Clouds 30 1012 32 10000 1.54 240 10:32 10.09.2021
5796 Clouds 33 1012 27 10000 2.57 190 07:52 10.09.2021
5797 Clouds 34 1012 24 10000 2.06 210 06:37 10.09.2021
5798 Clouds 41 1009 21 10000 0.89 75 23:59 09.09.2021
5799 Clouds 40 1013 20 10000 3.6 100 21:48 09.09.2021
5800 Clouds 38 1014 24 10000 1.54 0 20:48 09.09.2021
5801 Clouds 38 1014 24 10000 1.54 0 20:26 09.09.2021
5802 Clouds 34 1015 32 10000 0 0 18:41 09.09.2021
5803 Clouds 32 1014 33 10000 0 0 17:41 09.09.2021
5804 Clouds 29 1014 38 10000 0 0 16:27 09.09.2021
5805 Clouds 30 1014 34 10000 1.54 270 13:38 09.09.2021
5806 Clear 31 1013 34 10000 2.57 10 11:57 09.09.2021
5807 Clouds 31 1012 33 10000 2.57 200 11:22 09.09.2021
5808 Clouds 32 1012 31 10000 0 0 09:34 09.09.2021
5809 Clouds 32 1014 30 10000 0 0 09:34 09.09.2021
5810 Clouds 35 1012 26 10000 2.06 210 07:34 09.09.2021
5811 Clouds 37 1010 18 10000 2.06 100 04:47 09.09.2021
5812 Clear 40 1011 16 10000 3.09 20 22:58 08.09.2021
5813 Clear 39 1013 14 10000 2.06 40 21:47 08.09.2021
5814 Clear 38 1014 14 10000 0 0 20:37 08.09.2021
5815 Clear 37 1014 14 10000 1.54 50 19:44 08.09.2021
5816 Clear 34 1013 17 10000 0 0 18:34 08.09.2021
5817 Clear 36 1010 13 10000 1.39 75 17:58 08.09.2021
5818 Clear 31 1014 17 10000 1.54 200 17:39 08.09.2021
5819 Clear 29 1013 20 10000 2.06 240 14:50 08.09.2021
5820 Clear 29 1013 19 10000 2.57 210 13:25 08.09.2021
5821 Clear 30 1012 19 10000 2.57 270 12:41 08.09.2021
5822 Clear 30 1012 18 10000 2.57 270 12:21 08.09.2021
5823 Clear 32 1008 23 10000 1.62 287 10:59 08.09.2021
5824 Clear 32 1012 17 10000 2.57 200 10:27 08.09.2021
5825 Clear 33 1012 17 10000 3.09 200 09:25 08.09.2021
5826 Clear 34 1010 16 10000 3.09 250 07:41 08.09.2021
5827 Clear 36 1010 16 10000 0 0 05:44 08.09.2021
5828 Clouds 41 1013 14 10000 1.54 0 22:51 07.09.2021
5829 Clouds 40 1013 15 10000 1.54 0 22:18 07.09.2021
5830 Clear 37 1015 20 10000 0 0 20:27 07.09.2021
5831 Clear 35 1015 21 10000 1.54 350 18:46 07.09.2021
5832 Clear 34 1015 22 10000 1.54 350 18:21 07.09.2021
5833 Clear 29 1014 22 10000 2.06 60 16:56 07.09.2021
5834 Clear 28 1015 23 10000 2.06 230 15:43 07.09.2021
5835 Clear 28 1015 22 10000 1.54 280 14:44 07.09.2021
5836 Clear 29 1014 21 10000 0 0 12:45 07.09.2021
5837 Clear 29 1014 21 10000 0 0 12:45 07.09.2021
5838 Clear 30 1014 20 10000 3.09 220 11:51 07.09.2021
5839 Clear 31 1014 19 10000 2.06 200 10:43 07.09.2021
5840 Clear 33 1012 18 10000 1.54 190 08:39 07.09.2021
5841 Clear 33 1013 18 10000 2.06 250 07:44 07.09.2021
5842 Clear 35 1012 18 10000 2.06 100 05:46 07.09.2021
5843 Smoke 41 1011 13 10000 3.09 100 02:38 07.09.2021
5844 Smoke 41 1012 13 10000 1.54 90 00:53 07.09.2021
5845 Smoke 41 1013 12 10000 2.57 90 23:36 06.09.2021
5846 Clear 40 1012 14 10000 1.34 0 22:57 06.09.2021
5847 Smoke 40 1014 13 10000 2.06 0 22:39 06.09.2021
5848 Smoke 38 1015 13 10000 2.06 50 21:29 06.09.2021
5849 Smoke 36 1016 15 10000 0 0 19:31 06.09.2021
5850 Smoke 34 1016 16 10000 0 0 18:53 06.09.2021
5851 Smoke 34 1016 16 10000 0 0 18:24 06.09.2021
5852 Smoke 31 1017 16 10000 0 0 17:36 06.09.2021
5853 Clear 27 1014 19 10000 1.54 240 15:55 06.09.2021
5854 Clear 28 1014 17 10000 1.54 230 14:25 06.09.2021
5855 Clear 29 1014 18 10000 1.54 260 12:48 06.09.2021
5856 Clear 30 1014 18 10000 2.06 240 10:54 06.09.2021
5857 Clear 32 1013 18 10000 3.6 290 08:35 06.09.2021
5858 Clear 33 1012 17 10000 2.06 230 06:47 06.09.2021
5859 Clouds 39 1013 10 10000 2.57 0 23:37 05.09.2021
5860 Clouds 39 1013 13 10000 2.57 0 23:18 05.09.2021
5861 Clouds 39 1014 12 10000 1.54 40 22:28 05.09.2021
5862 Clouds 38 1014 13 10000 1.54 0 21:49 05.09.2021
5863 Clouds 37 1015 13 10000 0 0 20:50 05.09.2021
5864 Clear 34 1014 16 10000 0 0 18:56 05.09.2021
5865 Clouds 29 1016 14 10000 0 0 17:34 05.09.2021
5866 Clear 25 1015 15 10000 0 0 15:31 05.09.2021
5867 Clear 26 1014 17 10000 1.54 210 14:23 05.09.2021
5868 Clear 27 1014 16 10000 2.57 210 12:30 05.09.2021
5869 Clear 28 1014 15 10000 2.06 210 10:55 05.09.2021
5870 Clear 28 1014 15 10000 2.06 210 10:31 05.09.2021
5871 Clear 29 1014 15 10000 3.09 200 09:22 05.09.2021
5872 Clear 29 1014 15 10000 1.54 230 08:21 05.09.2021
5873 Clear 37 1012 12 10000 1.54 0 02:36 05.09.2021
5874 Clouds 37 1012 12 10000 1.54 0 00:30 05.09.2021
5875 Clouds 37 1012 12 10000 1.54 0 00:30 05.09.2021
5876 Clouds 37 1013 12 10000 2.06 50 23:42 04.09.2021
5877 Clouds 36 1014 12 10000 3.09 350 22:36 04.09.2021
5878 Clear 37 1013 14 10000 0.89 0 21:58 04.09.2021
5879 Clear 33 1015 13 10000 0 0 19:42 04.09.2021
5880 Clouds 30 1015 16 10000 1.54 200 18:44 04.09.2021
5881 Clouds 24 1015 18 10000 3.09 200 16:23 04.09.2021
5882 Clear 24 1014 17 10000 1.54 220 13:22 04.09.2021
5883 Clear 26 1013 16 10000 2.06 210 11:19 04.09.2021
5884 Clear 27 1013 14 10000 4.12 220 09:25 04.09.2021
5885 Clear 30 1011 13 10000 2.06 220 05:53 04.09.2021
5886 Clouds 36 1011 10 10000 3.6 230 00:27 04.09.2021
5887 Clouds 36 1012 11 10000 4.12 210 23:32 03.09.2021
5888 Clouds 35 1013 12 10000 3.6 240 22:35 03.09.2021
5889 Clouds 34 1013 13 10000 3.09 190 21:35 03.09.2021
5890 Clouds 34 1013 13 10000 3.09 190 21:35 03.09.2021
5891 Clouds 34 1013 13 10000 1.54 0 20:42 03.09.2021
5892 Clouds 33 1013 14 10000 1.54 30 19:50 03.09.2021
5893 Clouds 32 1014 14 10000 1.54 30 19:18 03.09.2021
5894 Clear 29 1013 19 10000 0 0 17:47 03.09.2021
5895 Clear 25 1014 21 10000 0 0 16:37 03.09.2021
5896 Clear 25 1010 25 10000 1.2 247 14:58 03.09.2021
5897 Clear 26 1011 19 10000 2.57 210 12:24 03.09.2021
5898 Clear 28 1011 17 10000 3.6 220 10:31 03.09.2021
5899 Clear 28 1010 18 10000 4.12 240 08:46 03.09.2021
5900 Clear 29 1010 16 10000 2.57 200 07:43 03.09.2021
5901 Clouds 36 1009 11 10000 6.69 200 01:40 03.09.2021
5902 Clear 36 1008 17 10000 3.58 0 22:57 02.09.2021
5903 Clouds 35 1011 17 10000 5.14 220 21:31 02.09.2021
5904 Clear 32 1012 27 10000 2.57 160 19:55 02.09.2021
5905 Clear 28 1011 47 10000 0 0 17:32 02.09.2021
5906 Clear 28 1011 47 10000 0 0 17:32 02.09.2021
5907 Clear 25 1011 52 10000 1.54 220 15:50 02.09.2021
5908 Clear 25 1007 57 10000 0 0 13:57 02.09.2021
5909 Clear 26 1010 52 10000 3.09 180 12:42 02.09.2021
5910 Clear 26 1009 51 10000 4.12 180 11:34 02.09.2021
5911 Clear 27 1009 50 10000 2.06 170 09:40 02.09.2021
5912 Clouds 28 1008 47 10000 3.6 170 07:48 02.09.2021
5913 Clouds 28 1008 46 10000 3.6 170 07:18 02.09.2021
5914 Clouds 28 1008 46 10000 3.6 170 07:18 02.09.2021
5915 Clouds 32 1006 38 10000 4.63 150 02:54 02.09.2021
5916 Clouds 32 1006 37 10000 2.57 0 01:55 02.09.2021
5917 Clouds 33 1006 36 10000 2.57 0 01:23 02.09.2021
5918 Clouds 32 1007 39 10000 6.69 80 23:37 01.09.2021
5919 Clouds 31 1008 41 10000 6.17 90 22:39 01.09.2021
5920 Clouds 31 1008 42 10000 3.09 120 21:35 01.09.2021
5921 Clouds 28 1009 49 10000 2.06 0 20:28 01.09.2021
5922 Clouds 26 1009 59 10000 2.06 180 18:29 01.09.2021
5923 Clouds 25 1009 64 10000 1.54 0 17:37 01.09.2021
5924 Clouds 25 1008 66 10000 2.57 100 16:46 01.09.2021
5925 Clouds 25 1008 65 10000 2.57 110 15:25 01.09.2021
5926 Clouds 26 1006 54 10000 0 0 11:50 01.09.2021
5927 Clouds 27 1006 54 10000 2.57 160 10:55 01.09.2021
5928 Clouds 29 1005 46 10000 1.54 140 08:46 01.09.2021
5929 Clouds 29 1006 40 10000 4.63 190 07:51 01.09.2021
5930 Thunderstorm 35 1003 29 10000 4.63 160 00:50 01.09.2021
5931 Clouds 36 1007 24 10000 2.06 120 22:33 31.08.2021
5932 Clouds 35 1007 26 10000 4.12 190 21:22 31.08.2021
5933 Clouds 33 1007 32 10000 2.06 170 19:45 31.08.2021
5934 Clouds 31 1007 35 10000 2.57 180 18:27 31.08.2021
5935 Clouds 30 1007 38 10000 1.54 100 17:34 31.08.2021
5936 Clouds 29 1007 39 10000 1.54 0 16:52 31.08.2021
5937 Clouds 29 1007 39 10000 1.54 0 16:23 31.08.2021
5938 Clouds 30 1005 36 10000 0.89 0 12:56 31.08.2021
5939 Clouds 31 1007 33 10000 2.06 180 11:26 31.08.2021
5940 Clouds 31 1007 32 10000 4.63 180 10:49 31.08.2021
5941 Clouds 31 1007 32 10000 3.09 140 09:43 31.08.2021
5942 Clouds 31 1007 33 10000 2.06 200 08:36 31.08.2021
5943 Clear 34 1005 27 10000 0.89 181 05:58 31.08.2021
5944 Clouds 38 1006 22 10000 3.6 190 00:23 31.08.2021
5945 Clouds 38 1007 22 10000 3.6 100 23:25 30.08.2021
5946 Clouds 38 1007 23 10000 4.12 110 21:43 30.08.2021
5947 Clouds 37 1008 23 10000 0 0 20:42 30.08.2021
5948 Clouds 36 1006 27 10000 0.45 171 19:58 30.08.2021
5949 Clouds 35 1009 26 10000 0 0 19:29 30.08.2021
5950 Clouds 34 1009 27 10000 1.54 0 18:23 30.08.2021
5951 Clouds 30 1008 31 10000 2.06 290 16:49 30.08.2021
5952 Clouds 29 1009 32 10000 2.06 310 15:50 30.08.2021
5953 Clouds 28 1007 33 10000 3.09 290 14:39 30.08.2021
5954 Clouds 29 1007 33 10000 1.54 300 13:27 30.08.2021
5955 Clear 30 1006 31 10000 0.45 0 11:56 30.08.2021
5956 Clouds 34 1007 24 10000 5.66 180 08:23 30.08.2021
5957 Clouds 40 1008 19 10000 2.06 0 22:18 29.08.2021
5958 Clouds 39 1009 20 10000 2.06 40 21:25 29.08.2021
5959 Clouds 37 1010 21 10000 2.06 30 19:32 29.08.2021
5960 Clouds 35 1010 24 10000 2.06 330 18:30 29.08.2021
5961 Clouds 29 1011 29 10000 2.06 210 16:25 29.08.2021
5962 Clouds 29 1011 29 10000 2.06 210 16:25 29.08.2021
5963 Clear 30 1010 28 10000 0 0 14:34 29.08.2021
5964 Clear 31 1010 29 10000 2.06 200 13:55 29.08.2021
5965 Clear 30 1007 29 10000 0.45 0 12:58 29.08.2021
5966 Clear 32 1009 25 10000 3.6 240 12:18 29.08.2021
5967 Clear 32 1009 25 10000 3.6 240 12:18 29.08.2021
5968 Clear 32 1009 24 10000 3.09 210 11:40 29.08.2021
5969 Clear 32 1009 23 10000 1.54 190 10:48 29.08.2021
5970 Clear 33 1009 21 10000 1.54 190 10:29 29.08.2021
5971 Clear 33 1009 20 10000 3.09 200 09:35 29.08.2021
5972 Clouds 39 1006 15 10000 5.14 270 04:21 29.08.2021
5973 Clear 41 1007 13 10000 0.89 0 22:57 28.08.2021
5974 Clouds 38 1010 12 10000 2.06 60 20:33 28.08.2021
5975 Clouds 36 1010 14 10000 2.06 0 19:29 28.08.2021
5976 Clear 34 1010 15 10000 2.57 0 18:24 28.08.2021
5977 Clear 32 1010 16 10000 0 0 17:46 28.08.2021
5978 Clear 28 1010 16 10000 0 0 16:32 28.08.2021
5979 Clear 28 1009 18 10000 1.54 320 15:20 28.08.2021
5980 Clear 29 1005 21 10000 1.19 264 13:58 28.08.2021
5981 Clear 29 1008 17 10000 2.57 240 13:39 28.08.2021
5982 Clear 29 1008 18 10000 2.06 240 12:30 28.08.2021
5983 Clear 31 1007 16 10000 2.06 210 10:47 28.08.2021
5984 Clear 32 1007 15 10000 2.57 240 09:34 28.08.2021
5985 Clear 34 1005 14 10000 3.09 200 07:34 28.08.2021
5986 Clear 41 1007 10 10000 2.06 100 23:45 27.08.2021
5987 Clear 38 1009 9 10000 3.09 70 21:29 27.08.2021
5988 Clear 38 1010 9 10000 2.57 30 20:52 27.08.2021
5989 Clear 35 1010 10 10000 2.06 350 19:32 27.08.2021
5990 Clear 33 1010 11 10000 1.54 120 18:39 27.08.2021
5991 Clear 30 1010 10 10000 0 0 17:45 27.08.2021
5992 Clear 26 1010 10 10000 1.54 280 16:31 27.08.2021
5993 Clear 26 1009 13 10000 0 0 14:44 27.08.2021
5994 Clear 27 1009 10 10000 3.6 210 12:57 27.08.2021
5995 Clear 29 1009 10 10000 2.57 200 11:43 27.08.2021
5996 Clear 28 1009 10 10000 3.6 180 10:49 27.08.2021
5997 Clear 30 1006 15 10000 2.94 260 09:58 27.08.2021
5998 Clear 31 1009 10 10000 2.57 200 08:55 27.08.2021
5999 Clear 31 1009 9 10000 2.57 200 08:35 27.08.2021
6000 Clear 34 1008 8 10000 4.12 240 05:35 27.08.2021
6001 Clear 41 1008 6 10000 6.17 230 00:40 27.08.2021
6002 Clouds 41 1009 7 10000 4.63 220 23:52 26.08.2021
6003 Clouds 40 1010 7 10000 5.66 200 22:23 26.08.2021
6004 Clouds 39 1011 9 10000 5.66 220 21:32 26.08.2021
6005 Clouds 36 1012 15 10000 4.12 190 19:30 26.08.2021
6006 Clouds 32 1012 20 10000 3.6 190 17:50 26.08.2021
6007 Clouds 32 1012 21 10000 3.6 190 17:24 26.08.2021
6008 Clouds 29 1012 23 10000 4.12 180 16:26 26.08.2021
6009 Clouds 29 1012 22 10000 5.66 180 14:20 26.08.2021
6010 Clouds 30 1011 21 10000 3.09 190 13:20 26.08.2021
6011 Clouds 30 1010 22 10000 2.06 0 12:32 26.08.2021
6012 Clear 31 1012 22 10000 5.14 220 11:22 26.08.2021
6013 Clouds 33 1011 19 10000 3.09 210 08:35 26.08.2021
6014 Clouds 34 1010 19 10000 3.6 230 07:52 26.08.2021
6015 Clear 40 1011 14 10000 1.34 79 22:56 25.08.2021
6016 Smoke 40 1013 12 10000 5.14 200 22:36 25.08.2021
6017 Clouds 38 1012 11 10000 5.66 170 21:55 25.08.2021
6018 Clouds 37 1014 13 10000 0 0 20:55 25.08.2021
6019 Smoke 36 1014 13 10000 0 0 20:29 25.08.2021
6020 Smoke 33 1014 16 10000 2.06 230 18:45 25.08.2021
6021 Smoke 30 1014 18 10000 1.54 310 17:51 25.08.2021
6022 Smoke 27 1014 20 10000 2.06 310 15:46 25.08.2021
6023 Smoke 26 1014 19 10000 2.57 210 14:49 25.08.2021
6024 Smoke 27 1014 19 10000 2.57 210 14:30 25.08.2021
6025 Smoke 27 1013 19 10000 2.06 190 13:30 25.08.2021
6026 Smoke 28 1013 19 10000 0 0 11:28 25.08.2021
6027 Clouds 28 1013 16 10000 0 0 10:55 25.08.2021
6028 Clear 29 1010 17 10000 1.04 200 09:58 25.08.2021
6029 Smoke 30 1013 14 10000 2.06 220 09:24 25.08.2021
6030 Smoke 30 1012 16 10000 1.54 210 08:32 25.08.2021
6031 Smoke 35 1010 8 10000 6.17 240 04:51 25.08.2021
6032 Smoke 39 1010 9 10000 6.17 220 00:53 25.08.2021
6033 Smoke 38 1012 10 10000 5.66 170 22:51 24.08.2021
6034 Smoke 35 1013 16 10000 4.12 180 20:48 24.08.2021
6035 Clear 34 1013 19 10000 5.14 200 19:53 24.08.2021
6036 Smoke 32 1013 22 10000 3.09 0 18:51 24.08.2021
6037 Smoke 29 1013 25 10000 3.09 190 17:50 24.08.2021
6038 Smoke 29 1013 26 10000 3.09 190 17:20 24.08.2021
6039 Clear 25 1011 28 10000 4.63 190 14:34 24.08.2021
6040 Clear 26 1011 25 10000 3.09 180 13:29 24.08.2021
6041 Clear 27 1010 23 10000 2.06 200 12:36 24.08.2021
6042 Clear 28 1010 19 10000 3.09 190 10:48 24.08.2021
6043 Clear 29 1010 19 10000 3.09 190 10:28 24.08.2021
6044 Clear 30 1008 18 10000 0.45 0 08:59 24.08.2021
6045 Clear 32 1009 15 10000 4.12 180 06:55 24.08.2021
6046 Clear 34 1008 13 10000 4.63 200 05:19 24.08.2021
6047 Smoke 38 1008 9 10000 4.12 210 00:52 24.08.2021
6048 Smoke 37 1009 11 10000 3.09 100 23:21 23.08.2021
6049 Smoke 37 1010 11 10000 2.57 190 22:40 23.08.2021
6050 Clear 35 1011 14 10000 3.09 80 20:49 23.08.2021
6051 Clear 32 1011 15 10000 2.57 50 19:24 23.08.2021
6052 Clear 24 1011 19 10000 2.06 210 16:41 23.08.2021
6053 Clear 23 1010 19 10000 2.06 270 14:49 23.08.2021
6054 Clear 23 1009 19 10000 0 0 13:26 23.08.2021
6055 Clear 24 1009 17 10000 0 0 12:20 23.08.2021
6056 Clear 26 1009 14 10000 3.09 180 10:39 23.08.2021
6057 Clear 27 1009 13 10000 2.06 220 09:48 23.08.2021
6058 Clear 28 1008 13 10000 2.57 140 08:33 23.08.2021
6059 Clear 31 1007 10 10000 3.6 180 06:51 23.08.2021
6060 Clear 31 1007 10 10000 3.6 180 06:33 23.08.2021
6061 Clear 37 1006 5 10000 5.66 160 00:55 23.08.2021
6062 Clouds 36 1008 10 10000 1.54 0 22:46 22.08.2021
6063 Clouds 36 1008 11 10000 1.54 0 22:27 22.08.2021
6064 Clear 33 1010 19 10000 3.6 120 20:23 22.08.2021
6065 Clear 32 1010 21 10000 0 0 19:40 22.08.2021
6066 Clear 26 1009 32 10000 0 0 16:48 22.08.2021
6067 Clear 24 1009 33 10000 2.06 190 15:32 22.08.2021
6068 Clear 24 1009 32 10000 2.06 260 14:43 22.08.2021
6069 Clear 25 1007 35 10000 2.06 200 13:21 22.08.2021
6070 Clear 26 1008 33 10000 0 0 12:55 22.08.2021
6071 Clear 27 1008 31 10000 0 0 12:26 22.08.2021
6072 Clear 27 1007 32 10000 3.09 230 11:42 22.08.2021
6073 Clear 28 1007 30 10000 3.09 220 10:31 22.08.2021
6074 Clear 30 1006 27 10000 4.12 190 08:19 22.08.2021
6075 Clear 33 1003 21 10000 0.45 223 04:57 22.08.2021
6076 Clear 33 1003 21 10000 0.45 223 04:57 22.08.2021
6077 Clear 37 1004 17 10000 0.89 230 23:58 21.08.2021
6078 Clouds 36 1007 18 10000 5.66 210 22:34 21.08.2021
6079 Clouds 33 1008 25 10000 6.69 160 20:35 21.08.2021
6080 Smoke 30 1008 33 10000 2.06 0 18:39 21.08.2021
6081 Clear 30 1007 38 10000 0.89 0 17:59 21.08.2021
6082 Clouds 27 1008 41 10000 0 0 16:54 21.08.2021
6083 Smoke 26 1008 41 10000 0 0 16:28 21.08.2021
6084 Smoke 25 1007 41 10000 2.57 170 15:36 21.08.2021
6085 Clear 25 1007 40 10000 3.09 230 14:47 21.08.2021
6086 Smoke 26 1007 37 10000 2.06 210 13:31 21.08.2021
6087 Clouds 26 1007 36 10000 3.09 200 12:34 21.08.2021
6088 Smoke 30 1007 28 10000 1.54 200 09:29 21.08.2021
6089 Clouds 32 1006 23 10000 4.63 170 05:41 21.08.2021
6090 Clear 35 1009 23 10000 0.89 76 22:56 20.08.2021
6091 Smoke 34 1011 22 10000 1.54 0 21:48 20.08.2021
6092 Smoke 29 1012 25 10000 1.54 60 18:26 20.08.2021
6093 Clear 24 1012 27 10000 4.12 70 15:57 20.08.2021
6094 Smoke 24 1010 25 10000 0 0 13:36 20.08.2021
6095 Smoke 26 1011 22 10000 1.54 200 11:38 20.08.2021
6096 Smoke 27 1011 21 10000 2.06 200 10:43 20.08.2021
6097 Smoke 28 1011 20 10000 1.54 230 09:41 20.08.2021
6098 Smoke 28 1009 21 10000 2.57 200 08:41 20.08.2021
6099 Smoke 29 1009 20 10000 2.06 220 07:44 20.08.2021
6100 Smoke 32 1008 18 10000 3.6 360 04:22 20.08.2021
6101 Smoke 34 1008 15 10000 2.57 240 00:19 20.08.2021
6102 Smoke 33 1009 17 10000 2.57 240 23:18 19.08.2021
6103 Smoke 32 1010 19 10000 3.09 190 22:31 19.08.2021
6104 Smoke 30 1011 26 10000 2.06 0 20:32 19.08.2021
6105 Smoke 28 1012 30 10000 1.54 0 19:35 19.08.2021
6106 Smoke 25 1012 39 10000 1.54 190 17:19 19.08.2021
6107 Smoke 22 1011 44 10000 2.57 280 15:54 19.08.2021
6108 Smoke 23 1011 42 10000 1.54 100 13:29 19.08.2021
6109 Smoke 24 1011 40 10000 2.57 60 12:33 19.08.2021
6110 Smoke 25 1010 36 10000 3.6 30 11:24 19.08.2021
6111 Smoke 25 1010 32 10000 3.09 150 10:23 19.08.2021
6112 Clear 26 1010 29 10000 2.57 270 09:47 19.08.2021
6113 Clear 27 1010 28 10000 2.57 270 09:18 19.08.2021
6114 Clouds 30 1008 16 10000 5.66 250 06:53 19.08.2021
6115 Clouds 36 1003 16 10000 6.17 260 02:22 19.08.2021
6116 Clouds 37 1003 17 10000 8.75 230 01:48 19.08.2021
6117 Clouds 36 1005 18 10000 5.66 220 22:55 18.08.2021
6118 Clear 35 1005 19 10000 8.23 230 21:40 18.08.2021
6119 Clouds 34 1006 24 10000 6.69 240 20:31 18.08.2021
6120 Smoke 33 1007 27 10000 4.63 190 19:32 18.08.2021
6121 Smoke 32 1007 29 10000 5.14 160 18:47 18.08.2021
6122 Clear 31 1005 31 10000 1.34 235 17:57 18.08.2021
6123 Clouds 29 1006 35 10000 5.66 200 15:47 18.08.2021
6124 Clouds 29 1005 34 10000 5.66 200 15:24 18.08.2021
6125 Clear 29 1005 33 10000 6.69 190 14:51 18.08.2021
6126 Smoke 30 1005 33 10000 7.2 190 12:43 18.08.2021
6127 Smoke 30 1004 32 10000 7.2 190 12:24 18.08.2021
6128 Smoke 31 1005 30 10000 6.17 190 10:21 18.08.2021
6129 Smoke 34 1004 32 10000 4.63 180 07:42 18.08.2021
6130 Smoke 40 1003 25 10000 6.69 210 00:43 18.08.2021
6131 Smoke 39 1005 27 10000 6.69 200 22:30 17.08.2021
6132 Smoke 38 1006 28 10000 6.69 170 21:27 17.08.2021
6133 Smoke 37 1007 28 10000 6.17 150 20:44 17.08.2021
6134 Clear 35 1008 32 10000 4.63 150 18:57 17.08.2021
6135 Smoke 33 1008 37 10000 4.63 160 17:33 17.08.2021
6136 Clear 31 1007 39 10000 4.12 170 16:34 17.08.2021
6137 Smoke 31 1008 38 10000 5.14 180 15:36 17.08.2021
6138 Smoke 31 1007 36 10000 4.12 180 14:28 17.08.2021
6139 Clear 33 1007 34 10000 3.6 180 11:49 17.08.2021
6140 Clear 35 1005 31 10000 3.6 180 09:21 17.08.2021
6141 Clear 36 1005 27 10000 6.17 180 07:45 17.08.2021
6142 Clouds 41 1006 18 10000 2.57 60 01:20 17.08.2021
6143 Clouds 40 1008 25 10000 4.12 110 22:55 16.08.2021
6144 Clouds 40 1009 26 10000 4.12 110 22:36 16.08.2021
6145 Clouds 39 1009 28 10000 0 0 21:53 16.08.2021
6146 Clear 38 1010 31 10000 3.6 70 20:54 16.08.2021
6147 Clear 36 1011 35 10000 1.54 350 19:45 16.08.2021
6148 Clear 36 1011 35 10000 1.54 350 19:22 16.08.2021
6149 Clear 34 1011 39 10000 0 0 18:23 16.08.2021
6150 Clear 33 1010 41 10000 1.54 290 17:51 16.08.2021
6151 Clouds 30 1010 45 10000 2.06 270 15:40 16.08.2021
6152 Clouds 31 1009 44 10000 0 0 14:49 16.08.2021
6153 Clouds 32 1009 41 10000 1.54 50 13:37 16.08.2021
6154 Clouds 32 1009 37 10000 0 0 12:32 16.08.2021
6155 Clouds 34 1009 34 10000 1.54 340 10:37 16.08.2021
6156 Thunderstorm 35 1009 31 10000 6.17 110 08:46 16.08.2021
6157 Clouds 36 1008 28 10000 1.54 210 07:33 16.08.2021
6158 Clouds 37 1008 25 10000 2.57 190 06:35 16.08.2021
6159 Clouds 42 1009 17 10000 2.06 360 02:19 16.08.2021
6160 Clouds 39 1013 25 10000 0 0 22:47 15.08.2021
6161 Clouds 37 1015 31 10000 2.06 50 20:38 15.08.2021
6162 Clouds 33 1016 38 10000 0 0 18:47 15.08.2021
6163 Clouds 32 1016 42 10000 2.06 20 17:55 15.08.2021
6164 Clouds 31 1016 42 10000 2.06 20 17:32 15.08.2021
6165 Clouds 30 1015 44 10000 2.06 30 16:24 15.08.2021
6166 Clouds 29 1014 43 10000 2.06 20 14:42 15.08.2021
6167 Clear 30 1013 42 10000 0.89 0 13:55 15.08.2021
6168 Clouds 32 1014 36 10000 1.54 170 11:22 15.08.2021
6169 Clouds 33 1015 36 10000 2.23 160 08:59 15.08.2021
6170 Clear 40 1012 24 10000 0.45 0 01:56 15.08.2021
6171 Clouds 39 1015 24 10000 2.57 50 00:37 15.08.2021
6172 Clouds 38 1014 29 10000 0.45 189 21:59 14.08.2021
6173 Clouds 36 1012 33 10000 1.34 0 20:58 14.08.2021
6174 Clouds 34 1018 34 10000 0 0 19:43 14.08.2021
6175 Clouds 33 1017 38 10000 2.06 60 18:39 14.08.2021
6176 Clouds 30 1016 43 10000 0.89 233 16:59 14.08.2021
6177 Clouds 29 1018 42 10000 2.06 170 15:47 14.08.2021
6178 Clouds 30 1017 38 10000 1.54 210 14:24 14.08.2021
6179 Clouds 30 1013 41 10000 1.04 181 11:59 14.08.2021
6180 Clouds 31 1016 37 10000 1.54 250 10:45 14.08.2021
6181 Clouds 33 1016 32 10000 2.57 180 07:40 14.08.2021
6182 Clouds 39 1015 28 10000 5.66 60 23:53 13.08.2021
6183 Clouds 37 1015 31 10000 3.6 70 22:26 13.08.2021
6184 Clouds 35 1016 36 10000 1.54 250 20:31 13.08.2021
6185 Smoke 32 1016 44 10000 3.6 60 18:47 13.08.2021
6186 Smoke 30 1016 47 10000 2.06 30 17:42 13.08.2021
6187 Clouds 29 1015 50 10000 0 0 16:24 13.08.2021
6188 Smoke 30 1013 47 10000 0 0 12:51 13.08.2021
6189 Smoke 30 1013 45 10000 2.57 110 11:20 13.08.2021
6190 Dust 32 1013 40 10000 7.2 240 09:40 13.08.2021
6191 Smoke 32 1013 36 10000 2.06 220 08:36 13.08.2021
6192 Dust 32 1014 35 10000 4.12 130 07:18 13.08.2021
6193 Clear 37 1008 32 10000 0.45 81 04:59 13.08.2021
6194 Smoke 37 1014 30 10000 2.06 120 22:34 12.08.2021
6195 Smoke 35 1015 36 10000 0 0 21:20 12.08.2021
6196 Smoke 34 1015 39 10000 0 0 20:21 12.08.2021
6197 Smoke 33 1016 42 10000 0 0 19:27 12.08.2021
6198 Smoke 30 1015 50 10000 0 0 17:26 12.08.2021
6199 Smoke 28 1014 54 10000 0 0 16:28 12.08.2021
6200 Smoke 28 1013 51 10000 0 0 14:31 12.08.2021
6201 Smoke 30 1012 44 10000 3.09 190 12:23 12.08.2021
6202 Clouds 30 1011 43 10000 0.45 0 09:59 12.08.2021
6203 Clouds 32 1012 37 10000 4.12 160 07:53 12.08.2021
6204 Smoke 38 1012 27 10000 0 0 00:48 12.08.2021
6205 Clear 36 1013 34 10000 0.45 81 21:56 11.08.2021
6206 Smoke 32 1016 41 10000 2.57 120 19:36 11.08.2021
6207 Smoke 30 1016 47 10000 3.6 70 18:27 11.08.2021
6208 Smoke 26 1014 54 10000 3.09 10 15:38 11.08.2021
6209 Smoke 26 1013 54 10000 3.09 10 15:20 11.08.2021
6210 Clouds 27 1014 52 10000 2.06 20 14:20 11.08.2021
6211 Smoke 28 1012 43 10000 2.57 280 12:30 11.08.2021
6212 Smoke 29 1013 41 10000 2.06 250 11:46 11.08.2021
6213 Smoke 29 1012 40 10000 2.06 250 11:22 11.08.2021
6214 Smoke 31 1013 35 10000 4.12 170 09:45 11.08.2021
6215 Smoke 32 1012 34 10000 5.66 180 07:49 11.08.2021
6216 Smoke 40 1012 18 10000 4.12 90 23:34 10.08.2021
6217 Smoke 39 1012 19 10000 3.09 60 22:29 10.08.2021
6218 Clear 37 1008 23 10000 0.89 0 20:58 10.08.2021
6219 Smoke 36 1014 24 10000 2.06 110 19:51 10.08.2021
6220 Smoke 34 1014 28 10000 1.54 270 18:31 10.08.2021
6221 Smoke 29 1013 33 10000 2.06 270 16:28 10.08.2021
6222 Smoke 29 1013 31 10000 2.06 290 14:52 10.08.2021
6223 Smoke 30 1011 32 10000 3.6 190 12:22 10.08.2021
6224 Smoke 32 1010 26 10000 3.09 200 09:51 10.08.2021
6225 Clear 34 1009 14 10000 2.06 200 06:48 10.08.2021
6226 Clear 36 1006 12 10000 0.89 0 04:58 10.08.2021
6227 Smoke 40 1009 8 10000 5.14 210 23:41 09.08.2021
6228 Clouds 39 1010 10 10000 6.17 230 21:55 09.08.2021
6229 Smoke 39 1010 10 10000 6.17 230 21:34 09.08.2021
6230 Smoke 37 1011 12 10000 4.63 200 19:35 09.08.2021
6231 Smoke 32 1011 18 10000 4.63 180 17:19 09.08.2021
6232 Smoke 29 1012 21 10000 3.6 190 15:33 09.08.2021
6233 Smoke 30 1010 18 10000 4.63 200 13:37 09.08.2021
6234 Smoke 31 1010 17 10000 4.12 200 12:51 09.08.2021
6235 Smoke 32 1009 15 10000 2.57 210 10:43 09.08.2021
6236 Smoke 34 1008 13 10000 3.09 240 08:26 09.08.2021
6237 Smoke 41 1009 5 10000 6.17 230 23:26 08.08.2021
6238 Smoke 40 1011 7 10000 6.17 230 21:25 08.08.2021
6239 Smoke 36 1011 11 10000 5.66 170 19:29 08.08.2021
6240 Smoke 30 1011 17 10000 1.54 290 16:54 08.08.2021
6241 Smoke 28 1011 16 10000 3.09 240 15:31 08.08.2021
6242 Clear 29 1007 14 10000 2.38 222 12:58 08.08.2021
6243 Smoke 30 1010 12 10000 1.54 220 11:25 08.08.2021
6244 Smoke 34 1009 9 10000 0 0 06:45 08.08.2021
6245 Smoke 36 1008 10 10000 2.57 150 05:37 08.08.2021
6246 Smoke 39 1010 9 8047 1.54 200 00:30 08.08.2021
6247 Smoke 37 1012 13 6437 0 0 22:19 07.08.2021
6248 Smoke 37 1013 13 4828 3.09 0 21:41 07.08.2021
6249 Smoke 35 1014 13 3219 3.6 10 20:25 07.08.2021
6250 Smoke 29 1014 16 4023 0 0 17:30 07.08.2021
6251 Smoke 27 1014 15 6437 0 0 16:34 07.08.2021
6252 Smoke 28 1012 12 10000 1.54 230 14:25 07.08.2021
6253 Haze 28 1012 11 10000 0 0 13:29 07.08.2021
6254 Haze 31 1011 9 10000 3.6 240 10:22 07.08.2021
6255 Dust 36 1009 6 10000 3.6 250 05:40 07.08.2021
6256 Clear 40 1010 3 10000 6.26 220 23:55 06.08.2021
6257 Clear 39 1011 5 10000 4.02 220 21:23 06.08.2021
6258 Clear 38 1011 5 10000 3.58 240 20:27 06.08.2021
6259 Clear 37 1011 7 10000 3.13 0 19:55 06.08.2021
6260 Clear 36 1011 10 10000 6.17 210 18:29 06.08.2021
6261 Clear 32 1008 17 10000 0.45 199 13:56 06.08.2021
6262 Clouds 35 1009 14 10000 6.26 230 10:31 06.08.2021
6263 Clear 36 1009 12 10000 4.02 210 09:26 06.08.2021
6264 Clouds 43 1008 10 10000 7.6 240 01:46 06.08.2021
6265 Clouds 44 1010 10 10000 5.36 230 23:27 05.08.2021
6266 Clouds 42 1011 10 10000 4.12 260 21:31 05.08.2021
6267 Clear 40 1009 14 10000 0.89 0 19:56 05.08.2021
6268 Clear 37 1012 15 10000 0 0 18:37 05.08.2021
6269 Clear 32 1013 20 10000 1.54 230 15:47 05.08.2021
6270 Clear 32 1011 17 10000 2.24 200 13:53 05.08.2021
6271 Clear 35 1010 14 10000 0 0 09:56 05.08.2021
6272 Clear 35 1011 15 10000 2.57 280 08:19 05.08.2021
6273 Clouds 43 1010 8 10000 1.54 0 03:30 05.08.2021
6274 Clouds 42 1012 11 10000 3.13 70 22:41 04.08.2021
6275 Clouds 41 1013 11 10000 1.34 0 21:26 04.08.2021
6276 Clouds 39 1014 16 10000 2.24 70 19:37 04.08.2021
6277 Clear 35 1014 23 10000 2.68 200 17:23 04.08.2021
6278 Clear 31 1013 26 10000 1.34 270 14:47 04.08.2021
6279 Clear 33 1013 24 10000 1.54 260 12:23 04.08.2021
6280 Clouds 36 1012 19 10000 2.57 240 07:49 04.08.2021
6281 Clouds 40 1015 18 10000 1.34 0 21:18 03.08.2021
6282 Clouds 39 1016 20 10000 2.68 0 20:29 03.08.2021
6283 Clouds 37 1016 23 10000 1.34 170 18:47 03.08.2021
6284 Clear 34 1014 29 10000 0.89 218 16:59 03.08.2021
6285 Clouds 32 1014 28 10000 2.57 70 13:57 03.08.2021
6286 Clear 33 1014 22 10000 0 0 10:57 03.08.2021
6287 Clear 33 1015 24 10000 1.54 240 09:47 03.08.2021
6288 Clear 40 1011 21 10000 1.34 0 22:58 02.08.2021
6289 Clear 30 1018 41 10000 1.54 10 16:40 02.08.2021
6290 Clear 29 1018 45 10000 0 0 15:35 02.08.2021
6291 Clear 29 1016 45 10000 0 0 12:40 02.08.2021
6292 Clear 30 1016 43 10000 3.13 280 11:57 02.08.2021
6293 Clear 31 1017 40 10000 3.13 270 10:25 02.08.2021
6294 Clear 33 1015 37 10000 2.06 100 06:22 02.08.2021
6295 Clouds 33 1019 39 10000 1.34 0 19:21 01.08.2021
6296 Clouds 28 1018 54 10000 1.34 280 15:44 01.08.2021
6297 Clouds 28 1016 60 10000 0 0 11:39 01.08.2021
6298 Clouds 29 1016 54 10000 0 0 09:47 01.08.2021
6299 Clouds 33 1015 39 10000 1.54 50 03:49 01.08.2021
6300 Thunderstorm 35 1016 30 10000 2.57 190 23:37 31.07.2021
6301 Clouds 35 1018 32 10000 2.57 80 21:45 31.07.2021
6302 Clouds 30 1018 44 10000 2.68 170 17:53 31.07.2021
6303 Clouds 29 1017 49 10000 0 0 16:37 31.07.2021
6304 Clouds 28 1016 52 10000 1.54 170 13:31 31.07.2021
6305 Clouds 29 1016 46 10000 2.68 180 09:19 31.07.2021
6306 Clouds 32 1014 41 10000 4.02 200 02:35 31.07.2021
6307 Clouds 32 1017 40 10000 0 0 20:38 30.07.2021
6308 Clouds 32 1017 41 10000 0 0 20:19 30.07.2021
6309 Clouds 27 1014 58 10000 0 0 14:18 30.07.2021
6310 Clouds 35 1014 28 10000 3.6 30 18:19 29.07.2021
6311 Clouds 34 1011 28 10000 0.89 0 06:59 29.07.2021
6312 Clouds 37 1012 21 10000 4.47 200 04:34 29.07.2021
6313 Clouds 38 1015 19 10000 2.68 110 21:55 28.07.2021
6314 Clouds 33 1016 29 10000 1.54 180 17:47 28.07.2021
6315 Clouds 31 1017 34 10000 0 0 16:54 28.07.2021
6316 Clouds 32 1016 30 10000 2.57 190 08:26 28.07.2021
6317 Clouds 37 1015 24 10000 4.47 210 23:31 27.07.2021
6318 Clouds 35 1016 33 10000 2.57 170 21:29 27.07.2021
6319 Clear 25 1017 76 10000 0 0 14:53 27.07.2021
6320 Clear 27 1015 61 10000 1.34 200 11:41 27.07.2021
6321 Clear 26 1016 71 10000 1.54 220 10:19 27.07.2021
6322 Clouds 27 1016 75 10000 1.54 190 18:48 26.07.2021
6323 Clouds 25 1014 81 10000 1.34 100 15:32 26.07.2021
6324 Clouds 37 1009 29 10000 4.63 110 04:52 26.07.2021
6325 Clouds 35 1009 39 10000 1.79 0 20:56 25.07.2021
6326 Clouds 31 1015 45 10000 3.13 50 18:25 25.07.2021
6327 Clouds 28 1014 54 10000 2.57 100 15:47 25.07.2021
6328 Clouds 31 1013 44 10000 4.47 300 10:57 25.07.2021
6329 Clouds 32 1012 41 10000 5.36 30 08:20 25.07.2021
6330 Clouds 35 1014 34 10000 1.34 100 22:35 24.07.2021
6331 Clouds 34 1015 41 10000 1.34 80 20:19 24.07.2021
6332 Clouds 29 1014 50 10000 1.34 70 15:44 24.07.2021
6333 Clouds 38 1012 22 10000 5.66 200 04:20 24.07.2021
6334 Clouds 28 1015 55 10000 0 0 14:40 23.07.2021
6335 Clouds 29 1014 55 10000 0 0 12:42 23.07.2021
6336 Clouds 33 1013 42 10000 6.26 30 06:18 23.07.2021
6337 Clouds 38 1013 30 10000 2.24 190 20:33 22.07.2021
6338 Clouds 32 1012 39 10000 2.06 180 11:28 22.07.2021
6339 Clouds 33 1011 36 10000 3.09 200 09:23 22.07.2021
6340 Clouds 38 1009 24 10000 2.68 150 03:42 22.07.2021
6341 Clouds 38 1011 27 10000 1.34 0 21:46 21.07.2021
6342 Clouds 38 1011 27 10000 1.54 0 21:28 21.07.2021
6343 Clouds 30 1012 47 10000 2.68 50 14:42 21.07.2021
6344 Clouds 32 1012 42 10000 3.13 330 09:49 21.07.2021
6345 Clouds 33 1011 39 10000 1.34 0 07:59 21.07.2021
6346 Clouds 39 1012 23 10000 2.68 0 23:46 20.07.2021
6347 Clouds 32 1016 39 10000 0 0 17:22 20.07.2021
6348 Clouds 30 1016 44 10000 2.24 230 16:25 20.07.2021
6349 Clouds 29 1016 43 10000 0 0 15:25 20.07.2021
6350 Clouds 31 1015 39 10000 2.57 330 10:22 20.07.2021
6351 Clouds 35 1015 31 10000 1.34 300 04:48 20.07.2021
6352 Clouds 34 1017 38 10000 0 0 22:25 19.07.2021
6353 Clouds 27 1017 58 10000 1.54 290 12:54 19.07.2021
6354 Clouds 28 1017 56 10000 1.54 190 10:29 19.07.2021
6355 Clouds 36 1015 29 10000 4.63 30 19:38 18.07.2021
6356 Clouds 32 1013 37 10000 5.14 200 14:21 18.07.2021
6357 Clouds 34 1012 31 10000 4.47 200 10:18 18.07.2021
6358 Clouds 40 1012 17 10000 4.12 170 22:25 17.07.2021
6359 Clouds 39 1012 18 10000 4.02 150 21:53 17.07.2021
6360 Clouds 39 1012 18 10000 4.02 150 21:53 17.07.2021
6361 Clouds 39 1012 18 10000 4.02 150 21:34 17.07.2021
6362 Clear 32 1010 22 10000 4.02 200 12:28 17.07.2021
6363 Clear 35 1009 18 10000 3.58 200 08:55 17.07.2021
6364 Clouds 39 1006 14 10000 7.6 200 04:46 17.07.2021
6365 Clouds 29 1011 42 10000 4.12 30 14:22 16.07.2021
6366 Clouds 36 1009 22 10000 3.13 200 07:33 16.07.2021
6367 Clouds 39 1010 25 10000 4.47 100 00:41 16.07.2021
6368 Clouds 27 1015 65 10000 1.34 320 13:53 15.07.2021
6369 Thunderstorm 27 1015 64 10000 2.57 50 12:25 15.07.2021
6370 Clouds 34 1011 29 10000 2.68 170 07:27 15.07.2021
6371 Clouds 33 1014 40 10000 3.58 100 19:39 14.07.2021
6372 Clouds 28 1013 53 10000 2.57 100 15:55 14.07.2021
6373 Clouds 28 1014 52 10000 4.47 30 09:52 14.07.2021
6374 Clouds 40 1010 22 10000 4.47 60 23:19 13.07.2021
6375 Clear 36 1010 34 10000 0.89 138 19:57 13.07.2021
6376 Clouds 35 1014 35 10000 1.54 310 19:28 13.07.2021
6377 Clouds 34 1014 37 10000 1.34 0 18:49 13.07.2021
6378 Clouds 34 1014 38 10000 1.34 0 18:31 13.07.2021
6379 Clear 34 1012 43 10000 1.34 98 17:56 13.07.2021
6380 Clouds 30 1011 50 10000 2.06 220 13:21 13.07.2021
6381 Dust 31 1012 46 8047 16.98 40 08:50 13.07.2021
6382 Clouds 41 1010 19 10000 0 0 20:24 12.07.2021
6383 Clouds 35 1010 28 10000 0 0 16:45 12.07.2021
6384 Clouds 34 1009 30 10000 0.45 311 10:56 12.07.2021
6385 Haze 44 1009 17 10000 3.13 140 23:20 11.07.2021
6386 Clouds 40 1011 23 10000 4.47 60 19:54 11.07.2021
6387 Clouds 36 1008 19 10000 2.06 270 11:26 11.07.2021
6388 Clouds 45 1011 12 10000 3.13 50 22:45 10.07.2021
6389 Clouds 36 1009 20 10000 3.13 210 12:20 10.07.2021
6390 Clear 39 1011 16 10000 2.57 330 07:49 10.07.2021
6391 Clouds 45 1009 11 10000 2.06 120 01:23 10.07.2021
6392 Clouds 38 1012 23 10000 0 0 18:20 09.07.2021
6393 Clouds 33 1010 26 10000 3.6 200 14:48 09.07.2021
6394 Clouds 37 1008 19 10000 2.57 240 08:37 09.07.2021
6395 Clouds 44 1008 12 10000 2.24 0 23:49 08.07.2021
6396 Clouds 44 1008 13 10000 4.47 170 22:30 08.07.2021
6397 Clear 38 1004 22 10000 0.45 49 18:56 08.07.2021
6398 Clouds 35 1009 22 10000 0 0 17:37 08.07.2021
6399 Clouds 33 1007 21 10000 4.02 200 13:31 08.07.2021
6400 Clear 33 1006 20 10000 4.02 180 12:41 08.07.2021
6401 Clear 35 1006 17 10000 4.47 190 11:30 08.07.2021
6402 Clear 37 1006 16 10000 2.68 190 09:51 08.07.2021
6403 Clouds 43 1004 11 10000 2.68 90 04:42 08.07.2021
6404 Clouds 45 1006 9 10000 3.13 110 00:34 08.07.2021
6405 Clouds 44 1008 10 10000 3.58 100 22:27 07.07.2021
6406 Clouds 43 1008 11 10000 2.68 90 21:55 07.07.2021
6407 Clouds 43 1008 11 10000 2.68 90 21:37 07.07.2021
6408 Clouds 43 1008 11 10000 2.57 90 21:18 07.07.2021
6409 Clouds 40 1009 13 10000 0 0 19:55 07.07.2021
6410 Clouds 39 1009 14 10000 0 0 19:27 07.07.2021
6411 Clouds 34 1009 20 10000 0 0 16:52 07.07.2021
6412 Clouds 31 1008 23 10000 2.24 250 15:26 07.07.2021
6413 Clouds 33 1007 18 10000 3.13 210 12:24 07.07.2021
6414 Clear 37 1007 14 10000 1.34 200 07:45 07.07.2021
6415 Clouds 38 1005 15 10000 1.34 266 05:58 07.07.2021
6416 Clouds 40 1006 13 10000 2.06 170 05:30 07.07.2021
6417 Clear 41 1009 13 10000 0.45 259 20:57 06.07.2021
6418 Clouds 38 1012 13 10000 0 0 19:29 06.07.2021
6419 Clouds 37 1012 13 10000 0 0 18:45 06.07.2021
6420 Clouds 36 1012 14 10000 0 0 18:23 06.07.2021
6421 Clouds 32 1011 16 10000 5.36 200 13:45 06.07.2021
6422 Clear 34 1010 14 10000 2.24 210 10:28 06.07.2021
6423 Clear 34 1010 14 10000 2.24 210 10:28 06.07.2021
6424 Clear 34 1009 14 10000 3.58 200 09:41 06.07.2021
6425 Clear 35 1009 14 10000 3.13 240 08:32 06.07.2021
6426 Clouds 40 1008 11 10000 2.24 160 04:50 06.07.2021
6427 Clouds 42 1010 9 10000 2.24 0 00:26 06.07.2021
6428 Clouds 41 1007 12 10000 1.79 126 21:59 05.07.2021
6429 Clouds 35 1013 15 10000 1.34 300 17:41 05.07.2021
6430 Clouds 31 1011 16 10000 3.09 200 14:29 05.07.2021
6431 Clouds 36 1009 15 10000 2.24 220 06:28 05.07.2021
6432 Clouds 37 1009 14 10000 3.09 230 05:43 05.07.2021
6433 Clouds 39 1009 13 10000 2.24 0 04:25 05.07.2021
6434 Clouds 38 1011 15 10000 3.58 50 23:18 04.07.2021
6435 Clouds 34 1013 22 10000 0 0 18:51 04.07.2021
6436 Clouds 31 1012 27 10000 4.47 10 16:23 04.07.2021
6437 Clouds 31 1011 24 10000 1.34 180 11:50 04.07.2021
6438 Clouds 32 1011 24 10000 1.54 190 09:24 04.07.2021
6439 Clouds 40 1011 14 10000 7.6 270 23:32 03.07.2021
6440 Clouds 40 1011 14 10000 5.81 190 22:39 03.07.2021
6441 Clouds 31 1011 17 10000 3.6 190 14:26 03.07.2021
6442 Clouds 32 1010 15 10000 2.68 200 12:38 03.07.2021
6443 Clouds 34 1010 13 10000 3.13 210 09:29 03.07.2021
6444 Clouds 34 1010 13 10000 3.13 200 08:46 03.07.2021
6445 Clouds 41 1007 9 10000 0 0 03:21 03.07.2021
6446 Clear 30 1011 13 10000 3.58 230 12:51 02.07.2021
6447 Clear 34 1009 13 10000 3.13 230 07:41 02.07.2021
6448 Clear 34 1009 13 10000 3.13 230 07:41 02.07.2021
6449 Clouds 38 1008 9 10000 5.36 270 04:49 02.07.2021
6450 Clouds 39 1011 13 10000 4.02 120 22:38 01.07.2021
6451 Clouds 38 1012 19 10000 3.13 50 21:53 01.07.2021
6452 Clouds 37 1012 21 10000 3.13 50 21:20 01.07.2021
6453 Clouds 34 1013 30 10000 1.34 0 19:21 01.07.2021
6454 Clear 34 1012 33 10000 0.45 308 18:59 01.07.2021
6455 Clouds 31 1013 36 10000 0 0 17:52 01.07.2021
6456 Clouds 30 1013 38 10000 0 0 17:18 01.07.2021
6457 Clouds 26 1012 48 10000 0 0 15:26 01.07.2021
6458 Clouds 25 1012 50 10000 0 0 14:23 01.07.2021
6459 Clear 27 1011 46 10000 3.6 80 10:56 01.07.2021
6460 Clear 30 1011 39 10000 0.45 90 06:56 01.07.2021
6461 Clouds 31 1014 38 10000 2.06 0 23:23 30.06.2021
6462 Clouds 30 1015 41 10000 1.34 100 22:20 30.06.2021
6463 Clouds 30 1016 41 10000 3.13 70 21:22 30.06.2021
6464 Clouds 29 1016 43 10000 0 0 20:27 30.06.2021
6465 Clouds 26 1016 51 10000 1.34 190 18:54 30.06.2021
6466 Clouds 23 1013 61 10000 3.58 90 14:26 30.06.2021
6467 Clouds 24 1012 56 10000 4.02 100 13:23 30.06.2021
6468 Clouds 25 1016 60 10000 7.6 40 08:18 30.06.2021
6469 Clouds 39 1009 18 10000 1.34 190 21:29 29.06.2021
6470 Clouds 36 1009 16 10000 4.47 70 18:36 29.06.2021
6471 Clouds 35 1009 17 10000 3.13 50 17:43 29.06.2021
6472 Clouds 32 1008 21 10000 1.34 330 16:36 29.06.2021
6473 Clouds 30 1008 23 10000 1.54 190 15:38 29.06.2021
6474 Clouds 30 1007 21 10000 2.57 250 13:31 29.06.2021
6475 Clouds 31 1008 20 10000 2.24 250 12:43 29.06.2021
6476 Clouds 40 1007 11 10000 3.13 30 00:41 29.06.2021
6477 Clouds 38 1009 13 10000 5.81 70 21:47 28.06.2021
6478 Clouds 37 1010 14 10000 6.26 60 19:48 28.06.2021
6479 Clouds 35 1010 15 10000 7.15 50 17:29 28.06.2021
6480 Clouds 31 1009 19 10000 4.63 40 15:22 28.06.2021
6481 Clear 32 1003 17 10000 0.45 76 12:58 28.06.2021
6482 Clear 34 1005 16 10000 0 0 07:50 28.06.2021
6483 Clouds 41 1007 13 10000 4.47 60 23:45 27.06.2021
6484 Clouds 39 1009 14 10000 5.36 20 21:33 27.06.2021
6485 Clouds 38 1010 15 10000 5.81 50 19:40 27.06.2021
6486 Clouds 34 1010 19 10000 4.02 80 16:50 27.06.2021
6487 Clouds 32 1008 21 10000 4.02 10 13:25 27.06.2021
6488 Clouds 34 1007 18 10000 0 0 07:38 27.06.2021
6489 Clouds 40 1008 12 10000 1.34 60 22:58 26.06.2021
6490 Clear 40 1008 13 10000 0.89 69 20:59 26.06.2021
6491 Clouds 38 1010 11 10000 3.13 0 20:40 26.06.2021
6492 Clouds 36 1010 13 10000 4.12 60 19:25 26.06.2021
6493 Clouds 27 1010 18 10000 0 0 15:22 26.06.2021
6494 Clear 28 1009 16 10000 2.68 210 12:28 26.06.2021
6495 Clouds 31 1010 14 10000 2.24 210 09:29 26.06.2021
6496 Clouds 37 1007 10 10000 1.34 200 04:35 26.06.2021
6497 Clouds 35 1012 20 10000 2.24 0 20:50 25.06.2021
6498 Clouds 33 1012 22 10000 1.34 50 19:43 25.06.2021
6499 Clear 30 1013 28 10000 2.24 180 17:52 25.06.2021
6500 Clouds 27 1012 31 10000 2.24 210 16:50 25.06.2021
6501 Clear 23 1011 40 10000 0.45 292 14:59 25.06.2021
6502 Clear 25 1011 39 10000 2.24 220 11:46 25.06.2021
6503 Clouds 27 1011 38 10000 1.54 140 08:48 25.06.2021
6504 Clouds 28 1011 36 10000 3.6 270 07:20 25.06.2021
6505 Clouds 34 1011 23 10000 4.63 90 03:49 25.06.2021
6506 Rain 33 1013 29 10000 9.77 180 22:41 24.06.2021
6507 Clouds 35 1013 25 10000 3.13 40 21:41 24.06.2021
6508 Clouds 34 1014 25 10000 2.68 100 20:41 24.06.2021
6509 Clouds 31 1015 28 10000 1.34 0 18:47 24.06.2021
6510 Clouds 26 1014 35 10000 2.68 0 16:30 24.06.2021
6511 Clouds 25 1014 36 10000 0 0 15:22 24.06.2021
6512 Clouds 24 1014 31 10000 2.06 280 14:48 24.06.2021
6513 Clouds 25 1013 34 10000 2.57 180 11:26 24.06.2021
6514 Clouds 27 1013 31 10000 2.57 170 09:34 24.06.2021
6515 Clouds 28 1013 29 10000 3.09 200 08:23 24.06.2021
6516 Clouds 31 1013 27 10000 1.54 180 03:32 24.06.2021
6517 Clouds 31 1014 24 10000 8.94 270 23:28 23.06.2021
6518 Clouds 32 1013 25 10000 6.26 290 21:46 23.06.2021
6519 Clouds 32 1013 23 10000 3.6 250 20:47 23.06.2021
6520 Clouds 32 1013 20 10000 4.47 270 18:38 23.06.2021
6521 Clouds 32 1012 22 10000 3.13 270 17:38 23.06.2021
6522 Clouds 32 1012 20 10000 6.71 240 16:34 23.06.2021
6523 Clouds 32 1010 13 10000 3.6 220 13:22 23.06.2021
6524 Clouds 31 1007 17 10000 3.37 237 11:59 23.06.2021
6525 Clouds 32 1011 16 10000 5.14 240 09:55 23.06.2021
6526 Clouds 34 1010 11 10000 5.81 240 08:49 23.06.2021
6527 Clouds 34 1009 12 10000 5.81 230 07:52 23.06.2021
6528 Clouds 34 1008 13 10000 3.58 258 06:58 23.06.2021
6529 Clouds 37 1008 11 10000 5.36 220 04:25 23.06.2021
6530 Clouds 40 1009 9 10000 7.6 220 00:44 23.06.2021
6531 Clouds 39 1008 10 10000 0.45 199 23:56 22.06.2021
6532 Clouds 39 1010 9 10000 6.71 250 22:46 22.06.2021
6533 Clouds 39 1010 9 10000 6.71 250 22:22 22.06.2021
6534 Clouds 37 1010 9 10000 7.15 280 21:37 22.06.2021
6535 Clouds 36 1011 10 10000 5.81 230 19:43 22.06.2021
6536 Clouds 35 1011 13 10000 1.34 0 18:54 22.06.2021
6537 Clouds 35 1011 13 10000 1.34 0 18:24 22.06.2021
6538 Clouds 33 1011 14 10000 4.47 180 17:21 22.06.2021
6539 Clouds 32 1010 14 10000 4.02 190 16:30 22.06.2021
6540 Clouds 32 1010 14 10000 4.02 190 16:30 22.06.2021
6541 Clouds 29 1011 16 10000 2.57 90 14:36 22.06.2021
6542 Clouds 30 1011 13 10000 0 0 13:48 22.06.2021
6543 Clouds 30 1011 13 10000 0 0 13:48 22.06.2021
6544 Clouds 32 1010 11 10000 4.63 230 12:35 22.06.2021
6545 Clouds 31 1008 18 10000 3.95 218 10:58 22.06.2021
6546 Clear 33 1010 11 10000 8.23 220 09:21 22.06.2021
6547 Clear 36 1009 10 10000 10.73 220 06:37 22.06.2021
6548 Clear 42 1008 7 10000 7.15 240 00:42 22.06.2021
6549 Clear 41 1006 9 10000 3.58 280 22:59 21.06.2021
6550 Clear 40 1010 8 10000 4.02 190 21:48 21.06.2021
6551 Clear 39 1010 9 10000 5.36 180 20:53 21.06.2021
6552 Clear 39 1010 9 10000 5.36 180 20:28 21.06.2021
6553 Clear 38 1010 10 10000 4.02 190 19:50 21.06.2021
6554 Clouds 35 1010 12 10000 5.36 200 18:30 21.06.2021
6555 Clear 33 1008 15 10000 0.45 218 16:56 21.06.2021
6556 Clouds 32 1009 14 10000 6.26 190 16:38 21.06.2021
6557 Clouds 32 1009 14 10000 6.26 190 16:38 21.06.2021
6558 Clouds 32 1009 14 10000 6.26 190 16:19 21.06.2021
6559 Clouds 30 1008 16 10000 4.12 190 15:29 21.06.2021
6560 Clear 31 1008 13 10000 4.63 170 13:52 21.06.2021
6561 Clear 31 1007 15 10000 4.63 170 13:21 21.06.2021
6562 Clear 32 1006 14 10000 5.66 200 12:35 21.06.2021
6563 Clear 34 1008 12 10000 4.12 200 10:55 21.06.2021
6564 Clear 34 1007 12 10000 4.12 200 10:23 21.06.2021
6565 Clear 36 1007 10 10000 6.17 230 08:47 21.06.2021
6566 Clear 36 1007 11 10000 6.17 230 08:19 21.06.2021
6567 Clear 38 1005 10 10000 5.81 210 06:24 21.06.2021
6568 Clear 45 998 8 10000 2.68 181 23:57 20.06.2021
6569 Clouds 45 1004 6 10000 5.81 190 23:34 20.06.2021
6570 Clouds 44 1005 7 10000 4.02 220 22:55 20.06.2021
6571 Clouds 44 1005 8 10000 4.02 200 21:48 20.06.2021
6572 Clouds 43 1006 9 10000 4.02 160 20:28 20.06.2021
6573 Clouds 42 1006 9 10000 3.13 160 19:39 20.06.2021
6574 Clouds 40 1006 11 10000 5.36 180 18:52 20.06.2021
6575 Clouds 38 1006 12 10000 4.02 200 17:45 20.06.2021
6576 Clouds 36 1006 14 10000 3.13 190 16:45 20.06.2021
6577 Clouds 34 1005 15 10000 2.68 200 15:38 20.06.2021
6578 Clouds 33 1005 16 10000 2.68 200 15:19 20.06.2021
6579 Clouds 33 1005 15 10000 2.68 200 14:38 20.06.2021
6580 Clear 34 1004 14 10000 1.34 210 13:29 20.06.2021
6581 Clear 35 1004 14 10000 0 0 12:20 20.06.2021
6582 Clear 36 1004 15 10000 2.24 220 11:43 20.06.2021
6583 Clouds 37 1004 14 10000 6.26 260 09:50 20.06.2021
6584 Clear 37 1002 15 10000 0.45 238 08:59 20.06.2021
6585 Clear 37 1002 15 10000 0.45 238 08:59 20.06.2021
6586 Clouds 42 1002 10 10000 5.81 300 04:32 20.06.2021
6587 Clouds 44 1004 9 10000 3.13 270 23:35 19.06.2021
6588 Clouds 44 1004 10 10000 2.68 190 22:52 19.06.2021
6589 Clouds 43 1005 11 10000 2.68 90 21:49 19.06.2021
6590 Clouds 43 1005 11 10000 2.68 90 21:49 19.06.2021
6591 Clouds 42 1006 11 10000 2.24 70 20:40 19.06.2021
6592 Clouds 39 1006 14 10000 1.34 130 18:48 19.06.2021
6593 Clouds 37 1008 16 10000 3.13 220 17:55 19.06.2021
6594 Clouds 36 1007 18 10000 3.13 220 17:22 19.06.2021
6595 Clouds 34 1006 18 10000 3.13 310 15:55 19.06.2021
6596 Clouds 31 1007 15 10000 1.54 320 14:21 19.06.2021
6597 Clouds 33 1005 17 10000 2.68 230 12:47 19.06.2021
6598 Clouds 33 1005 17 10000 0 0 11:53 19.06.2021
6599 Clouds 34 1006 16 10000 3.09 240 10:42 19.06.2021
6600 Clouds 35 1006 15 10000 3.09 240 10:22 19.06.2021
6601 Clouds 35 1006 16 10000 6.17 310 08:57 19.06.2021
6602 Clouds 38 1005 13 10000 3.6 330 07:44 19.06.2021
6603 Clouds 40 1005 12 10000 5.14 340 05:55 19.06.2021
6604 Clouds 45 1004 8 10000 5.36 260 01:27 19.06.2021
6605 Clouds 45 1004 10 10000 3.13 280 00:18 19.06.2021
6606 Clouds 45 1005 9 10000 0 0 23:26 18.06.2021
6607 Clouds 44 1005 9 10000 2.24 260 22:49 18.06.2021
6608 Clouds 44 1006 8 10000 2.24 260 22:18 18.06.2021
6609 Clouds 44 1006 8 10000 4.02 320 21:29 18.06.2021
6610 Clouds 43 1007 9 10000 3.58 340 20:41 18.06.2021
6611 Clouds 41 1007 11 10000 3.13 10 19:25 18.06.2021
6612 Haze 39 1008 14 10000 3.13 10 18:21 18.06.2021
6613 Clouds 37 1008 16 10000 2.68 110 17:20 18.06.2021
6614 Clear 35 1006 17 10000 6.69 360 15:58 18.06.2021
6615 Clouds 32 1007 19 10000 2.24 290 15:18 18.06.2021
6616 Clouds 32 1006 20 10000 2.06 190 14:32 18.06.2021
6617 Clouds 32 1006 19 10000 2.57 190 13:32 18.06.2021
6618 Clouds 33 1005 18 10000 0 0 12:44 18.06.2021
6619 Clouds 33 1004 17 10000 0.45 93 11:57 18.06.2021
6620 Clouds 35 1005 14 10000 2.57 230 11:25 18.06.2021
6621 Clouds 36 1007 13 10000 4.02 270 10:52 18.06.2021
6622 Clouds 36 1006 14 10000 4.02 270 10:21 18.06.2021
6623 Clouds 35 1006 14 10000 3.13 230 09:40 18.06.2021
6624 Clouds 36 1006 13 10000 3.13 210 08:44 18.06.2021
6625 Clouds 36 1006 14 10000 2.06 230 07:52 18.06.2021
6626 Clouds 36 1006 14 10000 2.06 230 07:21 18.06.2021
6627 Clouds 45 1006 8 10000 6.26 70 00:48 18.06.2021
6628 Clouds 45 1007 8 10000 2.24 10 23:41 17.06.2021
6629 Clouds 44 1008 9 10000 4.02 100 22:49 17.06.2021
6630 Clouds 44 1008 9 10000 4.12 100 22:23 17.06.2021
6631 Clouds 43 1009 10 10000 2.68 330 21:38 17.06.2021
6632 Clouds 43 1008 12 10000 0.45 132 20:56 17.06.2021
6633 Clouds 41 1010 11 10000 3.13 50 20:24 17.06.2021
6634 Clouds 40 1010 13 10000 4.02 70 19:46 17.06.2021
6635 Clouds 38 1011 13 10000 3.58 40 18:40 17.06.2021
6636 Clouds 36 1010 13 10000 0 0 17:43 17.06.2021
6637 Clouds 36 1011 15 10000 0 0 17:19 17.06.2021
6638 Clouds 34 1009 15 10000 0 0 16:25 17.06.2021
6639 Clouds 33 1008 17 10000 0.45 5 14:58 17.06.2021
6640 Clouds 33 1007 17 10000 0.89 0 13:59 17.06.2021
6641 Clouds 33 1009 14 10000 3.13 160 12:50 17.06.2021
6642 Clouds 33 1007 14 10000 3.13 160 12:23 17.06.2021
6643 Clear 33 1006 17 10000 0.45 276 10:57 17.06.2021
6644 Clouds 34 1008 15 10000 1.54 230 10:35 17.06.2021
6645 Clear 33 1007 17 10000 0 0 09:57 17.06.2021
6646 Clouds 35 1008 14 10000 2.06 210 09:35 17.06.2021
6647 Clouds 36 1008 11 10000 0 0 08:21 17.06.2021
6648 Clouds 39 1007 10 10000 3.09 230 06:55 17.06.2021
6649 Clouds 43 1007 7 10000 2.24 110 04:20 17.06.2021
6650 Clouds 45 1010 6 10000 2.24 90 23:50 16.06.2021
6651